<?xml version="1.0" encoding="UTF-8" standalone="no" ?>
<gpx xmlns="http://www.topografix.com/GPX/1/1" xmlns:xsi="http://www.w3.org/2001/XMLSchema-instance" xsi:schemaLocation="http://www.topografix.com/GPX/1/1 http://www.topografix.com/GPX/1/1/gpx.xsd" version="1.1" creator="VisuGPX - https://www.visugpx.com">
  <metadata>
    <name>TransVercors VTT 2022  109 km sur TraceDeTrail.fr</name>
  </metadata>
  <trk>
    <name><![CDATA[TransVercors VTT 2022  109 km sur TraceDeTrail.fr]]></name>
    <trkseg>
      <trkpt lat="45.06076" lon="5.524">
        <ele>1137</ele>
        <time>2000-01-01T01:20:39.000Z</time>
      </trkpt>
      <trkpt lat="45.06093" lon="5.52412">
        <ele>1137</ele>
        <time>2000-01-01T01:20:49.000Z</time>
      </trkpt>
      <trkpt lat="45.06113" lon="5.52416">
        <ele>1136</ele>
        <time>2000-01-01T01:20:59.000Z</time>
      </trkpt>
      <trkpt lat="45.06155" lon="5.52421">
        <ele>1136</ele>
        <time>2000-01-01T01:21:09.000Z</time>
      </trkpt>
      <trkpt lat="45.06175" lon="5.52424">
        <ele>1135</ele>
        <time>2000-01-01T01:21:19.000Z</time>
      </trkpt>
      <trkpt lat="45.0619" lon="5.52432">
        <ele>1135</ele>
        <time>2000-01-01T01:21:29.000Z</time>
      </trkpt>
      <trkpt lat="45.06224" lon="5.5246">
        <ele>1136</ele>
        <time>2000-01-01T01:21:39.000Z</time>
      </trkpt>
      <trkpt lat="45.06248" lon="5.52471">
        <ele>1136</ele>
        <time>2000-01-01T01:21:49.000Z</time>
      </trkpt>
      <trkpt lat="45.06274" lon="5.52483">
        <ele>1138</ele>
        <time>2000-01-01T01:21:59.000Z</time>
      </trkpt>
      <trkpt lat="45.06314" lon="5.5248">
        <ele>1138</ele>
        <time>2000-01-01T01:22:09.000Z</time>
      </trkpt>
      <trkpt lat="45.0635" lon="5.52466">
        <ele>1138</ele>
        <time>2000-01-01T01:22:19.000Z</time>
      </trkpt>
      <trkpt lat="45.06385" lon="5.5245">
        <ele>1138</ele>
        <time>2000-01-01T01:22:29.000Z</time>
      </trkpt>
      <trkpt lat="45.06413" lon="5.52444">
        <ele>1138</ele>
        <time>2000-01-01T01:22:39.000Z</time>
      </trkpt>
      <trkpt lat="45.06454" lon="5.52436">
        <ele>1136</ele>
        <time>2000-01-01T01:22:49.000Z</time>
      </trkpt>
      <trkpt lat="45.06482" lon="5.52457">
        <ele>1136</ele>
        <time>2000-01-01T01:22:59.000Z</time>
      </trkpt>
      <trkpt lat="45.06499" lon="5.52499">
        <ele>1136</ele>
        <time>2000-01-01T01:23:09.000Z</time>
      </trkpt>
      <trkpt lat="45.06516" lon="5.5256">
        <ele>1136</ele>
        <time>2000-01-01T01:23:19.000Z</time>
      </trkpt>
      <trkpt lat="45.06536" lon="5.52604">
        <ele>1136</ele>
        <time>2000-01-01T01:23:29.000Z</time>
      </trkpt>
      <trkpt lat="45.06556" lon="5.52648">
        <ele>1136</ele>
        <time>2000-01-01T01:23:39.000Z</time>
      </trkpt>
      <trkpt lat="45.06579" lon="5.52691">
        <ele>1136</ele>
        <time>2000-01-01T01:23:49.000Z</time>
      </trkpt>
      <trkpt lat="45.06592" lon="5.52721">
        <ele>1136</ele>
        <time>2000-01-01T01:23:59.000Z</time>
      </trkpt>
      <trkpt lat="45.06605" lon="5.52753">
        <ele>1136</ele>
        <time>2000-01-01T01:24:09.000Z</time>
      </trkpt>
      <trkpt lat="45.0661" lon="5.52776">
        <ele>1136</ele>
        <time>2000-01-01T01:24:19.000Z</time>
      </trkpt>
      <trkpt lat="45.06611" lon="5.52798">
        <ele>1134</ele>
        <time>2000-01-01T01:24:29.000Z</time>
      </trkpt>
      <trkpt lat="45.06609" lon="5.52827">
        <ele>1134</ele>
        <time>2000-01-01T01:24:39.000Z</time>
      </trkpt>
      <trkpt lat="45.06605" lon="5.52876">
        <ele>1131</ele>
        <time>2000-01-01T01:24:49.000Z</time>
      </trkpt>
      <trkpt lat="45.06601" lon="5.52925">
        <ele>1128</ele>
        <time>2000-01-01T01:24:59.000Z</time>
      </trkpt>
      <trkpt lat="45.06598" lon="5.52962">
        <ele>1128</ele>
        <time>2000-01-01T01:25:09.000Z</time>
      </trkpt>
      <trkpt lat="45.06595" lon="5.53008">
        <ele>1129</ele>
        <time>2000-01-01T01:25:19.000Z</time>
      </trkpt>
      <trkpt lat="45.06591" lon="5.53047">
        <ele>1129</ele>
        <time>2000-01-01T01:25:29.000Z</time>
      </trkpt>
      <trkpt lat="45.06585" lon="5.53104">
        <ele>1127</ele>
        <time>2000-01-01T01:25:39.000Z</time>
      </trkpt>
      <trkpt lat="45.06581" lon="5.53121">
        <ele>1124</ele>
        <time>2000-01-01T01:25:49.000Z</time>
      </trkpt>
      <trkpt lat="45.06572" lon="5.53152">
        <ele>1124</ele>
        <time>2000-01-01T01:25:59.000Z</time>
      </trkpt>
      <trkpt lat="45.06568" lon="5.53163">
        <ele>1124</ele>
        <time>2000-01-01T01:26:09.000Z</time>
      </trkpt>
      <trkpt lat="45.06555" lon="5.53193">
        <ele>1125</ele>
        <time>2000-01-01T01:26:19.000Z</time>
      </trkpt>
      <trkpt lat="45.06549" lon="5.5321">
        <ele>1127</ele>
        <time>2000-01-01T01:26:29.000Z</time>
      </trkpt>
      <trkpt lat="45.06548" lon="5.53222">
        <ele>1130</ele>
        <time>2000-01-01T01:26:39.000Z</time>
      </trkpt>
      <trkpt lat="45.06549" lon="5.53234">
        <ele>1132</ele>
        <time>2000-01-01T01:26:49.000Z</time>
      </trkpt>
      <trkpt lat="45.0656" lon="5.53252">
        <ele>1134</ele>
        <time>2000-01-01T01:26:59.000Z</time>
      </trkpt>
      <trkpt lat="45.06578" lon="5.53263">
        <ele>1133</ele>
        <time>2000-01-01T01:27:09.000Z</time>
      </trkpt>
      <trkpt lat="45.06592" lon="5.53268">
        <ele>1133</ele>
        <time>2000-01-01T01:27:19.000Z</time>
      </trkpt>
      <trkpt lat="45.0662" lon="5.53277">
        <ele>1134</ele>
        <time>2000-01-01T01:27:29.000Z</time>
      </trkpt>
      <trkpt lat="45.06663" lon="5.53291">
        <ele>1136</ele>
        <time>2000-01-01T01:27:39.000Z</time>
      </trkpt>
      <trkpt lat="45.06673" lon="5.53318">
        <ele>1139</ele>
        <time>2000-01-01T01:27:49.000Z</time>
      </trkpt>
      <trkpt lat="45.0665" lon="5.53328">
        <ele>1141</ele>
        <time>2000-01-01T01:27:59.000Z</time>
      </trkpt>
      <trkpt lat="45.06627" lon="5.53339">
        <ele>1142</ele>
        <time>2000-01-01T01:28:09.000Z</time>
      </trkpt>
      <trkpt lat="45.06595" lon="5.53354">
        <ele>1144</ele>
        <time>2000-01-01T01:28:19.000Z</time>
      </trkpt>
      <trkpt lat="45.06581" lon="5.53366">
        <ele>1144</ele>
        <time>2000-01-01T01:28:29.000Z</time>
      </trkpt>
      <trkpt lat="45.06584" lon="5.53373">
        <ele>1141.8</ele>
        <time>2000-01-01T01:28:39.000Z</time>
      </trkpt>
      <trkpt lat="45.06567" lon="5.53376">
        <ele>1145</ele>
        <time>2000-01-01T01:28:49.000Z</time>
      </trkpt>
      <trkpt lat="45.06533" lon="5.53363">
        <ele>1148</ele>
        <time>2000-01-01T01:28:59.000Z</time>
      </trkpt>
      <trkpt lat="45.06503" lon="5.53349">
        <ele>1149</ele>
        <time>2000-01-01T01:29:09.000Z</time>
      </trkpt>
      <trkpt lat="45.0648" lon="5.53336">
        <ele>1150</ele>
        <time>2000-01-01T01:29:19.000Z</time>
      </trkpt>
      <trkpt lat="45.06456" lon="5.53322">
        <ele>1152</ele>
        <time>2000-01-01T01:29:29.000Z</time>
      </trkpt>
      <trkpt lat="45.06417" lon="5.53315">
        <ele>1155</ele>
        <time>2000-01-01T01:29:39.000Z</time>
      </trkpt>
      <trkpt lat="45.06383" lon="5.53316">
        <ele>1158</ele>
        <time>2000-01-01T01:29:49.000Z</time>
      </trkpt>
      <trkpt lat="45.06347" lon="5.5331">
        <ele>1161</ele>
        <time>2000-01-01T01:29:59.000Z</time>
      </trkpt>
      <trkpt lat="45.06312" lon="5.53313">
        <ele>1163</ele>
        <time>2000-01-01T01:30:09.000Z</time>
      </trkpt>
      <trkpt lat="45.06303" lon="5.53284">
        <ele>1165</ele>
        <time>2000-01-01T01:30:19.000Z</time>
      </trkpt>
      <trkpt lat="45.06293" lon="5.5326">
        <ele>1166</ele>
        <time>2000-01-01T01:30:29.000Z</time>
      </trkpt>
      <trkpt lat="45.06287" lon="5.53247">
        <ele>1165</ele>
        <time>2000-01-01T01:30:39.000Z</time>
      </trkpt>
      <trkpt lat="45.06297" lon="5.53194">
        <ele>1164</ele>
        <time>2000-01-01T01:30:49.000Z</time>
      </trkpt>
      <trkpt lat="45.06299" lon="5.53165">
        <ele>1164</ele>
        <time>2000-01-01T01:30:59.000Z</time>
      </trkpt>
      <trkpt lat="45.06297" lon="5.53142">
        <ele>1165</ele>
        <time>2000-01-01T01:31:09.000Z</time>
      </trkpt>
      <trkpt lat="45.06297" lon="5.53118">
        <ele>1165</ele>
        <time>2000-01-01T01:31:19.000Z</time>
      </trkpt>
      <trkpt lat="45.06287" lon="5.53074">
        <ele>1168</ele>
        <time>2000-01-01T01:31:29.000Z</time>
      </trkpt>
      <trkpt lat="45.06267" lon="5.5305">
        <ele>1173</ele>
        <time>2000-01-01T01:31:39.000Z</time>
      </trkpt>
      <trkpt lat="45.06244" lon="5.53021">
        <ele>1177</ele>
        <time>2000-01-01T01:31:49.000Z</time>
      </trkpt>
      <trkpt lat="45.06221" lon="5.52998">
        <ele>1183</ele>
        <time>2000-01-01T01:31:59.000Z</time>
      </trkpt>
      <trkpt lat="45.06189" lon="5.52965">
        <ele>1188</ele>
        <time>2000-01-01T01:32:09.000Z</time>
      </trkpt>
      <trkpt lat="45.06165" lon="5.52916">
        <ele>1191</ele>
        <time>2000-01-01T01:32:19.000Z</time>
      </trkpt>
      <trkpt lat="45.06153" lon="5.52889">
        <ele>1191</ele>
        <time>2000-01-01T01:32:29.000Z</time>
      </trkpt>
      <trkpt lat="45.06152" lon="5.52863">
        <ele>1191</ele>
        <time>2000-01-01T01:32:39.000Z</time>
      </trkpt>
      <trkpt lat="45.06129" lon="5.52849">
        <ele>1193</ele>
        <time>2000-01-01T01:32:49.000Z</time>
      </trkpt>
      <trkpt lat="45.06104" lon="5.52834">
        <ele>1196</ele>
        <time>2000-01-01T01:32:59.000Z</time>
      </trkpt>
      <trkpt lat="45.06074" lon="5.52815">
        <ele>1199</ele>
        <time>2000-01-01T01:33:09.000Z</time>
      </trkpt>
      <trkpt lat="45.06045" lon="5.528">
        <ele>1199</ele>
        <time>2000-01-01T01:33:19.000Z</time>
      </trkpt>
      <trkpt lat="45.06021" lon="5.52794">
        <ele>1198</ele>
        <time>2000-01-01T01:33:29.000Z</time>
      </trkpt>
      <trkpt lat="45.05988" lon="5.52787">
        <ele>1197</ele>
        <time>2000-01-01T01:33:39.000Z</time>
      </trkpt>
      <trkpt lat="45.05969" lon="5.5278">
        <ele>1197</ele>
        <time>2000-01-01T01:33:49.000Z</time>
      </trkpt>
      <trkpt lat="45.05958" lon="5.52773">
        <ele>1197</ele>
        <time>2000-01-01T01:33:59.000Z</time>
      </trkpt>
      <trkpt lat="45.05948" lon="5.52762">
        <ele>1197</ele>
        <time>2000-01-01T01:34:09.000Z</time>
      </trkpt>
      <trkpt lat="45.05929" lon="5.52742">
        <ele>1199</ele>
        <time>2000-01-01T01:34:19.000Z</time>
      </trkpt>
      <trkpt lat="45.05914" lon="5.5273">
        <ele>1199</ele>
        <time>2000-01-01T01:34:29.000Z</time>
      </trkpt>
      <trkpt lat="45.059" lon="5.52724">
        <ele>1201</ele>
        <time>2000-01-01T01:34:39.000Z</time>
      </trkpt>
      <trkpt lat="45.05866" lon="5.52718">
        <ele>1201</ele>
        <time>2000-01-01T01:34:49.000Z</time>
      </trkpt>
      <trkpt lat="45.05843" lon="5.52717">
        <ele>1200</ele>
        <time>2000-01-01T01:34:59.000Z</time>
      </trkpt>
      <trkpt lat="45.05818" lon="5.52716">
        <ele>1200</ele>
        <time>2000-01-01T01:35:09.000Z</time>
      </trkpt>
      <trkpt lat="45.05791" lon="5.52715">
        <ele>1201</ele>
        <time>2000-01-01T01:35:19.000Z</time>
      </trkpt>
      <trkpt lat="45.05777" lon="5.5271">
        <ele>1203</ele>
        <time>2000-01-01T01:35:29.000Z</time>
      </trkpt>
      <trkpt lat="45.05742" lon="5.52688">
        <ele>1205</ele>
        <time>2000-01-01T01:35:39.000Z</time>
      </trkpt>
      <trkpt lat="45.05721" lon="5.52682">
        <ele>1207</ele>
        <time>2000-01-01T01:35:49.000Z</time>
      </trkpt>
      <trkpt lat="45.05679" lon="5.52689">
        <ele>1211</ele>
        <time>2000-01-01T01:35:59.000Z</time>
      </trkpt>
      <trkpt lat="45.05645" lon="5.52698">
        <ele>1211</ele>
        <time>2000-01-01T01:36:09.000Z</time>
      </trkpt>
      <trkpt lat="45.05621" lon="5.52712">
        <ele>1211</ele>
        <time>2000-01-01T01:36:19.000Z</time>
      </trkpt>
      <trkpt lat="45.05607" lon="5.52717">
        <ele>1212</ele>
        <time>2000-01-01T01:36:29.000Z</time>
      </trkpt>
      <trkpt lat="45.05587" lon="5.52718">
        <ele>1212</ele>
        <time>2000-01-01T01:36:39.000Z</time>
      </trkpt>
      <trkpt lat="45.05569" lon="5.52715">
        <ele>1213</ele>
        <time>2000-01-01T01:36:49.000Z</time>
      </trkpt>
      <trkpt lat="45.05547" lon="5.52699">
        <ele>1214</ele>
        <time>2000-01-01T01:36:59.000Z</time>
      </trkpt>
      <trkpt lat="45.05532" lon="5.52674">
        <ele>1214</ele>
        <time>2000-01-01T01:37:09.000Z</time>
      </trkpt>
      <trkpt lat="45.05521" lon="5.52664">
        <ele>1214</ele>
        <time>2000-01-01T01:37:19.000Z</time>
      </trkpt>
      <trkpt lat="45.05483" lon="5.5265">
        <ele>1217</ele>
        <time>2000-01-01T01:37:29.000Z</time>
      </trkpt>
      <trkpt lat="45.05457" lon="5.52648">
        <ele>1222</ele>
        <time>2000-01-01T01:37:39.000Z</time>
      </trkpt>
      <trkpt lat="45.05427" lon="5.52646">
        <ele>1225</ele>
        <time>2000-01-01T01:37:49.000Z</time>
      </trkpt>
      <trkpt lat="45.05414" lon="5.52643">
        <ele>1226</ele>
        <time>2000-01-01T01:37:59.000Z</time>
      </trkpt>
      <trkpt lat="45.05381" lon="5.52621">
        <ele>1228</ele>
        <time>2000-01-01T01:38:09.000Z</time>
      </trkpt>
      <trkpt lat="45.0536" lon="5.52603">
        <ele>1229</ele>
        <time>2000-01-01T01:38:19.000Z</time>
      </trkpt>
      <trkpt lat="45.05338" lon="5.52584">
        <ele>1230</ele>
        <time>2000-01-01T01:38:29.000Z</time>
      </trkpt>
      <trkpt lat="45.05315" lon="5.52562">
        <ele>1231</ele>
        <time>2000-01-01T01:38:39.000Z</time>
      </trkpt>
      <trkpt lat="45.05292" lon="5.52536">
        <ele>1231</ele>
        <time>2000-01-01T01:38:49.000Z</time>
      </trkpt>
      <trkpt lat="45.05256" lon="5.52493">
        <ele>1232</ele>
        <time>2000-01-01T01:38:59.000Z</time>
      </trkpt>
      <trkpt lat="45.05234" lon="5.52468">
        <ele>1234</ele>
        <time>2000-01-01T01:39:09.000Z</time>
      </trkpt>
      <trkpt lat="45.05219" lon="5.52452">
        <ele>1236</ele>
        <time>2000-01-01T01:39:19.000Z</time>
      </trkpt>
      <trkpt lat="45.05199" lon="5.5243">
        <ele>1238</ele>
        <time>2000-01-01T01:39:29.000Z</time>
      </trkpt>
      <trkpt lat="45.05178" lon="5.52408">
        <ele>1240</ele>
        <time>2000-01-01T01:39:39.000Z</time>
      </trkpt>
      <trkpt lat="45.05139" lon="5.52391">
        <ele>1240</ele>
        <time>2000-01-01T01:39:49.000Z</time>
      </trkpt>
      <trkpt lat="45.0513" lon="5.5239">
        <ele>1240</ele>
        <time>2000-01-01T01:39:59.000Z</time>
      </trkpt>
      <trkpt lat="45.05131" lon="5.52382">
        <ele>1240.7</ele>
        <time>2000-01-01T01:40:09.000Z</time>
      </trkpt>
      <trkpt lat="45.05133" lon="5.52358">
        <ele>1240</ele>
        <time>2000-01-01T01:40:19.000Z</time>
      </trkpt>
      <trkpt lat="45.05134" lon="5.52333">
        <ele>1240</ele>
        <time>2000-01-01T01:40:29.000Z</time>
      </trkpt>
      <trkpt lat="45.05137" lon="5.52303">
        <ele>1240</ele>
        <time>2000-01-01T01:40:39.000Z</time>
      </trkpt>
      <trkpt lat="45.05133" lon="5.52274">
        <ele>1240</ele>
        <time>2000-01-01T01:40:49.000Z</time>
      </trkpt>
      <trkpt lat="45.05137" lon="5.52242">
        <ele>1241</ele>
        <time>2000-01-01T01:40:59.000Z</time>
      </trkpt>
      <trkpt lat="45.05135" lon="5.52209">
        <ele>1241</ele>
        <time>2000-01-01T01:41:09.000Z</time>
      </trkpt>
      <trkpt lat="45.05115" lon="5.52159">
        <ele>1240</ele>
        <time>2000-01-01T01:41:19.000Z</time>
      </trkpt>
      <trkpt lat="45.05098" lon="5.52115">
        <ele>1236</ele>
        <time>2000-01-01T01:41:29.000Z</time>
      </trkpt>
      <trkpt lat="45.05085" lon="5.52084">
        <ele>1233</ele>
        <time>2000-01-01T01:41:39.000Z</time>
      </trkpt>
      <trkpt lat="45.05071" lon="5.52049">
        <ele>1230</ele>
        <time>2000-01-01T01:41:49.000Z</time>
      </trkpt>
      <trkpt lat="45.05054" lon="5.52031">
        <ele>1227</ele>
        <time>2000-01-01T01:41:59.000Z</time>
      </trkpt>
      <trkpt lat="45.05025" lon="5.52022">
        <ele>1227</ele>
        <time>2000-01-01T01:42:09.000Z</time>
      </trkpt>
      <trkpt lat="45.04988" lon="5.52025">
        <ele>1227</ele>
        <time>2000-01-01T01:42:19.000Z</time>
      </trkpt>
      <trkpt lat="45.04964" lon="5.52035">
        <ele>1231</ele>
        <time>2000-01-01T01:42:29.000Z</time>
      </trkpt>
      <trkpt lat="45.04947" lon="5.52046">
        <ele>1233</ele>
        <time>2000-01-01T01:42:39.000Z</time>
      </trkpt>
      <trkpt lat="45.04922" lon="5.52061">
        <ele>1238</ele>
        <time>2000-01-01T01:42:49.000Z</time>
      </trkpt>
      <trkpt lat="45.04892" lon="5.52079">
        <ele>1239</ele>
        <time>2000-01-01T01:42:59.000Z</time>
      </trkpt>
      <trkpt lat="45.04871" lon="5.52106">
        <ele>1241</ele>
        <time>2000-01-01T01:43:09.000Z</time>
      </trkpt>
      <trkpt lat="45.04835" lon="5.5215">
        <ele>1241</ele>
        <time>2000-01-01T01:43:19.000Z</time>
      </trkpt>
      <trkpt lat="45.04826" lon="5.52123">
        <ele>1241</ele>
        <time>2000-01-01T01:43:29.000Z</time>
      </trkpt>
      <trkpt lat="45.04809" lon="5.52105">
        <ele>1239</ele>
        <time>2000-01-01T01:43:39.000Z</time>
      </trkpt>
      <trkpt lat="45.04786" lon="5.52098">
        <ele>1237</ele>
        <time>2000-01-01T01:43:49.000Z</time>
      </trkpt>
      <trkpt lat="45.04762" lon="5.52097">
        <ele>1237</ele>
        <time>2000-01-01T01:43:59.000Z</time>
      </trkpt>
      <trkpt lat="45.04735" lon="5.52122">
        <ele>1238</ele>
        <time>2000-01-01T01:44:09.000Z</time>
      </trkpt>
      <trkpt lat="45.04698" lon="5.5215">
        <ele>1238</ele>
        <time>2000-01-01T01:44:19.000Z</time>
      </trkpt>
      <trkpt lat="45.04665" lon="5.52173">
        <ele>1238</ele>
        <time>2000-01-01T01:44:29.000Z</time>
      </trkpt>
      <trkpt lat="45.04633" lon="5.5218">
        <ele>1238</ele>
        <time>2000-01-01T01:44:39.000Z</time>
      </trkpt>
      <trkpt lat="45.04608" lon="5.5218">
        <ele>1238</ele>
        <time>2000-01-01T01:44:49.000Z</time>
      </trkpt>
      <trkpt lat="45.04581" lon="5.52181">
        <ele>1238</ele>
        <time>2000-01-01T01:44:59.000Z</time>
      </trkpt>
      <trkpt lat="45.04591" lon="5.52138">
        <ele>1238</ele>
        <time>2000-01-01T01:45:09.000Z</time>
      </trkpt>
      <trkpt lat="45.04601" lon="5.52096">
        <ele>1237</ele>
        <time>2000-01-01T01:45:19.000Z</time>
      </trkpt>
      <trkpt lat="45.04611" lon="5.52053">
        <ele>1237</ele>
        <time>2000-01-01T01:45:29.000Z</time>
      </trkpt>
      <trkpt lat="45.04609" lon="5.52009">
        <ele>1237</ele>
        <time>2000-01-01T01:45:39.000Z</time>
      </trkpt>
      <trkpt lat="45.04608" lon="5.51971">
        <ele>1237</ele>
        <time>2000-01-01T01:45:49.000Z</time>
      </trkpt>
      <trkpt lat="45.04606" lon="5.51925">
        <ele>1237</ele>
        <time>2000-01-01T01:45:59.000Z</time>
      </trkpt>
      <trkpt lat="45.04591" lon="5.51899">
        <ele>1237</ele>
        <time>2000-01-01T01:46:09.000Z</time>
      </trkpt>
      <trkpt lat="45.0458" lon="5.51861">
        <ele>1236</ele>
        <time>2000-01-01T01:46:19.000Z</time>
      </trkpt>
      <trkpt lat="45.04594" lon="5.51826">
        <ele>1236</ele>
        <time>2000-01-01T01:46:29.000Z</time>
      </trkpt>
      <trkpt lat="45.04614" lon="5.51807">
        <ele>1235</ele>
        <time>2000-01-01T01:46:39.000Z</time>
      </trkpt>
      <trkpt lat="45.04631" lon="5.51779">
        <ele>1233</ele>
        <time>2000-01-01T01:46:49.000Z</time>
      </trkpt>
      <trkpt lat="45.04639" lon="5.51737">
        <ele>1233</ele>
        <time>2000-01-01T01:46:59.000Z</time>
      </trkpt>
      <trkpt lat="45.04672" lon="5.51699">
        <ele>1229</ele>
        <time>2000-01-01T01:47:09.000Z</time>
      </trkpt>
      <trkpt lat="45.04681" lon="5.51659">
        <ele>1228</ele>
        <time>2000-01-01T01:47:19.000Z</time>
      </trkpt>
      <trkpt lat="45.04688" lon="5.51626">
        <ele>1227</ele>
        <time>2000-01-01T01:47:29.000Z</time>
      </trkpt>
      <trkpt lat="45.04696" lon="5.51593">
        <ele>1227</ele>
        <time>2000-01-01T01:47:39.000Z</time>
      </trkpt>
      <trkpt lat="45.04689" lon="5.51563">
        <ele>1227</ele>
        <time>2000-01-01T01:47:49.000Z</time>
      </trkpt>
      <trkpt lat="45.04665" lon="5.51536">
        <ele>1228</ele>
        <time>2000-01-01T01:47:59.000Z</time>
      </trkpt>
      <trkpt lat="45.04649" lon="5.51492">
        <ele>1228</ele>
        <time>2000-01-01T01:48:09.000Z</time>
      </trkpt>
      <trkpt lat="45.04652" lon="5.51445">
        <ele>1229</ele>
        <time>2000-01-01T01:48:19.000Z</time>
      </trkpt>
      <trkpt lat="45.04629" lon="5.51435">
        <ele>1232</ele>
        <time>2000-01-01T01:48:29.000Z</time>
      </trkpt>
      <trkpt lat="45.04606" lon="5.51425">
        <ele>1235</ele>
        <time>2000-01-01T01:48:39.000Z</time>
      </trkpt>
      <trkpt lat="45.04563" lon="5.51452">
        <ele>1238</ele>
        <time>2000-01-01T01:48:49.000Z</time>
      </trkpt>
      <trkpt lat="45.04535" lon="5.51444">
        <ele>1243</ele>
        <time>2000-01-01T01:48:59.000Z</time>
      </trkpt>
      <trkpt lat="45.04501" lon="5.51458">
        <ele>1246</ele>
        <time>2000-01-01T01:49:09.000Z</time>
      </trkpt>
      <trkpt lat="45.04475" lon="5.51452">
        <ele>1250</ele>
        <time>2000-01-01T01:49:19.000Z</time>
      </trkpt>
      <trkpt lat="45.04442" lon="5.51444">
        <ele>1254</ele>
        <time>2000-01-01T01:49:29.000Z</time>
      </trkpt>
      <trkpt lat="45.044" lon="5.51414">
        <ele>1264</ele>
        <time>2000-01-01T01:49:39.000Z</time>
      </trkpt>
      <trkpt lat="45.04372" lon="5.51424">
        <ele>1265</ele>
        <time>2000-01-01T01:49:49.000Z</time>
      </trkpt>
      <trkpt lat="45.04328" lon="5.51441">
        <ele>1270</ele>
        <time>2000-01-01T01:49:59.000Z</time>
      </trkpt>
      <trkpt lat="45.04297" lon="5.5144">
        <ele>1272</ele>
        <time>2000-01-01T01:50:09.000Z</time>
      </trkpt>
      <trkpt lat="45.04271" lon="5.51439">
        <ele>1273</ele>
        <time>2000-01-01T01:50:19.000Z</time>
      </trkpt>
      <trkpt lat="45.0424" lon="5.51438">
        <ele>1274</ele>
        <time>2000-01-01T01:50:29.000Z</time>
      </trkpt>
      <trkpt lat="45.0422" lon="5.51404">
        <ele>1275</ele>
        <time>2000-01-01T01:50:39.000Z</time>
      </trkpt>
      <trkpt lat="45.04203" lon="5.51374">
        <ele>1277</ele>
        <time>2000-01-01T01:50:49.000Z</time>
      </trkpt>
      <trkpt lat="45.04181" lon="5.51337">
        <ele>1281</ele>
        <time>2000-01-01T01:50:59.000Z</time>
      </trkpt>
      <trkpt lat="45.04154" lon="5.51306">
        <ele>1286</ele>
        <time>2000-01-01T01:51:09.000Z</time>
      </trkpt>
      <trkpt lat="45.04127" lon="5.51276">
        <ele>1291</ele>
        <time>2000-01-01T01:51:19.000Z</time>
      </trkpt>
      <trkpt lat="45.04107" lon="5.51253">
        <ele>1293</ele>
        <time>2000-01-01T01:51:29.000Z</time>
      </trkpt>
      <trkpt lat="45.04082" lon="5.51225">
        <ele>1296</ele>
        <time>2000-01-01T01:51:39.000Z</time>
      </trkpt>
      <trkpt lat="45.0407" lon="5.51194">
        <ele>1296</ele>
        <time>2000-01-01T01:51:49.000Z</time>
      </trkpt>
      <trkpt lat="45.04056" lon="5.5116">
        <ele>1296</ele>
        <time>2000-01-01T01:51:59.000Z</time>
      </trkpt>
      <trkpt lat="45.04024" lon="5.51171">
        <ele>1294</ele>
        <time>2000-01-01T01:52:09.000Z</time>
      </trkpt>
      <trkpt lat="45.04056" lon="5.51133">
        <ele>1293</ele>
        <time>2000-01-01T01:52:19.000Z</time>
      </trkpt>
      <trkpt lat="45.04057" lon="5.51114">
        <ele>1288</ele>
        <time>2000-01-01T01:52:29.000Z</time>
      </trkpt>
      <trkpt lat="45.04051" lon="5.51098">
        <ele>1283</ele>
        <time>2000-01-01T01:52:39.000Z</time>
      </trkpt>
      <trkpt lat="45.04035" lon="5.51085">
        <ele>1280</ele>
        <time>2000-01-01T01:52:49.000Z</time>
      </trkpt>
      <trkpt lat="45.04011" lon="5.51076">
        <ele>1278</ele>
        <time>2000-01-01T01:52:59.000Z</time>
      </trkpt>
      <trkpt lat="45.03984" lon="5.51067">
        <ele>1275</ele>
        <time>2000-01-01T01:53:09.000Z</time>
      </trkpt>
      <trkpt lat="45.0397" lon="5.51039">
        <ele>1265</ele>
        <time>2000-01-01T01:53:19.000Z</time>
      </trkpt>
      <trkpt lat="45.03979" lon="5.50997">
        <ele>1255</ele>
        <time>2000-01-01T01:53:29.000Z</time>
      </trkpt>
      <trkpt lat="45.03962" lon="5.50989">
        <ele>1252</ele>
        <time>2000-01-01T01:53:39.000Z</time>
      </trkpt>
      <trkpt lat="45.0393" lon="5.50979">
        <ele>1251</ele>
        <time>2000-01-01T01:53:49.000Z</time>
      </trkpt>
      <trkpt lat="45.03901" lon="5.50981">
        <ele>1251</ele>
        <time>2000-01-01T01:53:59.000Z</time>
      </trkpt>
      <trkpt lat="45.03859" lon="5.50985">
        <ele>1248</ele>
        <time>2000-01-01T01:54:09.000Z</time>
      </trkpt>
      <trkpt lat="45.03884" lon="5.5094">
        <ele>1239</ele>
        <time>2000-01-01T01:54:19.000Z</time>
      </trkpt>
      <trkpt lat="45.03884" lon="5.50912">
        <ele>1235</ele>
        <time>2000-01-01T01:54:29.000Z</time>
      </trkpt>
      <trkpt lat="45.0388" lon="5.50894">
        <ele>1233</ele>
        <time>2000-01-01T01:54:39.000Z</time>
      </trkpt>
      <trkpt lat="45.03904" lon="5.50897">
        <ele>1233</ele>
        <time>2000-01-01T01:54:49.000Z</time>
      </trkpt>
      <trkpt lat="45.0388" lon="5.50894">
        <ele>1233</ele>
        <time>2000-01-01T01:54:59.000Z</time>
      </trkpt>
      <trkpt lat="45.03842" lon="5.50888">
        <ele>1233</ele>
        <time>2000-01-01T01:55:09.000Z</time>
      </trkpt>
      <trkpt lat="45.03801" lon="5.50903">
        <ele>1233</ele>
        <time>2000-01-01T01:55:19.000Z</time>
      </trkpt>
      <trkpt lat="45.03783" lon="5.50906">
        <ele>1233</ele>
        <time>2000-01-01T01:55:29.000Z</time>
      </trkpt>
      <trkpt lat="45.03766" lon="5.50899">
        <ele>1232</ele>
        <time>2000-01-01T01:55:39.000Z</time>
      </trkpt>
      <trkpt lat="45.03747" lon="5.50877">
        <ele>1232</ele>
        <time>2000-01-01T01:55:49.000Z</time>
      </trkpt>
      <trkpt lat="45.03722" lon="5.50838">
        <ele>1231</ele>
        <time>2000-01-01T01:55:59.000Z</time>
      </trkpt>
      <trkpt lat="45.037" lon="5.50811">
        <ele>1231</ele>
        <time>2000-01-01T01:56:09.000Z</time>
      </trkpt>
      <trkpt lat="45.03686" lon="5.50803">
        <ele>1231</ele>
        <time>2000-01-01T01:56:19.000Z</time>
      </trkpt>
      <trkpt lat="45.03681" lon="5.50801">
        <ele>1232</ele>
        <time>2000-01-01T01:56:29.000Z</time>
      </trkpt>
      <trkpt lat="45.03673" lon="5.50799">
        <ele>1231</ele>
        <time>2000-01-01T01:56:39.000Z</time>
      </trkpt>
      <trkpt lat="45.03668" lon="5.5075">
        <ele>1232</ele>
        <time>2000-01-01T01:56:49.000Z</time>
      </trkpt>
      <trkpt lat="45.03668" lon="5.507">
        <ele>1236</ele>
        <time>2000-01-01T01:56:59.000Z</time>
      </trkpt>
      <trkpt lat="45.03667" lon="5.50665">
        <ele>1238</ele>
        <time>2000-01-01T01:57:09.000Z</time>
      </trkpt>
      <trkpt lat="45.03667" lon="5.50626">
        <ele>1240</ele>
        <time>2000-01-01T01:57:19.000Z</time>
      </trkpt>
      <trkpt lat="45.03657" lon="5.50592">
        <ele>1242</ele>
        <time>2000-01-01T01:57:29.000Z</time>
      </trkpt>
      <trkpt lat="45.03644" lon="5.5055">
        <ele>1245</ele>
        <time>2000-01-01T01:57:39.000Z</time>
      </trkpt>
      <trkpt lat="45.03635" lon="5.50505">
        <ele>1247</ele>
        <time>2000-01-01T01:57:49.000Z</time>
      </trkpt>
      <trkpt lat="45.03627" lon="5.5046">
        <ele>1248</ele>
        <time>2000-01-01T01:57:59.000Z</time>
      </trkpt>
      <trkpt lat="45.03616" lon="5.50405">
        <ele>1250</ele>
        <time>2000-01-01T01:58:09.000Z</time>
      </trkpt>
      <trkpt lat="45.036" lon="5.50378">
        <ele>1253</ele>
        <time>2000-01-01T01:58:19.000Z</time>
      </trkpt>
      <trkpt lat="45.03582" lon="5.50347">
        <ele>1259</ele>
        <time>2000-01-01T01:58:29.000Z</time>
      </trkpt>
      <trkpt lat="45.03588" lon="5.50302">
        <ele>1268</ele>
        <time>2000-01-01T01:58:39.000Z</time>
      </trkpt>
      <trkpt lat="45.03586" lon="5.50279">
        <ele>1275</ele>
        <time>2000-01-01T01:58:49.000Z</time>
      </trkpt>
      <trkpt lat="45.03567" lon="5.50248">
        <ele>1283</ele>
        <time>2000-01-01T01:58:59.000Z</time>
      </trkpt>
      <trkpt lat="45.03535" lon="5.50226">
        <ele>1284</ele>
        <time>2000-01-01T01:59:09.000Z</time>
      </trkpt>
      <trkpt lat="45.0352" lon="5.50224">
        <ele>1284</ele>
        <time>2000-01-01T01:59:19.000Z</time>
      </trkpt>
      <trkpt lat="45.03503" lon="5.50238">
        <ele>1284</ele>
        <time>2000-01-01T01:59:29.000Z</time>
      </trkpt>
      <trkpt lat="45.0349" lon="5.50231">
        <ele>1287</ele>
        <time>2000-01-01T01:59:39.000Z</time>
      </trkpt>
      <trkpt lat="45.03462" lon="5.5018">
        <ele>1290</ele>
        <time>2000-01-01T01:59:49.000Z</time>
      </trkpt>
      <trkpt lat="45.03443" lon="5.50156">
        <ele>1291</ele>
        <time>2000-01-01T01:59:59.000Z</time>
      </trkpt>
      <trkpt lat="45.03422" lon="5.50129">
        <ele>1293</ele>
        <time>2000-01-01T02:00:09.000Z</time>
      </trkpt>
      <trkpt lat="45.03429" lon="5.50093">
        <ele>1297</ele>
        <time>2000-01-01T02:00:19.000Z</time>
      </trkpt>
      <trkpt lat="45.03439" lon="5.50048">
        <ele>1302</ele>
        <time>2000-01-01T02:00:29.000Z</time>
      </trkpt>
      <trkpt lat="45.03445" lon="5.50032">
        <ele>1303</ele>
        <time>2000-01-01T02:00:39.000Z</time>
      </trkpt>
      <trkpt lat="45.03453" lon="5.50021">
        <ele>1304</ele>
        <time>2000-01-01T02:00:49.000Z</time>
      </trkpt>
      <trkpt lat="45.03465" lon="5.50012">
        <ele>1304</ele>
        <time>2000-01-01T02:00:59.000Z</time>
      </trkpt>
      <trkpt lat="45.03475" lon="5.50002">
        <ele>1304</ele>
        <time>2000-01-01T02:01:09.000Z</time>
      </trkpt>
      <trkpt lat="45.03482" lon="5.4999">
        <ele>1303</ele>
        <time>2000-01-01T02:01:19.000Z</time>
      </trkpt>
      <trkpt lat="45.03486" lon="5.49978">
        <ele>1302</ele>
        <time>2000-01-01T02:01:29.000Z</time>
      </trkpt>
      <trkpt lat="45.0348" lon="5.49937">
        <ele>1297</ele>
        <time>2000-01-01T02:01:39.000Z</time>
      </trkpt>
      <trkpt lat="45.03468" lon="5.49906">
        <ele>1293</ele>
        <time>2000-01-01T02:01:49.000Z</time>
      </trkpt>
      <trkpt lat="45.03454" lon="5.49871">
        <ele>1293</ele>
        <time>2000-01-01T02:01:59.000Z</time>
      </trkpt>
      <trkpt lat="45.03437" lon="5.49843">
        <ele>1294</ele>
        <time>2000-01-01T02:02:09.000Z</time>
      </trkpt>
      <trkpt lat="45.03421" lon="5.49824">
        <ele>1297</ele>
        <time>2000-01-01T02:02:19.000Z</time>
      </trkpt>
      <trkpt lat="45.03413" lon="5.49805">
        <ele>1297</ele>
        <time>2000-01-01T02:02:29.000Z</time>
      </trkpt>
      <trkpt lat="45.03411" lon="5.49783">
        <ele>1298</ele>
        <time>2000-01-01T02:02:39.000Z</time>
      </trkpt>
      <trkpt lat="45.03413" lon="5.49739">
        <ele>1299</ele>
        <time>2000-01-01T02:02:49.000Z</time>
      </trkpt>
      <trkpt lat="45.03425" lon="5.49691">
        <ele>1301</ele>
        <time>2000-01-01T02:02:59.000Z</time>
      </trkpt>
      <trkpt lat="45.03423" lon="5.49671">
        <ele>1304</ele>
        <time>2000-01-01T02:03:09.000Z</time>
      </trkpt>
      <trkpt lat="45.03394" lon="5.49637">
        <ele>1311</ele>
        <time>2000-01-01T02:03:19.000Z</time>
      </trkpt>
      <trkpt lat="45.03379" lon="5.49632">
        <ele>1311</ele>
        <time>2000-01-01T02:03:29.000Z</time>
      </trkpt>
      <trkpt lat="45.03354" lon="5.49642">
        <ele>1311</ele>
        <time>2000-01-01T02:03:39.000Z</time>
      </trkpt>
      <trkpt lat="45.03322" lon="5.49655">
        <ele>1312</ele>
        <time>2000-01-01T02:03:49.000Z</time>
      </trkpt>
      <trkpt lat="45.03309" lon="5.49652">
        <ele>1312</ele>
        <time>2000-01-01T02:03:59.000Z</time>
      </trkpt>
      <trkpt lat="45.03267" lon="5.49626">
        <ele>1314</ele>
        <time>2000-01-01T02:04:09.000Z</time>
      </trkpt>
      <trkpt lat="45.03252" lon="5.49609">
        <ele>1314</ele>
        <time>2000-01-01T02:04:19.000Z</time>
      </trkpt>
      <trkpt lat="45.03224" lon="5.49608">
        <ele>1314</ele>
        <time>2000-01-01T02:04:29.000Z</time>
      </trkpt>
      <trkpt lat="45.03205" lon="5.49609">
        <ele>1313</ele>
        <time>2000-01-01T02:04:39.000Z</time>
      </trkpt>
      <trkpt lat="45.0319" lon="5.49601">
        <ele>1313</ele>
        <time>2000-01-01T02:04:49.000Z</time>
      </trkpt>
      <trkpt lat="45.03179" lon="5.49581">
        <ele>1314</ele>
        <time>2000-01-01T02:04:59.000Z</time>
      </trkpt>
      <trkpt lat="45.03147" lon="5.49539">
        <ele>1323</ele>
        <time>2000-01-01T02:05:09.000Z</time>
      </trkpt>
      <trkpt lat="45.03133" lon="5.49534">
        <ele>1323</ele>
        <time>2000-01-01T02:05:19.000Z</time>
      </trkpt>
      <trkpt lat="45.03118" lon="5.49535">
        <ele>1323</ele>
        <time>2000-01-01T02:05:29.000Z</time>
      </trkpt>
      <trkpt lat="45.03094" lon="5.49541">
        <ele>1320</ele>
        <time>2000-01-01T02:05:39.000Z</time>
      </trkpt>
      <trkpt lat="45.03059" lon="5.49555">
        <ele>1319</ele>
        <time>2000-01-01T02:05:49.000Z</time>
      </trkpt>
      <trkpt lat="45.03021" lon="5.49574">
        <ele>1316</ele>
        <time>2000-01-01T02:05:59.000Z</time>
      </trkpt>
      <trkpt lat="45.03009" lon="5.49576">
        <ele>1316</ele>
        <time>2000-01-01T02:06:09.000Z</time>
      </trkpt>
      <trkpt lat="45.02986" lon="5.49559">
        <ele>1316</ele>
        <time>2000-01-01T02:06:19.000Z</time>
      </trkpt>
      <trkpt lat="45.02971" lon="5.49552">
        <ele>1317</ele>
        <time>2000-01-01T02:06:29.000Z</time>
      </trkpt>
      <trkpt lat="45.02947" lon="5.49551">
        <ele>1317</ele>
        <time>2000-01-01T02:06:39.000Z</time>
      </trkpt>
      <trkpt lat="45.02911" lon="5.49558">
        <ele>1317</ele>
        <time>2000-01-01T02:06:49.000Z</time>
      </trkpt>
      <trkpt lat="45.02885" lon="5.4957">
        <ele>1316</ele>
        <time>2000-01-01T02:06:59.000Z</time>
      </trkpt>
      <trkpt lat="45.02863" lon="5.49591">
        <ele>1314</ele>
        <time>2000-01-01T02:07:09.000Z</time>
      </trkpt>
      <trkpt lat="45.02841" lon="5.49622">
        <ele>1313</ele>
        <time>2000-01-01T02:07:19.000Z</time>
      </trkpt>
      <trkpt lat="45.02812" lon="5.49655">
        <ele>1313</ele>
        <time>2000-01-01T02:07:29.000Z</time>
      </trkpt>
      <trkpt lat="45.02787" lon="5.49663">
        <ele>1313</ele>
        <time>2000-01-01T02:07:39.000Z</time>
      </trkpt>
      <trkpt lat="45.02761" lon="5.49661">
        <ele>1313</ele>
        <time>2000-01-01T02:07:49.000Z</time>
      </trkpt>
      <trkpt lat="45.02731" lon="5.49659">
        <ele>1312</ele>
        <time>2000-01-01T02:07:59.000Z</time>
      </trkpt>
      <trkpt lat="45.027" lon="5.49663">
        <ele>1312</ele>
        <time>2000-01-01T02:08:09.000Z</time>
      </trkpt>
      <trkpt lat="45.02671" lon="5.49682">
        <ele>1313</ele>
        <time>2000-01-01T02:08:19.000Z</time>
      </trkpt>
      <trkpt lat="45.02642" lon="5.49701">
        <ele>1315</ele>
        <time>2000-01-01T02:08:29.000Z</time>
      </trkpt>
      <trkpt lat="45.02612" lon="5.4972">
        <ele>1315</ele>
        <time>2000-01-01T02:08:39.000Z</time>
      </trkpt>
      <trkpt lat="45.02598" lon="5.4972">
        <ele>1315</ele>
        <time>2000-01-01T02:08:49.000Z</time>
      </trkpt>
      <trkpt lat="45.02586" lon="5.49708">
        <ele>1315</ele>
        <time>2000-01-01T02:08:59.000Z</time>
      </trkpt>
      <trkpt lat="45.02585" lon="5.49704">
        <ele>1315.3</ele>
        <time>2000-01-01T02:09:09.000Z</time>
      </trkpt>
      <trkpt lat="45.02583" lon="5.49687">
        <ele>1314</ele>
        <time>2000-01-01T02:09:19.000Z</time>
      </trkpt>
      <trkpt lat="45.02586" lon="5.49651">
        <ele>1314</ele>
        <time>2000-01-01T02:09:29.000Z</time>
      </trkpt>
      <trkpt lat="45.02585" lon="5.49632">
        <ele>1315</ele>
        <time>2000-01-01T02:09:39.000Z</time>
      </trkpt>
      <trkpt lat="45.02579" lon="5.49623">
        <ele>1315</ele>
        <time>2000-01-01T02:09:49.000Z</time>
      </trkpt>
      <trkpt lat="45.02562" lon="5.49617">
        <ele>1316</ele>
        <time>2000-01-01T02:09:59.000Z</time>
      </trkpt>
      <trkpt lat="45.02544" lon="5.49596">
        <ele>1316</ele>
        <time>2000-01-01T02:10:09.000Z</time>
      </trkpt>
      <trkpt lat="45.02528" lon="5.49582">
        <ele>1316</ele>
        <time>2000-01-01T02:10:19.000Z</time>
      </trkpt>
      <trkpt lat="45.02516" lon="5.4958">
        <ele>1316</ele>
        <time>2000-01-01T02:10:29.000Z</time>
      </trkpt>
      <trkpt lat="45.02507" lon="5.49584">
        <ele>1314</ele>
        <time>2000-01-01T02:10:39.000Z</time>
      </trkpt>
      <trkpt lat="45.02488" lon="5.49597">
        <ele>1313</ele>
        <time>2000-01-01T02:10:49.000Z</time>
      </trkpt>
      <trkpt lat="45.0248" lon="5.49594">
        <ele>1314</ele>
        <time>2000-01-01T02:10:59.000Z</time>
      </trkpt>
      <trkpt lat="45.02461" lon="5.49568">
        <ele>1315</ele>
        <time>2000-01-01T02:11:09.000Z</time>
      </trkpt>
      <trkpt lat="45.02437" lon="5.49537">
        <ele>1319</ele>
        <time>2000-01-01T02:11:19.000Z</time>
      </trkpt>
      <trkpt lat="45.02404" lon="5.49498">
        <ele>1327</ele>
        <time>2000-01-01T02:11:29.000Z</time>
      </trkpt>
      <trkpt lat="45.02393" lon="5.49494">
        <ele>1328</ele>
        <time>2000-01-01T02:11:39.000Z</time>
      </trkpt>
      <trkpt lat="45.02381" lon="5.49495">
        <ele>1328</ele>
        <time>2000-01-01T02:11:49.000Z</time>
      </trkpt>
      <trkpt lat="45.0237" lon="5.49501">
        <ele>1326</ele>
        <time>2000-01-01T02:11:59.000Z</time>
      </trkpt>
      <trkpt lat="45.02359" lon="5.49512">
        <ele>1324</ele>
        <time>2000-01-01T02:12:09.000Z</time>
      </trkpt>
      <trkpt lat="45.02334" lon="5.49521">
        <ele>1323</ele>
        <time>2000-01-01T02:12:19.000Z</time>
      </trkpt>
      <trkpt lat="45.02304" lon="5.49531">
        <ele>1323</ele>
        <time>2000-01-01T02:12:29.000Z</time>
      </trkpt>
      <trkpt lat="45.02259" lon="5.49541">
        <ele>1323</ele>
        <time>2000-01-01T02:12:39.000Z</time>
      </trkpt>
      <trkpt lat="45.02233" lon="5.4955">
        <ele>1321</ele>
        <time>2000-01-01T02:12:49.000Z</time>
      </trkpt>
      <trkpt lat="45.02198" lon="5.49563">
        <ele>1318</ele>
        <time>2000-01-01T02:12:59.000Z</time>
      </trkpt>
      <trkpt lat="45.02183" lon="5.49565">
        <ele>1317</ele>
        <time>2000-01-01T02:13:09.000Z</time>
      </trkpt>
      <trkpt lat="45.02162" lon="5.49561">
        <ele>1317</ele>
        <time>2000-01-01T02:13:19.000Z</time>
      </trkpt>
      <trkpt lat="45.02145" lon="5.4956">
        <ele>1317</ele>
        <time>2000-01-01T02:13:29.000Z</time>
      </trkpt>
      <trkpt lat="45.02121" lon="5.49575">
        <ele>1314</ele>
        <time>2000-01-01T02:13:39.000Z</time>
      </trkpt>
      <trkpt lat="45.02093" lon="5.49593">
        <ele>1314</ele>
        <time>2000-01-01T02:13:49.000Z</time>
      </trkpt>
      <trkpt lat="45.02072" lon="5.49596">
        <ele>1314</ele>
        <time>2000-01-01T02:13:59.000Z</time>
      </trkpt>
      <trkpt lat="45.02027" lon="5.49589">
        <ele>1320</ele>
        <time>2000-01-01T02:14:09.000Z</time>
      </trkpt>
      <trkpt lat="45.02004" lon="5.49578">
        <ele>1322</ele>
        <time>2000-01-01T02:14:19.000Z</time>
      </trkpt>
      <trkpt lat="45.01981" lon="5.49568">
        <ele>1325</ele>
        <time>2000-01-01T02:14:29.000Z</time>
      </trkpt>
      <trkpt lat="45.01957" lon="5.49563">
        <ele>1326</ele>
        <time>2000-01-01T02:14:39.000Z</time>
      </trkpt>
      <trkpt lat="45.01932" lon="5.49558">
        <ele>1328</ele>
        <time>2000-01-01T02:14:49.000Z</time>
      </trkpt>
      <trkpt lat="45.01906" lon="5.4955">
        <ele>1330</ele>
        <time>2000-01-01T02:14:59.000Z</time>
      </trkpt>
      <trkpt lat="45.01877" lon="5.49551">
        <ele>1330</ele>
        <time>2000-01-01T02:15:09.000Z</time>
      </trkpt>
      <trkpt lat="45.01852" lon="5.49557">
        <ele>1331</ele>
        <time>2000-01-01T02:15:19.000Z</time>
      </trkpt>
      <trkpt lat="45.01839" lon="5.49555">
        <ele>1332</ele>
        <time>2000-01-01T02:15:29.000Z</time>
      </trkpt>
      <trkpt lat="45.01807" lon="5.49548">
        <ele>1334</ele>
        <time>2000-01-01T02:15:39.000Z</time>
      </trkpt>
      <trkpt lat="45.01769" lon="5.49526">
        <ele>1337</ele>
        <time>2000-01-01T02:15:49.000Z</time>
      </trkpt>
      <trkpt lat="45.01723" lon="5.49522">
        <ele>1339</ele>
        <time>2000-01-01T02:15:59.000Z</time>
      </trkpt>
      <trkpt lat="45.01685" lon="5.49523">
        <ele>1341</ele>
        <time>2000-01-01T02:16:09.000Z</time>
      </trkpt>
      <trkpt lat="45.0167" lon="5.49515">
        <ele>1342</ele>
        <time>2000-01-01T02:16:19.000Z</time>
      </trkpt>
      <trkpt lat="45.01658" lon="5.49513">
        <ele>1343</ele>
        <time>2000-01-01T02:16:29.000Z</time>
      </trkpt>
      <trkpt lat="45.0165" lon="5.49517">
        <ele>1343</ele>
        <time>2000-01-01T02:16:39.000Z</time>
      </trkpt>
      <trkpt lat="45.01635" lon="5.4955">
        <ele>1340</ele>
        <time>2000-01-01T02:16:49.000Z</time>
      </trkpt>
      <trkpt lat="45.01613" lon="5.49598">
        <ele>1339</ele>
        <time>2000-01-01T02:16:59.000Z</time>
      </trkpt>
      <trkpt lat="45.01602" lon="5.49611">
        <ele>1339</ele>
        <time>2000-01-01T02:17:09.000Z</time>
      </trkpt>
      <trkpt lat="45.01582" lon="5.49627">
        <ele>1339</ele>
        <time>2000-01-01T02:17:19.000Z</time>
      </trkpt>
      <trkpt lat="45.01569" lon="5.49633">
        <ele>1339</ele>
        <time>2000-01-01T02:17:29.000Z</time>
      </trkpt>
      <trkpt lat="45.01558" lon="5.49633">
        <ele>1339</ele>
        <time>2000-01-01T02:17:39.000Z</time>
      </trkpt>
      <trkpt lat="45.01516" lon="5.49652">
        <ele>1337</ele>
        <time>2000-01-01T02:17:49.000Z</time>
      </trkpt>
      <trkpt lat="45.01484" lon="5.49658">
        <ele>1336</ele>
        <time>2000-01-01T02:17:59.000Z</time>
      </trkpt>
      <trkpt lat="45.01467" lon="5.49669">
        <ele>1335</ele>
        <time>2000-01-01T02:18:09.000Z</time>
      </trkpt>
      <trkpt lat="45.0143" lon="5.497">
        <ele>1335</ele>
        <time>2000-01-01T02:18:19.000Z</time>
      </trkpt>
      <trkpt lat="45.01419" lon="5.49713">
        <ele>1335</ele>
        <time>2000-01-01T02:18:29.000Z</time>
      </trkpt>
      <trkpt lat="45.01395" lon="5.49729">
        <ele>1335</ele>
        <time>2000-01-01T02:18:39.000Z</time>
      </trkpt>
      <trkpt lat="45.01365" lon="5.49748">
        <ele>1335</ele>
        <time>2000-01-01T02:18:49.000Z</time>
      </trkpt>
      <trkpt lat="45.01328" lon="5.49714">
        <ele>1334</ele>
        <time>2000-01-01T02:18:59.000Z</time>
      </trkpt>
      <trkpt lat="45.01341" lon="5.49682">
        <ele>1334</ele>
        <time>2000-01-01T02:19:09.000Z</time>
      </trkpt>
      <trkpt lat="45.01358" lon="5.49641">
        <ele>1339</ele>
        <time>2000-01-01T02:19:19.000Z</time>
      </trkpt>
      <trkpt lat="45.01371" lon="5.49607">
        <ele>1343</ele>
        <time>2000-01-01T02:19:29.000Z</time>
      </trkpt>
      <trkpt lat="45.0139" lon="5.49559">
        <ele>1349</ele>
        <time>2000-01-01T02:19:39.000Z</time>
      </trkpt>
      <trkpt lat="45.01402" lon="5.49524">
        <ele>1352</ele>
        <time>2000-01-01T02:19:49.000Z</time>
      </trkpt>
      <trkpt lat="45.0142" lon="5.49474">
        <ele>1358</ele>
        <time>2000-01-01T02:19:59.000Z</time>
      </trkpt>
      <trkpt lat="45.01448" lon="5.49448">
        <ele>1361</ele>
        <time>2000-01-01T02:20:09.000Z</time>
      </trkpt>
      <trkpt lat="45.01477" lon="5.49422">
        <ele>1361</ele>
        <time>2000-01-01T02:20:19.000Z</time>
      </trkpt>
      <trkpt lat="45.01497" lon="5.49403">
        <ele>1363</ele>
        <time>2000-01-01T02:20:29.000Z</time>
      </trkpt>
      <trkpt lat="45.01519" lon="5.49383">
        <ele>1366</ele>
        <time>2000-01-01T02:20:39.000Z</time>
      </trkpt>
      <trkpt lat="45.01546" lon="5.49344">
        <ele>1372</ele>
        <time>2000-01-01T02:20:49.000Z</time>
      </trkpt>
      <trkpt lat="45.01573" lon="5.49305">
        <ele>1378</ele>
        <time>2000-01-01T02:20:59.000Z</time>
      </trkpt>
      <trkpt lat="45.016" lon="5.49265">
        <ele>1386</ele>
        <time>2000-01-01T02:21:09.000Z</time>
      </trkpt>
      <trkpt lat="45.01627" lon="5.49226">
        <ele>1392</ele>
        <time>2000-01-01T02:21:19.000Z</time>
      </trkpt>
      <trkpt lat="45.01644" lon="5.49201">
        <ele>1395</ele>
        <time>2000-01-01T02:21:29.000Z</time>
      </trkpt>
      <trkpt lat="45.01663" lon="5.49174">
        <ele>1398</ele>
        <time>2000-01-01T02:21:39.000Z</time>
      </trkpt>
      <trkpt lat="45.0169" lon="5.49155">
        <ele>1399</ele>
        <time>2000-01-01T02:21:49.000Z</time>
      </trkpt>
      <trkpt lat="45.01713" lon="5.49139">
        <ele>1401</ele>
        <time>2000-01-01T02:21:59.000Z</time>
      </trkpt>
      <trkpt lat="45.01738" lon="5.49122">
        <ele>1403</ele>
        <time>2000-01-01T02:22:09.000Z</time>
      </trkpt>
      <trkpt lat="45.01731" lon="5.4908">
        <ele>1407</ele>
        <time>2000-01-01T02:22:19.000Z</time>
      </trkpt>
      <trkpt lat="45.0175" lon="5.49039">
        <ele>1409</ele>
        <time>2000-01-01T02:22:29.000Z</time>
      </trkpt>
      <trkpt lat="45.01769" lon="5.48998">
        <ele>1413</ele>
        <time>2000-01-01T02:22:39.000Z</time>
      </trkpt>
      <trkpt lat="45.01783" lon="5.48967">
        <ele>1416</ele>
        <time>2000-01-01T02:22:49.000Z</time>
      </trkpt>
      <trkpt lat="45.018" lon="5.48931">
        <ele>1416</ele>
        <time>2000-01-01T02:22:59.000Z</time>
      </trkpt>
      <trkpt lat="45.01774" lon="5.48901">
        <ele>1416</ele>
        <time>2000-01-01T02:23:09.000Z</time>
      </trkpt>
      <trkpt lat="45.01798" lon="5.48893">
        <ele>1419</ele>
        <time>2000-01-01T02:23:19.000Z</time>
      </trkpt>
      <trkpt lat="45.01822" lon="5.48885">
        <ele>1423</ele>
        <time>2000-01-01T02:23:29.000Z</time>
      </trkpt>
      <trkpt lat="45.01845" lon="5.48884">
        <ele>1425</ele>
        <time>2000-01-01T02:23:39.000Z</time>
      </trkpt>
      <trkpt lat="45.01871" lon="5.4887">
        <ele>1427</ele>
        <time>2000-01-01T02:23:49.000Z</time>
      </trkpt>
      <trkpt lat="45.01895" lon="5.48866">
        <ele>1429</ele>
        <time>2000-01-01T02:23:59.000Z</time>
      </trkpt>
      <trkpt lat="45.01923" lon="5.48866">
        <ele>1431</ele>
        <time>2000-01-01T02:24:09.000Z</time>
      </trkpt>
      <trkpt lat="45.01944" lon="5.48851">
        <ele>1432</ele>
        <time>2000-01-01T02:24:19.000Z</time>
      </trkpt>
      <trkpt lat="45.01969" lon="5.48847">
        <ele>1434</ele>
        <time>2000-01-01T02:24:29.000Z</time>
      </trkpt>
      <trkpt lat="45.01993" lon="5.48848">
        <ele>1439</ele>
        <time>2000-01-01T02:24:39.000Z</time>
      </trkpt>
      <trkpt lat="45.02019" lon="5.48849">
        <ele>1443</ele>
        <time>2000-01-01T02:24:49.000Z</time>
      </trkpt>
      <trkpt lat="45.02057" lon="5.48845">
        <ele>1448</ele>
        <time>2000-01-01T02:24:59.000Z</time>
      </trkpt>
      <trkpt lat="45.0207" lon="5.48827">
        <ele>1450</ele>
        <time>2000-01-01T02:25:09.000Z</time>
      </trkpt>
      <trkpt lat="45.02083" lon="5.48798">
        <ele>1452</ele>
        <time>2000-01-01T02:25:19.000Z</time>
      </trkpt>
      <trkpt lat="45.02089" lon="5.48792">
        <ele>1452</ele>
        <time>2000-01-01T02:25:29.000Z</time>
      </trkpt>
      <trkpt lat="45.02101" lon="5.48787">
        <ele>1452</ele>
        <time>2000-01-01T02:25:39.000Z</time>
      </trkpt>
      <trkpt lat="45.02111" lon="5.48793">
        <ele>1451</ele>
        <time>2000-01-01T02:25:49.000Z</time>
      </trkpt>
      <trkpt lat="45.02135" lon="5.48828">
        <ele>1450</ele>
        <time>2000-01-01T02:25:59.000Z</time>
      </trkpt>
      <trkpt lat="45.02151" lon="5.48833">
        <ele>1448</ele>
        <time>2000-01-01T02:26:09.000Z</time>
      </trkpt>
      <trkpt lat="45.02168" lon="5.48834">
        <ele>1447</ele>
        <time>2000-01-01T02:26:19.000Z</time>
      </trkpt>
      <trkpt lat="45.02194" lon="5.48831">
        <ele>1445</ele>
        <time>2000-01-01T02:26:29.000Z</time>
      </trkpt>
      <trkpt lat="45.02226" lon="5.48828">
        <ele>1445</ele>
        <time>2000-01-01T02:26:39.000Z</time>
      </trkpt>
      <trkpt lat="45.02235" lon="5.48834">
        <ele>1443</ele>
        <time>2000-01-01T02:26:49.000Z</time>
      </trkpt>
      <trkpt lat="45.02244" lon="5.48845">
        <ele>1441</ele>
        <time>2000-01-01T02:26:59.000Z</time>
      </trkpt>
      <trkpt lat="45.02267" lon="5.48883">
        <ele>1435</ele>
        <time>2000-01-01T02:27:09.000Z</time>
      </trkpt>
      <trkpt lat="45.02273" lon="5.48898">
        <ele>1435</ele>
        <time>2000-01-01T02:27:19.000Z</time>
      </trkpt>
      <trkpt lat="45.02281" lon="5.48939">
        <ele>1432</ele>
        <time>2000-01-01T02:27:29.000Z</time>
      </trkpt>
      <trkpt lat="45.02294" lon="5.49011">
        <ele>1430</ele>
        <time>2000-01-01T02:27:39.000Z</time>
      </trkpt>
      <trkpt lat="45.02296" lon="5.49038">
        <ele>1430</ele>
        <time>2000-01-01T02:27:49.000Z</time>
      </trkpt>
      <trkpt lat="45.02294" lon="5.49078">
        <ele>1429</ele>
        <time>2000-01-01T02:27:59.000Z</time>
      </trkpt>
      <trkpt lat="45.02297" lon="5.49087">
        <ele>1428</ele>
        <time>2000-01-01T02:28:09.000Z</time>
      </trkpt>
      <trkpt lat="45.02307" lon="5.49102">
        <ele>1425</ele>
        <time>2000-01-01T02:28:19.000Z</time>
      </trkpt>
      <trkpt lat="45.02325" lon="5.49123">
        <ele>1420</ele>
        <time>2000-01-01T02:28:29.000Z</time>
      </trkpt>
      <trkpt lat="45.0236" lon="5.49147">
        <ele>1414</ele>
        <time>2000-01-01T02:28:39.000Z</time>
      </trkpt>
      <trkpt lat="45.02387" lon="5.49147">
        <ele>1411</ele>
        <time>2000-01-01T02:28:49.000Z</time>
      </trkpt>
      <trkpt lat="45.02424" lon="5.49147">
        <ele>1408</ele>
        <time>2000-01-01T02:28:59.000Z</time>
      </trkpt>
      <trkpt lat="45.02442" lon="5.49145">
        <ele>1406</ele>
        <time>2000-01-01T02:29:09.000Z</time>
      </trkpt>
      <trkpt lat="45.02451" lon="5.49141">
        <ele>1405</ele>
        <time>2000-01-01T02:29:19.000Z</time>
      </trkpt>
      <trkpt lat="45.02482" lon="5.49122">
        <ele>1405</ele>
        <time>2000-01-01T02:29:29.000Z</time>
      </trkpt>
      <trkpt lat="45.02509" lon="5.49109">
        <ele>1405</ele>
        <time>2000-01-01T02:29:39.000Z</time>
      </trkpt>
      <trkpt lat="45.02515" lon="5.49103">
        <ele>1406</ele>
        <time>2000-01-01T02:29:49.000Z</time>
      </trkpt>
      <trkpt lat="45.02518" lon="5.49098">
        <ele>1407.2</ele>
        <time>2000-01-01T02:29:59.000Z</time>
      </trkpt>
      <trkpt lat="45.02528" lon="5.49069">
        <ele>1411</ele>
        <time>2000-01-01T02:30:09.000Z</time>
      </trkpt>
      <trkpt lat="45.02536" lon="5.49052">
        <ele>1411</ele>
        <time>2000-01-01T02:30:19.000Z</time>
      </trkpt>
      <trkpt lat="45.02552" lon="5.49037">
        <ele>1411</ele>
        <time>2000-01-01T02:30:29.000Z</time>
      </trkpt>
      <trkpt lat="45.02575" lon="5.49028">
        <ele>1411</ele>
        <time>2000-01-01T02:30:39.000Z</time>
      </trkpt>
      <trkpt lat="45.02601" lon="5.49029">
        <ele>1412</ele>
        <time>2000-01-01T02:30:49.000Z</time>
      </trkpt>
      <trkpt lat="45.02597" lon="5.4899">
        <ele>1412</ele>
        <time>2000-01-01T02:30:59.000Z</time>
      </trkpt>
      <trkpt lat="45.02586" lon="5.48978">
        <ele>1412</ele>
        <time>2000-01-01T02:31:09.000Z</time>
      </trkpt>
      <trkpt lat="45.02585" lon="5.48958">
        <ele>1413</ele>
        <time>2000-01-01T02:31:19.000Z</time>
      </trkpt>
      <trkpt lat="45.02581" lon="5.48943">
        <ele>1414</ele>
        <time>2000-01-01T02:31:29.000Z</time>
      </trkpt>
      <trkpt lat="45.0257" lon="5.48925">
        <ele>1417</ele>
        <time>2000-01-01T02:31:39.000Z</time>
      </trkpt>
      <trkpt lat="45.02572" lon="5.48885">
        <ele>1420</ele>
        <time>2000-01-01T02:31:49.000Z</time>
      </trkpt>
      <trkpt lat="45.02551" lon="5.48844">
        <ele>1427</ele>
        <time>2000-01-01T02:31:59.000Z</time>
      </trkpt>
      <trkpt lat="45.0257" lon="5.48793">
        <ele>1431</ele>
        <time>2000-01-01T02:32:09.000Z</time>
      </trkpt>
      <trkpt lat="45.02557" lon="5.48737">
        <ele>1439</ele>
        <time>2000-01-01T02:32:19.000Z</time>
      </trkpt>
      <trkpt lat="45.02557" lon="5.48688">
        <ele>1444</ele>
        <time>2000-01-01T02:32:29.000Z</time>
      </trkpt>
      <trkpt lat="45.02563" lon="5.48627">
        <ele>1445</ele>
        <time>2000-01-01T02:32:39.000Z</time>
      </trkpt>
      <trkpt lat="45.02562" lon="5.48601">
        <ele>1446</ele>
        <time>2000-01-01T02:32:49.000Z</time>
      </trkpt>
      <trkpt lat="45.02564" lon="5.48592">
        <ele>1446</ele>
        <time>2000-01-01T02:32:59.000Z</time>
      </trkpt>
      <trkpt lat="45.02562" lon="5.48601">
        <ele>1446</ele>
        <time>2000-01-01T02:33:09.000Z</time>
      </trkpt>
      <trkpt lat="45.02564" lon="5.4859">
        <ele>1446</ele>
        <time>2000-01-01T02:33:19.000Z</time>
      </trkpt>
      <trkpt lat="45.02566" lon="5.48548">
        <ele>1448</ele>
        <time>2000-01-01T02:33:29.000Z</time>
      </trkpt>
      <trkpt lat="45.0257" lon="5.48479">
        <ele>1447</ele>
        <time>2000-01-01T02:33:39.000Z</time>
      </trkpt>
      <trkpt lat="45.02582" lon="5.4844">
        <ele>1446</ele>
        <time>2000-01-01T02:33:49.000Z</time>
      </trkpt>
      <trkpt lat="45.0259" lon="5.48409">
        <ele>1441</ele>
        <time>2000-01-01T02:33:59.000Z</time>
      </trkpt>
      <trkpt lat="45.02592" lon="5.48381">
        <ele>1437</ele>
        <time>2000-01-01T02:34:09.000Z</time>
      </trkpt>
      <trkpt lat="45.02587" lon="5.48346">
        <ele>1431</ele>
        <time>2000-01-01T02:34:19.000Z</time>
      </trkpt>
      <trkpt lat="45.02584" lon="5.48329">
        <ele>1428</ele>
        <time>2000-01-01T02:34:29.000Z</time>
      </trkpt>
      <trkpt lat="45.02592" lon="5.48307">
        <ele>1425</ele>
        <time>2000-01-01T02:34:39.000Z</time>
      </trkpt>
      <trkpt lat="45.02627" lon="5.48272">
        <ele>1417</ele>
        <time>2000-01-01T02:34:49.000Z</time>
      </trkpt>
      <trkpt lat="45.02612" lon="5.48249">
        <ele>1406</ele>
        <time>2000-01-01T02:34:59.000Z</time>
      </trkpt>
      <trkpt lat="45.02605" lon="5.48237">
        <ele>1402</ele>
        <time>2000-01-01T02:35:09.000Z</time>
      </trkpt>
      <trkpt lat="45.02595" lon="5.48226">
        <ele>1399</ele>
        <time>2000-01-01T02:35:19.000Z</time>
      </trkpt>
      <trkpt lat="45.02601" lon="5.48188">
        <ele>1383</ele>
        <time>2000-01-01T02:35:29.000Z</time>
      </trkpt>
      <trkpt lat="45.0261" lon="5.48136">
        <ele>1361</ele>
        <time>2000-01-01T02:35:39.000Z</time>
      </trkpt>
      <trkpt lat="45.02613" lon="5.48093">
        <ele>1341</ele>
        <time>2000-01-01T02:35:49.000Z</time>
      </trkpt>
      <trkpt lat="45.02616" lon="5.48058">
        <ele>1322</ele>
        <time>2000-01-01T02:35:59.000Z</time>
      </trkpt>
      <trkpt lat="45.02619" lon="5.48018">
        <ele>1308</ele>
        <time>2000-01-01T02:36:09.000Z</time>
      </trkpt>
      <trkpt lat="45.02605" lon="5.47975">
        <ele>1298</ele>
        <time>2000-01-01T02:36:19.000Z</time>
      </trkpt>
      <trkpt lat="45.02591" lon="5.47932">
        <ele>1290</ele>
        <time>2000-01-01T02:36:29.000Z</time>
      </trkpt>
      <trkpt lat="45.02572" lon="5.47875">
        <ele>1282</ele>
        <time>2000-01-01T02:36:39.000Z</time>
      </trkpt>
      <trkpt lat="45.02556" lon="5.47843">
        <ele>1279</ele>
        <time>2000-01-01T02:36:49.000Z</time>
      </trkpt>
      <trkpt lat="45.02533" lon="5.47797">
        <ele>1276</ele>
        <time>2000-01-01T02:36:59.000Z</time>
      </trkpt>
      <trkpt lat="45.025" lon="5.47768">
        <ele>1276</ele>
        <time>2000-01-01T02:37:09.000Z</time>
      </trkpt>
      <trkpt lat="45.02467" lon="5.4774">
        <ele>1276</ele>
        <time>2000-01-01T02:37:19.000Z</time>
      </trkpt>
      <trkpt lat="45.02433" lon="5.47711">
        <ele>1276</ele>
        <time>2000-01-01T02:37:29.000Z</time>
      </trkpt>
      <trkpt lat="45.024" lon="5.47682">
        <ele>1276</ele>
        <time>2000-01-01T02:37:39.000Z</time>
      </trkpt>
      <trkpt lat="45.02378" lon="5.47663">
        <ele>1277</ele>
        <time>2000-01-01T02:37:49.000Z</time>
      </trkpt>
      <trkpt lat="45.02352" lon="5.47641">
        <ele>1278</ele>
        <time>2000-01-01T02:37:59.000Z</time>
      </trkpt>
      <trkpt lat="45.02317" lon="5.47633">
        <ele>1280</ele>
        <time>2000-01-01T02:38:09.000Z</time>
      </trkpt>
      <trkpt lat="45.02283" lon="5.47626">
        <ele>1280</ele>
        <time>2000-01-01T02:38:19.000Z</time>
      </trkpt>
      <trkpt lat="45.02256" lon="5.4762">
        <ele>1282</ele>
        <time>2000-01-01T02:38:29.000Z</time>
      </trkpt>
      <trkpt lat="45.02222" lon="5.47613">
        <ele>1284</ele>
        <time>2000-01-01T02:38:39.000Z</time>
      </trkpt>
      <trkpt lat="45.02194" lon="5.47638">
        <ele>1287</ele>
        <time>2000-01-01T02:38:49.000Z</time>
      </trkpt>
      <trkpt lat="45.02165" lon="5.47664">
        <ele>1292</ele>
        <time>2000-01-01T02:38:59.000Z</time>
      </trkpt>
      <trkpt lat="45.02126" lon="5.47699">
        <ele>1299</ele>
        <time>2000-01-01T02:39:09.000Z</time>
      </trkpt>
      <trkpt lat="45.02095" lon="5.47699">
        <ele>1301</ele>
        <time>2000-01-01T02:39:19.000Z</time>
      </trkpt>
      <trkpt lat="45.02068" lon="5.47699">
        <ele>1305</ele>
        <time>2000-01-01T02:39:29.000Z</time>
      </trkpt>
      <trkpt lat="45.02034" lon="5.47699">
        <ele>1310</ele>
        <time>2000-01-01T02:39:39.000Z</time>
      </trkpt>
      <trkpt lat="45.02004" lon="5.47685">
        <ele>1313</ele>
        <time>2000-01-01T02:39:49.000Z</time>
      </trkpt>
      <trkpt lat="45.01979" lon="5.47674">
        <ele>1314</ele>
        <time>2000-01-01T02:39:59.000Z</time>
      </trkpt>
      <trkpt lat="45.01949" lon="5.4766">
        <ele>1315</ele>
        <time>2000-01-01T02:40:09.000Z</time>
      </trkpt>
      <trkpt lat="45.01923" lon="5.4765">
        <ele>1316</ele>
        <time>2000-01-01T02:40:19.000Z</time>
      </trkpt>
      <trkpt lat="45.01887" lon="5.47636">
        <ele>1318</ele>
        <time>2000-01-01T02:40:29.000Z</time>
      </trkpt>
      <trkpt lat="45.01859" lon="5.47635">
        <ele>1320</ele>
        <time>2000-01-01T02:40:39.000Z</time>
      </trkpt>
      <trkpt lat="45.01817" lon="5.47634">
        <ele>1322</ele>
        <time>2000-01-01T02:40:49.000Z</time>
      </trkpt>
      <trkpt lat="45.01792" lon="5.47641">
        <ele>1325</ele>
        <time>2000-01-01T02:40:59.000Z</time>
      </trkpt>
      <trkpt lat="45.01765" lon="5.47649">
        <ele>1327</ele>
        <time>2000-01-01T02:41:09.000Z</time>
      </trkpt>
      <trkpt lat="45.01731" lon="5.47644">
        <ele>1329</ele>
        <time>2000-01-01T02:41:19.000Z</time>
      </trkpt>
      <trkpt lat="45.01696" lon="5.47639">
        <ele>1329</ele>
        <time>2000-01-01T02:41:29.000Z</time>
      </trkpt>
      <trkpt lat="45.01671" lon="5.47636">
        <ele>1330</ele>
        <time>2000-01-01T02:41:39.000Z</time>
      </trkpt>
      <trkpt lat="45.01641" lon="5.47632">
        <ele>1332</ele>
        <time>2000-01-01T02:41:49.000Z</time>
      </trkpt>
      <trkpt lat="45.01616" lon="5.47639">
        <ele>1333</ele>
        <time>2000-01-01T02:41:59.000Z</time>
      </trkpt>
      <trkpt lat="45.01589" lon="5.47647">
        <ele>1333</ele>
        <time>2000-01-01T02:42:09.000Z</time>
      </trkpt>
      <trkpt lat="45.01567" lon="5.47627">
        <ele>1333</ele>
        <time>2000-01-01T02:42:19.000Z</time>
      </trkpt>
      <trkpt lat="45.01542" lon="5.47604">
        <ele>1332</ele>
        <time>2000-01-01T02:42:29.000Z</time>
      </trkpt>
      <trkpt lat="45.01511" lon="5.47602">
        <ele>1332</ele>
        <time>2000-01-01T02:42:39.000Z</time>
      </trkpt>
      <trkpt lat="45.01486" lon="5.47601">
        <ele>1332</ele>
        <time>2000-01-01T02:42:49.000Z</time>
      </trkpt>
      <trkpt lat="45.01457" lon="5.476">
        <ele>1328</ele>
        <time>2000-01-01T02:42:59.000Z</time>
      </trkpt>
      <trkpt lat="45.0145" lon="5.47555">
        <ele>1319</ele>
        <time>2000-01-01T02:43:09.000Z</time>
      </trkpt>
      <trkpt lat="45.01417" lon="5.47546">
        <ele>1316</ele>
        <time>2000-01-01T02:43:19.000Z</time>
      </trkpt>
      <trkpt lat="45.01384" lon="5.47536">
        <ele>1313</ele>
        <time>2000-01-01T02:43:29.000Z</time>
      </trkpt>
      <trkpt lat="45.0136" lon="5.4753">
        <ele>1311</ele>
        <time>2000-01-01T02:43:39.000Z</time>
      </trkpt>
      <trkpt lat="45.01336" lon="5.47523">
        <ele>1310</ele>
        <time>2000-01-01T02:43:49.000Z</time>
      </trkpt>
      <trkpt lat="45.01309" lon="5.4754">
        <ele>1310</ele>
        <time>2000-01-01T02:43:59.000Z</time>
      </trkpt>
      <trkpt lat="45.01286" lon="5.47555">
        <ele>1310</ele>
        <time>2000-01-01T02:44:09.000Z</time>
      </trkpt>
      <trkpt lat="45.01263" lon="5.4757">
        <ele>1310</ele>
        <time>2000-01-01T02:44:19.000Z</time>
      </trkpt>
      <trkpt lat="45.01236" lon="5.47581">
        <ele>1309</ele>
        <time>2000-01-01T02:44:29.000Z</time>
      </trkpt>
      <trkpt lat="45.01195" lon="5.47598">
        <ele>1309</ele>
        <time>2000-01-01T02:44:39.000Z</time>
      </trkpt>
      <trkpt lat="45.01165" lon="5.47612">
        <ele>1309</ele>
        <time>2000-01-01T02:44:49.000Z</time>
      </trkpt>
      <trkpt lat="45.01139" lon="5.47625">
        <ele>1309</ele>
        <time>2000-01-01T02:44:59.000Z</time>
      </trkpt>
      <trkpt lat="45.01106" lon="5.47641">
        <ele>1309</ele>
        <time>2000-01-01T02:45:09.000Z</time>
      </trkpt>
      <trkpt lat="45.01077" lon="5.47643">
        <ele>1308</ele>
        <time>2000-01-01T02:45:19.000Z</time>
      </trkpt>
      <trkpt lat="45.01057" lon="5.47624">
        <ele>1307</ele>
        <time>2000-01-01T02:45:29.000Z</time>
      </trkpt>
      <trkpt lat="45.01037" lon="5.47606">
        <ele>1306</ele>
        <time>2000-01-01T02:45:39.000Z</time>
      </trkpt>
      <trkpt lat="45.01014" lon="5.47621">
        <ele>1306</ele>
        <time>2000-01-01T02:45:49.000Z</time>
      </trkpt>
      <trkpt lat="45.00987" lon="5.47638">
        <ele>1307</ele>
        <time>2000-01-01T02:45:59.000Z</time>
      </trkpt>
      <trkpt lat="45.00977" lon="5.47615">
        <ele>1307</ele>
        <time>2000-01-01T02:46:09.000Z</time>
      </trkpt>
      <trkpt lat="45.00993" lon="5.4763">
        <ele>1307</ele>
        <time>2000-01-01T02:46:19.000Z</time>
      </trkpt>
      <trkpt lat="45.01004" lon="5.47616">
        <ele>1307</ele>
        <time>2000-01-01T02:46:29.000Z</time>
      </trkpt>
      <trkpt lat="45.0102" lon="5.476">
        <ele>1307</ele>
        <time>2000-01-01T02:46:39.000Z</time>
      </trkpt>
      <trkpt lat="45.01046" lon="5.4758">
        <ele>1306</ele>
        <time>2000-01-01T02:46:49.000Z</time>
      </trkpt>
      <trkpt lat="45.01051" lon="5.47574">
        <ele>1306</ele>
        <time>2000-01-01T02:46:59.000Z</time>
      </trkpt>
      <trkpt lat="45.01059" lon="5.47552">
        <ele>1307</ele>
        <time>2000-01-01T02:47:09.000Z</time>
      </trkpt>
      <trkpt lat="45.01057" lon="5.47516">
        <ele>1308</ele>
        <time>2000-01-01T02:47:19.000Z</time>
      </trkpt>
      <trkpt lat="45.01048" lon="5.47495">
        <ele>1310</ele>
        <time>2000-01-01T02:47:29.000Z</time>
      </trkpt>
      <trkpt lat="45.01037" lon="5.47489">
        <ele>1311</ele>
        <time>2000-01-01T02:47:39.000Z</time>
      </trkpt>
      <trkpt lat="45.01036" lon="5.47466">
        <ele>1311</ele>
        <time>2000-01-01T02:47:49.000Z</time>
      </trkpt>
      <trkpt lat="45.01052" lon="5.47431">
        <ele>1309</ele>
        <time>2000-01-01T02:47:59.000Z</time>
      </trkpt>
      <trkpt lat="45.01079" lon="5.47372">
        <ele>1307</ele>
        <time>2000-01-01T02:48:09.000Z</time>
      </trkpt>
      <trkpt lat="45.01071" lon="5.4731">
        <ele>1303</ele>
        <time>2000-01-01T02:48:19.000Z</time>
      </trkpt>
      <trkpt lat="45.01057" lon="5.47281">
        <ele>1300</ele>
        <time>2000-01-01T02:48:29.000Z</time>
      </trkpt>
      <trkpt lat="45.01042" lon="5.4725">
        <ele>1293</ele>
        <time>2000-01-01T02:48:39.000Z</time>
      </trkpt>
      <trkpt lat="45.0101" lon="5.47254">
        <ele>1289</ele>
        <time>2000-01-01T02:48:49.000Z</time>
      </trkpt>
      <trkpt lat="45.00978" lon="5.47259">
        <ele>1285</ele>
        <time>2000-01-01T02:48:59.000Z</time>
      </trkpt>
      <trkpt lat="45.00942" lon="5.47264">
        <ele>1284</ele>
        <time>2000-01-01T02:49:09.000Z</time>
      </trkpt>
      <trkpt lat="45.00936" lon="5.47272">
        <ele>1284</ele>
        <time>2000-01-01T02:49:19.000Z</time>
      </trkpt>
      <trkpt lat="45.00913" lon="5.47295">
        <ele>1285</ele>
        <time>2000-01-01T02:49:29.000Z</time>
      </trkpt>
      <trkpt lat="45.00878" lon="5.47329">
        <ele>1286</ele>
        <time>2000-01-01T02:49:39.000Z</time>
      </trkpt>
      <trkpt lat="45.00837" lon="5.47333">
        <ele>1283</ele>
        <time>2000-01-01T02:49:49.000Z</time>
      </trkpt>
      <trkpt lat="45.00813" lon="5.47314">
        <ele>1280</ele>
        <time>2000-01-01T02:49:59.000Z</time>
      </trkpt>
      <trkpt lat="45.00779" lon="5.47289">
        <ele>1275</ele>
        <time>2000-01-01T02:50:09.000Z</time>
      </trkpt>
      <trkpt lat="45.00759" lon="5.47291">
        <ele>1275</ele>
        <time>2000-01-01T02:50:19.000Z</time>
      </trkpt>
      <trkpt lat="45.00738" lon="5.47307">
        <ele>1275</ele>
        <time>2000-01-01T02:50:29.000Z</time>
      </trkpt>
      <trkpt lat="45.00715" lon="5.47294">
        <ele>1272</ele>
        <time>2000-01-01T02:50:39.000Z</time>
      </trkpt>
      <trkpt lat="45.00692" lon="5.47281">
        <ele>1270</ele>
        <time>2000-01-01T02:50:49.000Z</time>
      </trkpt>
      <trkpt lat="45.0066" lon="5.47269">
        <ele>1265</ele>
        <time>2000-01-01T02:50:59.000Z</time>
      </trkpt>
      <trkpt lat="45.00628" lon="5.47258">
        <ele>1265</ele>
        <time>2000-01-01T02:51:09.000Z</time>
      </trkpt>
      <trkpt lat="45.00586" lon="5.47243">
        <ele>1267</ele>
        <time>2000-01-01T02:51:19.000Z</time>
      </trkpt>
      <trkpt lat="45.00548" lon="5.47253">
        <ele>1269</ele>
        <time>2000-01-01T02:51:29.000Z</time>
      </trkpt>
      <trkpt lat="45.00525" lon="5.47264">
        <ele>1273</ele>
        <time>2000-01-01T02:51:39.000Z</time>
      </trkpt>
      <trkpt lat="45.005" lon="5.47275">
        <ele>1274</ele>
        <time>2000-01-01T02:51:49.000Z</time>
      </trkpt>
      <trkpt lat="45.00476" lon="5.47264">
        <ele>1274</ele>
        <time>2000-01-01T02:51:59.000Z</time>
      </trkpt>
      <trkpt lat="45.00451" lon="5.47252">
        <ele>1275</ele>
        <time>2000-01-01T02:52:09.000Z</time>
      </trkpt>
      <trkpt lat="45.0042" lon="5.47252">
        <ele>1278</ele>
        <time>2000-01-01T02:52:19.000Z</time>
      </trkpt>
      <trkpt lat="45.00394" lon="5.47252">
        <ele>1280</ele>
        <time>2000-01-01T02:52:29.000Z</time>
      </trkpt>
      <trkpt lat="45.00363" lon="5.47252">
        <ele>1280</ele>
        <time>2000-01-01T02:52:39.000Z</time>
      </trkpt>
      <trkpt lat="45.00345" lon="5.47244">
        <ele>1281</ele>
        <time>2000-01-01T02:52:49.000Z</time>
      </trkpt>
      <trkpt lat="45.00321" lon="5.47241">
        <ele>1281</ele>
        <time>2000-01-01T02:52:59.000Z</time>
      </trkpt>
      <trkpt lat="45.00295" lon="5.47237">
        <ele>1279</ele>
        <time>2000-01-01T02:53:09.000Z</time>
      </trkpt>
      <trkpt lat="45.00274" lon="5.47216">
        <ele>1276</ele>
        <time>2000-01-01T02:53:19.000Z</time>
      </trkpt>
      <trkpt lat="45.0025" lon="5.47192">
        <ele>1276</ele>
        <time>2000-01-01T02:53:29.000Z</time>
      </trkpt>
      <trkpt lat="45.00217" lon="5.47203">
        <ele>1276</ele>
        <time>2000-01-01T02:53:39.000Z</time>
      </trkpt>
      <trkpt lat="45.0019" lon="5.4718">
        <ele>1271</ele>
        <time>2000-01-01T02:53:49.000Z</time>
      </trkpt>
      <trkpt lat="45.00167" lon="5.4716">
        <ele>1271</ele>
        <time>2000-01-01T02:53:59.000Z</time>
      </trkpt>
      <trkpt lat="45.00138" lon="5.47135">
        <ele>1269</ele>
        <time>2000-01-01T02:54:09.000Z</time>
      </trkpt>
      <trkpt lat="45.00103" lon="5.4713">
        <ele>1271</ele>
        <time>2000-01-01T02:54:19.000Z</time>
      </trkpt>
      <trkpt lat="45.00084" lon="5.47151">
        <ele>1272</ele>
        <time>2000-01-01T02:54:29.000Z</time>
      </trkpt>
      <trkpt lat="45.00052" lon="5.47146">
        <ele>1273</ele>
        <time>2000-01-01T02:54:39.000Z</time>
      </trkpt>
      <trkpt lat="45.0002" lon="5.47142">
        <ele>1275</ele>
        <time>2000-01-01T02:54:49.000Z</time>
      </trkpt>
      <trkpt lat="44.99987" lon="5.47137">
        <ele>1280</ele>
        <time>2000-01-01T02:54:59.000Z</time>
      </trkpt>
      <trkpt lat="44.99966" lon="5.47116">
        <ele>1282</ele>
        <time>2000-01-01T02:55:09.000Z</time>
      </trkpt>
      <trkpt lat="44.9994" lon="5.47091">
        <ele>1280</ele>
        <time>2000-01-01T02:55:19.000Z</time>
      </trkpt>
      <trkpt lat="44.99941" lon="5.47053">
        <ele>1278</ele>
        <time>2000-01-01T02:55:29.000Z</time>
      </trkpt>
      <trkpt lat="44.99942" lon="5.47006">
        <ele>1269</ele>
        <time>2000-01-01T02:55:39.000Z</time>
      </trkpt>
      <trkpt lat="44.99938" lon="5.46986">
        <ele>1264</ele>
        <time>2000-01-01T02:55:49.000Z</time>
      </trkpt>
      <trkpt lat="44.9991" lon="5.46964">
        <ele>1259</ele>
        <time>2000-01-01T02:55:59.000Z</time>
      </trkpt>
      <trkpt lat="44.99881" lon="5.46943">
        <ele>1257</ele>
        <time>2000-01-01T02:56:09.000Z</time>
      </trkpt>
      <trkpt lat="44.99851" lon="5.4692">
        <ele>1256</ele>
        <time>2000-01-01T02:56:19.000Z</time>
      </trkpt>
      <trkpt lat="44.99844" lon="5.46856">
        <ele>1250</ele>
        <time>2000-01-01T02:56:29.000Z</time>
      </trkpt>
      <trkpt lat="44.99832" lon="5.46827">
        <ele>1245</ele>
        <time>2000-01-01T02:56:39.000Z</time>
      </trkpt>
      <trkpt lat="44.99816" lon="5.46781">
        <ele>1241</ele>
        <time>2000-01-01T02:56:49.000Z</time>
      </trkpt>
      <trkpt lat="44.99806" lon="5.46774">
        <ele>1241</ele>
        <time>2000-01-01T02:56:59.000Z</time>
      </trkpt>
      <trkpt lat="44.99781" lon="5.46755">
        <ele>1241</ele>
        <time>2000-01-01T02:57:09.000Z</time>
      </trkpt>
      <trkpt lat="44.99747" lon="5.46729">
        <ele>1242</ele>
        <time>2000-01-01T02:57:19.000Z</time>
      </trkpt>
      <trkpt lat="44.99709" lon="5.46707">
        <ele>1245</ele>
        <time>2000-01-01T02:57:29.000Z</time>
      </trkpt>
      <trkpt lat="44.99681" lon="5.46685">
        <ele>1245</ele>
        <time>2000-01-01T02:57:39.000Z</time>
      </trkpt>
      <trkpt lat="44.99653" lon="5.46663">
        <ele>1248</ele>
        <time>2000-01-01T02:57:49.000Z</time>
      </trkpt>
      <trkpt lat="44.99624" lon="5.4664">
        <ele>1249</ele>
        <time>2000-01-01T02:57:59.000Z</time>
      </trkpt>
      <trkpt lat="44.99608" lon="5.46615">
        <ele>1249</ele>
        <time>2000-01-01T02:58:09.000Z</time>
      </trkpt>
      <trkpt lat="44.99594" lon="5.46596">
        <ele>1245</ele>
        <time>2000-01-01T02:58:19.000Z</time>
      </trkpt>
      <trkpt lat="44.99582" lon="5.46586">
        <ele>1245</ele>
        <time>2000-01-01T02:58:29.000Z</time>
      </trkpt>
      <trkpt lat="44.99572" lon="5.46581">
        <ele>1246</ele>
        <time>2000-01-01T02:58:39.000Z</time>
      </trkpt>
      <trkpt lat="44.99544" lon="5.46577">
        <ele>1246</ele>
        <time>2000-01-01T02:58:49.000Z</time>
      </trkpt>
      <trkpt lat="44.99528" lon="5.4657">
        <ele>1246</ele>
        <time>2000-01-01T02:58:59.000Z</time>
      </trkpt>
      <trkpt lat="44.99508" lon="5.46553">
        <ele>1245</ele>
        <time>2000-01-01T02:59:09.000Z</time>
      </trkpt>
      <trkpt lat="44.99495" lon="5.46547">
        <ele>1243</ele>
        <time>2000-01-01T02:59:19.000Z</time>
      </trkpt>
      <trkpt lat="44.99469" lon="5.4654">
        <ele>1242</ele>
        <time>2000-01-01T02:59:29.000Z</time>
      </trkpt>
      <trkpt lat="44.99454" lon="5.46538">
        <ele>1242</ele>
        <time>2000-01-01T02:59:39.000Z</time>
      </trkpt>
      <trkpt lat="44.99425" lon="5.46546">
        <ele>1247</ele>
        <time>2000-01-01T02:59:49.000Z</time>
      </trkpt>
      <trkpt lat="44.99405" lon="5.46548">
        <ele>1247</ele>
        <time>2000-01-01T02:59:59.000Z</time>
      </trkpt>
      <trkpt lat="44.99392" lon="5.46546">
        <ele>1247</ele>
        <time>2000-01-01T03:00:09.000Z</time>
      </trkpt>
      <trkpt lat="44.9936" lon="5.46531">
        <ele>1247</ele>
        <time>2000-01-01T03:00:19.000Z</time>
      </trkpt>
      <trkpt lat="44.99351" lon="5.46521">
        <ele>1246</ele>
        <time>2000-01-01T03:00:29.000Z</time>
      </trkpt>
      <trkpt lat="44.99343" lon="5.46508">
        <ele>1246</ele>
        <time>2000-01-01T03:00:39.000Z</time>
      </trkpt>
      <trkpt lat="44.99339" lon="5.46492">
        <ele>1246</ele>
        <time>2000-01-01T03:00:49.000Z</time>
      </trkpt>
      <trkpt lat="44.99333" lon="5.46446">
        <ele>1241</ele>
        <time>2000-01-01T03:00:59.000Z</time>
      </trkpt>
      <trkpt lat="44.99329" lon="5.46439">
        <ele>1241</ele>
        <time>2000-01-01T03:01:09.000Z</time>
      </trkpt>
      <trkpt lat="44.99324" lon="5.46437">
        <ele>1241.8</ele>
        <time>2000-01-01T03:01:19.000Z</time>
      </trkpt>
      <trkpt lat="44.99318" lon="5.46438">
        <ele>1243</ele>
        <time>2000-01-01T03:01:29.000Z</time>
      </trkpt>
      <trkpt lat="44.99306" lon="5.46447">
        <ele>1246</ele>
        <time>2000-01-01T03:01:39.000Z</time>
      </trkpt>
      <trkpt lat="44.99297" lon="5.4645">
        <ele>1247</ele>
        <time>2000-01-01T03:01:49.000Z</time>
      </trkpt>
      <trkpt lat="44.99279" lon="5.46448">
        <ele>1251</ele>
        <time>2000-01-01T03:01:59.000Z</time>
      </trkpt>
      <trkpt lat="44.99264" lon="5.46444">
        <ele>1252</ele>
        <time>2000-01-01T03:02:09.000Z</time>
      </trkpt>
      <trkpt lat="44.99249" lon="5.46434">
        <ele>1255</ele>
        <time>2000-01-01T03:02:19.000Z</time>
      </trkpt>
      <trkpt lat="44.99238" lon="5.46421">
        <ele>1254</ele>
        <time>2000-01-01T03:02:29.000Z</time>
      </trkpt>
      <trkpt lat="44.9923" lon="5.46402">
        <ele>1254</ele>
        <time>2000-01-01T03:02:39.000Z</time>
      </trkpt>
      <trkpt lat="44.99223" lon="5.46375">
        <ele>1252</ele>
        <time>2000-01-01T03:02:49.000Z</time>
      </trkpt>
      <trkpt lat="44.99217" lon="5.46366">
        <ele>1251</ele>
        <time>2000-01-01T03:02:59.000Z</time>
      </trkpt>
      <trkpt lat="44.99208" lon="5.46359">
        <ele>1251</ele>
        <time>2000-01-01T03:03:09.000Z</time>
      </trkpt>
      <trkpt lat="44.99185" lon="5.46349">
        <ele>1252</ele>
        <time>2000-01-01T03:03:19.000Z</time>
      </trkpt>
      <trkpt lat="44.9916" lon="5.46339">
        <ele>1254</ele>
        <time>2000-01-01T03:03:29.000Z</time>
      </trkpt>
      <trkpt lat="44.99123" lon="5.46316">
        <ele>1255</ele>
        <time>2000-01-01T03:03:39.000Z</time>
      </trkpt>
      <trkpt lat="44.9908" lon="5.463">
        <ele>1256</ele>
        <time>2000-01-01T03:03:49.000Z</time>
      </trkpt>
      <trkpt lat="44.99049" lon="5.46287">
        <ele>1258</ele>
        <time>2000-01-01T03:03:59.000Z</time>
      </trkpt>
      <trkpt lat="44.99028" lon="5.46277">
        <ele>1258</ele>
        <time>2000-01-01T03:04:09.000Z</time>
      </trkpt>
      <trkpt lat="44.9901" lon="5.46265">
        <ele>1259</ele>
        <time>2000-01-01T03:04:19.000Z</time>
      </trkpt>
      <trkpt lat="44.98986" lon="5.46254">
        <ele>1259</ele>
        <time>2000-01-01T03:04:29.000Z</time>
      </trkpt>
      <trkpt lat="44.9896" lon="5.46248">
        <ele>1259</ele>
        <time>2000-01-01T03:04:39.000Z</time>
      </trkpt>
      <trkpt lat="44.98953" lon="5.46244">
        <ele>1259</ele>
        <time>2000-01-01T03:04:49.000Z</time>
      </trkpt>
      <trkpt lat="44.98937" lon="5.46227">
        <ele>1257</ele>
        <time>2000-01-01T03:04:59.000Z</time>
      </trkpt>
      <trkpt lat="44.98928" lon="5.46224">
        <ele>1255</ele>
        <time>2000-01-01T03:05:09.000Z</time>
      </trkpt>
      <trkpt lat="44.98919" lon="5.46224">
        <ele>1255</ele>
        <time>2000-01-01T03:05:19.000Z</time>
      </trkpt>
      <trkpt lat="44.98894" lon="5.4623">
        <ele>1255</ele>
        <time>2000-01-01T03:05:29.000Z</time>
      </trkpt>
      <trkpt lat="44.98864" lon="5.46237">
        <ele>1256</ele>
        <time>2000-01-01T03:05:39.000Z</time>
      </trkpt>
      <trkpt lat="44.9885" lon="5.46245">
        <ele>1259</ele>
        <time>2000-01-01T03:05:49.000Z</time>
      </trkpt>
      <trkpt lat="44.98832" lon="5.46261">
        <ele>1262</ele>
        <time>2000-01-01T03:05:59.000Z</time>
      </trkpt>
      <trkpt lat="44.9881" lon="5.46291">
        <ele>1269</ele>
        <time>2000-01-01T03:06:09.000Z</time>
      </trkpt>
      <trkpt lat="44.98791" lon="5.46316">
        <ele>1273</ele>
        <time>2000-01-01T03:06:19.000Z</time>
      </trkpt>
      <trkpt lat="44.9877" lon="5.46346">
        <ele>1279</ele>
        <time>2000-01-01T03:06:29.000Z</time>
      </trkpt>
      <trkpt lat="44.98748" lon="5.4637">
        <ele>1284</ele>
        <time>2000-01-01T03:06:39.000Z</time>
      </trkpt>
      <trkpt lat="44.98715" lon="5.46406">
        <ele>1289</ele>
        <time>2000-01-01T03:06:49.000Z</time>
      </trkpt>
      <trkpt lat="44.98682" lon="5.46422">
        <ele>1293</ele>
        <time>2000-01-01T03:06:59.000Z</time>
      </trkpt>
      <trkpt lat="44.98649" lon="5.46437">
        <ele>1299</ele>
        <time>2000-01-01T03:07:09.000Z</time>
      </trkpt>
      <trkpt lat="44.98624" lon="5.46449">
        <ele>1303</ele>
        <time>2000-01-01T03:07:19.000Z</time>
      </trkpt>
      <trkpt lat="44.98594" lon="5.46464">
        <ele>1311</ele>
        <time>2000-01-01T03:07:29.000Z</time>
      </trkpt>
      <trkpt lat="44.98567" lon="5.46456">
        <ele>1313</ele>
        <time>2000-01-01T03:07:39.000Z</time>
      </trkpt>
      <trkpt lat="44.98532" lon="5.46446">
        <ele>1315</ele>
        <time>2000-01-01T03:07:49.000Z</time>
      </trkpt>
      <trkpt lat="44.98507" lon="5.46458">
        <ele>1319</ele>
        <time>2000-01-01T03:07:59.000Z</time>
      </trkpt>
      <trkpt lat="44.98474" lon="5.46473">
        <ele>1326</ele>
        <time>2000-01-01T03:08:09.000Z</time>
      </trkpt>
      <trkpt lat="44.98448" lon="5.46484">
        <ele>1334</ele>
        <time>2000-01-01T03:08:19.000Z</time>
      </trkpt>
      <trkpt lat="44.98412" lon="5.46498">
        <ele>1341</ele>
        <time>2000-01-01T03:08:29.000Z</time>
      </trkpt>
      <trkpt lat="44.98387" lon="5.46506">
        <ele>1348</ele>
        <time>2000-01-01T03:08:39.000Z</time>
      </trkpt>
      <trkpt lat="44.9836" lon="5.46516">
        <ele>1356</ele>
        <time>2000-01-01T03:08:49.000Z</time>
      </trkpt>
      <trkpt lat="44.98328" lon="5.46505">
        <ele>1357</ele>
        <time>2000-01-01T03:08:59.000Z</time>
      </trkpt>
      <trkpt lat="44.98297" lon="5.46494">
        <ele>1362</ele>
        <time>2000-01-01T03:09:09.000Z</time>
      </trkpt>
      <trkpt lat="44.9826" lon="5.46482">
        <ele>1362</ele>
        <time>2000-01-01T03:09:19.000Z</time>
      </trkpt>
      <trkpt lat="44.98235" lon="5.46445">
        <ele>1360</ele>
        <time>2000-01-01T03:09:29.000Z</time>
      </trkpt>
      <trkpt lat="44.98209" lon="5.46408">
        <ele>1358</ele>
        <time>2000-01-01T03:09:39.000Z</time>
      </trkpt>
      <trkpt lat="44.98184" lon="5.46371">
        <ele>1352</ele>
        <time>2000-01-01T03:09:49.000Z</time>
      </trkpt>
      <trkpt lat="44.98152" lon="5.46324">
        <ele>1339</ele>
        <time>2000-01-01T03:09:59.000Z</time>
      </trkpt>
      <trkpt lat="44.98138" lon="5.4629">
        <ele>1331</ele>
        <time>2000-01-01T03:10:09.000Z</time>
      </trkpt>
      <trkpt lat="44.98117" lon="5.4624">
        <ele>1329</ele>
        <time>2000-01-01T03:10:19.000Z</time>
      </trkpt>
      <trkpt lat="44.98094" lon="5.46231">
        <ele>1329</ele>
        <time>2000-01-01T03:10:29.000Z</time>
      </trkpt>
      <trkpt lat="44.98067" lon="5.46245">
        <ele>1328</ele>
        <time>2000-01-01T03:10:39.000Z</time>
      </trkpt>
      <trkpt lat="44.98052" lon="5.46232">
        <ele>1328</ele>
        <time>2000-01-01T03:10:49.000Z</time>
      </trkpt>
      <trkpt lat="44.98049" lon="5.46187">
        <ele>1320</ele>
        <time>2000-01-01T03:10:59.000Z</time>
      </trkpt>
      <trkpt lat="44.98043" lon="5.46098">
        <ele>1306</ele>
        <time>2000-01-01T03:11:09.000Z</time>
      </trkpt>
      <trkpt lat="44.98036" lon="5.46062">
        <ele>1300</ele>
        <time>2000-01-01T03:11:19.000Z</time>
      </trkpt>
      <trkpt lat="44.98027" lon="5.46018">
        <ele>1295</ele>
        <time>2000-01-01T03:11:29.000Z</time>
      </trkpt>
      <trkpt lat="44.98022" lon="5.45982">
        <ele>1293</ele>
        <time>2000-01-01T03:11:39.000Z</time>
      </trkpt>
      <trkpt lat="44.98017" lon="5.45941">
        <ele>1291</ele>
        <time>2000-01-01T03:11:49.000Z</time>
      </trkpt>
      <trkpt lat="44.98013" lon="5.45899">
        <ele>1291</ele>
        <time>2000-01-01T03:11:59.000Z</time>
      </trkpt>
      <trkpt lat="44.97966" lon="5.45891">
        <ele>1291</ele>
        <time>2000-01-01T03:12:09.000Z</time>
      </trkpt>
      <trkpt lat="44.97936" lon="5.4589">
        <ele>1291</ele>
        <time>2000-01-01T03:12:19.000Z</time>
      </trkpt>
      <trkpt lat="44.97911" lon="5.4589">
        <ele>1292</ele>
        <time>2000-01-01T03:12:29.000Z</time>
      </trkpt>
      <trkpt lat="44.97884" lon="5.4589">
        <ele>1293</ele>
        <time>2000-01-01T03:12:39.000Z</time>
      </trkpt>
      <trkpt lat="44.97852" lon="5.45895">
        <ele>1294</ele>
        <time>2000-01-01T03:12:49.000Z</time>
      </trkpt>
      <trkpt lat="44.97821" lon="5.459">
        <ele>1296</ele>
        <time>2000-01-01T03:12:59.000Z</time>
      </trkpt>
      <trkpt lat="44.97789" lon="5.45905">
        <ele>1295</ele>
        <time>2000-01-01T03:13:09.000Z</time>
      </trkpt>
      <trkpt lat="44.97787" lon="5.45906">
        <ele>1299.1</ele>
        <time>2000-01-01T03:13:19.000Z</time>
      </trkpt>
      <trkpt lat="44.97792" lon="5.45849">
        <ele>1295</ele>
        <time>2000-01-01T03:13:29.000Z</time>
      </trkpt>
      <trkpt lat="44.97784" lon="5.45817">
        <ele>1293</ele>
        <time>2000-01-01T03:13:39.000Z</time>
      </trkpt>
      <trkpt lat="44.97776" lon="5.45785">
        <ele>1291</ele>
        <time>2000-01-01T03:13:49.000Z</time>
      </trkpt>
      <trkpt lat="44.97758" lon="5.45745">
        <ele>1291</ele>
        <time>2000-01-01T03:13:59.000Z</time>
      </trkpt>
      <trkpt lat="44.9773" lon="5.45717">
        <ele>1292</ele>
        <time>2000-01-01T03:14:09.000Z</time>
      </trkpt>
      <trkpt lat="44.97689" lon="5.45703">
        <ele>1295</ele>
        <time>2000-01-01T03:14:19.000Z</time>
      </trkpt>
      <trkpt lat="44.97667" lon="5.45697">
        <ele>1296</ele>
        <time>2000-01-01T03:14:29.000Z</time>
      </trkpt>
      <trkpt lat="44.97647" lon="5.45672">
        <ele>1298</ele>
        <time>2000-01-01T03:14:39.000Z</time>
      </trkpt>
      <trkpt lat="44.9762" lon="5.45663">
        <ele>1299</ele>
        <time>2000-01-01T03:14:49.000Z</time>
      </trkpt>
      <trkpt lat="44.97585" lon="5.45651">
        <ele>1302</ele>
        <time>2000-01-01T03:14:59.000Z</time>
      </trkpt>
      <trkpt lat="44.9755" lon="5.45618">
        <ele>1306</ele>
        <time>2000-01-01T03:15:09.000Z</time>
      </trkpt>
      <trkpt lat="44.97527" lon="5.4559">
        <ele>1307</ele>
        <time>2000-01-01T03:15:19.000Z</time>
      </trkpt>
      <trkpt lat="44.97508" lon="5.45567">
        <ele>1309</ele>
        <time>2000-01-01T03:15:29.000Z</time>
      </trkpt>
      <trkpt lat="44.97487" lon="5.45542">
        <ele>1309</ele>
        <time>2000-01-01T03:15:39.000Z</time>
      </trkpt>
      <trkpt lat="44.97463" lon="5.45524">
        <ele>1310</ele>
        <time>2000-01-01T03:15:49.000Z</time>
      </trkpt>
      <trkpt lat="44.97443" lon="5.45517">
        <ele>1310</ele>
        <time>2000-01-01T03:15:59.000Z</time>
      </trkpt>
      <trkpt lat="44.97439" lon="5.45509">
        <ele>1311</ele>
        <time>2000-01-01T03:16:09.000Z</time>
      </trkpt>
      <trkpt lat="44.97439" lon="5.45502">
        <ele>1311.1</ele>
        <time>2000-01-01T03:16:19.000Z</time>
      </trkpt>
      <trkpt lat="44.97349" lon="5.45536">
        <ele>1314</ele>
        <time>2000-01-01T03:16:29.000Z</time>
      </trkpt>
      <trkpt lat="44.97359" lon="5.45582">
        <ele>1314</ele>
        <time>2000-01-01T03:16:39.000Z</time>
      </trkpt>
      <trkpt lat="44.9737" lon="5.45629">
        <ele>1316</ele>
        <time>2000-01-01T03:16:49.000Z</time>
      </trkpt>
      <trkpt lat="44.97377" lon="5.45663">
        <ele>1319</ele>
        <time>2000-01-01T03:16:59.000Z</time>
      </trkpt>
      <trkpt lat="44.97386" lon="5.45702">
        <ele>1321</ele>
        <time>2000-01-01T03:17:09.000Z</time>
      </trkpt>
      <trkpt lat="44.97355" lon="5.45726">
        <ele>1325</ele>
        <time>2000-01-01T03:17:19.000Z</time>
      </trkpt>
      <trkpt lat="44.97324" lon="5.4575">
        <ele>1330</ele>
        <time>2000-01-01T03:17:29.000Z</time>
      </trkpt>
      <trkpt lat="44.973" lon="5.45769">
        <ele>1334</ele>
        <time>2000-01-01T03:17:39.000Z</time>
      </trkpt>
      <trkpt lat="44.97268" lon="5.45794">
        <ele>1334</ele>
        <time>2000-01-01T03:17:49.000Z</time>
      </trkpt>
      <trkpt lat="44.97244" lon="5.4583">
        <ele>1332</ele>
        <time>2000-01-01T03:17:59.000Z</time>
      </trkpt>
      <trkpt lat="44.97221" lon="5.45865">
        <ele>1330</ele>
        <time>2000-01-01T03:18:09.000Z</time>
      </trkpt>
      <trkpt lat="44.97203" lon="5.45892">
        <ele>1328</ele>
        <time>2000-01-01T03:18:19.000Z</time>
      </trkpt>
      <trkpt lat="44.97182" lon="5.45924">
        <ele>1327</ele>
        <time>2000-01-01T03:18:29.000Z</time>
      </trkpt>
      <trkpt lat="44.97147" lon="5.4592">
        <ele>1327</ele>
        <time>2000-01-01T03:18:39.000Z</time>
      </trkpt>
      <trkpt lat="44.97111" lon="5.45916">
        <ele>1327</ele>
        <time>2000-01-01T03:18:49.000Z</time>
      </trkpt>
      <trkpt lat="44.97084" lon="5.45913">
        <ele>1327</ele>
        <time>2000-01-01T03:18:59.000Z</time>
      </trkpt>
      <trkpt lat="44.97045" lon="5.45909">
        <ele>1325</ele>
        <time>2000-01-01T03:19:09.000Z</time>
      </trkpt>
      <trkpt lat="44.97012" lon="5.45914">
        <ele>1323</ele>
        <time>2000-01-01T03:19:19.000Z</time>
      </trkpt>
      <trkpt lat="44.96979" lon="5.45918">
        <ele>1318</ele>
        <time>2000-01-01T03:19:29.000Z</time>
      </trkpt>
      <trkpt lat="44.96939" lon="5.45924">
        <ele>1311</ele>
        <time>2000-01-01T03:19:39.000Z</time>
      </trkpt>
      <trkpt lat="44.96913" lon="5.45887">
        <ele>1311</ele>
        <time>2000-01-01T03:19:49.000Z</time>
      </trkpt>
      <trkpt lat="44.96891" lon="5.4587">
        <ele>1310</ele>
        <time>2000-01-01T03:19:59.000Z</time>
      </trkpt>
      <trkpt lat="44.96868" lon="5.45851">
        <ele>1303</ele>
        <time>2000-01-01T03:20:09.000Z</time>
      </trkpt>
      <trkpt lat="44.96853" lon="5.45794">
        <ele>1301</ele>
        <time>2000-01-01T03:20:19.000Z</time>
      </trkpt>
      <trkpt lat="44.96839" lon="5.4576">
        <ele>1294</ele>
        <time>2000-01-01T03:20:29.000Z</time>
      </trkpt>
      <trkpt lat="44.9681" lon="5.45735">
        <ele>1278</ele>
        <time>2000-01-01T03:20:39.000Z</time>
      </trkpt>
      <trkpt lat="44.96791" lon="5.45708">
        <ele>1275</ele>
        <time>2000-01-01T03:20:49.000Z</time>
      </trkpt>
      <trkpt lat="44.96765" lon="5.45686">
        <ele>1279</ele>
        <time>2000-01-01T03:20:59.000Z</time>
      </trkpt>
      <trkpt lat="44.96744" lon="5.45669">
        <ele>1283</ele>
        <time>2000-01-01T03:21:09.000Z</time>
      </trkpt>
      <trkpt lat="44.96721" lon="5.4565">
        <ele>1294</ele>
        <time>2000-01-01T03:21:19.000Z</time>
      </trkpt>
      <trkpt lat="44.96722" lon="5.45647">
        <ele>1292.5</ele>
        <time>2000-01-01T03:21:29.000Z</time>
      </trkpt>
      <trkpt lat="44.96708" lon="5.45687">
        <ele>1299</ele>
        <time>2000-01-01T03:21:39.000Z</time>
      </trkpt>
      <trkpt lat="44.96688" lon="5.45717">
        <ele>1305</ele>
        <time>2000-01-01T03:21:49.000Z</time>
      </trkpt>
      <trkpt lat="44.96664" lon="5.45767">
        <ele>1305</ele>
        <time>2000-01-01T03:21:59.000Z</time>
      </trkpt>
      <trkpt lat="44.96656" lon="5.45807">
        <ele>1306</ele>
        <time>2000-01-01T03:22:09.000Z</time>
      </trkpt>
      <trkpt lat="44.96637" lon="5.45864">
        <ele>1306</ele>
        <time>2000-01-01T03:22:19.000Z</time>
      </trkpt>
      <trkpt lat="44.96634" lon="5.45902">
        <ele>1301</ele>
        <time>2000-01-01T03:22:29.000Z</time>
      </trkpt>
      <trkpt lat="44.9663" lon="5.4595">
        <ele>1298</ele>
        <time>2000-01-01T03:22:39.000Z</time>
      </trkpt>
      <trkpt lat="44.96621" lon="5.45989">
        <ele>1295</ele>
        <time>2000-01-01T03:22:49.000Z</time>
      </trkpt>
      <trkpt lat="44.96608" lon="5.4601">
        <ele>1294</ele>
        <time>2000-01-01T03:22:59.000Z</time>
      </trkpt>
      <trkpt lat="44.96587" lon="5.4602">
        <ele>1294</ele>
        <time>2000-01-01T03:23:09.000Z</time>
      </trkpt>
      <trkpt lat="44.96567" lon="5.46017">
        <ele>1297</ele>
        <time>2000-01-01T03:23:19.000Z</time>
      </trkpt>
      <trkpt lat="44.96551" lon="5.46012">
        <ele>1298</ele>
        <time>2000-01-01T03:23:29.000Z</time>
      </trkpt>
      <trkpt lat="44.96537" lon="5.46012">
        <ele>1299</ele>
        <time>2000-01-01T03:23:39.000Z</time>
      </trkpt>
      <trkpt lat="44.96519" lon="5.46019">
        <ele>1301</ele>
        <time>2000-01-01T03:23:49.000Z</time>
      </trkpt>
      <trkpt lat="44.9648" lon="5.46048">
        <ele>1303</ele>
        <time>2000-01-01T03:23:59.000Z</time>
      </trkpt>
      <trkpt lat="44.96455" lon="5.46048">
        <ele>1305</ele>
        <time>2000-01-01T03:24:09.000Z</time>
      </trkpt>
      <trkpt lat="44.96434" lon="5.46026">
        <ele>1307</ele>
        <time>2000-01-01T03:24:19.000Z</time>
      </trkpt>
      <trkpt lat="44.96387" lon="5.46024">
        <ele>1312</ele>
        <time>2000-01-01T03:24:29.000Z</time>
      </trkpt>
      <trkpt lat="44.96343" lon="5.46035">
        <ele>1315</ele>
        <time>2000-01-01T03:24:39.000Z</time>
      </trkpt>
      <trkpt lat="44.96326" lon="5.46034">
        <ele>1317</ele>
        <time>2000-01-01T03:24:49.000Z</time>
      </trkpt>
      <trkpt lat="44.96318" lon="5.46018">
        <ele>1318</ele>
        <time>2000-01-01T03:24:59.000Z</time>
      </trkpt>
      <trkpt lat="44.96318" lon="5.45996">
        <ele>1319</ele>
        <time>2000-01-01T03:25:09.000Z</time>
      </trkpt>
      <trkpt lat="44.96291" lon="5.45999">
        <ele>1322</ele>
        <time>2000-01-01T03:25:19.000Z</time>
      </trkpt>
      <trkpt lat="44.96256" lon="5.46002">
        <ele>1329</ele>
        <time>2000-01-01T03:25:29.000Z</time>
      </trkpt>
      <trkpt lat="44.96237" lon="5.46025">
        <ele>1333</ele>
        <time>2000-01-01T03:25:39.000Z</time>
      </trkpt>
      <trkpt lat="44.96217" lon="5.46049">
        <ele>1336</ele>
        <time>2000-01-01T03:25:49.000Z</time>
      </trkpt>
      <trkpt lat="44.96201" lon="5.46082">
        <ele>1339</ele>
        <time>2000-01-01T03:25:59.000Z</time>
      </trkpt>
      <trkpt lat="44.96179" lon="5.46131">
        <ele>1344</ele>
        <time>2000-01-01T03:26:09.000Z</time>
      </trkpt>
      <trkpt lat="44.96153" lon="5.46146">
        <ele>1344</ele>
        <time>2000-01-01T03:26:19.000Z</time>
      </trkpt>
      <trkpt lat="44.96115" lon="5.46167">
        <ele>1340</ele>
        <time>2000-01-01T03:26:29.000Z</time>
      </trkpt>
      <trkpt lat="44.96116" lon="5.46185">
        <ele>1340</ele>
        <time>2000-01-01T03:26:39.000Z</time>
      </trkpt>
      <trkpt lat="44.961" lon="5.4619">
        <ele>1336</ele>
        <time>2000-01-01T03:26:49.000Z</time>
      </trkpt>
      <trkpt lat="44.96085" lon="5.46186">
        <ele>1335</ele>
        <time>2000-01-01T03:26:59.000Z</time>
      </trkpt>
      <trkpt lat="44.96074" lon="5.46194">
        <ele>1334</ele>
        <time>2000-01-01T03:27:09.000Z</time>
      </trkpt>
      <trkpt lat="44.96047" lon="5.46248">
        <ele>1335</ele>
        <time>2000-01-01T03:27:19.000Z</time>
      </trkpt>
      <trkpt lat="44.96024" lon="5.46263">
        <ele>1336</ele>
        <time>2000-01-01T03:27:29.000Z</time>
      </trkpt>
      <trkpt lat="44.95991" lon="5.46268">
        <ele>1335</ele>
        <time>2000-01-01T03:27:39.000Z</time>
      </trkpt>
      <trkpt lat="44.95968" lon="5.4625">
        <ele>1334</ele>
        <time>2000-01-01T03:27:49.000Z</time>
      </trkpt>
      <trkpt lat="44.95942" lon="5.46229">
        <ele>1330</ele>
        <time>2000-01-01T03:27:59.000Z</time>
      </trkpt>
      <trkpt lat="44.95938" lon="5.46213">
        <ele>1329</ele>
        <time>2000-01-01T03:28:09.000Z</time>
      </trkpt>
      <trkpt lat="44.95935" lon="5.46196">
        <ele>1325</ele>
        <time>2000-01-01T03:28:19.000Z</time>
      </trkpt>
      <trkpt lat="44.95941" lon="5.4616">
        <ele>1325</ele>
        <time>2000-01-01T03:28:29.000Z</time>
      </trkpt>
      <trkpt lat="44.95937" lon="5.46128">
        <ele>1326</ele>
        <time>2000-01-01T03:28:39.000Z</time>
      </trkpt>
      <trkpt lat="44.9592" lon="5.46113">
        <ele>1326</ele>
        <time>2000-01-01T03:28:49.000Z</time>
      </trkpt>
      <trkpt lat="44.95895" lon="5.46109">
        <ele>1326</ele>
        <time>2000-01-01T03:28:59.000Z</time>
      </trkpt>
      <trkpt lat="44.95873" lon="5.46108">
        <ele>1324</ele>
        <time>2000-01-01T03:29:09.000Z</time>
      </trkpt>
      <trkpt lat="44.95833" lon="5.46087">
        <ele>1321</ele>
        <time>2000-01-01T03:29:19.000Z</time>
      </trkpt>
      <trkpt lat="44.95804" lon="5.46056">
        <ele>1319</ele>
        <time>2000-01-01T03:29:29.000Z</time>
      </trkpt>
      <trkpt lat="44.95784" lon="5.46053">
        <ele>1315</ele>
        <time>2000-01-01T03:29:39.000Z</time>
      </trkpt>
      <trkpt lat="44.95764" lon="5.46059">
        <ele>1311</ele>
        <time>2000-01-01T03:29:49.000Z</time>
      </trkpt>
      <trkpt lat="44.95732" lon="5.46054">
        <ele>1302</ele>
        <time>2000-01-01T03:29:59.000Z</time>
      </trkpt>
      <trkpt lat="44.95712" lon="5.46028">
        <ele>1299</ele>
        <time>2000-01-01T03:30:09.000Z</time>
      </trkpt>
      <trkpt lat="44.95686" lon="5.45993">
        <ele>1295</ele>
        <time>2000-01-01T03:30:19.000Z</time>
      </trkpt>
      <trkpt lat="44.95653" lon="5.46005">
        <ele>1286</ele>
        <time>2000-01-01T03:30:29.000Z</time>
      </trkpt>
      <trkpt lat="44.95623" lon="5.46006">
        <ele>1280</ele>
        <time>2000-01-01T03:30:39.000Z</time>
      </trkpt>
      <trkpt lat="44.95602" lon="5.45988">
        <ele>1277</ele>
        <time>2000-01-01T03:30:49.000Z</time>
      </trkpt>
      <trkpt lat="44.95579" lon="5.45969">
        <ele>1275</ele>
        <time>2000-01-01T03:30:59.000Z</time>
      </trkpt>
      <trkpt lat="44.9554" lon="5.4594">
        <ele>1270</ele>
        <time>2000-01-01T03:31:09.000Z</time>
      </trkpt>
      <trkpt lat="44.95513" lon="5.45932">
        <ele>1268</ele>
        <time>2000-01-01T03:31:19.000Z</time>
      </trkpt>
      <trkpt lat="44.95492" lon="5.45907">
        <ele>1266</ele>
        <time>2000-01-01T03:31:29.000Z</time>
      </trkpt>
      <trkpt lat="44.95489" lon="5.4591">
        <ele>1267</ele>
        <time>2000-01-01T03:31:39.000Z</time>
      </trkpt>
      <trkpt lat="44.95492" lon="5.45907">
        <ele>1266</ele>
        <time>2000-01-01T03:31:49.000Z</time>
      </trkpt>
      <trkpt lat="44.95501" lon="5.45886">
        <ele>1266</ele>
        <time>2000-01-01T03:31:59.000Z</time>
      </trkpt>
      <trkpt lat="44.9552" lon="5.4583">
        <ele>1265</ele>
        <time>2000-01-01T03:32:09.000Z</time>
      </trkpt>
      <trkpt lat="44.95522" lon="5.45805">
        <ele>1265</ele>
        <time>2000-01-01T03:32:19.000Z</time>
      </trkpt>
      <trkpt lat="44.95517" lon="5.45766">
        <ele>1264</ele>
        <time>2000-01-01T03:32:29.000Z</time>
      </trkpt>
      <trkpt lat="44.95519" lon="5.45705">
        <ele>1262</ele>
        <time>2000-01-01T03:32:39.000Z</time>
      </trkpt>
      <trkpt lat="44.95523" lon="5.45668">
        <ele>1261</ele>
        <time>2000-01-01T03:32:49.000Z</time>
      </trkpt>
      <trkpt lat="44.95527" lon="5.45624">
        <ele>1259</ele>
        <time>2000-01-01T03:32:59.000Z</time>
      </trkpt>
      <trkpt lat="44.95525" lon="5.45597">
        <ele>1258</ele>
        <time>2000-01-01T03:33:09.000Z</time>
      </trkpt>
      <trkpt lat="44.95513" lon="5.45559">
        <ele>1254</ele>
        <time>2000-01-01T03:33:19.000Z</time>
      </trkpt>
      <trkpt lat="44.95515" lon="5.4552">
        <ele>1252</ele>
        <time>2000-01-01T03:33:29.000Z</time>
      </trkpt>
      <trkpt lat="44.95524" lon="5.45494">
        <ele>1250</ele>
        <time>2000-01-01T03:33:39.000Z</time>
      </trkpt>
      <trkpt lat="44.95542" lon="5.45474">
        <ele>1250</ele>
        <time>2000-01-01T03:33:49.000Z</time>
      </trkpt>
      <trkpt lat="44.95556" lon="5.4544">
        <ele>1243</ele>
        <time>2000-01-01T03:33:59.000Z</time>
      </trkpt>
      <trkpt lat="44.95569" lon="5.45419">
        <ele>1245</ele>
        <time>2000-01-01T03:34:09.000Z</time>
      </trkpt>
      <trkpt lat="44.95585" lon="5.45405">
        <ele>1247</ele>
        <time>2000-01-01T03:34:19.000Z</time>
      </trkpt>
      <trkpt lat="44.95594" lon="5.45393">
        <ele>1243</ele>
        <time>2000-01-01T03:34:29.000Z</time>
      </trkpt>
      <trkpt lat="44.95605" lon="5.45345">
        <ele>1242</ele>
        <time>2000-01-01T03:34:39.000Z</time>
      </trkpt>
      <trkpt lat="44.95624" lon="5.45319">
        <ele>1242</ele>
        <time>2000-01-01T03:34:49.000Z</time>
      </trkpt>
      <trkpt lat="44.95646" lon="5.45289">
        <ele>1241</ele>
        <time>2000-01-01T03:34:59.000Z</time>
      </trkpt>
      <trkpt lat="44.95657" lon="5.45256">
        <ele>1234</ele>
        <time>2000-01-01T03:35:09.000Z</time>
      </trkpt>
      <trkpt lat="44.9567" lon="5.45218">
        <ele>1230</ele>
        <time>2000-01-01T03:35:19.000Z</time>
      </trkpt>
      <trkpt lat="44.95692" lon="5.45202">
        <ele>1226</ele>
        <time>2000-01-01T03:35:29.000Z</time>
      </trkpt>
      <trkpt lat="44.95728" lon="5.45184">
        <ele>1223</ele>
        <time>2000-01-01T03:35:39.000Z</time>
      </trkpt>
      <trkpt lat="44.95752" lon="5.45176">
        <ele>1219</ele>
        <time>2000-01-01T03:35:49.000Z</time>
      </trkpt>
      <trkpt lat="44.95776" lon="5.45169">
        <ele>1218</ele>
        <time>2000-01-01T03:35:59.000Z</time>
      </trkpt>
      <trkpt lat="44.95812" lon="5.45166">
        <ele>1218</ele>
        <time>2000-01-01T03:36:09.000Z</time>
      </trkpt>
      <trkpt lat="44.95848" lon="5.45162">
        <ele>1218</ele>
        <time>2000-01-01T03:36:19.000Z</time>
      </trkpt>
      <trkpt lat="44.95885" lon="5.45159">
        <ele>1218</ele>
        <time>2000-01-01T03:36:29.000Z</time>
      </trkpt>
      <trkpt lat="44.95928" lon="5.45155">
        <ele>1218</ele>
        <time>2000-01-01T03:36:39.000Z</time>
      </trkpt>
      <trkpt lat="44.9593" lon="5.45155">
        <ele>1220.4</ele>
        <time>2000-01-01T03:36:49.000Z</time>
      </trkpt>
      <trkpt lat="44.95946" lon="5.4516">
        <ele>1218</ele>
        <time>2000-01-01T03:36:59.000Z</time>
      </trkpt>
      <trkpt lat="44.95952" lon="5.45157">
        <ele>1221.9</ele>
        <time>2000-01-01T03:37:09.000Z</time>
      </trkpt>
      <trkpt lat="44.95954" lon="5.4515">
        <ele>1212</ele>
        <time>2000-01-01T03:37:19.000Z</time>
      </trkpt>
      <trkpt lat="44.9595" lon="5.45144">
        <ele>1214.9</ele>
        <time>2000-01-01T03:37:29.000Z</time>
      </trkpt>
      <trkpt lat="44.95929" lon="5.45145">
        <ele>1211</ele>
        <time>2000-01-01T03:37:39.000Z</time>
      </trkpt>
      <trkpt lat="44.95892" lon="5.45136">
        <ele>1206</ele>
        <time>2000-01-01T03:37:49.000Z</time>
      </trkpt>
      <trkpt lat="44.95855" lon="5.45128">
        <ele>1200</ele>
        <time>2000-01-01T03:37:59.000Z</time>
      </trkpt>
      <trkpt lat="44.95818" lon="5.45119">
        <ele>1193</ele>
        <time>2000-01-01T03:38:09.000Z</time>
      </trkpt>
      <trkpt lat="44.95791" lon="5.45112">
        <ele>1192</ele>
        <time>2000-01-01T03:38:19.000Z</time>
      </trkpt>
      <trkpt lat="44.95754" lon="5.45104">
        <ele>1188</ele>
        <time>2000-01-01T03:38:29.000Z</time>
      </trkpt>
      <trkpt lat="44.95728" lon="5.45101">
        <ele>1187</ele>
        <time>2000-01-01T03:38:39.000Z</time>
      </trkpt>
      <trkpt lat="44.95697" lon="5.45097">
        <ele>1184</ele>
        <time>2000-01-01T03:38:49.000Z</time>
      </trkpt>
      <trkpt lat="44.95676" lon="5.45102">
        <ele>1182</ele>
        <time>2000-01-01T03:38:59.000Z</time>
      </trkpt>
      <trkpt lat="44.95653" lon="5.4512">
        <ele>1182</ele>
        <time>2000-01-01T03:39:09.000Z</time>
      </trkpt>
      <trkpt lat="44.95627" lon="5.45141">
        <ele>1177</ele>
        <time>2000-01-01T03:39:19.000Z</time>
      </trkpt>
      <trkpt lat="44.95599" lon="5.45138">
        <ele>1177</ele>
        <time>2000-01-01T03:39:29.000Z</time>
      </trkpt>
      <trkpt lat="44.95575" lon="5.45161">
        <ele>1177</ele>
        <time>2000-01-01T03:39:39.000Z</time>
      </trkpt>
      <trkpt lat="44.95531" lon="5.45174">
        <ele>1173</ele>
        <time>2000-01-01T03:39:49.000Z</time>
      </trkpt>
      <trkpt lat="44.95493" lon="5.45153">
        <ele>1170</ele>
        <time>2000-01-01T03:39:59.000Z</time>
      </trkpt>
      <trkpt lat="44.95448" lon="5.45174">
        <ele>1171</ele>
        <time>2000-01-01T03:40:09.000Z</time>
      </trkpt>
      <trkpt lat="44.95427" lon="5.45177">
        <ele>1171</ele>
        <time>2000-01-01T03:40:19.000Z</time>
      </trkpt>
      <trkpt lat="44.95401" lon="5.45152">
        <ele>1171</ele>
        <time>2000-01-01T03:40:29.000Z</time>
      </trkpt>
      <trkpt lat="44.95388" lon="5.45111">
        <ele>1163</ele>
        <time>2000-01-01T03:40:39.000Z</time>
      </trkpt>
      <trkpt lat="44.95364" lon="5.45055">
        <ele>1156</ele>
        <time>2000-01-01T03:40:49.000Z</time>
      </trkpt>
      <trkpt lat="44.95344" lon="5.45032">
        <ele>1156</ele>
        <time>2000-01-01T03:40:59.000Z</time>
      </trkpt>
      <trkpt lat="44.95321" lon="5.45006">
        <ele>1149</ele>
        <time>2000-01-01T03:41:09.000Z</time>
      </trkpt>
      <trkpt lat="44.95297" lon="5.44997">
        <ele>1145</ele>
        <time>2000-01-01T03:41:19.000Z</time>
      </trkpt>
      <trkpt lat="44.9527" lon="5.44988">
        <ele>1142</ele>
        <time>2000-01-01T03:41:29.000Z</time>
      </trkpt>
      <trkpt lat="44.95294" lon="5.44989">
        <ele>1142</ele>
        <time>2000-01-01T03:41:39.000Z</time>
      </trkpt>
      <trkpt lat="44.95319" lon="5.44991">
        <ele>1142</ele>
        <time>2000-01-01T03:41:49.000Z</time>
      </trkpt>
      <trkpt lat="44.95348" lon="5.44992">
        <ele>1142</ele>
        <time>2000-01-01T03:41:59.000Z</time>
      </trkpt>
      <trkpt lat="44.95375" lon="5.45003">
        <ele>1139</ele>
        <time>2000-01-01T03:42:09.000Z</time>
      </trkpt>
      <trkpt lat="44.95415" lon="5.4502">
        <ele>1137</ele>
        <time>2000-01-01T03:42:19.000Z</time>
      </trkpt>
      <trkpt lat="44.95427" lon="5.45049">
        <ele>1135</ele>
        <time>2000-01-01T03:42:29.000Z</time>
      </trkpt>
      <trkpt lat="44.95442" lon="5.45052">
        <ele>1132</ele>
        <time>2000-01-01T03:42:39.000Z</time>
      </trkpt>
      <trkpt lat="44.95454" lon="5.45014">
        <ele>1120</ele>
        <time>2000-01-01T03:42:49.000Z</time>
      </trkpt>
      <trkpt lat="44.95473" lon="5.44953">
        <ele>1096</ele>
        <time>2000-01-01T03:42:59.000Z</time>
      </trkpt>
      <trkpt lat="44.95503" lon="5.44907">
        <ele>1072</ele>
        <time>2000-01-01T03:43:09.000Z</time>
      </trkpt>
      <trkpt lat="44.95515" lon="5.44872">
        <ele>1060</ele>
        <time>2000-01-01T03:43:19.000Z</time>
      </trkpt>
      <trkpt lat="44.95533" lon="5.44822">
        <ele>1041</ele>
        <time>2000-01-01T03:43:29.000Z</time>
      </trkpt>
      <trkpt lat="44.95567" lon="5.44807">
        <ele>1031</ele>
        <time>2000-01-01T03:43:39.000Z</time>
      </trkpt>
      <trkpt lat="44.95601" lon="5.44793">
        <ele>1027</ele>
        <time>2000-01-01T03:43:49.000Z</time>
      </trkpt>
      <trkpt lat="44.95628" lon="5.44781">
        <ele>1019</ele>
        <time>2000-01-01T03:43:59.000Z</time>
      </trkpt>
      <trkpt lat="44.95666" lon="5.44765">
        <ele>1008</ele>
        <time>2000-01-01T03:44:09.000Z</time>
      </trkpt>
      <trkpt lat="44.95694" lon="5.4475">
        <ele>994</ele>
        <time>2000-01-01T03:44:19.000Z</time>
      </trkpt>
      <trkpt lat="44.95716" lon="5.44737">
        <ele>990</ele>
        <time>2000-01-01T03:44:29.000Z</time>
      </trkpt>
      <trkpt lat="44.95739" lon="5.44725">
        <ele>986</ele>
        <time>2000-01-01T03:44:39.000Z</time>
      </trkpt>
      <trkpt lat="44.95763" lon="5.44692">
        <ele>976</ele>
        <time>2000-01-01T03:44:49.000Z</time>
      </trkpt>
      <trkpt lat="44.95767" lon="5.44658">
        <ele>960</ele>
        <time>2000-01-01T03:44:59.000Z</time>
      </trkpt>
      <trkpt lat="44.95771" lon="5.44622">
        <ele>950</ele>
        <time>2000-01-01T03:45:09.000Z</time>
      </trkpt>
      <trkpt lat="44.95746" lon="5.44589">
        <ele>935</ele>
        <time>2000-01-01T03:45:19.000Z</time>
      </trkpt>
      <trkpt lat="44.95711" lon="5.44571">
        <ele>928</ele>
        <time>2000-01-01T03:45:29.000Z</time>
      </trkpt>
      <trkpt lat="44.95677" lon="5.44558">
        <ele>914</ele>
        <time>2000-01-01T03:45:39.000Z</time>
      </trkpt>
      <trkpt lat="44.9569" lon="5.44525">
        <ele>905</ele>
        <time>2000-01-01T03:45:49.000Z</time>
      </trkpt>
      <trkpt lat="44.95674" lon="5.4449">
        <ele>891</ele>
        <time>2000-01-01T03:45:59.000Z</time>
      </trkpt>
      <trkpt lat="44.95661" lon="5.44461">
        <ele>882</ele>
        <time>2000-01-01T03:46:09.000Z</time>
      </trkpt>
      <trkpt lat="44.95647" lon="5.44431">
        <ele>870</ele>
        <time>2000-01-01T03:46:19.000Z</time>
      </trkpt>
      <trkpt lat="44.95615" lon="5.44385">
        <ele>850</ele>
        <time>2000-01-01T03:46:29.000Z</time>
      </trkpt>
      <trkpt lat="44.95604" lon="5.4434">
        <ele>836</ele>
        <time>2000-01-01T03:46:39.000Z</time>
      </trkpt>
      <trkpt lat="44.95594" lon="5.44294">
        <ele>826</ele>
        <time>2000-01-01T03:46:49.000Z</time>
      </trkpt>
      <trkpt lat="44.95586" lon="5.44262">
        <ele>820</ele>
        <time>2000-01-01T03:46:59.000Z</time>
      </trkpt>
      <trkpt lat="44.95578" lon="5.44228">
        <ele>813</ele>
        <time>2000-01-01T03:47:09.000Z</time>
      </trkpt>
      <trkpt lat="44.95584" lon="5.44185">
        <ele>804</ele>
        <time>2000-01-01T03:47:19.000Z</time>
      </trkpt>
      <trkpt lat="44.95589" lon="5.4415">
        <ele>799</ele>
        <time>2000-01-01T03:47:29.000Z</time>
      </trkpt>
      <trkpt lat="44.95595" lon="5.44109">
        <ele>790</ele>
        <time>2000-01-01T03:47:39.000Z</time>
      </trkpt>
      <trkpt lat="44.95615" lon="5.44049">
        <ele>781</ele>
        <time>2000-01-01T03:47:49.000Z</time>
      </trkpt>
      <trkpt lat="44.95609" lon="5.44014">
        <ele>777</ele>
        <time>2000-01-01T03:47:59.000Z</time>
      </trkpt>
      <trkpt lat="44.95602" lon="5.43975">
        <ele>771</ele>
        <time>2000-01-01T03:48:09.000Z</time>
      </trkpt>
      <trkpt lat="44.95597" lon="5.43964">
        <ele>770</ele>
        <time>2000-01-01T03:48:19.000Z</time>
      </trkpt>
      <trkpt lat="44.95592" lon="5.43942">
        <ele>767</ele>
        <time>2000-01-01T03:48:29.000Z</time>
      </trkpt>
      <trkpt lat="44.95586" lon="5.43934">
        <ele>766</ele>
        <time>2000-01-01T03:48:39.000Z</time>
      </trkpt>
      <trkpt lat="44.95562" lon="5.4391">
        <ele>762</ele>
        <time>2000-01-01T03:48:49.000Z</time>
      </trkpt>
      <trkpt lat="44.9554" lon="5.43883">
        <ele>759</ele>
        <time>2000-01-01T03:48:59.000Z</time>
      </trkpt>
      <trkpt lat="44.95534" lon="5.43879">
        <ele>757</ele>
        <time>2000-01-01T03:49:09.000Z</time>
      </trkpt>
      <trkpt lat="44.95512" lon="5.43876">
        <ele>757</ele>
        <time>2000-01-01T03:49:19.000Z</time>
      </trkpt>
      <trkpt lat="44.95497" lon="5.43871">
        <ele>756</ele>
        <time>2000-01-01T03:49:29.000Z</time>
      </trkpt>
      <trkpt lat="44.95473" lon="5.43869">
        <ele>755</ele>
        <time>2000-01-01T03:49:39.000Z</time>
      </trkpt>
      <trkpt lat="44.95447" lon="5.43868">
        <ele>755</ele>
        <time>2000-01-01T03:49:49.000Z</time>
      </trkpt>
      <trkpt lat="44.95434" lon="5.43871">
        <ele>755</ele>
        <time>2000-01-01T03:49:59.000Z</time>
      </trkpt>
      <trkpt lat="44.95415" lon="5.43866">
        <ele>754</ele>
        <time>2000-01-01T03:50:09.000Z</time>
      </trkpt>
      <trkpt lat="44.95381" lon="5.4385">
        <ele>754</ele>
        <time>2000-01-01T03:50:19.000Z</time>
      </trkpt>
      <trkpt lat="44.95377" lon="5.43854">
        <ele>755.2</ele>
        <time>2000-01-01T03:50:29.000Z</time>
      </trkpt>
      <trkpt lat="44.95377" lon="5.43856">
        <ele>755.4</ele>
        <time>2000-01-01T03:50:39.000Z</time>
      </trkpt>
      <trkpt lat="44.95377" lon="5.43854">
        <ele>754</ele>
        <time>2000-01-01T03:50:49.000Z</time>
      </trkpt>
      <trkpt lat="44.95381" lon="5.4385">
        <ele>754.7</ele>
        <time>2000-01-01T03:50:59.000Z</time>
      </trkpt>
      <trkpt lat="44.95363" lon="5.43842">
        <ele>754</ele>
        <time>2000-01-01T03:51:09.000Z</time>
      </trkpt>
      <trkpt lat="44.95328" lon="5.4384">
        <ele>755</ele>
        <time>2000-01-01T03:51:19.000Z</time>
      </trkpt>
      <trkpt lat="44.95285" lon="5.43825">
        <ele>758</ele>
        <time>2000-01-01T03:51:29.000Z</time>
      </trkpt>
      <trkpt lat="44.95253" lon="5.43817">
        <ele>758</ele>
        <time>2000-01-01T03:51:39.000Z</time>
      </trkpt>
      <trkpt lat="44.95221" lon="5.43809">
        <ele>757</ele>
        <time>2000-01-01T03:51:49.000Z</time>
      </trkpt>
      <trkpt lat="44.95187" lon="5.438">
        <ele>757</ele>
        <time>2000-01-01T03:51:59.000Z</time>
      </trkpt>
      <trkpt lat="44.95161" lon="5.43791">
        <ele>757</ele>
        <time>2000-01-01T03:52:09.000Z</time>
      </trkpt>
      <trkpt lat="44.95134" lon="5.43769">
        <ele>756</ele>
        <time>2000-01-01T03:52:19.000Z</time>
      </trkpt>
      <trkpt lat="44.95104" lon="5.43748">
        <ele>755</ele>
        <time>2000-01-01T03:52:29.000Z</time>
      </trkpt>
      <trkpt lat="44.95075" lon="5.43727">
        <ele>755</ele>
        <time>2000-01-01T03:52:39.000Z</time>
      </trkpt>
      <trkpt lat="44.95038" lon="5.437">
        <ele>755</ele>
        <time>2000-01-01T03:52:49.000Z</time>
      </trkpt>
      <trkpt lat="44.95023" lon="5.43696">
        <ele>756</ele>
        <time>2000-01-01T03:52:59.000Z</time>
      </trkpt>
      <trkpt lat="44.95" lon="5.43693">
        <ele>756</ele>
        <time>2000-01-01T03:53:09.000Z</time>
      </trkpt>
      <trkpt lat="44.94975" lon="5.4368">
        <ele>756</ele>
        <time>2000-01-01T03:53:19.000Z</time>
      </trkpt>
      <trkpt lat="44.94946" lon="5.43665">
        <ele>756</ele>
        <time>2000-01-01T03:53:29.000Z</time>
      </trkpt>
      <trkpt lat="44.94928" lon="5.4366">
        <ele>756</ele>
        <time>2000-01-01T03:53:39.000Z</time>
      </trkpt>
      <trkpt lat="44.94917" lon="5.4366">
        <ele>757</ele>
        <time>2000-01-01T03:53:49.000Z</time>
      </trkpt>
      <trkpt lat="44.94895" lon="5.43666">
        <ele>758</ele>
        <time>2000-01-01T03:53:59.000Z</time>
      </trkpt>
      <trkpt lat="44.94848" lon="5.43664">
        <ele>759</ele>
        <time>2000-01-01T03:54:09.000Z</time>
      </trkpt>
      <trkpt lat="44.94814" lon="5.43666">
        <ele>759</ele>
        <time>2000-01-01T03:54:19.000Z</time>
      </trkpt>
      <trkpt lat="44.9479" lon="5.43665">
        <ele>760</ele>
        <time>2000-01-01T03:54:29.000Z</time>
      </trkpt>
      <trkpt lat="44.94765" lon="5.43665">
        <ele>760</ele>
        <time>2000-01-01T03:54:39.000Z</time>
      </trkpt>
      <trkpt lat="44.94739" lon="5.43668">
        <ele>760</ele>
        <time>2000-01-01T03:54:49.000Z</time>
      </trkpt>
      <trkpt lat="44.9471" lon="5.43672">
        <ele>761</ele>
        <time>2000-01-01T03:54:59.000Z</time>
      </trkpt>
      <trkpt lat="44.94664" lon="5.43671">
        <ele>761</ele>
        <time>2000-01-01T03:55:09.000Z</time>
      </trkpt>
      <trkpt lat="44.94651" lon="5.43675">
        <ele>761</ele>
        <time>2000-01-01T03:55:19.000Z</time>
      </trkpt>
      <trkpt lat="44.94627" lon="5.43685">
        <ele>762</ele>
        <time>2000-01-01T03:55:29.000Z</time>
      </trkpt>
      <trkpt lat="44.94598" lon="5.4369">
        <ele>762</ele>
        <time>2000-01-01T03:55:39.000Z</time>
      </trkpt>
      <trkpt lat="44.94582" lon="5.43696">
        <ele>763</ele>
        <time>2000-01-01T03:55:49.000Z</time>
      </trkpt>
      <trkpt lat="44.94546" lon="5.43717">
        <ele>764</ele>
        <time>2000-01-01T03:55:59.000Z</time>
      </trkpt>
      <trkpt lat="44.94545" lon="5.43762">
        <ele>770</ele>
        <time>2000-01-01T03:56:09.000Z</time>
      </trkpt>
      <trkpt lat="44.94544" lon="5.438">
        <ele>777</ele>
        <time>2000-01-01T03:56:19.000Z</time>
      </trkpt>
      <trkpt lat="44.94543" lon="5.43851">
        <ele>781</ele>
        <time>2000-01-01T03:56:29.000Z</time>
      </trkpt>
      <trkpt lat="44.94509" lon="5.43867">
        <ele>785</ele>
        <time>2000-01-01T03:56:39.000Z</time>
      </trkpt>
      <trkpt lat="44.94476" lon="5.43883">
        <ele>787</ele>
        <time>2000-01-01T03:56:49.000Z</time>
      </trkpt>
      <trkpt lat="44.9445" lon="5.43895">
        <ele>788</ele>
        <time>2000-01-01T03:56:59.000Z</time>
      </trkpt>
      <trkpt lat="44.94414" lon="5.43912">
        <ele>795</ele>
        <time>2000-01-01T03:57:09.000Z</time>
      </trkpt>
      <trkpt lat="44.94379" lon="5.4392">
        <ele>796</ele>
        <time>2000-01-01T03:57:19.000Z</time>
      </trkpt>
      <trkpt lat="44.94344" lon="5.43927">
        <ele>799</ele>
        <time>2000-01-01T03:57:29.000Z</time>
      </trkpt>
      <trkpt lat="44.94316" lon="5.43933">
        <ele>801</ele>
        <time>2000-01-01T03:57:39.000Z</time>
      </trkpt>
      <trkpt lat="44.94277" lon="5.43942">
        <ele>803</ele>
        <time>2000-01-01T03:57:49.000Z</time>
      </trkpt>
      <trkpt lat="44.94248" lon="5.43959">
        <ele>804</ele>
        <time>2000-01-01T03:57:59.000Z</time>
      </trkpt>
      <trkpt lat="44.94224" lon="5.43973">
        <ele>809</ele>
        <time>2000-01-01T03:58:09.000Z</time>
      </trkpt>
      <trkpt lat="44.94195" lon="5.43991">
        <ele>809</ele>
        <time>2000-01-01T03:58:19.000Z</time>
      </trkpt>
      <trkpt lat="44.94163" lon="5.4398">
        <ele>809</ele>
        <time>2000-01-01T03:58:29.000Z</time>
      </trkpt>
      <trkpt lat="44.9413" lon="5.43969">
        <ele>803</ele>
        <time>2000-01-01T03:58:39.000Z</time>
      </trkpt>
      <trkpt lat="44.94088" lon="5.43955">
        <ele>800</ele>
        <time>2000-01-01T03:58:49.000Z</time>
      </trkpt>
      <trkpt lat="44.94049" lon="5.43936">
        <ele>794</ele>
        <time>2000-01-01T03:58:59.000Z</time>
      </trkpt>
      <trkpt lat="44.94014" lon="5.4393">
        <ele>794</ele>
        <time>2000-01-01T03:59:09.000Z</time>
      </trkpt>
      <trkpt lat="44.93978" lon="5.43924">
        <ele>794</ele>
        <time>2000-01-01T03:59:19.000Z</time>
      </trkpt>
      <trkpt lat="44.93951" lon="5.43919">
        <ele>794</ele>
        <time>2000-01-01T03:59:29.000Z</time>
      </trkpt>
      <trkpt lat="44.93911" lon="5.43912">
        <ele>795</ele>
        <time>2000-01-01T03:59:39.000Z</time>
      </trkpt>
      <trkpt lat="44.93886" lon="5.4388">
        <ele>793</ele>
        <time>2000-01-01T03:59:49.000Z</time>
      </trkpt>
      <trkpt lat="44.93861" lon="5.43848">
        <ele>792</ele>
        <time>2000-01-01T03:59:59.000Z</time>
      </trkpt>
      <trkpt lat="44.93843" lon="5.43826">
        <ele>792</ele>
        <time>2000-01-01T04:00:09.000Z</time>
      </trkpt>
      <trkpt lat="44.93825" lon="5.43803">
        <ele>791</ele>
        <time>2000-01-01T04:00:19.000Z</time>
      </trkpt>
      <trkpt lat="44.93804" lon="5.43773">
        <ele>788</ele>
        <time>2000-01-01T04:00:29.000Z</time>
      </trkpt>
      <trkpt lat="44.93787" lon="5.43749">
        <ele>785</ele>
        <time>2000-01-01T04:00:39.000Z</time>
      </trkpt>
      <trkpt lat="44.9377" lon="5.43724">
        <ele>782</ele>
        <time>2000-01-01T04:00:49.000Z</time>
      </trkpt>
      <trkpt lat="44.93749" lon="5.43703">
        <ele>780</ele>
        <time>2000-01-01T04:00:59.000Z</time>
      </trkpt>
      <trkpt lat="44.93727" lon="5.43681">
        <ele>778</ele>
        <time>2000-01-01T04:01:09.000Z</time>
      </trkpt>
      <trkpt lat="44.93716" lon="5.43631">
        <ele>774</ele>
        <time>2000-01-01T04:01:19.000Z</time>
      </trkpt>
      <trkpt lat="44.93705" lon="5.43581">
        <ele>774</ele>
        <time>2000-01-01T04:01:29.000Z</time>
      </trkpt>
      <trkpt lat="44.93695" lon="5.43531">
        <ele>774</ele>
        <time>2000-01-01T04:01:39.000Z</time>
      </trkpt>
      <trkpt lat="44.93687" lon="5.43496">
        <ele>774</ele>
        <time>2000-01-01T04:01:49.000Z</time>
      </trkpt>
      <trkpt lat="44.93679" lon="5.43457">
        <ele>775</ele>
        <time>2000-01-01T04:01:59.000Z</time>
      </trkpt>
      <trkpt lat="44.93653" lon="5.43439">
        <ele>775</ele>
        <time>2000-01-01T04:02:09.000Z</time>
      </trkpt>
      <trkpt lat="44.93614" lon="5.43412">
        <ele>775</ele>
        <time>2000-01-01T04:02:19.000Z</time>
      </trkpt>
      <trkpt lat="44.93616" lon="5.43424">
        <ele>775</ele>
        <time>2000-01-01T04:02:29.000Z</time>
      </trkpt>
      <trkpt lat="44.93609" lon="5.43377">
        <ele>776</ele>
        <time>2000-01-01T04:02:39.000Z</time>
      </trkpt>
      <trkpt lat="44.93601" lon="5.43331">
        <ele>781</ele>
        <time>2000-01-01T04:02:49.000Z</time>
      </trkpt>
      <trkpt lat="44.93591" lon="5.43265">
        <ele>798</ele>
        <time>2000-01-01T04:02:59.000Z</time>
      </trkpt>
      <trkpt lat="44.93562" lon="5.4325">
        <ele>799</ele>
        <time>2000-01-01T04:03:09.000Z</time>
      </trkpt>
      <trkpt lat="44.93538" lon="5.43237">
        <ele>797</ele>
        <time>2000-01-01T04:03:19.000Z</time>
      </trkpt>
      <trkpt lat="44.93509" lon="5.43222">
        <ele>795</ele>
        <time>2000-01-01T04:03:29.000Z</time>
      </trkpt>
      <trkpt lat="44.93486" lon="5.43195">
        <ele>795</ele>
        <time>2000-01-01T04:03:39.000Z</time>
      </trkpt>
      <trkpt lat="44.93468" lon="5.43173">
        <ele>792</ele>
        <time>2000-01-01T04:03:49.000Z</time>
      </trkpt>
      <trkpt lat="44.93449" lon="5.4315">
        <ele>788</ele>
        <time>2000-01-01T04:03:59.000Z</time>
      </trkpt>
      <trkpt lat="44.93419" lon="5.43129">
        <ele>783</ele>
        <time>2000-01-01T04:04:09.000Z</time>
      </trkpt>
      <trkpt lat="44.93388" lon="5.43107">
        <ele>781</ele>
        <time>2000-01-01T04:04:19.000Z</time>
      </trkpt>
      <trkpt lat="44.93367" lon="5.43092">
        <ele>781</ele>
        <time>2000-01-01T04:04:29.000Z</time>
      </trkpt>
      <trkpt lat="44.93345" lon="5.43077">
        <ele>781</ele>
        <time>2000-01-01T04:04:39.000Z</time>
      </trkpt>
      <trkpt lat="44.93309" lon="5.43064">
        <ele>781</ele>
        <time>2000-01-01T04:04:49.000Z</time>
      </trkpt>
      <trkpt lat="44.93273" lon="5.4305">
        <ele>781</ele>
        <time>2000-01-01T04:04:59.000Z</time>
      </trkpt>
      <trkpt lat="44.93236" lon="5.43037">
        <ele>781</ele>
        <time>2000-01-01T04:05:09.000Z</time>
      </trkpt>
      <trkpt lat="44.93211" lon="5.43028">
        <ele>781</ele>
        <time>2000-01-01T04:05:19.000Z</time>
      </trkpt>
      <trkpt lat="44.93178" lon="5.43016">
        <ele>781</ele>
        <time>2000-01-01T04:05:29.000Z</time>
      </trkpt>
      <trkpt lat="44.93141" lon="5.43015">
        <ele>782</ele>
        <time>2000-01-01T04:05:39.000Z</time>
      </trkpt>
      <trkpt lat="44.93105" lon="5.43014">
        <ele>784</ele>
        <time>2000-01-01T04:05:49.000Z</time>
      </trkpt>
      <trkpt lat="44.93069" lon="5.43013">
        <ele>786</ele>
        <time>2000-01-01T04:05:59.000Z</time>
      </trkpt>
      <trkpt lat="44.93023" lon="5.43012">
        <ele>787</ele>
        <time>2000-01-01T04:06:09.000Z</time>
      </trkpt>
      <trkpt lat="44.92988" lon="5.43013">
        <ele>787</ele>
        <time>2000-01-01T04:06:19.000Z</time>
      </trkpt>
      <trkpt lat="44.92954" lon="5.43014">
        <ele>788</ele>
        <time>2000-01-01T04:06:29.000Z</time>
      </trkpt>
      <trkpt lat="44.92927" lon="5.43015">
        <ele>788</ele>
        <time>2000-01-01T04:06:39.000Z</time>
      </trkpt>
      <trkpt lat="44.92896" lon="5.43016">
        <ele>788</ele>
        <time>2000-01-01T04:06:49.000Z</time>
      </trkpt>
      <trkpt lat="44.92868" lon="5.42998">
        <ele>789</ele>
        <time>2000-01-01T04:06:59.000Z</time>
      </trkpt>
      <trkpt lat="44.92844" lon="5.42983">
        <ele>789</ele>
        <time>2000-01-01T04:07:09.000Z</time>
      </trkpt>
      <trkpt lat="44.92817" lon="5.42965">
        <ele>790</ele>
        <time>2000-01-01T04:07:19.000Z</time>
      </trkpt>
      <trkpt lat="44.92782" lon="5.42957">
        <ele>790</ele>
        <time>2000-01-01T04:07:29.000Z</time>
      </trkpt>
      <trkpt lat="44.92748" lon="5.42949">
        <ele>791</ele>
        <time>2000-01-01T04:07:39.000Z</time>
      </trkpt>
      <trkpt lat="44.92721" lon="5.42943">
        <ele>791</ele>
        <time>2000-01-01T04:07:49.000Z</time>
      </trkpt>
      <trkpt lat="44.92685" lon="5.42935">
        <ele>792</ele>
        <time>2000-01-01T04:07:59.000Z</time>
      </trkpt>
      <trkpt lat="44.92683" lon="5.4293">
        <ele>792.4</ele>
        <time>2000-01-01T04:08:09.000Z</time>
      </trkpt>
      <trkpt lat="44.92691" lon="5.42917">
        <ele>792</ele>
        <time>2000-01-01T04:08:19.000Z</time>
      </trkpt>
      <trkpt lat="44.92702" lon="5.42882">
        <ele>792</ele>
        <time>2000-01-01T04:08:29.000Z</time>
      </trkpt>
      <trkpt lat="44.92718" lon="5.42834">
        <ele>792</ele>
        <time>2000-01-01T04:08:39.000Z</time>
      </trkpt>
      <trkpt lat="44.92728" lon="5.42802">
        <ele>793</ele>
        <time>2000-01-01T04:08:49.000Z</time>
      </trkpt>
      <trkpt lat="44.92738" lon="5.42769">
        <ele>797</ele>
        <time>2000-01-01T04:08:59.000Z</time>
      </trkpt>
      <trkpt lat="44.92743" lon="5.42769">
        <ele>796.3</ele>
        <time>2000-01-01T04:09:09.000Z</time>
      </trkpt>
      <trkpt lat="44.92756" lon="5.42703">
        <ele>806</ele>
        <time>2000-01-01T04:09:19.000Z</time>
      </trkpt>
      <trkpt lat="44.92778" lon="5.42682">
        <ele>810</ele>
        <time>2000-01-01T04:09:29.000Z</time>
      </trkpt>
      <trkpt lat="44.92805" lon="5.42656">
        <ele>816</ele>
        <time>2000-01-01T04:09:39.000Z</time>
      </trkpt>
      <trkpt lat="44.92793" lon="5.42626">
        <ele>822</ele>
        <time>2000-01-01T04:09:49.000Z</time>
      </trkpt>
      <trkpt lat="44.9278" lon="5.42596">
        <ele>828</ele>
        <time>2000-01-01T04:09:59.000Z</time>
      </trkpt>
      <trkpt lat="44.92788" lon="5.42589">
        <ele>828</ele>
        <time>2000-01-01T04:10:09.000Z</time>
      </trkpt>
      <trkpt lat="44.92813" lon="5.42592">
        <ele>828</ele>
        <time>2000-01-01T04:10:19.000Z</time>
      </trkpt>
      <trkpt lat="44.92823" lon="5.42584">
        <ele>831</ele>
        <time>2000-01-01T04:10:29.000Z</time>
      </trkpt>
      <trkpt lat="44.92814" lon="5.42572">
        <ele>834</ele>
        <time>2000-01-01T04:10:39.000Z</time>
      </trkpt>
      <trkpt lat="44.92787" lon="5.42559">
        <ele>836</ele>
        <time>2000-01-01T04:10:49.000Z</time>
      </trkpt>
      <trkpt lat="44.92767" lon="5.4254">
        <ele>838</ele>
        <time>2000-01-01T04:10:59.000Z</time>
      </trkpt>
      <trkpt lat="44.92746" lon="5.42521">
        <ele>842</ele>
        <time>2000-01-01T04:11:09.000Z</time>
      </trkpt>
      <trkpt lat="44.92721" lon="5.42508">
        <ele>847</ele>
        <time>2000-01-01T04:11:19.000Z</time>
      </trkpt>
      <trkpt lat="44.92691" lon="5.42491">
        <ele>849</ele>
        <time>2000-01-01T04:11:29.000Z</time>
      </trkpt>
      <trkpt lat="44.92662" lon="5.42495">
        <ele>850</ele>
        <time>2000-01-01T04:11:39.000Z</time>
      </trkpt>
      <trkpt lat="44.92616" lon="5.42502">
        <ele>850</ele>
        <time>2000-01-01T04:11:49.000Z</time>
      </trkpt>
      <trkpt lat="44.92584" lon="5.42492">
        <ele>855</ele>
        <time>2000-01-01T04:11:59.000Z</time>
      </trkpt>
      <trkpt lat="44.92543" lon="5.42492">
        <ele>856</ele>
        <time>2000-01-01T04:12:09.000Z</time>
      </trkpt>
      <trkpt lat="44.9251" lon="5.42475">
        <ele>863</ele>
        <time>2000-01-01T04:12:19.000Z</time>
      </trkpt>
      <trkpt lat="44.9247" lon="5.42485">
        <ele>865</ele>
        <time>2000-01-01T04:12:29.000Z</time>
      </trkpt>
      <trkpt lat="44.92442" lon="5.42485">
        <ele>869</ele>
        <time>2000-01-01T04:12:39.000Z</time>
      </trkpt>
      <trkpt lat="44.924" lon="5.42484">
        <ele>878</ele>
        <time>2000-01-01T04:12:49.000Z</time>
      </trkpt>
      <trkpt lat="44.92375" lon="5.42491">
        <ele>879</ele>
        <time>2000-01-01T04:12:59.000Z</time>
      </trkpt>
      <trkpt lat="44.92345" lon="5.425">
        <ele>883</ele>
        <time>2000-01-01T04:13:09.000Z</time>
      </trkpt>
      <trkpt lat="44.92315" lon="5.42493">
        <ele>885</ele>
        <time>2000-01-01T04:13:19.000Z</time>
      </trkpt>
      <trkpt lat="44.92289" lon="5.42487">
        <ele>888</ele>
        <time>2000-01-01T04:13:29.000Z</time>
      </trkpt>
      <trkpt lat="44.9226" lon="5.4248">
        <ele>890</ele>
        <time>2000-01-01T04:13:39.000Z</time>
      </trkpt>
      <trkpt lat="44.92235" lon="5.42466">
        <ele>893</ele>
        <time>2000-01-01T04:13:49.000Z</time>
      </trkpt>
      <trkpt lat="44.92204" lon="5.42449">
        <ele>898</ele>
        <time>2000-01-01T04:13:59.000Z</time>
      </trkpt>
      <trkpt lat="44.92179" lon="5.42442">
        <ele>899</ele>
        <time>2000-01-01T04:14:09.000Z</time>
      </trkpt>
      <trkpt lat="44.92175" lon="5.4243">
        <ele>902</ele>
        <time>2000-01-01T04:14:19.000Z</time>
      </trkpt>
      <trkpt lat="44.92169" lon="5.42421">
        <ele>903</ele>
        <time>2000-01-01T04:14:29.000Z</time>
      </trkpt>
      <trkpt lat="44.92131" lon="5.42397">
        <ele>908</ele>
        <time>2000-01-01T04:14:39.000Z</time>
      </trkpt>
      <trkpt lat="44.92115" lon="5.42366">
        <ele>911</ele>
        <time>2000-01-01T04:14:49.000Z</time>
      </trkpt>
      <trkpt lat="44.92094" lon="5.42327">
        <ele>915</ele>
        <time>2000-01-01T04:14:59.000Z</time>
      </trkpt>
      <trkpt lat="44.92059" lon="5.42306">
        <ele>918</ele>
        <time>2000-01-01T04:15:09.000Z</time>
      </trkpt>
      <trkpt lat="44.9202" lon="5.42297">
        <ele>921</ele>
        <time>2000-01-01T04:15:19.000Z</time>
      </trkpt>
      <trkpt lat="44.92008" lon="5.42288">
        <ele>923</ele>
        <time>2000-01-01T04:15:29.000Z</time>
      </trkpt>
      <trkpt lat="44.92012" lon="5.42277">
        <ele>924</ele>
        <time>2000-01-01T04:15:39.000Z</time>
      </trkpt>
      <trkpt lat="44.92035" lon="5.42264">
        <ele>927</ele>
        <time>2000-01-01T04:15:49.000Z</time>
      </trkpt>
      <trkpt lat="44.92059" lon="5.42251">
        <ele>928</ele>
        <time>2000-01-01T04:15:59.000Z</time>
      </trkpt>
      <trkpt lat="44.92104" lon="5.42231">
        <ele>933</ele>
        <time>2000-01-01T04:16:09.000Z</time>
      </trkpt>
      <trkpt lat="44.92132" lon="5.42224">
        <ele>936</ele>
        <time>2000-01-01T04:16:19.000Z</time>
      </trkpt>
      <trkpt lat="44.92174" lon="5.42214">
        <ele>940</ele>
        <time>2000-01-01T04:16:29.000Z</time>
      </trkpt>
      <trkpt lat="44.92203" lon="5.42217">
        <ele>941</ele>
        <time>2000-01-01T04:16:39.000Z</time>
      </trkpt>
      <trkpt lat="44.9223" lon="5.42202">
        <ele>945</ele>
        <time>2000-01-01T04:16:49.000Z</time>
      </trkpt>
      <trkpt lat="44.9227" lon="5.42193">
        <ele>948</ele>
        <time>2000-01-01T04:16:59.000Z</time>
      </trkpt>
      <trkpt lat="44.92308" lon="5.42168">
        <ele>955</ele>
        <time>2000-01-01T04:17:09.000Z</time>
      </trkpt>
      <trkpt lat="44.92343" lon="5.42159">
        <ele>957</ele>
        <time>2000-01-01T04:17:19.000Z</time>
      </trkpt>
      <trkpt lat="44.92379" lon="5.42151">
        <ele>957</ele>
        <time>2000-01-01T04:17:29.000Z</time>
      </trkpt>
      <trkpt lat="44.92414" lon="5.42143">
        <ele>961</ele>
        <time>2000-01-01T04:17:39.000Z</time>
      </trkpt>
      <trkpt lat="44.9245" lon="5.42134">
        <ele>963</ele>
        <time>2000-01-01T04:17:49.000Z</time>
      </trkpt>
      <trkpt lat="44.92483" lon="5.4212">
        <ele>971</ele>
        <time>2000-01-01T04:17:59.000Z</time>
      </trkpt>
      <trkpt lat="44.92517" lon="5.42115">
        <ele>971</ele>
        <time>2000-01-01T04:18:09.000Z</time>
      </trkpt>
      <trkpt lat="44.92552" lon="5.4211">
        <ele>972</ele>
        <time>2000-01-01T04:18:19.000Z</time>
      </trkpt>
      <trkpt lat="44.92577" lon="5.42106">
        <ele>975</ele>
        <time>2000-01-01T04:18:29.000Z</time>
      </trkpt>
      <trkpt lat="44.92608" lon="5.42102">
        <ele>977</ele>
        <time>2000-01-01T04:18:39.000Z</time>
      </trkpt>
      <trkpt lat="44.92633" lon="5.42097">
        <ele>982</ele>
        <time>2000-01-01T04:18:49.000Z</time>
      </trkpt>
      <trkpt lat="44.92661" lon="5.42092">
        <ele>983</ele>
        <time>2000-01-01T04:18:59.000Z</time>
      </trkpt>
      <trkpt lat="44.92686" lon="5.42101">
        <ele>985</ele>
        <time>2000-01-01T04:19:09.000Z</time>
      </trkpt>
      <trkpt lat="44.92718" lon="5.42113">
        <ele>988</ele>
        <time>2000-01-01T04:19:19.000Z</time>
      </trkpt>
      <trkpt lat="44.92742" lon="5.42124">
        <ele>990</ele>
        <time>2000-01-01T04:19:29.000Z</time>
      </trkpt>
      <trkpt lat="44.92769" lon="5.42136">
        <ele>990</ele>
        <time>2000-01-01T04:19:39.000Z</time>
      </trkpt>
      <trkpt lat="44.92809" lon="5.42162">
        <ele>990</ele>
        <time>2000-01-01T04:19:49.000Z</time>
      </trkpt>
      <trkpt lat="44.92835" lon="5.42165">
        <ele>996</ele>
        <time>2000-01-01T04:19:59.000Z</time>
      </trkpt>
      <trkpt lat="44.92861" lon="5.42173">
        <ele>999</ele>
        <time>2000-01-01T04:20:09.000Z</time>
      </trkpt>
      <trkpt lat="44.92894" lon="5.42184">
        <ele>1002</ele>
        <time>2000-01-01T04:20:19.000Z</time>
      </trkpt>
      <trkpt lat="44.92915" lon="5.42187">
        <ele>1006</ele>
        <time>2000-01-01T04:20:29.000Z</time>
      </trkpt>
      <trkpt lat="44.92924" lon="5.42194">
        <ele>1007</ele>
        <time>2000-01-01T04:20:39.000Z</time>
      </trkpt>
      <trkpt lat="44.92927" lon="5.42185">
        <ele>1006</ele>
        <time>2000-01-01T04:20:49.000Z</time>
      </trkpt>
      <trkpt lat="44.92899" lon="5.42171">
        <ele>1006</ele>
        <time>2000-01-01T04:20:59.000Z</time>
      </trkpt>
      <trkpt lat="44.92871" lon="5.42148">
        <ele>1008</ele>
        <time>2000-01-01T04:21:09.000Z</time>
      </trkpt>
      <trkpt lat="44.92843" lon="5.42125">
        <ele>1011</ele>
        <time>2000-01-01T04:21:19.000Z</time>
      </trkpt>
      <trkpt lat="44.92812" lon="5.421">
        <ele>1014</ele>
        <time>2000-01-01T04:21:29.000Z</time>
      </trkpt>
      <trkpt lat="44.92783" lon="5.42063">
        <ele>1018</ele>
        <time>2000-01-01T04:21:39.000Z</time>
      </trkpt>
      <trkpt lat="44.92757" lon="5.42043">
        <ele>1019</ele>
        <time>2000-01-01T04:21:49.000Z</time>
      </trkpt>
      <trkpt lat="44.92736" lon="5.4202">
        <ele>1024</ele>
        <time>2000-01-01T04:21:59.000Z</time>
      </trkpt>
      <trkpt lat="44.92709" lon="5.41991">
        <ele>1027</ele>
        <time>2000-01-01T04:22:09.000Z</time>
      </trkpt>
      <trkpt lat="44.92673" lon="5.41968">
        <ele>1032</ele>
        <time>2000-01-01T04:22:19.000Z</time>
      </trkpt>
      <trkpt lat="44.92637" lon="5.41945">
        <ele>1032</ele>
        <time>2000-01-01T04:22:29.000Z</time>
      </trkpt>
      <trkpt lat="44.92601" lon="5.41921">
        <ele>1035</ele>
        <time>2000-01-01T04:22:39.000Z</time>
      </trkpt>
      <trkpt lat="44.92565" lon="5.41898">
        <ele>1040</ele>
        <time>2000-01-01T04:22:49.000Z</time>
      </trkpt>
      <trkpt lat="44.92538" lon="5.41881">
        <ele>1040</ele>
        <time>2000-01-01T04:22:59.000Z</time>
      </trkpt>
      <trkpt lat="44.92496" lon="5.41854">
        <ele>1045</ele>
        <time>2000-01-01T04:23:09.000Z</time>
      </trkpt>
      <trkpt lat="44.92469" lon="5.41842">
        <ele>1047</ele>
        <time>2000-01-01T04:23:19.000Z</time>
      </trkpt>
      <trkpt lat="44.92429" lon="5.41825">
        <ele>1050</ele>
        <time>2000-01-01T04:23:29.000Z</time>
      </trkpt>
      <trkpt lat="44.92405" lon="5.41821">
        <ele>1050</ele>
        <time>2000-01-01T04:23:39.000Z</time>
      </trkpt>
      <trkpt lat="44.92381" lon="5.41817">
        <ele>1054</ele>
        <time>2000-01-01T04:23:49.000Z</time>
      </trkpt>
      <trkpt lat="44.92354" lon="5.41808">
        <ele>1059</ele>
        <time>2000-01-01T04:23:59.000Z</time>
      </trkpt>
      <trkpt lat="44.92351" lon="5.41794">
        <ele>1062</ele>
        <time>2000-01-01T04:24:09.000Z</time>
      </trkpt>
      <trkpt lat="44.92359" lon="5.41782">
        <ele>1066</ele>
        <time>2000-01-01T04:24:19.000Z</time>
      </trkpt>
      <trkpt lat="44.92391" lon="5.41775">
        <ele>1067</ele>
        <time>2000-01-01T04:24:29.000Z</time>
      </trkpt>
      <trkpt lat="44.92424" lon="5.41768">
        <ele>1070</ele>
        <time>2000-01-01T04:24:39.000Z</time>
      </trkpt>
      <trkpt lat="44.92464" lon="5.41759">
        <ele>1075</ele>
        <time>2000-01-01T04:24:49.000Z</time>
      </trkpt>
      <trkpt lat="44.92487" lon="5.41734">
        <ele>1081</ele>
        <time>2000-01-01T04:24:59.000Z</time>
      </trkpt>
      <trkpt lat="44.92513" lon="5.41731">
        <ele>1082</ele>
        <time>2000-01-01T04:25:09.000Z</time>
      </trkpt>
      <trkpt lat="44.92544" lon="5.41728">
        <ele>1087</ele>
        <time>2000-01-01T04:25:19.000Z</time>
      </trkpt>
      <trkpt lat="44.92555" lon="5.41715">
        <ele>1090</ele>
        <time>2000-01-01T04:25:29.000Z</time>
      </trkpt>
      <trkpt lat="44.92602" lon="5.41721">
        <ele>1092</ele>
        <time>2000-01-01T04:25:39.000Z</time>
      </trkpt>
      <trkpt lat="44.92635" lon="5.41735">
        <ele>1094</ele>
        <time>2000-01-01T04:25:49.000Z</time>
      </trkpt>
      <trkpt lat="44.92637" lon="5.41725">
        <ele>1096</ele>
        <time>2000-01-01T04:25:59.000Z</time>
      </trkpt>
      <trkpt lat="44.926" lon="5.41693">
        <ele>1096</ele>
        <time>2000-01-01T04:26:09.000Z</time>
      </trkpt>
      <trkpt lat="44.92578" lon="5.41667">
        <ele>1096</ele>
        <time>2000-01-01T04:26:19.000Z</time>
      </trkpt>
      <trkpt lat="44.92577" lon="5.41638">
        <ele>1097</ele>
        <time>2000-01-01T04:26:29.000Z</time>
      </trkpt>
      <trkpt lat="44.92606" lon="5.41606">
        <ele>1099</ele>
        <time>2000-01-01T04:26:39.000Z</time>
      </trkpt>
      <trkpt lat="44.92617" lon="5.41573">
        <ele>1099</ele>
        <time>2000-01-01T04:26:49.000Z</time>
      </trkpt>
      <trkpt lat="44.92622" lon="5.41535">
        <ele>1099</ele>
        <time>2000-01-01T04:26:59.000Z</time>
      </trkpt>
      <trkpt lat="44.92621" lon="5.415">
        <ele>1099</ele>
        <time>2000-01-01T04:27:09.000Z</time>
      </trkpt>
      <trkpt lat="44.9262" lon="5.41461">
        <ele>1099</ele>
        <time>2000-01-01T04:27:19.000Z</time>
      </trkpt>
      <trkpt lat="44.9262" lon="5.41438">
        <ele>1099</ele>
        <time>2000-01-01T04:27:29.000Z</time>
      </trkpt>
      <trkpt lat="44.92625" lon="5.41395">
        <ele>1099</ele>
        <time>2000-01-01T04:27:39.000Z</time>
      </trkpt>
      <trkpt lat="44.92625" lon="5.41396">
        <ele>1098.5</ele>
        <time>2000-01-01T04:27:49.000Z</time>
      </trkpt>
      <trkpt lat="44.9263" lon="5.41393">
        <ele>1098.3</ele>
        <time>2000-01-01T04:27:59.000Z</time>
      </trkpt>
      <trkpt lat="44.92602" lon="5.41379">
        <ele>1099</ele>
        <time>2000-01-01T04:28:09.000Z</time>
      </trkpt>
      <trkpt lat="44.92581" lon="5.41369">
        <ele>1099</ele>
        <time>2000-01-01T04:28:19.000Z</time>
      </trkpt>
      <trkpt lat="44.92564" lon="5.41361">
        <ele>1099</ele>
        <time>2000-01-01T04:28:29.000Z</time>
      </trkpt>
      <trkpt lat="44.9255" lon="5.41372">
        <ele>1100</ele>
        <time>2000-01-01T04:28:39.000Z</time>
      </trkpt>
      <trkpt lat="44.92534" lon="5.41421">
        <ele>1105</ele>
        <time>2000-01-01T04:28:49.000Z</time>
      </trkpt>
      <trkpt lat="44.92504" lon="5.41444">
        <ele>1107</ele>
        <time>2000-01-01T04:28:59.000Z</time>
      </trkpt>
      <trkpt lat="44.92475" lon="5.41488">
        <ele>1113</ele>
        <time>2000-01-01T04:29:09.000Z</time>
      </trkpt>
      <trkpt lat="44.92452" lon="5.41511">
        <ele>1119</ele>
        <time>2000-01-01T04:29:19.000Z</time>
      </trkpt>
      <trkpt lat="44.92422" lon="5.41514">
        <ele>1122</ele>
        <time>2000-01-01T04:29:29.000Z</time>
      </trkpt>
      <trkpt lat="44.9237" lon="5.41518">
        <ele>1123</ele>
        <time>2000-01-01T04:29:39.000Z</time>
      </trkpt>
      <trkpt lat="44.9234" lon="5.41519">
        <ele>1123</ele>
        <time>2000-01-01T04:29:49.000Z</time>
      </trkpt>
      <trkpt lat="44.92291" lon="5.41522">
        <ele>1127</ele>
        <time>2000-01-01T04:29:59.000Z</time>
      </trkpt>
      <trkpt lat="44.9225" lon="5.41522">
        <ele>1134</ele>
        <time>2000-01-01T04:30:09.000Z</time>
      </trkpt>
      <trkpt lat="44.92216" lon="5.41522">
        <ele>1138</ele>
        <time>2000-01-01T04:30:19.000Z</time>
      </trkpt>
      <trkpt lat="44.92193" lon="5.41529">
        <ele>1141</ele>
        <time>2000-01-01T04:30:29.000Z</time>
      </trkpt>
      <trkpt lat="44.92169" lon="5.41536">
        <ele>1143</ele>
        <time>2000-01-01T04:30:39.000Z</time>
      </trkpt>
      <trkpt lat="44.92142" lon="5.41536">
        <ele>1145</ele>
        <time>2000-01-01T04:30:49.000Z</time>
      </trkpt>
      <trkpt lat="44.9211" lon="5.41536">
        <ele>1149</ele>
        <time>2000-01-01T04:30:59.000Z</time>
      </trkpt>
      <trkpt lat="44.9207" lon="5.41553">
        <ele>1150</ele>
        <time>2000-01-01T04:31:09.000Z</time>
      </trkpt>
      <trkpt lat="44.9205" lon="5.41569">
        <ele>1152</ele>
        <time>2000-01-01T04:31:19.000Z</time>
      </trkpt>
      <trkpt lat="44.92025" lon="5.41568">
        <ele>1155</ele>
        <time>2000-01-01T04:31:29.000Z</time>
      </trkpt>
      <trkpt lat="44.91998" lon="5.41573">
        <ele>1156</ele>
        <time>2000-01-01T04:31:39.000Z</time>
      </trkpt>
      <trkpt lat="44.91969" lon="5.4157">
        <ele>1157</ele>
        <time>2000-01-01T04:31:49.000Z</time>
      </trkpt>
      <trkpt lat="44.91952" lon="5.41565">
        <ele>1159</ele>
        <time>2000-01-01T04:31:59.000Z</time>
      </trkpt>
      <trkpt lat="44.9193" lon="5.41565">
        <ele>1159</ele>
        <time>2000-01-01T04:32:09.000Z</time>
      </trkpt>
      <trkpt lat="44.91902" lon="5.41573">
        <ele>1159</ele>
        <time>2000-01-01T04:32:19.000Z</time>
      </trkpt>
      <trkpt lat="44.9186" lon="5.4158">
        <ele>1159</ele>
        <time>2000-01-01T04:32:29.000Z</time>
      </trkpt>
      <trkpt lat="44.9183" lon="5.41589">
        <ele>1159</ele>
        <time>2000-01-01T04:32:39.000Z</time>
      </trkpt>
      <trkpt lat="44.91805" lon="5.41591">
        <ele>1160</ele>
        <time>2000-01-01T04:32:49.000Z</time>
      </trkpt>
      <trkpt lat="44.91771" lon="5.41591">
        <ele>1164</ele>
        <time>2000-01-01T04:32:59.000Z</time>
      </trkpt>
      <trkpt lat="44.9174" lon="5.41595">
        <ele>1170</ele>
        <time>2000-01-01T04:33:09.000Z</time>
      </trkpt>
      <trkpt lat="44.91703" lon="5.41596">
        <ele>1173</ele>
        <time>2000-01-01T04:33:19.000Z</time>
      </trkpt>
      <trkpt lat="44.91664" lon="5.41596">
        <ele>1176</ele>
        <time>2000-01-01T04:33:29.000Z</time>
      </trkpt>
      <trkpt lat="44.91637" lon="5.41589">
        <ele>1180</ele>
        <time>2000-01-01T04:33:39.000Z</time>
      </trkpt>
      <trkpt lat="44.91612" lon="5.41584">
        <ele>1181</ele>
        <time>2000-01-01T04:33:49.000Z</time>
      </trkpt>
      <trkpt lat="44.91581" lon="5.41567">
        <ele>1189</ele>
        <time>2000-01-01T04:33:59.000Z</time>
      </trkpt>
      <trkpt lat="44.91544" lon="5.41547">
        <ele>1194</ele>
        <time>2000-01-01T04:34:09.000Z</time>
      </trkpt>
      <trkpt lat="44.91508" lon="5.41527">
        <ele>1196</ele>
        <time>2000-01-01T04:34:19.000Z</time>
      </trkpt>
      <trkpt lat="44.9148" lon="5.41499">
        <ele>1197</ele>
        <time>2000-01-01T04:34:29.000Z</time>
      </trkpt>
      <trkpt lat="44.91455" lon="5.41488">
        <ele>1198</ele>
        <time>2000-01-01T04:34:39.000Z</time>
      </trkpt>
      <trkpt lat="44.91436" lon="5.41472">
        <ele>1198</ele>
        <time>2000-01-01T04:34:49.000Z</time>
      </trkpt>
      <trkpt lat="44.91422" lon="5.41451">
        <ele>1200</ele>
        <time>2000-01-01T04:34:59.000Z</time>
      </trkpt>
      <trkpt lat="44.91395" lon="5.41441">
        <ele>1203</ele>
        <time>2000-01-01T04:35:09.000Z</time>
      </trkpt>
      <trkpt lat="44.91369" lon="5.41436">
        <ele>1205</ele>
        <time>2000-01-01T04:35:19.000Z</time>
      </trkpt>
      <trkpt lat="44.91335" lon="5.41437">
        <ele>1205</ele>
        <time>2000-01-01T04:35:29.000Z</time>
      </trkpt>
      <trkpt lat="44.91303" lon="5.41458">
        <ele>1203</ele>
        <time>2000-01-01T04:35:39.000Z</time>
      </trkpt>
      <trkpt lat="44.91284" lon="5.41466">
        <ele>1203</ele>
        <time>2000-01-01T04:35:49.000Z</time>
      </trkpt>
      <trkpt lat="44.91259" lon="5.41459">
        <ele>1203</ele>
        <time>2000-01-01T04:35:59.000Z</time>
      </trkpt>
      <trkpt lat="44.9123" lon="5.41451">
        <ele>1203</ele>
        <time>2000-01-01T04:36:09.000Z</time>
      </trkpt>
      <trkpt lat="44.91193" lon="5.41439">
        <ele>1203</ele>
        <time>2000-01-01T04:36:19.000Z</time>
      </trkpt>
      <trkpt lat="44.91162" lon="5.41407">
        <ele>1204</ele>
        <time>2000-01-01T04:36:29.000Z</time>
      </trkpt>
      <trkpt lat="44.91135" lon="5.41414">
        <ele>1207</ele>
        <time>2000-01-01T04:36:39.000Z</time>
      </trkpt>
      <trkpt lat="44.91094" lon="5.41424">
        <ele>1208</ele>
        <time>2000-01-01T04:36:49.000Z</time>
      </trkpt>
      <trkpt lat="44.91069" lon="5.41422">
        <ele>1209</ele>
        <time>2000-01-01T04:36:59.000Z</time>
      </trkpt>
      <trkpt lat="44.91042" lon="5.4142">
        <ele>1209</ele>
        <time>2000-01-01T04:37:09.000Z</time>
      </trkpt>
      <trkpt lat="44.91014" lon="5.41417">
        <ele>1213</ele>
        <time>2000-01-01T04:37:19.000Z</time>
      </trkpt>
      <trkpt lat="44.90976" lon="5.41412">
        <ele>1213</ele>
        <time>2000-01-01T04:37:29.000Z</time>
      </trkpt>
      <trkpt lat="44.9094" lon="5.41411">
        <ele>1213</ele>
        <time>2000-01-01T04:37:39.000Z</time>
      </trkpt>
      <trkpt lat="44.90901" lon="5.41401">
        <ele>1214</ele>
        <time>2000-01-01T04:37:49.000Z</time>
      </trkpt>
      <trkpt lat="44.9087" lon="5.4139">
        <ele>1214</ele>
        <time>2000-01-01T04:37:59.000Z</time>
      </trkpt>
      <trkpt lat="44.90829" lon="5.4138">
        <ele>1215</ele>
        <time>2000-01-01T04:38:09.000Z</time>
      </trkpt>
      <trkpt lat="44.90786" lon="5.41363">
        <ele>1213</ele>
        <time>2000-01-01T04:38:19.000Z</time>
      </trkpt>
      <trkpt lat="44.90752" lon="5.41363">
        <ele>1211</ele>
        <time>2000-01-01T04:38:29.000Z</time>
      </trkpt>
      <trkpt lat="44.90727" lon="5.41369">
        <ele>1207</ele>
        <time>2000-01-01T04:38:39.000Z</time>
      </trkpt>
      <trkpt lat="44.90697" lon="5.41375">
        <ele>1200</ele>
        <time>2000-01-01T04:38:49.000Z</time>
      </trkpt>
      <trkpt lat="44.90663" lon="5.41372">
        <ele>1199</ele>
        <time>2000-01-01T04:38:59.000Z</time>
      </trkpt>
      <trkpt lat="44.90626" lon="5.41339">
        <ele>1199</ele>
        <time>2000-01-01T04:39:09.000Z</time>
      </trkpt>
      <trkpt lat="44.90579" lon="5.41327">
        <ele>1194</ele>
        <time>2000-01-01T04:39:19.000Z</time>
      </trkpt>
      <trkpt lat="44.90541" lon="5.41324">
        <ele>1192</ele>
        <time>2000-01-01T04:39:29.000Z</time>
      </trkpt>
      <trkpt lat="44.90499" lon="5.41339">
        <ele>1189</ele>
        <time>2000-01-01T04:39:39.000Z</time>
      </trkpt>
      <trkpt lat="44.90477" lon="5.41355">
        <ele>1187</ele>
        <time>2000-01-01T04:39:49.000Z</time>
      </trkpt>
      <trkpt lat="44.90452" lon="5.41373">
        <ele>1184</ele>
        <time>2000-01-01T04:39:59.000Z</time>
      </trkpt>
      <trkpt lat="44.90436" lon="5.41388">
        <ele>1187</ele>
        <time>2000-01-01T04:40:09.000Z</time>
      </trkpt>
      <trkpt lat="44.904" lon="5.4135">
        <ele>1191</ele>
        <time>2000-01-01T04:40:19.000Z</time>
      </trkpt>
      <trkpt lat="44.90388" lon="5.41304">
        <ele>1195</ele>
        <time>2000-01-01T04:40:29.000Z</time>
      </trkpt>
      <trkpt lat="44.90395" lon="5.41258">
        <ele>1199</ele>
        <time>2000-01-01T04:40:39.000Z</time>
      </trkpt>
      <trkpt lat="44.90385" lon="5.41229">
        <ele>1200</ele>
        <time>2000-01-01T04:40:49.000Z</time>
      </trkpt>
      <trkpt lat="44.90363" lon="5.412">
        <ele>1200</ele>
        <time>2000-01-01T04:40:59.000Z</time>
      </trkpt>
      <trkpt lat="44.90332" lon="5.41201">
        <ele>1200</ele>
        <time>2000-01-01T04:41:09.000Z</time>
      </trkpt>
      <trkpt lat="44.90274" lon="5.41204">
        <ele>1200</ele>
        <time>2000-01-01T04:41:19.000Z</time>
      </trkpt>
      <trkpt lat="44.90245" lon="5.412">
        <ele>1201</ele>
        <time>2000-01-01T04:41:29.000Z</time>
      </trkpt>
      <trkpt lat="44.90227" lon="5.41175">
        <ele>1201</ele>
        <time>2000-01-01T04:41:39.000Z</time>
      </trkpt>
      <trkpt lat="44.90206" lon="5.41146">
        <ele>1198</ele>
        <time>2000-01-01T04:41:49.000Z</time>
      </trkpt>
      <trkpt lat="44.90204" lon="5.41109">
        <ele>1197</ele>
        <time>2000-01-01T04:41:59.000Z</time>
      </trkpt>
      <trkpt lat="44.9019" lon="5.41079">
        <ele>1192</ele>
        <time>2000-01-01T04:42:09.000Z</time>
      </trkpt>
      <trkpt lat="44.90174" lon="5.41046">
        <ele>1191</ele>
        <time>2000-01-01T04:42:19.000Z</time>
      </trkpt>
      <trkpt lat="44.90162" lon="5.40996">
        <ele>1191</ele>
        <time>2000-01-01T04:42:29.000Z</time>
      </trkpt>
      <trkpt lat="44.90158" lon="5.40983">
        <ele>1191</ele>
        <time>2000-01-01T04:42:39.000Z</time>
      </trkpt>
      <trkpt lat="44.90117" lon="5.40966">
        <ele>1191</ele>
        <time>2000-01-01T04:42:49.000Z</time>
      </trkpt>
      <trkpt lat="44.9009" lon="5.40967">
        <ele>1191</ele>
        <time>2000-01-01T04:42:59.000Z</time>
      </trkpt>
      <trkpt lat="44.90054" lon="5.40968">
        <ele>1188</ele>
        <time>2000-01-01T04:43:09.000Z</time>
      </trkpt>
      <trkpt lat="44.90028" lon="5.41014">
        <ele>1185</ele>
        <time>2000-01-01T04:43:19.000Z</time>
      </trkpt>
      <trkpt lat="44.89992" lon="5.41015">
        <ele>1185</ele>
        <time>2000-01-01T04:43:29.000Z</time>
      </trkpt>
      <trkpt lat="44.89969" lon="5.41021">
        <ele>1185</ele>
        <time>2000-01-01T04:43:39.000Z</time>
      </trkpt>
      <trkpt lat="44.89945" lon="5.41028">
        <ele>1185</ele>
        <time>2000-01-01T04:43:49.000Z</time>
      </trkpt>
      <trkpt lat="44.89924" lon="5.41046">
        <ele>1186</ele>
        <time>2000-01-01T04:43:59.000Z</time>
      </trkpt>
      <trkpt lat="44.89901" lon="5.41066">
        <ele>1186</ele>
        <time>2000-01-01T04:44:09.000Z</time>
      </trkpt>
      <trkpt lat="44.89863" lon="5.41101">
        <ele>1186</ele>
        <time>2000-01-01T04:44:19.000Z</time>
      </trkpt>
      <trkpt lat="44.89836" lon="5.41135">
        <ele>1186</ele>
        <time>2000-01-01T04:44:29.000Z</time>
      </trkpt>
      <trkpt lat="44.89811" lon="5.41132">
        <ele>1186</ele>
        <time>2000-01-01T04:44:39.000Z</time>
      </trkpt>
      <trkpt lat="44.89785" lon="5.4113">
        <ele>1188</ele>
        <time>2000-01-01T04:44:49.000Z</time>
      </trkpt>
      <trkpt lat="44.89747" lon="5.41139">
        <ele>1187</ele>
        <time>2000-01-01T04:44:59.000Z</time>
      </trkpt>
      <trkpt lat="44.89702" lon="5.41161">
        <ele>1187</ele>
        <time>2000-01-01T04:45:09.000Z</time>
      </trkpt>
      <trkpt lat="44.89666" lon="5.41192">
        <ele>1187</ele>
        <time>2000-01-01T04:45:19.000Z</time>
      </trkpt>
      <trkpt lat="44.89651" lon="5.41224">
        <ele>1187</ele>
        <time>2000-01-01T04:45:29.000Z</time>
      </trkpt>
      <trkpt lat="44.89632" lon="5.41265">
        <ele>1191</ele>
        <time>2000-01-01T04:45:39.000Z</time>
      </trkpt>
      <trkpt lat="44.89598" lon="5.41302">
        <ele>1195</ele>
        <time>2000-01-01T04:45:49.000Z</time>
      </trkpt>
      <trkpt lat="44.89578" lon="5.41282">
        <ele>1196</ele>
        <time>2000-01-01T04:45:59.000Z</time>
      </trkpt>
      <trkpt lat="44.89555" lon="5.41258">
        <ele>1197</ele>
        <time>2000-01-01T04:46:09.000Z</time>
      </trkpt>
      <trkpt lat="44.89536" lon="5.41237">
        <ele>1199</ele>
        <time>2000-01-01T04:46:19.000Z</time>
      </trkpt>
      <trkpt lat="44.89516" lon="5.41215">
        <ele>1200</ele>
        <time>2000-01-01T04:46:29.000Z</time>
      </trkpt>
      <trkpt lat="44.89496" lon="5.41212">
        <ele>1201</ele>
        <time>2000-01-01T04:46:39.000Z</time>
      </trkpt>
      <trkpt lat="44.89477" lon="5.41184">
        <ele>1203</ele>
        <time>2000-01-01T04:46:49.000Z</time>
      </trkpt>
      <trkpt lat="44.89456" lon="5.41178">
        <ele>1205</ele>
        <time>2000-01-01T04:46:59.000Z</time>
      </trkpt>
      <trkpt lat="44.89433" lon="5.41142">
        <ele>1208</ele>
        <time>2000-01-01T04:47:09.000Z</time>
      </trkpt>
      <trkpt lat="44.89402" lon="5.41138">
        <ele>1209</ele>
        <time>2000-01-01T04:47:19.000Z</time>
      </trkpt>
      <trkpt lat="44.89388" lon="5.41162">
        <ele>1211</ele>
        <time>2000-01-01T04:47:29.000Z</time>
      </trkpt>
      <trkpt lat="44.89379" lon="5.41146">
        <ele>1213</ele>
        <time>2000-01-01T04:47:39.000Z</time>
      </trkpt>
      <trkpt lat="44.89352" lon="5.41144">
        <ele>1213</ele>
        <time>2000-01-01T04:47:49.000Z</time>
      </trkpt>
      <trkpt lat="44.89316" lon="5.41141">
        <ele>1213</ele>
        <time>2000-01-01T04:47:59.000Z</time>
      </trkpt>
      <trkpt lat="44.89286" lon="5.41142">
        <ele>1213</ele>
        <time>2000-01-01T04:48:09.000Z</time>
      </trkpt>
      <trkpt lat="44.89237" lon="5.41145">
        <ele>1212</ele>
        <time>2000-01-01T04:48:19.000Z</time>
      </trkpt>
      <trkpt lat="44.89208" lon="5.41097">
        <ele>1212</ele>
        <time>2000-01-01T04:48:29.000Z</time>
      </trkpt>
      <trkpt lat="44.89171" lon="5.41072">
        <ele>1211</ele>
        <time>2000-01-01T04:48:39.000Z</time>
      </trkpt>
      <trkpt lat="44.89144" lon="5.41097">
        <ele>1211</ele>
        <time>2000-01-01T04:48:49.000Z</time>
      </trkpt>
      <trkpt lat="44.89117" lon="5.41121">
        <ele>1212</ele>
        <time>2000-01-01T04:48:59.000Z</time>
      </trkpt>
      <trkpt lat="44.89087" lon="5.41148">
        <ele>1214</ele>
        <time>2000-01-01T04:49:09.000Z</time>
      </trkpt>
      <trkpt lat="44.89059" lon="5.41128">
        <ele>1215</ele>
        <time>2000-01-01T04:49:19.000Z</time>
      </trkpt>
      <trkpt lat="44.8903" lon="5.41108">
        <ele>1215</ele>
        <time>2000-01-01T04:49:29.000Z</time>
      </trkpt>
      <trkpt lat="44.89002" lon="5.41087">
        <ele>1215</ele>
        <time>2000-01-01T04:49:39.000Z</time>
      </trkpt>
      <trkpt lat="44.88976" lon="5.41068">
        <ele>1214</ele>
        <time>2000-01-01T04:49:49.000Z</time>
      </trkpt>
      <trkpt lat="44.88935" lon="5.41037">
        <ele>1214</ele>
        <time>2000-01-01T04:49:59.000Z</time>
      </trkpt>
      <trkpt lat="44.88895" lon="5.41037">
        <ele>1220</ele>
        <time>2000-01-01T04:50:09.000Z</time>
      </trkpt>
      <trkpt lat="44.88854" lon="5.41025">
        <ele>1227</ele>
        <time>2000-01-01T04:50:19.000Z</time>
      </trkpt>
      <trkpt lat="44.88836" lon="5.40974">
        <ele>1229</ele>
        <time>2000-01-01T04:50:29.000Z</time>
      </trkpt>
      <trkpt lat="44.88809" lon="5.40971">
        <ele>1231</ele>
        <time>2000-01-01T04:50:39.000Z</time>
      </trkpt>
      <trkpt lat="44.88774" lon="5.40967">
        <ele>1234</ele>
        <time>2000-01-01T04:50:49.000Z</time>
      </trkpt>
      <trkpt lat="44.88768" lon="5.40939">
        <ele>1234</ele>
        <time>2000-01-01T04:50:59.000Z</time>
      </trkpt>
      <trkpt lat="44.88775" lon="5.40916">
        <ele>1234</ele>
        <time>2000-01-01T04:51:09.000Z</time>
      </trkpt>
      <trkpt lat="44.88759" lon="5.40869">
        <ele>1240</ele>
        <time>2000-01-01T04:51:19.000Z</time>
      </trkpt>
      <trkpt lat="44.88739" lon="5.40859">
        <ele>1242</ele>
        <time>2000-01-01T04:51:29.000Z</time>
      </trkpt>
      <trkpt lat="44.88698" lon="5.40855">
        <ele>1245</ele>
        <time>2000-01-01T04:51:39.000Z</time>
      </trkpt>
      <trkpt lat="44.88675" lon="5.40864">
        <ele>1246</ele>
        <time>2000-01-01T04:51:49.000Z</time>
      </trkpt>
      <trkpt lat="44.88651" lon="5.40873">
        <ele>1246</ele>
        <time>2000-01-01T04:51:59.000Z</time>
      </trkpt>
      <trkpt lat="44.88638" lon="5.40859">
        <ele>1249</ele>
        <time>2000-01-01T04:52:09.000Z</time>
      </trkpt>
      <trkpt lat="44.88639" lon="5.40817">
        <ele>1253</ele>
        <time>2000-01-01T04:52:19.000Z</time>
      </trkpt>
      <trkpt lat="44.8863" lon="5.40796">
        <ele>1255</ele>
        <time>2000-01-01T04:52:29.000Z</time>
      </trkpt>
      <trkpt lat="44.88585" lon="5.40776">
        <ele>1254</ele>
        <time>2000-01-01T04:52:39.000Z</time>
      </trkpt>
      <trkpt lat="44.88558" lon="5.40776">
        <ele>1254</ele>
        <time>2000-01-01T04:52:49.000Z</time>
      </trkpt>
      <trkpt lat="44.88527" lon="5.40808">
        <ele>1251</ele>
        <time>2000-01-01T04:52:59.000Z</time>
      </trkpt>
      <trkpt lat="44.88489" lon="5.40798">
        <ele>1250</ele>
        <time>2000-01-01T04:53:09.000Z</time>
      </trkpt>
      <trkpt lat="44.88468" lon="5.40836">
        <ele>1247</ele>
        <time>2000-01-01T04:53:19.000Z</time>
      </trkpt>
      <trkpt lat="44.8845" lon="5.40856">
        <ele>1244</ele>
        <time>2000-01-01T04:53:29.000Z</time>
      </trkpt>
      <trkpt lat="44.88418" lon="5.40861">
        <ele>1241</ele>
        <time>2000-01-01T04:53:39.000Z</time>
      </trkpt>
      <trkpt lat="44.88377" lon="5.40856">
        <ele>1241</ele>
        <time>2000-01-01T04:53:49.000Z</time>
      </trkpt>
      <trkpt lat="44.8835" lon="5.40828">
        <ele>1241</ele>
        <time>2000-01-01T04:53:59.000Z</time>
      </trkpt>
      <trkpt lat="44.88324" lon="5.408">
        <ele>1241</ele>
        <time>2000-01-01T04:54:09.000Z</time>
      </trkpt>
      <trkpt lat="44.88293" lon="5.40767">
        <ele>1242</ele>
        <time>2000-01-01T04:54:19.000Z</time>
      </trkpt>
      <trkpt lat="44.88257" lon="5.40758">
        <ele>1241</ele>
        <time>2000-01-01T04:54:29.000Z</time>
      </trkpt>
      <trkpt lat="44.88217" lon="5.40723">
        <ele>1241</ele>
        <time>2000-01-01T04:54:39.000Z</time>
      </trkpt>
      <trkpt lat="44.8819" lon="5.40714">
        <ele>1236</ele>
        <time>2000-01-01T04:54:49.000Z</time>
      </trkpt>
      <trkpt lat="44.8815" lon="5.407">
        <ele>1231</ele>
        <time>2000-01-01T04:54:59.000Z</time>
      </trkpt>
      <trkpt lat="44.88118" lon="5.40674">
        <ele>1231</ele>
        <time>2000-01-01T04:55:09.000Z</time>
      </trkpt>
      <trkpt lat="44.88101" lon="5.40642">
        <ele>1235</ele>
        <time>2000-01-01T04:55:19.000Z</time>
      </trkpt>
      <trkpt lat="44.88079" lon="5.40626">
        <ele>1233</ele>
        <time>2000-01-01T04:55:29.000Z</time>
      </trkpt>
      <trkpt lat="44.8804" lon="5.40624">
        <ele>1232</ele>
        <time>2000-01-01T04:55:39.000Z</time>
      </trkpt>
      <trkpt lat="44.88008" lon="5.40624">
        <ele>1226</ele>
        <time>2000-01-01T04:55:49.000Z</time>
      </trkpt>
      <trkpt lat="44.8797" lon="5.406">
        <ele>1223</ele>
        <time>2000-01-01T04:55:59.000Z</time>
      </trkpt>
      <trkpt lat="44.87956" lon="5.40573">
        <ele>1223</ele>
        <time>2000-01-01T04:56:09.000Z</time>
      </trkpt>
      <trkpt lat="44.87957" lon="5.4055">
        <ele>1224</ele>
        <time>2000-01-01T04:56:19.000Z</time>
      </trkpt>
      <trkpt lat="44.87956" lon="5.40526">
        <ele>1226</ele>
        <time>2000-01-01T04:56:29.000Z</time>
      </trkpt>
      <trkpt lat="44.87957" lon="5.40511">
        <ele>1224</ele>
        <time>2000-01-01T04:56:39.000Z</time>
      </trkpt>
      <trkpt lat="44.87939" lon="5.40499">
        <ele>1223</ele>
        <time>2000-01-01T04:56:49.000Z</time>
      </trkpt>
      <trkpt lat="44.8792" lon="5.40503">
        <ele>1220</ele>
        <time>2000-01-01T04:56:59.000Z</time>
      </trkpt>
      <trkpt lat="44.87903" lon="5.40535">
        <ele>1213</ele>
        <time>2000-01-01T04:57:09.000Z</time>
      </trkpt>
      <trkpt lat="44.87882" lon="5.40546">
        <ele>1208</ele>
        <time>2000-01-01T04:57:19.000Z</time>
      </trkpt>
      <trkpt lat="44.8785" lon="5.40527">
        <ele>1200</ele>
        <time>2000-01-01T04:57:29.000Z</time>
      </trkpt>
      <trkpt lat="44.87829" lon="5.40507">
        <ele>1197</ele>
        <time>2000-01-01T04:57:39.000Z</time>
      </trkpt>
      <trkpt lat="44.87805" lon="5.40485">
        <ele>1195</ele>
        <time>2000-01-01T04:57:49.000Z</time>
      </trkpt>
      <trkpt lat="44.8777" lon="5.40441">
        <ele>1190</ele>
        <time>2000-01-01T04:57:59.000Z</time>
      </trkpt>
      <trkpt lat="44.87745" lon="5.40414">
        <ele>1189</ele>
        <time>2000-01-01T04:58:09.000Z</time>
      </trkpt>
      <trkpt lat="44.87725" lon="5.40384">
        <ele>1187</ele>
        <time>2000-01-01T04:58:19.000Z</time>
      </trkpt>
      <trkpt lat="44.87702" lon="5.40358">
        <ele>1186</ele>
        <time>2000-01-01T04:58:29.000Z</time>
      </trkpt>
      <trkpt lat="44.87679" lon="5.4033">
        <ele>1185</ele>
        <time>2000-01-01T04:58:39.000Z</time>
      </trkpt>
      <trkpt lat="44.87671" lon="5.40297">
        <ele>1184</ele>
        <time>2000-01-01T04:58:49.000Z</time>
      </trkpt>
      <trkpt lat="44.87661" lon="5.40262">
        <ele>1184</ele>
        <time>2000-01-01T04:58:59.000Z</time>
      </trkpt>
      <trkpt lat="44.87624" lon="5.40226">
        <ele>1177</ele>
        <time>2000-01-01T04:59:09.000Z</time>
      </trkpt>
      <trkpt lat="44.87604" lon="5.40206">
        <ele>1174</ele>
        <time>2000-01-01T04:59:19.000Z</time>
      </trkpt>
      <trkpt lat="44.87584" lon="5.40187">
        <ele>1172</ele>
        <time>2000-01-01T04:59:29.000Z</time>
      </trkpt>
      <trkpt lat="44.87562" lon="5.40162">
        <ele>1170</ele>
        <time>2000-01-01T04:59:39.000Z</time>
      </trkpt>
      <trkpt lat="44.87529" lon="5.40159">
        <ele>1169</ele>
        <time>2000-01-01T04:59:49.000Z</time>
      </trkpt>
      <trkpt lat="44.875" lon="5.4017">
        <ele>1169</ele>
        <time>2000-01-01T04:59:59.000Z</time>
      </trkpt>
      <trkpt lat="44.87472" lon="5.4015">
        <ele>1169</ele>
        <time>2000-01-01T05:00:09.000Z</time>
      </trkpt>
      <trkpt lat="44.87459" lon="5.401">
        <ele>1165</ele>
        <time>2000-01-01T05:00:19.000Z</time>
      </trkpt>
      <trkpt lat="44.87466" lon="5.40046">
        <ele>1160</ele>
        <time>2000-01-01T05:00:29.000Z</time>
      </trkpt>
      <trkpt lat="44.87477" lon="5.39997">
        <ele>1156</ele>
        <time>2000-01-01T05:00:39.000Z</time>
      </trkpt>
      <trkpt lat="44.87493" lon="5.39974">
        <ele>1154</ele>
        <time>2000-01-01T05:00:49.000Z</time>
      </trkpt>
      <trkpt lat="44.87509" lon="5.39979">
        <ele>1152</ele>
        <time>2000-01-01T05:00:59.000Z</time>
      </trkpt>
      <trkpt lat="44.87534" lon="5.39993">
        <ele>1151</ele>
        <time>2000-01-01T05:01:09.000Z</time>
      </trkpt>
      <trkpt lat="44.8754" lon="5.3999">
        <ele>1151</ele>
        <time>2000-01-01T05:01:19.000Z</time>
      </trkpt>
      <trkpt lat="44.8753" lon="5.3997">
        <ele>1151</ele>
        <time>2000-01-01T05:01:29.000Z</time>
      </trkpt>
      <trkpt lat="44.87518" lon="5.39923">
        <ele>1151</ele>
        <time>2000-01-01T05:01:39.000Z</time>
      </trkpt>
      <trkpt lat="44.87519" lon="5.39887">
        <ele>1153</ele>
        <time>2000-01-01T05:01:49.000Z</time>
      </trkpt>
      <trkpt lat="44.8752" lon="5.39845">
        <ele>1153</ele>
        <time>2000-01-01T05:01:59.000Z</time>
      </trkpt>
      <trkpt lat="44.87539" lon="5.39822">
        <ele>1151</ele>
        <time>2000-01-01T05:02:09.000Z</time>
      </trkpt>
      <trkpt lat="44.8756" lon="5.39797">
        <ele>1144</ele>
        <time>2000-01-01T05:02:19.000Z</time>
      </trkpt>
      <trkpt lat="44.87563" lon="5.39771">
        <ele>1142</ele>
        <time>2000-01-01T05:02:29.000Z</time>
      </trkpt>
      <trkpt lat="44.87545" lon="5.39739">
        <ele>1141</ele>
        <time>2000-01-01T05:02:39.000Z</time>
      </trkpt>
      <trkpt lat="44.87524" lon="5.39709">
        <ele>1141</ele>
        <time>2000-01-01T05:02:49.000Z</time>
      </trkpt>
      <trkpt lat="44.87489" lon="5.39658">
        <ele>1141</ele>
        <time>2000-01-01T05:02:59.000Z</time>
      </trkpt>
      <trkpt lat="44.87467" lon="5.39613">
        <ele>1138</ele>
        <time>2000-01-01T05:03:09.000Z</time>
      </trkpt>
      <trkpt lat="44.87444" lon="5.39568">
        <ele>1133</ele>
        <time>2000-01-01T05:03:19.000Z</time>
      </trkpt>
      <trkpt lat="44.87422" lon="5.39524">
        <ele>1131</ele>
        <time>2000-01-01T05:03:29.000Z</time>
      </trkpt>
      <trkpt lat="44.874" lon="5.39479">
        <ele>1128</ele>
        <time>2000-01-01T05:03:39.000Z</time>
      </trkpt>
      <trkpt lat="44.87369" lon="5.39418">
        <ele>1123</ele>
        <time>2000-01-01T05:03:49.000Z</time>
      </trkpt>
      <trkpt lat="44.8735" lon="5.39385">
        <ele>1119</ele>
        <time>2000-01-01T05:03:59.000Z</time>
      </trkpt>
      <trkpt lat="44.87318" lon="5.39332">
        <ele>1116</ele>
        <time>2000-01-01T05:04:09.000Z</time>
      </trkpt>
      <trkpt lat="44.8729" lon="5.393">
        <ele>1114</ele>
        <time>2000-01-01T05:04:19.000Z</time>
      </trkpt>
      <trkpt lat="44.87262" lon="5.39269">
        <ele>1110</ele>
        <time>2000-01-01T05:04:29.000Z</time>
      </trkpt>
      <trkpt lat="44.87209" lon="5.39209">
        <ele>1106</ele>
        <time>2000-01-01T05:04:39.000Z</time>
      </trkpt>
      <trkpt lat="44.87208" lon="5.3919">
        <ele>1105</ele>
        <time>2000-01-01T05:04:49.000Z</time>
      </trkpt>
      <trkpt lat="44.87243" lon="5.39189">
        <ele>1100</ele>
        <time>2000-01-01T05:04:59.000Z</time>
      </trkpt>
      <trkpt lat="44.87249" lon="5.39179">
        <ele>1099</ele>
        <time>2000-01-01T05:05:09.000Z</time>
      </trkpt>
      <trkpt lat="44.87226" lon="5.39154">
        <ele>1099</ele>
        <time>2000-01-01T05:05:19.000Z</time>
      </trkpt>
      <trkpt lat="44.87189" lon="5.39115">
        <ele>1098</ele>
        <time>2000-01-01T05:05:29.000Z</time>
      </trkpt>
      <trkpt lat="44.87175" lon="5.39071">
        <ele>1096</ele>
        <time>2000-01-01T05:05:39.000Z</time>
      </trkpt>
      <trkpt lat="44.87167" lon="5.39055">
        <ele>1096</ele>
        <time>2000-01-01T05:05:49.000Z</time>
      </trkpt>
      <trkpt lat="44.87146" lon="5.39033">
        <ele>1096</ele>
        <time>2000-01-01T05:05:59.000Z</time>
      </trkpt>
      <trkpt lat="44.87119" lon="5.39005">
        <ele>1096</ele>
        <time>2000-01-01T05:06:09.000Z</time>
      </trkpt>
      <trkpt lat="44.87132" lon="5.38985">
        <ele>1095</ele>
        <time>2000-01-01T05:06:19.000Z</time>
      </trkpt>
      <trkpt lat="44.8714" lon="5.38939">
        <ele>1095</ele>
        <time>2000-01-01T05:06:29.000Z</time>
      </trkpt>
      <trkpt lat="44.87149" lon="5.38892">
        <ele>1095</ele>
        <time>2000-01-01T05:06:39.000Z</time>
      </trkpt>
      <trkpt lat="44.87161" lon="5.38823">
        <ele>1095</ele>
        <time>2000-01-01T05:06:49.000Z</time>
      </trkpt>
      <trkpt lat="44.87182" lon="5.38801">
        <ele>1095</ele>
        <time>2000-01-01T05:06:59.000Z</time>
      </trkpt>
      <trkpt lat="44.87205" lon="5.38777">
        <ele>1096</ele>
        <time>2000-01-01T05:07:09.000Z</time>
      </trkpt>
      <trkpt lat="44.87201" lon="5.38726">
        <ele>1098</ele>
        <time>2000-01-01T05:07:19.000Z</time>
      </trkpt>
      <trkpt lat="44.87204" lon="5.3869">
        <ele>1099</ele>
        <time>2000-01-01T05:07:29.000Z</time>
      </trkpt>
      <trkpt lat="44.87208" lon="5.38651">
        <ele>1100</ele>
        <time>2000-01-01T05:07:39.000Z</time>
      </trkpt>
      <trkpt lat="44.8722" lon="5.38589">
        <ele>1103</ele>
        <time>2000-01-01T05:07:49.000Z</time>
      </trkpt>
      <trkpt lat="44.87213" lon="5.3853">
        <ele>1105</ele>
        <time>2000-01-01T05:07:59.000Z</time>
      </trkpt>
      <trkpt lat="44.87216" lon="5.38492">
        <ele>1106</ele>
        <time>2000-01-01T05:08:09.000Z</time>
      </trkpt>
      <trkpt lat="44.87221" lon="5.38441">
        <ele>1107</ele>
        <time>2000-01-01T05:08:19.000Z</time>
      </trkpt>
      <trkpt lat="44.87233" lon="5.3841">
        <ele>1108</ele>
        <time>2000-01-01T05:08:29.000Z</time>
      </trkpt>
      <trkpt lat="44.87247" lon="5.38376">
        <ele>1108</ele>
        <time>2000-01-01T05:08:39.000Z</time>
      </trkpt>
      <trkpt lat="44.87256" lon="5.38315">
        <ele>1108</ele>
        <time>2000-01-01T05:08:49.000Z</time>
      </trkpt>
      <trkpt lat="44.87255" lon="5.38278">
        <ele>1108</ele>
        <time>2000-01-01T05:08:59.000Z</time>
      </trkpt>
      <trkpt lat="44.87254" lon="5.38234">
        <ele>1106</ele>
        <time>2000-01-01T05:09:09.000Z</time>
      </trkpt>
      <trkpt lat="44.87259" lon="5.38198">
        <ele>1106</ele>
        <time>2000-01-01T05:09:19.000Z</time>
      </trkpt>
      <trkpt lat="44.87266" lon="5.38154">
        <ele>1108</ele>
        <time>2000-01-01T05:09:29.000Z</time>
      </trkpt>
      <trkpt lat="44.87282" lon="5.38123">
        <ele>1108</ele>
        <time>2000-01-01T05:09:39.000Z</time>
      </trkpt>
      <trkpt lat="44.87302" lon="5.38083">
        <ele>1108</ele>
        <time>2000-01-01T05:09:49.000Z</time>
      </trkpt>
      <trkpt lat="44.87316" lon="5.38057">
        <ele>1107</ele>
        <time>2000-01-01T05:09:59.000Z</time>
      </trkpt>
      <trkpt lat="44.87329" lon="5.37997">
        <ele>1106</ele>
        <time>2000-01-01T05:10:09.000Z</time>
      </trkpt>
      <trkpt lat="44.87366" lon="5.38019">
        <ele>1106</ele>
        <time>2000-01-01T05:10:19.000Z</time>
      </trkpt>
      <trkpt lat="44.87403" lon="5.38042">
        <ele>1104</ele>
        <time>2000-01-01T05:10:29.000Z</time>
      </trkpt>
      <trkpt lat="44.8744" lon="5.38064">
        <ele>1103</ele>
        <time>2000-01-01T05:10:39.000Z</time>
      </trkpt>
      <trkpt lat="44.87477" lon="5.38086">
        <ele>1103</ele>
        <time>2000-01-01T05:10:49.000Z</time>
      </trkpt>
      <trkpt lat="44.87514" lon="5.38108">
        <ele>1101</ele>
        <time>2000-01-01T05:10:59.000Z</time>
      </trkpt>
      <trkpt lat="44.87565" lon="5.38139">
        <ele>1099</ele>
        <time>2000-01-01T05:11:09.000Z</time>
      </trkpt>
      <trkpt lat="44.876" lon="5.38159">
        <ele>1098</ele>
        <time>2000-01-01T05:11:19.000Z</time>
      </trkpt>
      <trkpt lat="44.87634" lon="5.38179">
        <ele>1097</ele>
        <time>2000-01-01T05:11:29.000Z</time>
      </trkpt>
      <trkpt lat="44.87669" lon="5.38199">
        <ele>1096</ele>
        <time>2000-01-01T05:11:39.000Z</time>
      </trkpt>
      <trkpt lat="44.87726" lon="5.38232">
        <ele>1094</ele>
        <time>2000-01-01T05:11:49.000Z</time>
      </trkpt>
      <trkpt lat="44.87753" lon="5.38256">
        <ele>1094</ele>
        <time>2000-01-01T05:11:59.000Z</time>
      </trkpt>
      <trkpt lat="44.8778" lon="5.3828">
        <ele>1093</ele>
        <time>2000-01-01T05:12:09.000Z</time>
      </trkpt>
      <trkpt lat="44.87808" lon="5.38304">
        <ele>1093</ele>
        <time>2000-01-01T05:12:19.000Z</time>
      </trkpt>
      <trkpt lat="44.87847" lon="5.38313">
        <ele>1091</ele>
        <time>2000-01-01T05:12:29.000Z</time>
      </trkpt>
      <trkpt lat="44.87886" lon="5.38321">
        <ele>1090</ele>
        <time>2000-01-01T05:12:39.000Z</time>
      </trkpt>
      <trkpt lat="44.87925" lon="5.38329">
        <ele>1090</ele>
        <time>2000-01-01T05:12:49.000Z</time>
      </trkpt>
      <trkpt lat="44.87964" lon="5.38337">
        <ele>1088</ele>
        <time>2000-01-01T05:12:59.000Z</time>
      </trkpt>
      <trkpt lat="44.88036" lon="5.38352">
        <ele>1086</ele>
        <time>2000-01-01T05:13:09.000Z</time>
      </trkpt>
      <trkpt lat="44.88077" lon="5.38361">
        <ele>1085</ele>
        <time>2000-01-01T05:13:19.000Z</time>
      </trkpt>
      <trkpt lat="44.88119" lon="5.3837">
        <ele>1083</ele>
        <time>2000-01-01T05:13:29.000Z</time>
      </trkpt>
      <trkpt lat="44.8816" lon="5.38379">
        <ele>1082</ele>
        <time>2000-01-01T05:13:39.000Z</time>
      </trkpt>
      <trkpt lat="44.88202" lon="5.38388">
        <ele>1081</ele>
        <time>2000-01-01T05:13:49.000Z</time>
      </trkpt>
      <trkpt lat="44.88243" lon="5.38397">
        <ele>1079</ele>
        <time>2000-01-01T05:13:59.000Z</time>
      </trkpt>
      <trkpt lat="44.88284" lon="5.38406">
        <ele>1079</ele>
        <time>2000-01-01T05:14:09.000Z</time>
      </trkpt>
      <trkpt lat="44.88326" lon="5.38415">
        <ele>1077</ele>
        <time>2000-01-01T05:14:19.000Z</time>
      </trkpt>
      <trkpt lat="44.88378" lon="5.38426">
        <ele>1076</ele>
        <time>2000-01-01T05:14:29.000Z</time>
      </trkpt>
      <trkpt lat="44.88424" lon="5.38434">
        <ele>1076</ele>
        <time>2000-01-01T05:14:39.000Z</time>
      </trkpt>
      <trkpt lat="44.88455" lon="5.38444">
        <ele>1075</ele>
        <time>2000-01-01T05:14:49.000Z</time>
      </trkpt>
      <trkpt lat="44.88515" lon="5.38465">
        <ele>1073</ele>
        <time>2000-01-01T05:14:59.000Z</time>
      </trkpt>
      <trkpt lat="44.88543" lon="5.38475">
        <ele>1073</ele>
        <time>2000-01-01T05:15:09.000Z</time>
      </trkpt>
      <trkpt lat="44.88584" lon="5.3849">
        <ele>1073</ele>
        <time>2000-01-01T05:15:19.000Z</time>
      </trkpt>
      <trkpt lat="44.8861" lon="5.38507">
        <ele>1073</ele>
        <time>2000-01-01T05:15:29.000Z</time>
      </trkpt>
      <trkpt lat="44.88648" lon="5.38533">
        <ele>1071</ele>
        <time>2000-01-01T05:15:39.000Z</time>
      </trkpt>
      <trkpt lat="44.88669" lon="5.3855">
        <ele>1071</ele>
        <time>2000-01-01T05:15:49.000Z</time>
      </trkpt>
      <trkpt lat="44.8869" lon="5.38567">
        <ele>1071</ele>
        <time>2000-01-01T05:15:59.000Z</time>
      </trkpt>
      <trkpt lat="44.88735" lon="5.38585">
        <ele>1070</ele>
        <time>2000-01-01T05:16:09.000Z</time>
      </trkpt>
      <trkpt lat="44.88771" lon="5.38583">
        <ele>1069</ele>
        <time>2000-01-01T05:16:19.000Z</time>
      </trkpt>
      <trkpt lat="44.88807" lon="5.38581">
        <ele>1068</ele>
        <time>2000-01-01T05:16:29.000Z</time>
      </trkpt>
      <trkpt lat="44.88843" lon="5.3858">
        <ele>1067</ele>
        <time>2000-01-01T05:16:39.000Z</time>
      </trkpt>
      <trkpt lat="44.88886" lon="5.38577">
        <ele>1067</ele>
        <time>2000-01-01T05:16:49.000Z</time>
      </trkpt>
      <trkpt lat="44.88921" lon="5.38589">
        <ele>1066</ele>
        <time>2000-01-01T05:16:59.000Z</time>
      </trkpt>
      <trkpt lat="44.88956" lon="5.38601">
        <ele>1065</ele>
        <time>2000-01-01T05:17:09.000Z</time>
      </trkpt>
      <trkpt lat="44.88992" lon="5.38612">
        <ele>1064</ele>
        <time>2000-01-01T05:17:19.000Z</time>
      </trkpt>
      <trkpt lat="44.89031" lon="5.38625">
        <ele>1063</ele>
        <time>2000-01-01T05:17:29.000Z</time>
      </trkpt>
      <trkpt lat="44.89057" lon="5.38644">
        <ele>1062</ele>
        <time>2000-01-01T05:17:39.000Z</time>
      </trkpt>
      <trkpt lat="44.89101" lon="5.38674">
        <ele>1061</ele>
        <time>2000-01-01T05:17:49.000Z</time>
      </trkpt>
      <trkpt lat="44.89139" lon="5.38685">
        <ele>1061</ele>
        <time>2000-01-01T05:17:59.000Z</time>
      </trkpt>
      <trkpt lat="44.89176" lon="5.38697">
        <ele>1060</ele>
        <time>2000-01-01T05:18:09.000Z</time>
      </trkpt>
      <trkpt lat="44.89214" lon="5.38708">
        <ele>1059</ele>
        <time>2000-01-01T05:18:19.000Z</time>
      </trkpt>
      <trkpt lat="44.89251" lon="5.3872">
        <ele>1059</ele>
        <time>2000-01-01T05:18:29.000Z</time>
      </trkpt>
      <trkpt lat="44.89294" lon="5.38733">
        <ele>1058</ele>
        <time>2000-01-01T05:18:39.000Z</time>
      </trkpt>
      <trkpt lat="44.89326" lon="5.38746">
        <ele>1058</ele>
        <time>2000-01-01T05:18:49.000Z</time>
      </trkpt>
      <trkpt lat="44.89357" lon="5.3876">
        <ele>1057</ele>
        <time>2000-01-01T05:18:59.000Z</time>
      </trkpt>
      <trkpt lat="44.89396" lon="5.38776">
        <ele>1056</ele>
        <time>2000-01-01T05:19:09.000Z</time>
      </trkpt>
      <trkpt lat="44.89426" lon="5.38792">
        <ele>1056</ele>
        <time>2000-01-01T05:19:19.000Z</time>
      </trkpt>
      <trkpt lat="44.89457" lon="5.38809">
        <ele>1056</ele>
        <time>2000-01-01T05:19:29.000Z</time>
      </trkpt>
      <trkpt lat="44.89491" lon="5.38827">
        <ele>1056</ele>
        <time>2000-01-01T05:19:39.000Z</time>
      </trkpt>
      <trkpt lat="44.89506" lon="5.38781">
        <ele>1055</ele>
        <time>2000-01-01T05:19:49.000Z</time>
      </trkpt>
      <trkpt lat="44.89521" lon="5.38735">
        <ele>1055</ele>
        <time>2000-01-01T05:19:59.000Z</time>
      </trkpt>
      <trkpt lat="44.89549" lon="5.38646">
        <ele>1056</ele>
        <time>2000-01-01T05:20:09.000Z</time>
      </trkpt>
      <trkpt lat="44.8956" lon="5.38606">
        <ele>1057</ele>
        <time>2000-01-01T05:20:19.000Z</time>
      </trkpt>
      <trkpt lat="44.89579" lon="5.38537">
        <ele>1060</ele>
        <time>2000-01-01T05:20:29.000Z</time>
      </trkpt>
      <trkpt lat="44.89588" lon="5.38504">
        <ele>1060</ele>
        <time>2000-01-01T05:20:39.000Z</time>
      </trkpt>
      <trkpt lat="44.89599" lon="5.38465">
        <ele>1061</ele>
        <time>2000-01-01T05:20:49.000Z</time>
      </trkpt>
      <trkpt lat="44.89608" lon="5.38423">
        <ele>1061</ele>
        <time>2000-01-01T05:20:59.000Z</time>
      </trkpt>
      <trkpt lat="44.89627" lon="5.38339">
        <ele>1061</ele>
        <time>2000-01-01T05:21:09.000Z</time>
      </trkpt>
      <trkpt lat="44.89634" lon="5.38299">
        <ele>1061</ele>
        <time>2000-01-01T05:21:19.000Z</time>
      </trkpt>
      <trkpt lat="44.89646" lon="5.38235">
        <ele>1061</ele>
        <time>2000-01-01T05:21:29.000Z</time>
      </trkpt>
      <trkpt lat="44.8965" lon="5.38201">
        <ele>1058</ele>
        <time>2000-01-01T05:21:39.000Z</time>
      </trkpt>
      <trkpt lat="44.89655" lon="5.38168">
        <ele>1057</ele>
        <time>2000-01-01T05:21:49.000Z</time>
      </trkpt>
      <trkpt lat="44.89651" lon="5.3813">
        <ele>1057</ele>
        <time>2000-01-01T05:21:59.000Z</time>
      </trkpt>
      <trkpt lat="44.89646" lon="5.3808">
        <ele>1057</ele>
        <time>2000-01-01T05:22:09.000Z</time>
      </trkpt>
      <trkpt lat="44.89652" lon="5.38043">
        <ele>1057</ele>
        <time>2000-01-01T05:22:19.000Z</time>
      </trkpt>
      <trkpt lat="44.8966" lon="5.37994">
        <ele>1057</ele>
        <time>2000-01-01T05:22:29.000Z</time>
      </trkpt>
      <trkpt lat="44.89654" lon="5.37952">
        <ele>1057</ele>
        <time>2000-01-01T05:22:39.000Z</time>
      </trkpt>
      <trkpt lat="44.89644" lon="5.37876">
        <ele>1056</ele>
        <time>2000-01-01T05:22:49.000Z</time>
      </trkpt>
      <trkpt lat="44.89638" lon="5.37841">
        <ele>1056</ele>
        <time>2000-01-01T05:22:59.000Z</time>
      </trkpt>
      <trkpt lat="44.8963" lon="5.378">
        <ele>1055</ele>
        <time>2000-01-01T05:23:09.000Z</time>
      </trkpt>
      <trkpt lat="44.89612" lon="5.37771">
        <ele>1055</ele>
        <time>2000-01-01T05:23:19.000Z</time>
      </trkpt>
      <trkpt lat="44.8961" lon="5.37736">
        <ele>1056</ele>
        <time>2000-01-01T05:23:29.000Z</time>
      </trkpt>
      <trkpt lat="44.89608" lon="5.37699">
        <ele>1059</ele>
        <time>2000-01-01T05:23:39.000Z</time>
      </trkpt>
      <trkpt lat="44.89618" lon="5.37653">
        <ele>1059</ele>
        <time>2000-01-01T05:23:49.000Z</time>
      </trkpt>
      <trkpt lat="44.89628" lon="5.37607">
        <ele>1059</ele>
        <time>2000-01-01T05:23:59.000Z</time>
      </trkpt>
      <trkpt lat="44.89643" lon="5.37537">
        <ele>1057</ele>
        <time>2000-01-01T05:24:09.000Z</time>
      </trkpt>
      <trkpt lat="44.89661" lon="5.37481">
        <ele>1054</ele>
        <time>2000-01-01T05:24:19.000Z</time>
      </trkpt>
      <trkpt lat="44.89661" lon="5.37424">
        <ele>1053</ele>
        <time>2000-01-01T05:24:29.000Z</time>
      </trkpt>
      <trkpt lat="44.8967" lon="5.37459">
        <ele>1051</ele>
        <time>2000-01-01T05:24:39.000Z</time>
      </trkpt>
      <trkpt lat="44.89681" lon="5.37502">
        <ele>1049</ele>
        <time>2000-01-01T05:24:49.000Z</time>
      </trkpt>
      <trkpt lat="44.89685" lon="5.37537">
        <ele>1049</ele>
        <time>2000-01-01T05:24:59.000Z</time>
      </trkpt>
      <trkpt lat="44.89705" lon="5.37582">
        <ele>1046</ele>
        <time>2000-01-01T05:25:09.000Z</time>
      </trkpt>
      <trkpt lat="44.89736" lon="5.37598">
        <ele>1044</ele>
        <time>2000-01-01T05:25:19.000Z</time>
      </trkpt>
      <trkpt lat="44.89756" lon="5.37616">
        <ele>1043</ele>
        <time>2000-01-01T05:25:29.000Z</time>
      </trkpt>
      <trkpt lat="44.89777" lon="5.37635">
        <ele>1041</ele>
        <time>2000-01-01T05:25:39.000Z</time>
      </trkpt>
      <trkpt lat="44.89792" lon="5.37669">
        <ele>1039</ele>
        <time>2000-01-01T05:25:49.000Z</time>
      </trkpt>
      <trkpt lat="44.89815" lon="5.3772">
        <ele>1039</ele>
        <time>2000-01-01T05:25:59.000Z</time>
      </trkpt>
      <trkpt lat="44.89815" lon="5.3775">
        <ele>1039</ele>
        <time>2000-01-01T05:26:09.000Z</time>
      </trkpt>
      <trkpt lat="44.89806" lon="5.3781">
        <ele>1037</ele>
        <time>2000-01-01T05:26:19.000Z</time>
      </trkpt>
      <trkpt lat="44.89847" lon="5.37832">
        <ele>1037</ele>
        <time>2000-01-01T05:26:29.000Z</time>
      </trkpt>
      <trkpt lat="44.89862" lon="5.37861">
        <ele>1037</ele>
        <time>2000-01-01T05:26:39.000Z</time>
      </trkpt>
      <trkpt lat="44.89878" lon="5.37893">
        <ele>1037</ele>
        <time>2000-01-01T05:26:49.000Z</time>
      </trkpt>
      <trkpt lat="44.89867" lon="5.37946">
        <ele>1038</ele>
        <time>2000-01-01T05:26:59.000Z</time>
      </trkpt>
      <trkpt lat="44.89871" lon="5.37984">
        <ele>1040</ele>
        <time>2000-01-01T05:27:09.000Z</time>
      </trkpt>
      <trkpt lat="44.89876" lon="5.38032">
        <ele>1040</ele>
        <time>2000-01-01T05:27:19.000Z</time>
      </trkpt>
      <trkpt lat="44.89888" lon="5.37976">
        <ele>1041</ele>
        <time>2000-01-01T05:27:29.000Z</time>
      </trkpt>
      <trkpt lat="44.899" lon="5.37943">
        <ele>1041</ele>
        <time>2000-01-01T05:27:39.000Z</time>
      </trkpt>
      <trkpt lat="44.89916" lon="5.37902">
        <ele>1039</ele>
        <time>2000-01-01T05:27:49.000Z</time>
      </trkpt>
      <trkpt lat="44.89933" lon="5.37877">
        <ele>1039</ele>
        <time>2000-01-01T05:27:59.000Z</time>
      </trkpt>
      <trkpt lat="44.89953" lon="5.37849">
        <ele>1039</ele>
        <time>2000-01-01T05:28:09.000Z</time>
      </trkpt>
      <trkpt lat="44.89963" lon="5.37817">
        <ele>1039</ele>
        <time>2000-01-01T05:28:19.000Z</time>
      </trkpt>
      <trkpt lat="44.89974" lon="5.37784">
        <ele>1039</ele>
        <time>2000-01-01T05:28:29.000Z</time>
      </trkpt>
      <trkpt lat="44.89963" lon="5.37738">
        <ele>1040</ele>
        <time>2000-01-01T05:28:39.000Z</time>
      </trkpt>
      <trkpt lat="44.89939" lon="5.37696">
        <ele>1040</ele>
        <time>2000-01-01T05:28:49.000Z</time>
      </trkpt>
      <trkpt lat="44.8993" lon="5.3764">
        <ele>1042</ele>
        <time>2000-01-01T05:28:59.000Z</time>
      </trkpt>
      <trkpt lat="44.89945" lon="5.37606">
        <ele>1044</ele>
        <time>2000-01-01T05:29:09.000Z</time>
      </trkpt>
      <trkpt lat="44.89968" lon="5.37553">
        <ele>1044</ele>
        <time>2000-01-01T05:29:19.000Z</time>
      </trkpt>
      <trkpt lat="44.89986" lon="5.3752">
        <ele>1045</ele>
        <time>2000-01-01T05:29:29.000Z</time>
      </trkpt>
      <trkpt lat="44.90014" lon="5.37467">
        <ele>1046</ele>
        <time>2000-01-01T05:29:39.000Z</time>
      </trkpt>
      <trkpt lat="44.90041" lon="5.37474">
        <ele>1047</ele>
        <time>2000-01-01T05:29:49.000Z</time>
      </trkpt>
      <trkpt lat="44.90077" lon="5.37484">
        <ele>1049</ele>
        <time>2000-01-01T05:29:59.000Z</time>
      </trkpt>
      <trkpt lat="44.90107" lon="5.37501">
        <ele>1050</ele>
        <time>2000-01-01T05:30:09.000Z</time>
      </trkpt>
      <trkpt lat="44.90131" lon="5.37498">
        <ele>1051</ele>
        <time>2000-01-01T05:30:19.000Z</time>
      </trkpt>
      <trkpt lat="44.90156" lon="5.37494">
        <ele>1052</ele>
        <time>2000-01-01T05:30:29.000Z</time>
      </trkpt>
      <trkpt lat="44.9018" lon="5.37518">
        <ele>1050</ele>
        <time>2000-01-01T05:30:39.000Z</time>
      </trkpt>
      <trkpt lat="44.90222" lon="5.37559">
        <ele>1049</ele>
        <time>2000-01-01T05:30:49.000Z</time>
      </trkpt>
      <trkpt lat="44.90247" lon="5.37573">
        <ele>1049</ele>
        <time>2000-01-01T05:30:59.000Z</time>
      </trkpt>
      <trkpt lat="44.90279" lon="5.3759">
        <ele>1049</ele>
        <time>2000-01-01T05:31:09.000Z</time>
      </trkpt>
      <trkpt lat="44.90304" lon="5.37631">
        <ele>1049</ele>
        <time>2000-01-01T05:31:19.000Z</time>
      </trkpt>
      <trkpt lat="44.90337" lon="5.37629">
        <ele>1048</ele>
        <time>2000-01-01T05:31:29.000Z</time>
      </trkpt>
      <trkpt lat="44.90366" lon="5.37635">
        <ele>1048</ele>
        <time>2000-01-01T05:31:39.000Z</time>
      </trkpt>
      <trkpt lat="44.90411" lon="5.37646">
        <ele>1047</ele>
        <time>2000-01-01T05:31:49.000Z</time>
      </trkpt>
      <trkpt lat="44.90438" lon="5.37661">
        <ele>1047</ele>
        <time>2000-01-01T05:31:59.000Z</time>
      </trkpt>
      <trkpt lat="44.90478" lon="5.37686">
        <ele>1047</ele>
        <time>2000-01-01T05:32:09.000Z</time>
      </trkpt>
      <trkpt lat="44.90491" lon="5.3772">
        <ele>1049</ele>
        <time>2000-01-01T05:32:19.000Z</time>
      </trkpt>
      <trkpt lat="44.90509" lon="5.37769">
        <ele>1051</ele>
        <time>2000-01-01T05:32:29.000Z</time>
      </trkpt>
      <trkpt lat="44.90528" lon="5.37798">
        <ele>1052</ele>
        <time>2000-01-01T05:32:39.000Z</time>
      </trkpt>
      <trkpt lat="44.90557" lon="5.37839">
        <ele>1052</ele>
        <time>2000-01-01T05:32:49.000Z</time>
      </trkpt>
      <trkpt lat="44.9058" lon="5.37863">
        <ele>1051</ele>
        <time>2000-01-01T05:32:59.000Z</time>
      </trkpt>
      <trkpt lat="44.90613" lon="5.379">
        <ele>1051</ele>
        <time>2000-01-01T05:33:09.000Z</time>
      </trkpt>
      <trkpt lat="44.9064" lon="5.37945">
        <ele>1051</ele>
        <time>2000-01-01T05:33:19.000Z</time>
      </trkpt>
      <trkpt lat="44.90642" lon="5.3798">
        <ele>1052</ele>
        <time>2000-01-01T05:33:29.000Z</time>
      </trkpt>
      <trkpt lat="44.90643" lon="5.38018">
        <ele>1054</ele>
        <time>2000-01-01T05:33:39.000Z</time>
      </trkpt>
      <trkpt lat="44.9064" lon="5.38056">
        <ele>1054</ele>
        <time>2000-01-01T05:33:49.000Z</time>
      </trkpt>
      <trkpt lat="44.90672" lon="5.3809">
        <ele>1054</ele>
        <time>2000-01-01T05:33:59.000Z</time>
      </trkpt>
      <trkpt lat="44.90702" lon="5.38091">
        <ele>1054</ele>
        <time>2000-01-01T05:34:09.000Z</time>
      </trkpt>
      <trkpt lat="44.90757" lon="5.38094">
        <ele>1054</ele>
        <time>2000-01-01T05:34:19.000Z</time>
      </trkpt>
      <trkpt lat="44.90777" lon="5.38094">
        <ele>1052</ele>
        <time>2000-01-01T05:34:29.000Z</time>
      </trkpt>
      <trkpt lat="44.90784" lon="5.38109">
        <ele>1051</ele>
        <time>2000-01-01T05:34:39.000Z</time>
      </trkpt>
      <trkpt lat="44.90804" lon="5.38134">
        <ele>1049</ele>
        <time>2000-01-01T05:34:49.000Z</time>
      </trkpt>
      <trkpt lat="44.90822" lon="5.38168">
        <ele>1047</ele>
        <time>2000-01-01T05:34:59.000Z</time>
      </trkpt>
      <trkpt lat="44.90848" lon="5.38179">
        <ele>1046</ele>
        <time>2000-01-01T05:35:09.000Z</time>
      </trkpt>
      <trkpt lat="44.90884" lon="5.38176">
        <ele>1046</ele>
        <time>2000-01-01T05:35:19.000Z</time>
      </trkpt>
      <trkpt lat="44.90921" lon="5.38173">
        <ele>1051</ele>
        <time>2000-01-01T05:35:29.000Z</time>
      </trkpt>
      <trkpt lat="44.90957" lon="5.3817">
        <ele>1053</ele>
        <time>2000-01-01T05:35:39.000Z</time>
      </trkpt>
      <trkpt lat="44.91" lon="5.38166">
        <ele>1053</ele>
        <time>2000-01-01T05:35:49.000Z</time>
      </trkpt>
      <trkpt lat="44.9103" lon="5.38135">
        <ele>1053</ele>
        <time>2000-01-01T05:35:59.000Z</time>
      </trkpt>
      <trkpt lat="44.9106" lon="5.38104">
        <ele>1053</ele>
        <time>2000-01-01T05:36:09.000Z</time>
      </trkpt>
      <trkpt lat="44.91089" lon="5.38073">
        <ele>1052</ele>
        <time>2000-01-01T05:36:19.000Z</time>
      </trkpt>
      <trkpt lat="44.91109" lon="5.38052">
        <ele>1052</ele>
        <time>2000-01-01T05:36:29.000Z</time>
      </trkpt>
      <trkpt lat="44.91132" lon="5.38029">
        <ele>1052</ele>
        <time>2000-01-01T05:36:39.000Z</time>
      </trkpt>
      <trkpt lat="44.91144" lon="5.37998">
        <ele>1053</ele>
        <time>2000-01-01T05:36:49.000Z</time>
      </trkpt>
      <trkpt lat="44.91157" lon="5.37963">
        <ele>1054</ele>
        <time>2000-01-01T05:36:59.000Z</time>
      </trkpt>
      <trkpt lat="44.91182" lon="5.37957">
        <ele>1058</ele>
        <time>2000-01-01T05:37:09.000Z</time>
      </trkpt>
      <trkpt lat="44.91209" lon="5.3795">
        <ele>1059</ele>
        <time>2000-01-01T05:37:19.000Z</time>
      </trkpt>
      <trkpt lat="44.91253" lon="5.37966">
        <ele>1061</ele>
        <time>2000-01-01T05:37:29.000Z</time>
      </trkpt>
      <trkpt lat="44.91277" lon="5.37982">
        <ele>1063</ele>
        <time>2000-01-01T05:37:39.000Z</time>
      </trkpt>
      <trkpt lat="44.91306" lon="5.38001">
        <ele>1066</ele>
        <time>2000-01-01T05:37:49.000Z</time>
      </trkpt>
      <trkpt lat="44.91315" lon="5.38001">
        <ele>1068</ele>
        <time>2000-01-01T05:37:59.000Z</time>
      </trkpt>
      <trkpt lat="44.9134" lon="5.37968">
        <ele>1068</ele>
        <time>2000-01-01T05:38:09.000Z</time>
      </trkpt>
      <trkpt lat="44.91356" lon="5.37969">
        <ele>1071</ele>
        <time>2000-01-01T05:38:19.000Z</time>
      </trkpt>
      <trkpt lat="44.91386" lon="5.37973">
        <ele>1076</ele>
        <time>2000-01-01T05:38:29.000Z</time>
      </trkpt>
      <trkpt lat="44.91437" lon="5.37979">
        <ele>1084</ele>
        <time>2000-01-01T05:38:39.000Z</time>
      </trkpt>
      <trkpt lat="44.91476" lon="5.37975">
        <ele>1086</ele>
        <time>2000-01-01T05:38:49.000Z</time>
      </trkpt>
      <trkpt lat="44.91514" lon="5.37971">
        <ele>1087</ele>
        <time>2000-01-01T05:38:59.000Z</time>
      </trkpt>
      <trkpt lat="44.91553" lon="5.37966">
        <ele>1087</ele>
        <time>2000-01-01T05:39:09.000Z</time>
      </trkpt>
      <trkpt lat="44.91591" lon="5.37962">
        <ele>1087</ele>
        <time>2000-01-01T05:39:19.000Z</time>
      </trkpt>
      <trkpt lat="44.91616" lon="5.3796">
        <ele>1087</ele>
        <time>2000-01-01T05:39:29.000Z</time>
      </trkpt>
      <trkpt lat="44.91641" lon="5.37957">
        <ele>1088</ele>
        <time>2000-01-01T05:39:39.000Z</time>
      </trkpt>
      <trkpt lat="44.91651" lon="5.37955">
        <ele>1088</ele>
        <time>2000-01-01T05:39:49.000Z</time>
      </trkpt>
      <trkpt lat="44.91675" lon="5.3796">
        <ele>1088</ele>
        <time>2000-01-01T05:39:59.000Z</time>
      </trkpt>
      <trkpt lat="44.91689" lon="5.37966">
        <ele>1088</ele>
        <time>2000-01-01T05:40:09.000Z</time>
      </trkpt>
      <trkpt lat="44.91715" lon="5.37976">
        <ele>1088</ele>
        <time>2000-01-01T05:40:19.000Z</time>
      </trkpt>
      <trkpt lat="44.91747" lon="5.37988">
        <ele>1088</ele>
        <time>2000-01-01T05:40:29.000Z</time>
      </trkpt>
      <trkpt lat="44.91757" lon="5.38023">
        <ele>1085</ele>
        <time>2000-01-01T05:40:39.000Z</time>
      </trkpt>
      <trkpt lat="44.9177" lon="5.38068">
        <ele>1083</ele>
        <time>2000-01-01T05:40:49.000Z</time>
      </trkpt>
      <trkpt lat="44.91791" lon="5.38101">
        <ele>1082</ele>
        <time>2000-01-01T05:40:59.000Z</time>
      </trkpt>
      <trkpt lat="44.91816" lon="5.38123">
        <ele>1081</ele>
        <time>2000-01-01T05:41:09.000Z</time>
      </trkpt>
      <trkpt lat="44.91858" lon="5.38145">
        <ele>1078</ele>
        <time>2000-01-01T05:41:19.000Z</time>
      </trkpt>
      <trkpt lat="44.91885" lon="5.38143">
        <ele>1077</ele>
        <time>2000-01-01T05:41:29.000Z</time>
      </trkpt>
      <trkpt lat="44.9192" lon="5.3814">
        <ele>1077</ele>
        <time>2000-01-01T05:41:39.000Z</time>
      </trkpt>
      <trkpt lat="44.91949" lon="5.38132">
        <ele>1076</ele>
        <time>2000-01-01T05:41:49.000Z</time>
      </trkpt>
      <trkpt lat="44.91976" lon="5.3814">
        <ele>1074</ele>
        <time>2000-01-01T05:41:59.000Z</time>
      </trkpt>
      <trkpt lat="44.92015" lon="5.38151">
        <ele>1073</ele>
        <time>2000-01-01T05:42:09.000Z</time>
      </trkpt>
      <trkpt lat="44.92038" lon="5.38161">
        <ele>1073</ele>
        <time>2000-01-01T05:42:19.000Z</time>
      </trkpt>
      <trkpt lat="44.92049" lon="5.38176">
        <ele>1074</ele>
        <time>2000-01-01T05:42:29.000Z</time>
      </trkpt>
      <trkpt lat="44.92065" lon="5.38228">
        <ele>1076</ele>
        <time>2000-01-01T05:42:39.000Z</time>
      </trkpt>
      <trkpt lat="44.9208" lon="5.38244">
        <ele>1076</ele>
        <time>2000-01-01T05:42:49.000Z</time>
      </trkpt>
      <trkpt lat="44.92102" lon="5.3826">
        <ele>1076</ele>
        <time>2000-01-01T05:42:59.000Z</time>
      </trkpt>
      <trkpt lat="44.92127" lon="5.38278">
        <ele>1077</ele>
        <time>2000-01-01T05:43:09.000Z</time>
      </trkpt>
      <trkpt lat="44.92154" lon="5.383">
        <ele>1078</ele>
        <time>2000-01-01T05:43:19.000Z</time>
      </trkpt>
      <trkpt lat="44.92177" lon="5.38319">
        <ele>1079</ele>
        <time>2000-01-01T05:43:29.000Z</time>
      </trkpt>
      <trkpt lat="44.92207" lon="5.38343">
        <ele>1079</ele>
        <time>2000-01-01T05:43:39.000Z</time>
      </trkpt>
      <trkpt lat="44.92234" lon="5.3834">
        <ele>1081</ele>
        <time>2000-01-01T05:43:49.000Z</time>
      </trkpt>
      <trkpt lat="44.9227" lon="5.38336">
        <ele>1081</ele>
        <time>2000-01-01T05:43:59.000Z</time>
      </trkpt>
      <trkpt lat="44.92292" lon="5.38347">
        <ele>1079</ele>
        <time>2000-01-01T05:44:09.000Z</time>
      </trkpt>
      <trkpt lat="44.92295" lon="5.38356">
        <ele>1078</ele>
        <time>2000-01-01T05:44:19.000Z</time>
      </trkpt>
      <trkpt lat="44.92302" lon="5.38362">
        <ele>1078</ele>
        <time>2000-01-01T05:44:29.000Z</time>
      </trkpt>
      <trkpt lat="44.92341" lon="5.38376">
        <ele>1077</ele>
        <time>2000-01-01T05:44:39.000Z</time>
      </trkpt>
      <trkpt lat="44.92354" lon="5.38383">
        <ele>1077</ele>
        <time>2000-01-01T05:44:49.000Z</time>
      </trkpt>
      <trkpt lat="44.92377" lon="5.3841">
        <ele>1078</ele>
        <time>2000-01-01T05:44:59.000Z</time>
      </trkpt>
      <trkpt lat="44.92407" lon="5.3845">
        <ele>1079</ele>
        <time>2000-01-01T05:45:09.000Z</time>
      </trkpt>
      <trkpt lat="44.92429" lon="5.38463">
        <ele>1079</ele>
        <time>2000-01-01T05:45:19.000Z</time>
      </trkpt>
      <trkpt lat="44.92453" lon="5.38476">
        <ele>1080</ele>
        <time>2000-01-01T05:45:29.000Z</time>
      </trkpt>
      <trkpt lat="44.92469" lon="5.38498">
        <ele>1081</ele>
        <time>2000-01-01T05:45:39.000Z</time>
      </trkpt>
      <trkpt lat="44.92506" lon="5.3853">
        <ele>1083</ele>
        <time>2000-01-01T05:45:49.000Z</time>
      </trkpt>
      <trkpt lat="44.92534" lon="5.3855">
        <ele>1087</ele>
        <time>2000-01-01T05:45:59.000Z</time>
      </trkpt>
      <trkpt lat="44.92545" lon="5.38553">
        <ele>1087</ele>
        <time>2000-01-01T05:46:09.000Z</time>
      </trkpt>
      <trkpt lat="44.9255" lon="5.38562">
        <ele>1087</ele>
        <time>2000-01-01T05:46:19.000Z</time>
      </trkpt>
      <trkpt lat="44.92557" lon="5.38566">
        <ele>1086</ele>
        <time>2000-01-01T05:46:29.000Z</time>
      </trkpt>
      <trkpt lat="44.92569" lon="5.38598">
        <ele>1085</ele>
        <time>2000-01-01T05:46:39.000Z</time>
      </trkpt>
      <trkpt lat="44.92579" lon="5.38611">
        <ele>1086</ele>
        <time>2000-01-01T05:46:49.000Z</time>
      </trkpt>
      <trkpt lat="44.92601" lon="5.38631">
        <ele>1085</ele>
        <time>2000-01-01T05:46:59.000Z</time>
      </trkpt>
      <trkpt lat="44.92604" lon="5.38641">
        <ele>1085</ele>
        <time>2000-01-01T05:47:09.000Z</time>
      </trkpt>
      <trkpt lat="44.92611" lon="5.38645">
        <ele>1084</ele>
        <time>2000-01-01T05:47:19.000Z</time>
      </trkpt>
      <trkpt lat="44.92617" lon="5.38683">
        <ele>1084</ele>
        <time>2000-01-01T05:47:29.000Z</time>
      </trkpt>
      <trkpt lat="44.92631" lon="5.38711">
        <ele>1086</ele>
        <time>2000-01-01T05:47:39.000Z</time>
      </trkpt>
      <trkpt lat="44.92646" lon="5.38724">
        <ele>1087</ele>
        <time>2000-01-01T05:47:49.000Z</time>
      </trkpt>
      <trkpt lat="44.92649" lon="5.38733">
        <ele>1087</ele>
        <time>2000-01-01T05:47:59.000Z</time>
      </trkpt>
      <trkpt lat="44.92685" lon="5.38752">
        <ele>1095</ele>
        <time>2000-01-01T05:48:09.000Z</time>
      </trkpt>
      <trkpt lat="44.92709" lon="5.38769">
        <ele>1097</ele>
        <time>2000-01-01T05:48:19.000Z</time>
      </trkpt>
      <trkpt lat="44.92741" lon="5.38792">
        <ele>1100</ele>
        <time>2000-01-01T05:48:29.000Z</time>
      </trkpt>
      <trkpt lat="44.92758" lon="5.38818">
        <ele>1100</ele>
        <time>2000-01-01T05:48:39.000Z</time>
      </trkpt>
      <trkpt lat="44.92776" lon="5.38848">
        <ele>1101</ele>
        <time>2000-01-01T05:48:49.000Z</time>
      </trkpt>
      <trkpt lat="44.92773" lon="5.3886">
        <ele>1101</ele>
        <time>2000-01-01T05:48:59.000Z</time>
      </trkpt>
      <trkpt lat="44.92769" lon="5.38906">
        <ele>1101</ele>
        <time>2000-01-01T05:49:09.000Z</time>
      </trkpt>
      <trkpt lat="44.92772" lon="5.38941">
        <ele>1100</ele>
        <time>2000-01-01T05:49:19.000Z</time>
      </trkpt>
      <trkpt lat="44.92776" lon="5.38979">
        <ele>1100</ele>
        <time>2000-01-01T05:49:29.000Z</time>
      </trkpt>
      <trkpt lat="44.92789" lon="5.39002">
        <ele>1099</ele>
        <time>2000-01-01T05:49:39.000Z</time>
      </trkpt>
      <trkpt lat="44.92818" lon="5.39026">
        <ele>1098</ele>
        <time>2000-01-01T05:49:49.000Z</time>
      </trkpt>
      <trkpt lat="44.92849" lon="5.39055">
        <ele>1096</ele>
        <time>2000-01-01T05:49:59.000Z</time>
      </trkpt>
      <trkpt lat="44.92882" lon="5.39077">
        <ele>1094</ele>
        <time>2000-01-01T05:50:09.000Z</time>
      </trkpt>
      <trkpt lat="44.92903" lon="5.3913">
        <ele>1094</ele>
        <time>2000-01-01T05:50:19.000Z</time>
      </trkpt>
      <trkpt lat="44.92925" lon="5.39159">
        <ele>1094</ele>
        <time>2000-01-01T05:50:29.000Z</time>
      </trkpt>
      <trkpt lat="44.92944" lon="5.39199">
        <ele>1092</ele>
        <time>2000-01-01T05:50:39.000Z</time>
      </trkpt>
      <trkpt lat="44.92972" lon="5.39178">
        <ele>1091</ele>
        <time>2000-01-01T05:50:49.000Z</time>
      </trkpt>
      <trkpt lat="44.92989" lon="5.39153">
        <ele>1085</ele>
        <time>2000-01-01T05:50:59.000Z</time>
      </trkpt>
      <trkpt lat="44.93014" lon="5.39154">
        <ele>1083</ele>
        <time>2000-01-01T05:51:09.000Z</time>
      </trkpt>
      <trkpt lat="44.93054" lon="5.39172">
        <ele>1082</ele>
        <time>2000-01-01T05:51:19.000Z</time>
      </trkpt>
      <trkpt lat="44.93058" lon="5.39165">
        <ele>1082</ele>
        <time>2000-01-01T05:51:29.000Z</time>
      </trkpt>
      <trkpt lat="44.93054" lon="5.39172">
        <ele>1082</ele>
        <time>2000-01-01T05:51:39.000Z</time>
      </trkpt>
      <trkpt lat="44.93054" lon="5.39232">
        <ele>1089</ele>
        <time>2000-01-01T05:51:49.000Z</time>
      </trkpt>
      <trkpt lat="44.9306" lon="5.39255">
        <ele>1092</ele>
        <time>2000-01-01T05:51:59.000Z</time>
      </trkpt>
      <trkpt lat="44.93066" lon="5.39289">
        <ele>1092</ele>
        <time>2000-01-01T05:52:09.000Z</time>
      </trkpt>
      <trkpt lat="44.93076" lon="5.39321">
        <ele>1089</ele>
        <time>2000-01-01T05:52:19.000Z</time>
      </trkpt>
      <trkpt lat="44.93086" lon="5.39355">
        <ele>1086</ele>
        <time>2000-01-01T05:52:29.000Z</time>
      </trkpt>
      <trkpt lat="44.93098" lon="5.39372">
        <ele>1083</ele>
        <time>2000-01-01T05:52:39.000Z</time>
      </trkpt>
      <trkpt lat="44.93107" lon="5.3939">
        <ele>1082</ele>
        <time>2000-01-01T05:52:49.000Z</time>
      </trkpt>
      <trkpt lat="44.93101" lon="5.39403">
        <ele>1082</ele>
        <time>2000-01-01T05:52:59.000Z</time>
      </trkpt>
      <trkpt lat="44.93102" lon="5.39446">
        <ele>1080</ele>
        <time>2000-01-01T05:53:09.000Z</time>
      </trkpt>
      <trkpt lat="44.93104" lon="5.39524">
        <ele>1075</ele>
        <time>2000-01-01T05:53:19.000Z</time>
      </trkpt>
      <trkpt lat="44.93114" lon="5.39589">
        <ele>1071</ele>
        <time>2000-01-01T05:53:29.000Z</time>
      </trkpt>
      <trkpt lat="44.93097" lon="5.39636">
        <ele>1070</ele>
        <time>2000-01-01T05:53:39.000Z</time>
      </trkpt>
      <trkpt lat="44.93079" lon="5.39661">
        <ele>1067</ele>
        <time>2000-01-01T05:53:49.000Z</time>
      </trkpt>
      <trkpt lat="44.93074" lon="5.39688">
        <ele>1062</ele>
        <time>2000-01-01T05:53:59.000Z</time>
      </trkpt>
      <trkpt lat="44.93061" lon="5.39721">
        <ele>1051</ele>
        <time>2000-01-01T05:54:09.000Z</time>
      </trkpt>
      <trkpt lat="44.93064" lon="5.39733">
        <ele>1047</ele>
        <time>2000-01-01T05:54:19.000Z</time>
      </trkpt>
      <trkpt lat="44.93082" lon="5.39753">
        <ele>1045</ele>
        <time>2000-01-01T05:54:29.000Z</time>
      </trkpt>
      <trkpt lat="44.93101" lon="5.39766">
        <ele>1046</ele>
        <time>2000-01-01T05:54:39.000Z</time>
      </trkpt>
      <trkpt lat="44.93139" lon="5.39779">
        <ele>1048</ele>
        <time>2000-01-01T05:54:49.000Z</time>
      </trkpt>
      <trkpt lat="44.93148" lon="5.3981">
        <ele>1048</ele>
        <time>2000-01-01T05:54:59.000Z</time>
      </trkpt>
      <trkpt lat="44.93182" lon="5.39831">
        <ele>1050</ele>
        <time>2000-01-01T05:55:09.000Z</time>
      </trkpt>
      <trkpt lat="44.93167" lon="5.39828">
        <ele>1050</ele>
        <time>2000-01-01T05:55:19.000Z</time>
      </trkpt>
      <trkpt lat="44.9315" lon="5.39826">
        <ele>1050</ele>
        <time>2000-01-01T05:55:29.000Z</time>
      </trkpt>
      <trkpt lat="44.93167" lon="5.39828">
        <ele>1052</ele>
        <time>2000-01-01T05:55:39.000Z</time>
      </trkpt>
      <trkpt lat="44.93182" lon="5.39831">
        <ele>1053</ele>
        <time>2000-01-01T05:55:49.000Z</time>
      </trkpt>
      <trkpt lat="44.93197" lon="5.39835">
        <ele>1053</ele>
        <time>2000-01-01T05:55:59.000Z</time>
      </trkpt>
      <trkpt lat="44.93214" lon="5.39829">
        <ele>1052</ele>
        <time>2000-01-01T05:56:09.000Z</time>
      </trkpt>
      <trkpt lat="44.93245" lon="5.39843">
        <ele>1049</ele>
        <time>2000-01-01T05:56:19.000Z</time>
      </trkpt>
      <trkpt lat="44.93272" lon="5.39844">
        <ele>1045</ele>
        <time>2000-01-01T05:56:29.000Z</time>
      </trkpt>
      <trkpt lat="44.93286" lon="5.39841">
        <ele>1043</ele>
        <time>2000-01-01T05:56:39.000Z</time>
      </trkpt>
      <trkpt lat="44.93308" lon="5.39845">
        <ele>1043</ele>
        <time>2000-01-01T05:56:49.000Z</time>
      </trkpt>
      <trkpt lat="44.93333" lon="5.398">
        <ele>1044</ele>
        <time>2000-01-01T05:56:59.000Z</time>
      </trkpt>
      <trkpt lat="44.9335" lon="5.39783">
        <ele>1046</ele>
        <time>2000-01-01T05:57:09.000Z</time>
      </trkpt>
      <trkpt lat="44.93384" lon="5.39786">
        <ele>1046</ele>
        <time>2000-01-01T05:57:19.000Z</time>
      </trkpt>
      <trkpt lat="44.93396" lon="5.39791">
        <ele>1046</ele>
        <time>2000-01-01T05:57:29.000Z</time>
      </trkpt>
      <trkpt lat="44.93432" lon="5.39823">
        <ele>1053</ele>
        <time>2000-01-01T05:57:39.000Z</time>
      </trkpt>
      <trkpt lat="44.93467" lon="5.39821">
        <ele>1055</ele>
        <time>2000-01-01T05:57:49.000Z</time>
      </trkpt>
      <trkpt lat="44.93483" lon="5.39823">
        <ele>1055</ele>
        <time>2000-01-01T05:57:59.000Z</time>
      </trkpt>
      <trkpt lat="44.93508" lon="5.3982">
        <ele>1054</ele>
        <time>2000-01-01T05:58:09.000Z</time>
      </trkpt>
      <trkpt lat="44.93534" lon="5.39816">
        <ele>1053</ele>
        <time>2000-01-01T05:58:19.000Z</time>
      </trkpt>
      <trkpt lat="44.93559" lon="5.39808">
        <ele>1052</ele>
        <time>2000-01-01T05:58:29.000Z</time>
      </trkpt>
      <trkpt lat="44.93589" lon="5.39798">
        <ele>1049</ele>
        <time>2000-01-01T05:58:39.000Z</time>
      </trkpt>
      <trkpt lat="44.93618" lon="5.39797">
        <ele>1045</ele>
        <time>2000-01-01T05:58:49.000Z</time>
      </trkpt>
      <trkpt lat="44.93666" lon="5.39795">
        <ele>1038</ele>
        <time>2000-01-01T05:58:59.000Z</time>
      </trkpt>
      <trkpt lat="44.93676" lon="5.39786">
        <ele>1037</ele>
        <time>2000-01-01T05:59:09.000Z</time>
      </trkpt>
      <trkpt lat="44.93711" lon="5.39782">
        <ele>1031</ele>
        <time>2000-01-01T05:59:19.000Z</time>
      </trkpt>
      <trkpt lat="44.93747" lon="5.39779">
        <ele>1028</ele>
        <time>2000-01-01T05:59:29.000Z</time>
      </trkpt>
      <trkpt lat="44.93815" lon="5.39772">
        <ele>1019</ele>
        <time>2000-01-01T05:59:39.000Z</time>
      </trkpt>
      <trkpt lat="44.93856" lon="5.39803">
        <ele>1013</ele>
        <time>2000-01-01T05:59:49.000Z</time>
      </trkpt>
      <trkpt lat="44.9389" lon="5.39789">
        <ele>1008</ele>
        <time>2000-01-01T05:59:59.000Z</time>
      </trkpt>
      <trkpt lat="44.93914" lon="5.39762">
        <ele>1003</ele>
        <time>2000-01-01T06:00:09.000Z</time>
      </trkpt>
      <trkpt lat="44.93933" lon="5.39739">
        <ele>999</ele>
        <time>2000-01-01T06:00:19.000Z</time>
      </trkpt>
      <trkpt lat="44.93956" lon="5.39714">
        <ele>996</ele>
        <time>2000-01-01T06:00:29.000Z</time>
      </trkpt>
      <trkpt lat="44.93987" lon="5.39663">
        <ele>993</ele>
        <time>2000-01-01T06:00:39.000Z</time>
      </trkpt>
      <trkpt lat="44.93999" lon="5.39629">
        <ele>989</ele>
        <time>2000-01-01T06:00:49.000Z</time>
      </trkpt>
      <trkpt lat="44.94016" lon="5.39584">
        <ele>986</ele>
        <time>2000-01-01T06:00:59.000Z</time>
      </trkpt>
      <trkpt lat="44.94044" lon="5.3957">
        <ele>985</ele>
        <time>2000-01-01T06:01:09.000Z</time>
      </trkpt>
      <trkpt lat="44.94067" lon="5.39558">
        <ele>985</ele>
        <time>2000-01-01T06:01:19.000Z</time>
      </trkpt>
      <trkpt lat="44.94092" lon="5.39546">
        <ele>986</ele>
        <time>2000-01-01T06:01:29.000Z</time>
      </trkpt>
      <trkpt lat="44.94108" lon="5.3954">
        <ele>986</ele>
        <time>2000-01-01T06:01:39.000Z</time>
      </trkpt>
      <trkpt lat="44.94135" lon="5.39523">
        <ele>984</ele>
        <time>2000-01-01T06:01:49.000Z</time>
      </trkpt>
      <trkpt lat="44.94179" lon="5.39497">
        <ele>983</ele>
        <time>2000-01-01T06:01:59.000Z</time>
      </trkpt>
      <trkpt lat="44.94192" lon="5.39484">
        <ele>980</ele>
        <time>2000-01-01T06:02:09.000Z</time>
      </trkpt>
      <trkpt lat="44.94174" lon="5.39447">
        <ele>977</ele>
        <time>2000-01-01T06:02:19.000Z</time>
      </trkpt>
      <trkpt lat="44.94168" lon="5.39404">
        <ele>977</ele>
        <time>2000-01-01T06:02:29.000Z</time>
      </trkpt>
      <trkpt lat="44.94179" lon="5.39368">
        <ele>971</ele>
        <time>2000-01-01T06:02:39.000Z</time>
      </trkpt>
      <trkpt lat="44.94189" lon="5.39396">
        <ele>969</ele>
        <time>2000-01-01T06:02:49.000Z</time>
      </trkpt>
      <trkpt lat="44.94206" lon="5.39407">
        <ele>965</ele>
        <time>2000-01-01T06:02:59.000Z</time>
      </trkpt>
      <trkpt lat="44.94214" lon="5.39407">
        <ele>964</ele>
        <time>2000-01-01T06:03:09.000Z</time>
      </trkpt>
      <trkpt lat="44.9425" lon="5.39372">
        <ele>963</ele>
        <time>2000-01-01T06:03:19.000Z</time>
      </trkpt>
      <trkpt lat="44.94229" lon="5.39409">
        <ele>967</ele>
        <time>2000-01-01T06:03:29.000Z</time>
      </trkpt>
      <trkpt lat="44.94208" lon="5.39446">
        <ele>971</ele>
        <time>2000-01-01T06:03:39.000Z</time>
      </trkpt>
      <trkpt lat="44.94179" lon="5.39497">
        <ele>975</ele>
        <time>2000-01-01T06:03:49.000Z</time>
      </trkpt>
      <trkpt lat="44.94192" lon="5.39484">
        <ele>976</ele>
        <time>2000-01-01T06:03:59.000Z</time>
      </trkpt>
      <trkpt lat="44.94174" lon="5.39447">
        <ele>977</ele>
        <time>2000-01-01T06:04:09.000Z</time>
      </trkpt>
      <trkpt lat="44.94168" lon="5.39404">
        <ele>977</ele>
        <time>2000-01-01T06:04:19.000Z</time>
      </trkpt>
      <trkpt lat="44.94179" lon="5.39368">
        <ele>971</ele>
        <time>2000-01-01T06:04:29.000Z</time>
      </trkpt>
      <trkpt lat="44.94189" lon="5.39396">
        <ele>969</ele>
        <time>2000-01-01T06:04:39.000Z</time>
      </trkpt>
      <trkpt lat="44.94206" lon="5.39407">
        <ele>965</ele>
        <time>2000-01-01T06:04:49.000Z</time>
      </trkpt>
      <trkpt lat="44.94214" lon="5.39407">
        <ele>964</ele>
        <time>2000-01-01T06:04:59.000Z</time>
      </trkpt>
      <trkpt lat="44.94241" lon="5.39381">
        <ele>959</ele>
        <time>2000-01-01T06:05:09.000Z</time>
      </trkpt>
      <trkpt lat="44.94267" lon="5.39354">
        <ele>955</ele>
        <time>2000-01-01T06:05:19.000Z</time>
      </trkpt>
      <trkpt lat="44.94297" lon="5.39325">
        <ele>950</ele>
        <time>2000-01-01T06:05:29.000Z</time>
      </trkpt>
      <trkpt lat="44.9432" lon="5.39323">
        <ele>949</ele>
        <time>2000-01-01T06:05:39.000Z</time>
      </trkpt>
      <trkpt lat="44.94344" lon="5.39315">
        <ele>947</ele>
        <time>2000-01-01T06:05:49.000Z</time>
      </trkpt>
      <trkpt lat="44.9437" lon="5.39307">
        <ele>945</ele>
        <time>2000-01-01T06:05:59.000Z</time>
      </trkpt>
      <trkpt lat="44.94395" lon="5.39307">
        <ele>943</ele>
        <time>2000-01-01T06:06:09.000Z</time>
      </trkpt>
      <trkpt lat="44.94421" lon="5.39308">
        <ele>940</ele>
        <time>2000-01-01T06:06:19.000Z</time>
      </trkpt>
      <trkpt lat="44.94441" lon="5.39326">
        <ele>940</ele>
        <time>2000-01-01T06:06:29.000Z</time>
      </trkpt>
      <trkpt lat="44.94462" lon="5.39345">
        <ele>940</ele>
        <time>2000-01-01T06:06:39.000Z</time>
      </trkpt>
      <trkpt lat="44.94483" lon="5.39361">
        <ele>940</ele>
        <time>2000-01-01T06:06:49.000Z</time>
      </trkpt>
      <trkpt lat="44.94505" lon="5.39377">
        <ele>938</ele>
        <time>2000-01-01T06:06:59.000Z</time>
      </trkpt>
      <trkpt lat="44.94533" lon="5.39404">
        <ele>937</ele>
        <time>2000-01-01T06:07:09.000Z</time>
      </trkpt>
      <trkpt lat="44.94561" lon="5.3943">
        <ele>935</ele>
        <time>2000-01-01T06:07:19.000Z</time>
      </trkpt>
      <trkpt lat="44.946" lon="5.39468">
        <ele>935</ele>
        <time>2000-01-01T06:07:29.000Z</time>
      </trkpt>
      <trkpt lat="44.94614" lon="5.39496">
        <ele>935</ele>
        <time>2000-01-01T06:07:39.000Z</time>
      </trkpt>
      <trkpt lat="44.94642" lon="5.39522">
        <ele>935</ele>
        <time>2000-01-01T06:07:49.000Z</time>
      </trkpt>
      <trkpt lat="44.9467" lon="5.39542">
        <ele>935</ele>
        <time>2000-01-01T06:07:59.000Z</time>
      </trkpt>
      <trkpt lat="44.94682" lon="5.39541">
        <ele>934</ele>
        <time>2000-01-01T06:08:09.000Z</time>
      </trkpt>
      <trkpt lat="44.94695" lon="5.39525">
        <ele>934</ele>
        <time>2000-01-01T06:08:19.000Z</time>
      </trkpt>
      <trkpt lat="44.94714" lon="5.39515">
        <ele>935</ele>
        <time>2000-01-01T06:08:29.000Z</time>
      </trkpt>
      <trkpt lat="44.94716" lon="5.39522">
        <ele>934.4</ele>
        <time>2000-01-01T06:08:39.000Z</time>
      </trkpt>
      <trkpt lat="44.94772" lon="5.39504">
        <ele>937</ele>
        <time>2000-01-01T06:08:49.000Z</time>
      </trkpt>
      <trkpt lat="44.94817" lon="5.39487">
        <ele>938</ele>
        <time>2000-01-01T06:08:59.000Z</time>
      </trkpt>
      <trkpt lat="44.94823" lon="5.39477">
        <ele>938</ele>
        <time>2000-01-01T06:09:09.000Z</time>
      </trkpt>
      <trkpt lat="44.94843" lon="5.39462">
        <ele>938</ele>
        <time>2000-01-01T06:09:19.000Z</time>
      </trkpt>
      <trkpt lat="44.94851" lon="5.39467">
        <ele>938</ele>
        <time>2000-01-01T06:09:29.000Z</time>
      </trkpt>
      <trkpt lat="44.94853" lon="5.39451">
        <ele>939</ele>
        <time>2000-01-01T06:09:39.000Z</time>
      </trkpt>
      <trkpt lat="44.94847" lon="5.39418">
        <ele>939</ele>
        <time>2000-01-01T06:09:49.000Z</time>
      </trkpt>
      <trkpt lat="44.94863" lon="5.39384">
        <ele>939</ele>
        <time>2000-01-01T06:09:59.000Z</time>
      </trkpt>
      <trkpt lat="44.94888" lon="5.39331">
        <ele>939</ele>
        <time>2000-01-01T06:10:09.000Z</time>
      </trkpt>
      <trkpt lat="44.94901" lon="5.39291">
        <ele>939</ele>
        <time>2000-01-01T06:10:19.000Z</time>
      </trkpt>
      <trkpt lat="44.94912" lon="5.39256">
        <ele>941</ele>
        <time>2000-01-01T06:10:29.000Z</time>
      </trkpt>
      <trkpt lat="44.94926" lon="5.39213">
        <ele>942</ele>
        <time>2000-01-01T06:10:39.000Z</time>
      </trkpt>
      <trkpt lat="44.94944" lon="5.39189">
        <ele>942</ele>
        <time>2000-01-01T06:10:49.000Z</time>
      </trkpt>
      <trkpt lat="44.94963" lon="5.39165">
        <ele>941</ele>
        <time>2000-01-01T06:10:59.000Z</time>
      </trkpt>
      <trkpt lat="44.94959" lon="5.39134">
        <ele>941</ele>
        <time>2000-01-01T06:11:09.000Z</time>
      </trkpt>
      <trkpt lat="44.94965" lon="5.39109">
        <ele>939</ele>
        <time>2000-01-01T06:11:19.000Z</time>
      </trkpt>
      <trkpt lat="44.94977" lon="5.39102">
        <ele>939</ele>
        <time>2000-01-01T06:11:29.000Z</time>
      </trkpt>
      <trkpt lat="44.94994" lon="5.39103">
        <ele>938</ele>
        <time>2000-01-01T06:11:39.000Z</time>
      </trkpt>
      <trkpt lat="44.95024" lon="5.39095">
        <ele>934</ele>
        <time>2000-01-01T06:11:49.000Z</time>
      </trkpt>
      <trkpt lat="44.95036" lon="5.3908">
        <ele>934</ele>
        <time>2000-01-01T06:11:59.000Z</time>
      </trkpt>
      <trkpt lat="44.95042" lon="5.39076">
        <ele>932</ele>
        <time>2000-01-01T06:12:09.000Z</time>
      </trkpt>
      <trkpt lat="44.95068" lon="5.39062">
        <ele>930</ele>
        <time>2000-01-01T06:12:19.000Z</time>
      </trkpt>
      <trkpt lat="44.95089" lon="5.39092">
        <ele>928</ele>
        <time>2000-01-01T06:12:29.000Z</time>
      </trkpt>
      <trkpt lat="44.95084" lon="5.39068">
        <ele>927</ele>
        <time>2000-01-01T06:12:39.000Z</time>
      </trkpt>
      <trkpt lat="44.95086" lon="5.39033">
        <ele>927</ele>
        <time>2000-01-01T06:12:49.000Z</time>
      </trkpt>
      <trkpt lat="44.95084" lon="5.39068">
        <ele>927</ele>
        <time>2000-01-01T06:12:59.000Z</time>
      </trkpt>
      <trkpt lat="44.95089" lon="5.39092">
        <ele>926</ele>
        <time>2000-01-01T06:13:09.000Z</time>
      </trkpt>
      <trkpt lat="44.951" lon="5.39124">
        <ele>923</ele>
        <time>2000-01-01T06:13:19.000Z</time>
      </trkpt>
      <trkpt lat="44.95113" lon="5.39161">
        <ele>922</ele>
        <time>2000-01-01T06:13:29.000Z</time>
      </trkpt>
      <trkpt lat="44.95116" lon="5.39199">
        <ele>922</ele>
        <time>2000-01-01T06:13:39.000Z</time>
      </trkpt>
      <trkpt lat="44.95121" lon="5.39249">
        <ele>921</ele>
        <time>2000-01-01T06:13:49.000Z</time>
      </trkpt>
      <trkpt lat="44.95118" lon="5.39283">
        <ele>920</ele>
        <time>2000-01-01T06:13:59.000Z</time>
      </trkpt>
      <trkpt lat="44.95117" lon="5.39285">
        <ele>922.5</ele>
        <time>2000-01-01T06:14:09.000Z</time>
      </trkpt>
      <trkpt lat="44.95108" lon="5.39327">
        <ele>920</ele>
        <time>2000-01-01T06:14:19.000Z</time>
      </trkpt>
      <trkpt lat="44.95088" lon="5.39371">
        <ele>916</ele>
        <time>2000-01-01T06:14:29.000Z</time>
      </trkpt>
      <trkpt lat="44.9508" lon="5.39418">
        <ele>913</ele>
        <time>2000-01-01T06:14:39.000Z</time>
      </trkpt>
      <trkpt lat="44.95069" lon="5.39455">
        <ele>911</ele>
        <time>2000-01-01T06:14:49.000Z</time>
      </trkpt>
      <trkpt lat="44.95053" lon="5.39508">
        <ele>911</ele>
        <time>2000-01-01T06:14:59.000Z</time>
      </trkpt>
      <trkpt lat="44.95037" lon="5.39571">
        <ele>906</ele>
        <time>2000-01-01T06:15:09.000Z</time>
      </trkpt>
      <trkpt lat="44.95037" lon="5.39637">
        <ele>903</ele>
        <time>2000-01-01T06:15:19.000Z</time>
      </trkpt>
      <trkpt lat="44.95062" lon="5.39664">
        <ele>903</ele>
        <time>2000-01-01T06:15:29.000Z</time>
      </trkpt>
      <trkpt lat="44.95084" lon="5.39687">
        <ele>905</ele>
        <time>2000-01-01T06:15:39.000Z</time>
      </trkpt>
      <trkpt lat="44.95112" lon="5.39718">
        <ele>904</ele>
        <time>2000-01-01T06:15:49.000Z</time>
      </trkpt>
      <trkpt lat="44.95118" lon="5.39757">
        <ele>903</ele>
        <time>2000-01-01T06:15:59.000Z</time>
      </trkpt>
      <trkpt lat="44.95128" lon="5.39814">
        <ele>894</ele>
        <time>2000-01-01T06:16:09.000Z</time>
      </trkpt>
      <trkpt lat="44.95128" lon="5.39824">
        <ele>893</ele>
        <time>2000-01-01T06:16:19.000Z</time>
      </trkpt>
      <trkpt lat="44.95137" lon="5.3983">
        <ele>893</ele>
        <time>2000-01-01T06:16:29.000Z</time>
      </trkpt>
      <trkpt lat="44.95167" lon="5.39836">
        <ele>891</ele>
        <time>2000-01-01T06:16:39.000Z</time>
      </trkpt>
      <trkpt lat="44.95221" lon="5.39846">
        <ele>895</ele>
        <time>2000-01-01T06:16:49.000Z</time>
      </trkpt>
      <trkpt lat="44.95257" lon="5.3982">
        <ele>893</ele>
        <time>2000-01-01T06:16:59.000Z</time>
      </trkpt>
      <trkpt lat="44.95281" lon="5.39823">
        <ele>891</ele>
        <time>2000-01-01T06:17:09.000Z</time>
      </trkpt>
      <trkpt lat="44.95308" lon="5.39827">
        <ele>889</ele>
        <time>2000-01-01T06:17:19.000Z</time>
      </trkpt>
      <trkpt lat="44.95331" lon="5.3984">
        <ele>886</ele>
        <time>2000-01-01T06:17:29.000Z</time>
      </trkpt>
      <trkpt lat="44.95377" lon="5.39848">
        <ele>885</ele>
        <time>2000-01-01T06:17:39.000Z</time>
      </trkpt>
      <trkpt lat="44.95405" lon="5.39849">
        <ele>884</ele>
        <time>2000-01-01T06:17:49.000Z</time>
      </trkpt>
      <trkpt lat="44.95448" lon="5.39852">
        <ele>882</ele>
        <time>2000-01-01T06:17:59.000Z</time>
      </trkpt>
      <trkpt lat="44.95481" lon="5.39874">
        <ele>880</ele>
        <time>2000-01-01T06:18:09.000Z</time>
      </trkpt>
      <trkpt lat="44.95508" lon="5.39893">
        <ele>879</ele>
        <time>2000-01-01T06:18:19.000Z</time>
      </trkpt>
      <trkpt lat="44.9553" lon="5.39908">
        <ele>879</ele>
        <time>2000-01-01T06:18:29.000Z</time>
      </trkpt>
      <trkpt lat="44.95555" lon="5.39925">
        <ele>874</ele>
        <time>2000-01-01T06:18:39.000Z</time>
      </trkpt>
      <trkpt lat="44.95585" lon="5.39935">
        <ele>874</ele>
        <time>2000-01-01T06:18:49.000Z</time>
      </trkpt>
      <trkpt lat="44.9561" lon="5.39944">
        <ele>871</ele>
        <time>2000-01-01T06:18:59.000Z</time>
      </trkpt>
      <trkpt lat="44.95639" lon="5.39954">
        <ele>871</ele>
        <time>2000-01-01T06:19:09.000Z</time>
      </trkpt>
      <trkpt lat="44.95667" lon="5.39951">
        <ele>871</ele>
        <time>2000-01-01T06:19:19.000Z</time>
      </trkpt>
      <trkpt lat="44.9571" lon="5.39963">
        <ele>871</ele>
        <time>2000-01-01T06:19:29.000Z</time>
      </trkpt>
      <trkpt lat="44.95727" lon="5.39962">
        <ele>871</ele>
        <time>2000-01-01T06:19:39.000Z</time>
      </trkpt>
      <trkpt lat="44.95709" lon="5.39977">
        <ele>868</ele>
        <time>2000-01-01T06:19:49.000Z</time>
      </trkpt>
      <trkpt lat="44.95707" lon="5.3998">
        <ele>866.5</ele>
        <time>2000-01-01T06:19:59.000Z</time>
      </trkpt>
      <trkpt lat="44.95693" lon="5.39995">
        <ele>864</ele>
        <time>2000-01-01T06:20:09.000Z</time>
      </trkpt>
      <trkpt lat="44.95688" lon="5.4003">
        <ele>858</ele>
        <time>2000-01-01T06:20:19.000Z</time>
      </trkpt>
      <trkpt lat="44.95682" lon="5.40072">
        <ele>856</ele>
        <time>2000-01-01T06:20:29.000Z</time>
      </trkpt>
      <trkpt lat="44.95681" lon="5.40137">
        <ele>855</ele>
        <time>2000-01-01T06:20:39.000Z</time>
      </trkpt>
      <trkpt lat="44.95724" lon="5.40136">
        <ele>854</ele>
        <time>2000-01-01T06:20:49.000Z</time>
      </trkpt>
      <trkpt lat="44.95768" lon="5.40135">
        <ele>853</ele>
        <time>2000-01-01T06:20:59.000Z</time>
      </trkpt>
      <trkpt lat="44.95811" lon="5.40134">
        <ele>852</ele>
        <time>2000-01-01T06:21:09.000Z</time>
      </trkpt>
      <trkpt lat="44.95855" lon="5.40133">
        <ele>850</ele>
        <time>2000-01-01T06:21:19.000Z</time>
      </trkpt>
      <trkpt lat="44.95898" lon="5.40132">
        <ele>848</ele>
        <time>2000-01-01T06:21:29.000Z</time>
      </trkpt>
      <trkpt lat="44.95942" lon="5.40131">
        <ele>847</ele>
        <time>2000-01-01T06:21:39.000Z</time>
      </trkpt>
      <trkpt lat="44.95985" lon="5.4013">
        <ele>846</ele>
        <time>2000-01-01T06:21:49.000Z</time>
      </trkpt>
      <trkpt lat="44.96029" lon="5.40129">
        <ele>845</ele>
        <time>2000-01-01T06:21:59.000Z</time>
      </trkpt>
      <trkpt lat="44.96072" lon="5.40128">
        <ele>844</ele>
        <time>2000-01-01T06:22:09.000Z</time>
      </trkpt>
      <trkpt lat="44.96116" lon="5.40127">
        <ele>843</ele>
        <time>2000-01-01T06:22:19.000Z</time>
      </trkpt>
      <trkpt lat="44.96142" lon="5.40127">
        <ele>843</ele>
        <time>2000-01-01T06:22:29.000Z</time>
      </trkpt>
      <trkpt lat="44.96174" lon="5.40126">
        <ele>842</ele>
        <time>2000-01-01T06:22:39.000Z</time>
      </trkpt>
      <trkpt lat="44.96209" lon="5.40138">
        <ele>841</ele>
        <time>2000-01-01T06:22:49.000Z</time>
      </trkpt>
      <trkpt lat="44.96244" lon="5.4015">
        <ele>840</ele>
        <time>2000-01-01T06:22:59.000Z</time>
      </trkpt>
      <trkpt lat="44.96278" lon="5.40162">
        <ele>840</ele>
        <time>2000-01-01T06:23:09.000Z</time>
      </trkpt>
      <trkpt lat="44.96314" lon="5.40175">
        <ele>839</ele>
        <time>2000-01-01T06:23:19.000Z</time>
      </trkpt>
      <trkpt lat="44.9634" lon="5.40179">
        <ele>838</ele>
        <time>2000-01-01T06:23:29.000Z</time>
      </trkpt>
      <trkpt lat="44.96371" lon="5.40183">
        <ele>838</ele>
        <time>2000-01-01T06:23:39.000Z</time>
      </trkpt>
      <trkpt lat="44.9641" lon="5.40181">
        <ele>838</ele>
        <time>2000-01-01T06:23:49.000Z</time>
      </trkpt>
      <trkpt lat="44.96437" lon="5.40155">
        <ele>838</ele>
        <time>2000-01-01T06:23:59.000Z</time>
      </trkpt>
      <trkpt lat="44.96464" lon="5.4013">
        <ele>836</ele>
        <time>2000-01-01T06:24:09.000Z</time>
      </trkpt>
      <trkpt lat="44.96497" lon="5.40099">
        <ele>835</ele>
        <time>2000-01-01T06:24:19.000Z</time>
      </trkpt>
      <trkpt lat="44.96522" lon="5.40098">
        <ele>834</ele>
        <time>2000-01-01T06:24:29.000Z</time>
      </trkpt>
      <trkpt lat="44.9655" lon="5.40096">
        <ele>834</ele>
        <time>2000-01-01T06:24:39.000Z</time>
      </trkpt>
      <trkpt lat="44.96574" lon="5.4011">
        <ele>834</ele>
        <time>2000-01-01T06:24:49.000Z</time>
      </trkpt>
      <trkpt lat="44.96604" lon="5.40127">
        <ele>834</ele>
        <time>2000-01-01T06:24:59.000Z</time>
      </trkpt>
      <trkpt lat="44.96644" lon="5.40122">
        <ele>833</ele>
        <time>2000-01-01T06:25:09.000Z</time>
      </trkpt>
      <trkpt lat="44.96684" lon="5.40117">
        <ele>832</ele>
        <time>2000-01-01T06:25:19.000Z</time>
      </trkpt>
      <trkpt lat="44.96723" lon="5.40111">
        <ele>831</ele>
        <time>2000-01-01T06:25:29.000Z</time>
      </trkpt>
      <trkpt lat="44.96763" lon="5.40106">
        <ele>831</ele>
        <time>2000-01-01T06:25:39.000Z</time>
      </trkpt>
      <trkpt lat="44.96803" lon="5.40101">
        <ele>830</ele>
        <time>2000-01-01T06:25:49.000Z</time>
      </trkpt>
      <trkpt lat="44.96827" lon="5.40098">
        <ele>830</ele>
        <time>2000-01-01T06:25:59.000Z</time>
      </trkpt>
      <trkpt lat="44.96851" lon="5.40095">
        <ele>830</ele>
        <time>2000-01-01T06:26:09.000Z</time>
      </trkpt>
      <trkpt lat="44.96884" lon="5.40094">
        <ele>829</ele>
        <time>2000-01-01T06:26:19.000Z</time>
      </trkpt>
      <trkpt lat="44.96912" lon="5.40096">
        <ele>829</ele>
        <time>2000-01-01T06:26:29.000Z</time>
      </trkpt>
      <trkpt lat="44.96951" lon="5.40099">
        <ele>828</ele>
        <time>2000-01-01T06:26:39.000Z</time>
      </trkpt>
      <trkpt lat="44.9698" lon="5.40105">
        <ele>828</ele>
        <time>2000-01-01T06:26:49.000Z</time>
      </trkpt>
      <trkpt lat="44.97025" lon="5.40115">
        <ele>827</ele>
        <time>2000-01-01T06:26:59.000Z</time>
      </trkpt>
      <trkpt lat="44.97053" lon="5.40118">
        <ele>827</ele>
        <time>2000-01-01T06:27:09.000Z</time>
      </trkpt>
      <trkpt lat="44.97086" lon="5.4013">
        <ele>827</ele>
        <time>2000-01-01T06:27:19.000Z</time>
      </trkpt>
      <trkpt lat="44.97068" lon="5.40173">
        <ele>827</ele>
        <time>2000-01-01T06:27:29.000Z</time>
      </trkpt>
      <trkpt lat="44.97055" lon="5.40224">
        <ele>827</ele>
        <time>2000-01-01T06:27:39.000Z</time>
      </trkpt>
      <trkpt lat="44.97037" lon="5.40275">
        <ele>827</ele>
        <time>2000-01-01T06:27:49.000Z</time>
      </trkpt>
      <trkpt lat="44.97029" lon="5.40325">
        <ele>828</ele>
        <time>2000-01-01T06:27:59.000Z</time>
      </trkpt>
      <trkpt lat="44.97015" lon="5.4038">
        <ele>829</ele>
        <time>2000-01-01T06:28:09.000Z</time>
      </trkpt>
      <trkpt lat="44.97007" lon="5.40398">
        <ele>830</ele>
        <time>2000-01-01T06:28:19.000Z</time>
      </trkpt>
      <trkpt lat="44.96981" lon="5.40417">
        <ele>831</ele>
        <time>2000-01-01T06:28:29.000Z</time>
      </trkpt>
      <trkpt lat="44.96942" lon="5.40445">
        <ele>832</ele>
        <time>2000-01-01T06:28:39.000Z</time>
      </trkpt>
      <trkpt lat="44.96926" lon="5.40505">
        <ele>835</ele>
        <time>2000-01-01T06:28:49.000Z</time>
      </trkpt>
      <trkpt lat="44.96924" lon="5.40571">
        <ele>835</ele>
        <time>2000-01-01T06:28:59.000Z</time>
      </trkpt>
      <trkpt lat="44.96926" lon="5.40619">
        <ele>836</ele>
        <time>2000-01-01T06:29:09.000Z</time>
      </trkpt>
      <trkpt lat="44.96927" lon="5.40666">
        <ele>838</ele>
        <time>2000-01-01T06:29:19.000Z</time>
      </trkpt>
      <trkpt lat="44.96929" lon="5.407">
        <ele>840</ele>
        <time>2000-01-01T06:29:29.000Z</time>
      </trkpt>
      <trkpt lat="44.9693" lon="5.40734">
        <ele>845</ele>
        <time>2000-01-01T06:29:39.000Z</time>
      </trkpt>
      <trkpt lat="44.96921" lon="5.40768">
        <ele>848</ele>
        <time>2000-01-01T06:29:49.000Z</time>
      </trkpt>
      <trkpt lat="44.96922" lon="5.40811">
        <ele>853</ele>
        <time>2000-01-01T06:29:59.000Z</time>
      </trkpt>
      <trkpt lat="44.96928" lon="5.40862">
        <ele>853</ele>
        <time>2000-01-01T06:30:09.000Z</time>
      </trkpt>
      <trkpt lat="44.96926" lon="5.40902">
        <ele>853</ele>
        <time>2000-01-01T06:30:19.000Z</time>
      </trkpt>
      <trkpt lat="44.96924" lon="5.40963">
        <ele>854</ele>
        <time>2000-01-01T06:30:29.000Z</time>
      </trkpt>
      <trkpt lat="44.96921" lon="5.40981">
        <ele>854</ele>
        <time>2000-01-01T06:30:39.000Z</time>
      </trkpt>
      <trkpt lat="44.96924" lon="5.41027">
        <ele>856</ele>
        <time>2000-01-01T06:30:49.000Z</time>
      </trkpt>
      <trkpt lat="44.96923" lon="5.41035">
        <ele>857.9</ele>
        <time>2000-01-01T06:30:59.000Z</time>
      </trkpt>
      <trkpt lat="44.96896" lon="5.41088">
        <ele>862</ele>
        <time>2000-01-01T06:31:09.000Z</time>
      </trkpt>
      <trkpt lat="44.96882" lon="5.41104">
        <ele>863</ele>
        <time>2000-01-01T06:31:19.000Z</time>
      </trkpt>
      <trkpt lat="44.96865" lon="5.41131">
        <ele>866</ele>
        <time>2000-01-01T06:31:29.000Z</time>
      </trkpt>
      <trkpt lat="44.96853" lon="5.41166">
        <ele>869</ele>
        <time>2000-01-01T06:31:39.000Z</time>
      </trkpt>
      <trkpt lat="44.96835" lon="5.41217">
        <ele>875</ele>
        <time>2000-01-01T06:31:49.000Z</time>
      </trkpt>
      <trkpt lat="44.96839" lon="5.41222">
        <ele>877.6</ele>
        <time>2000-01-01T06:31:59.000Z</time>
      </trkpt>
      <trkpt lat="44.96833" lon="5.41234">
        <ele>877</ele>
        <time>2000-01-01T06:32:09.000Z</time>
      </trkpt>
      <trkpt lat="44.96825" lon="5.41261">
        <ele>877</ele>
        <time>2000-01-01T06:32:19.000Z</time>
      </trkpt>
      <trkpt lat="44.96819" lon="5.4129">
        <ele>878</ele>
        <time>2000-01-01T06:32:29.000Z</time>
      </trkpt>
      <trkpt lat="44.96815" lon="5.41319">
        <ele>880</ele>
        <time>2000-01-01T06:32:39.000Z</time>
      </trkpt>
      <trkpt lat="44.96803" lon="5.41371">
        <ele>881</ele>
        <time>2000-01-01T06:32:49.000Z</time>
      </trkpt>
      <trkpt lat="44.96792" lon="5.4141">
        <ele>881</ele>
        <time>2000-01-01T06:32:59.000Z</time>
      </trkpt>
      <trkpt lat="44.96783" lon="5.41441">
        <ele>881</ele>
        <time>2000-01-01T06:33:09.000Z</time>
      </trkpt>
      <trkpt lat="44.96774" lon="5.41473">
        <ele>881</ele>
        <time>2000-01-01T06:33:19.000Z</time>
      </trkpt>
      <trkpt lat="44.96766" lon="5.415">
        <ele>881</ele>
        <time>2000-01-01T06:33:29.000Z</time>
      </trkpt>
      <trkpt lat="44.96757" lon="5.41526">
        <ele>881</ele>
        <time>2000-01-01T06:33:39.000Z</time>
      </trkpt>
      <trkpt lat="44.96756" lon="5.41532">
        <ele>882.2</ele>
        <time>2000-01-01T06:33:49.000Z</time>
      </trkpt>
      <trkpt lat="44.9674" lon="5.4156">
        <ele>880</ele>
        <time>2000-01-01T06:33:59.000Z</time>
      </trkpt>
      <trkpt lat="44.9674" lon="5.41561">
        <ele>882.4</ele>
        <time>2000-01-01T06:34:09.000Z</time>
      </trkpt>
      <trkpt lat="44.96735" lon="5.41544">
        <ele>880</ele>
        <time>2000-01-01T06:34:19.000Z</time>
      </trkpt>
      <trkpt lat="44.96732" lon="5.41557">
        <ele>880</ele>
        <time>2000-01-01T06:34:29.000Z</time>
      </trkpt>
      <trkpt lat="44.9674" lon="5.4156">
        <ele>880</ele>
        <time>2000-01-01T06:34:39.000Z</time>
      </trkpt>
      <trkpt lat="44.96737" lon="5.4159">
        <ele>881</ele>
        <time>2000-01-01T06:34:49.000Z</time>
      </trkpt>
      <trkpt lat="44.9673" lon="5.41624">
        <ele>882</ele>
        <time>2000-01-01T06:34:59.000Z</time>
      </trkpt>
      <trkpt lat="44.96738" lon="5.41626">
        <ele>883</ele>
        <time>2000-01-01T06:35:09.000Z</time>
      </trkpt>
      <trkpt lat="44.96775" lon="5.41592">
        <ele>887</ele>
        <time>2000-01-01T06:35:19.000Z</time>
      </trkpt>
      <trkpt lat="44.96781" lon="5.41585">
        <ele>887</ele>
        <time>2000-01-01T06:35:29.000Z</time>
      </trkpt>
      <trkpt lat="44.96785" lon="5.41573">
        <ele>887</ele>
        <time>2000-01-01T06:35:39.000Z</time>
      </trkpt>
      <trkpt lat="44.96802" lon="5.4158">
        <ele>890</ele>
        <time>2000-01-01T06:35:49.000Z</time>
      </trkpt>
      <trkpt lat="44.96813" lon="5.41583">
        <ele>891</ele>
        <time>2000-01-01T06:35:59.000Z</time>
      </trkpt>
      <trkpt lat="44.96822" lon="5.41568">
        <ele>891</ele>
        <time>2000-01-01T06:36:09.000Z</time>
      </trkpt>
      <trkpt lat="44.9683" lon="5.41559">
        <ele>891</ele>
        <time>2000-01-01T06:36:19.000Z</time>
      </trkpt>
      <trkpt lat="44.96874" lon="5.41539">
        <ele>894</ele>
        <time>2000-01-01T06:36:29.000Z</time>
      </trkpt>
      <trkpt lat="44.96895" lon="5.41548">
        <ele>895</ele>
        <time>2000-01-01T06:36:39.000Z</time>
      </trkpt>
      <trkpt lat="44.96934" lon="5.41569">
        <ele>897</ele>
        <time>2000-01-01T06:36:49.000Z</time>
      </trkpt>
      <trkpt lat="44.96957" lon="5.4158">
        <ele>898</ele>
        <time>2000-01-01T06:36:59.000Z</time>
      </trkpt>
      <trkpt lat="44.96981" lon="5.41592">
        <ele>900</ele>
        <time>2000-01-01T06:37:09.000Z</time>
      </trkpt>
      <trkpt lat="44.97" lon="5.41597">
        <ele>900</ele>
        <time>2000-01-01T06:37:19.000Z</time>
      </trkpt>
      <trkpt lat="44.97032" lon="5.41593">
        <ele>904</ele>
        <time>2000-01-01T06:37:29.000Z</time>
      </trkpt>
      <trkpt lat="44.97065" lon="5.41588">
        <ele>906</ele>
        <time>2000-01-01T06:37:39.000Z</time>
      </trkpt>
      <trkpt lat="44.97103" lon="5.41583">
        <ele>906</ele>
        <time>2000-01-01T06:37:49.000Z</time>
      </trkpt>
      <trkpt lat="44.97116" lon="5.41547">
        <ele>905</ele>
        <time>2000-01-01T06:37:59.000Z</time>
      </trkpt>
      <trkpt lat="44.97142" lon="5.41504">
        <ele>905</ele>
        <time>2000-01-01T06:38:09.000Z</time>
      </trkpt>
      <trkpt lat="44.97168" lon="5.41474">
        <ele>904</ele>
        <time>2000-01-01T06:38:19.000Z</time>
      </trkpt>
      <trkpt lat="44.97194" lon="5.41445">
        <ele>902</ele>
        <time>2000-01-01T06:38:29.000Z</time>
      </trkpt>
      <trkpt lat="44.9723" lon="5.41404">
        <ele>900</ele>
        <time>2000-01-01T06:38:39.000Z</time>
      </trkpt>
      <trkpt lat="44.9725" lon="5.41367">
        <ele>897</ele>
        <time>2000-01-01T06:38:49.000Z</time>
      </trkpt>
      <trkpt lat="44.97278" lon="5.41375">
        <ele>895</ele>
        <time>2000-01-01T06:38:59.000Z</time>
      </trkpt>
      <trkpt lat="44.97294" lon="5.41375">
        <ele>893</ele>
        <time>2000-01-01T06:39:09.000Z</time>
      </trkpt>
      <trkpt lat="44.97322" lon="5.41371">
        <ele>889</ele>
        <time>2000-01-01T06:39:19.000Z</time>
      </trkpt>
      <trkpt lat="44.97365" lon="5.41365">
        <ele>886</ele>
        <time>2000-01-01T06:39:29.000Z</time>
      </trkpt>
      <trkpt lat="44.97388" lon="5.41369">
        <ele>886</ele>
        <time>2000-01-01T06:39:39.000Z</time>
      </trkpt>
      <trkpt lat="44.97413" lon="5.41368">
        <ele>886</ele>
        <time>2000-01-01T06:39:49.000Z</time>
      </trkpt>
      <trkpt lat="44.97439" lon="5.41367">
        <ele>887</ele>
        <time>2000-01-01T06:39:59.000Z</time>
      </trkpt>
      <trkpt lat="44.9746" lon="5.41371">
        <ele>887</ele>
        <time>2000-01-01T06:40:09.000Z</time>
      </trkpt>
      <trkpt lat="44.97483" lon="5.41369">
        <ele>887</ele>
        <time>2000-01-01T06:40:19.000Z</time>
      </trkpt>
      <trkpt lat="44.97516" lon="5.41355">
        <ele>884</ele>
        <time>2000-01-01T06:40:29.000Z</time>
      </trkpt>
      <trkpt lat="44.9754" lon="5.41354">
        <ele>883</ele>
        <time>2000-01-01T06:40:39.000Z</time>
      </trkpt>
      <trkpt lat="44.97547" lon="5.41349">
        <ele>882</ele>
        <time>2000-01-01T06:40:49.000Z</time>
      </trkpt>
      <trkpt lat="44.97554" lon="5.41337">
        <ele>882</ele>
        <time>2000-01-01T06:40:59.000Z</time>
      </trkpt>
      <trkpt lat="44.97558" lon="5.41323">
        <ele>881</ele>
        <time>2000-01-01T06:41:09.000Z</time>
      </trkpt>
      <trkpt lat="44.97553" lon="5.41292">
        <ele>881</ele>
        <time>2000-01-01T06:41:19.000Z</time>
      </trkpt>
      <trkpt lat="44.97554" lon="5.4127">
        <ele>881</ele>
        <time>2000-01-01T06:41:29.000Z</time>
      </trkpt>
      <trkpt lat="44.97566" lon="5.41259">
        <ele>882</ele>
        <time>2000-01-01T06:41:39.000Z</time>
      </trkpt>
      <trkpt lat="44.97602" lon="5.41259">
        <ele>888</ele>
        <time>2000-01-01T06:41:49.000Z</time>
      </trkpt>
      <trkpt lat="44.97626" lon="5.41253">
        <ele>892</ele>
        <time>2000-01-01T06:41:59.000Z</time>
      </trkpt>
      <trkpt lat="44.97669" lon="5.41252">
        <ele>896</ele>
        <time>2000-01-01T06:42:09.000Z</time>
      </trkpt>
      <trkpt lat="44.97705" lon="5.41258">
        <ele>899</ele>
        <time>2000-01-01T06:42:19.000Z</time>
      </trkpt>
      <trkpt lat="44.97729" lon="5.41256">
        <ele>900</ele>
        <time>2000-01-01T06:42:29.000Z</time>
      </trkpt>
      <trkpt lat="44.9776" lon="5.41247">
        <ele>901</ele>
        <time>2000-01-01T06:42:39.000Z</time>
      </trkpt>
      <trkpt lat="44.97792" lon="5.41238">
        <ele>902</ele>
        <time>2000-01-01T06:42:49.000Z</time>
      </trkpt>
      <trkpt lat="44.97824" lon="5.41229">
        <ele>902</ele>
        <time>2000-01-01T06:42:59.000Z</time>
      </trkpt>
      <trkpt lat="44.97842" lon="5.41222">
        <ele>903</ele>
        <time>2000-01-01T06:43:09.000Z</time>
      </trkpt>
      <trkpt lat="44.9787" lon="5.41215">
        <ele>904</ele>
        <time>2000-01-01T06:43:19.000Z</time>
      </trkpt>
      <trkpt lat="44.97911" lon="5.41204">
        <ele>907</ele>
        <time>2000-01-01T06:43:29.000Z</time>
      </trkpt>
      <trkpt lat="44.9792" lon="5.41201">
        <ele>907</ele>
        <time>2000-01-01T06:43:39.000Z</time>
      </trkpt>
      <trkpt lat="44.97927" lon="5.41192">
        <ele>907</ele>
        <time>2000-01-01T06:43:49.000Z</time>
      </trkpt>
      <trkpt lat="44.97928" lon="5.4118">
        <ele>904</ele>
        <time>2000-01-01T06:43:59.000Z</time>
      </trkpt>
      <trkpt lat="44.97928" lon="5.41147">
        <ele>901</ele>
        <time>2000-01-01T06:44:09.000Z</time>
      </trkpt>
      <trkpt lat="44.97919" lon="5.41098">
        <ele>895</ele>
        <time>2000-01-01T06:44:19.000Z</time>
      </trkpt>
      <trkpt lat="44.97922" lon="5.41063">
        <ele>892</ele>
        <time>2000-01-01T06:44:29.000Z</time>
      </trkpt>
      <trkpt lat="44.97917" lon="5.41031">
        <ele>889</ele>
        <time>2000-01-01T06:44:39.000Z</time>
      </trkpt>
      <trkpt lat="44.97918" lon="5.40995">
        <ele>888</ele>
        <time>2000-01-01T06:44:49.000Z</time>
      </trkpt>
      <trkpt lat="44.97922" lon="5.40972">
        <ele>887</ele>
        <time>2000-01-01T06:44:59.000Z</time>
      </trkpt>
      <trkpt lat="44.97921" lon="5.4092">
        <ele>887</ele>
        <time>2000-01-01T06:45:09.000Z</time>
      </trkpt>
      <trkpt lat="44.97917" lon="5.40898">
        <ele>888</ele>
        <time>2000-01-01T06:45:19.000Z</time>
      </trkpt>
      <trkpt lat="44.97913" lon="5.40868">
        <ele>888</ele>
        <time>2000-01-01T06:45:29.000Z</time>
      </trkpt>
      <trkpt lat="44.97904" lon="5.40832">
        <ele>888</ele>
        <time>2000-01-01T06:45:39.000Z</time>
      </trkpt>
      <trkpt lat="44.97899" lon="5.40817">
        <ele>888</ele>
        <time>2000-01-01T06:45:49.000Z</time>
      </trkpt>
      <trkpt lat="44.97891" lon="5.40789">
        <ele>887</ele>
        <time>2000-01-01T06:45:59.000Z</time>
      </trkpt>
      <trkpt lat="44.97882" lon="5.40736">
        <ele>885</ele>
        <time>2000-01-01T06:46:09.000Z</time>
      </trkpt>
      <trkpt lat="44.97878" lon="5.40694">
        <ele>881</ele>
        <time>2000-01-01T06:46:19.000Z</time>
      </trkpt>
      <trkpt lat="44.97867" lon="5.40647">
        <ele>880</ele>
        <time>2000-01-01T06:46:29.000Z</time>
      </trkpt>
      <trkpt lat="44.97859" lon="5.40634">
        <ele>879</ele>
        <time>2000-01-01T06:46:39.000Z</time>
      </trkpt>
      <trkpt lat="44.97851" lon="5.40614">
        <ele>879</ele>
        <time>2000-01-01T06:46:49.000Z</time>
      </trkpt>
      <trkpt lat="44.97842" lon="5.40584">
        <ele>878</ele>
        <time>2000-01-01T06:46:59.000Z</time>
      </trkpt>
      <trkpt lat="44.97843" lon="5.4057">
        <ele>877</ele>
        <time>2000-01-01T06:47:09.000Z</time>
      </trkpt>
      <trkpt lat="44.97848" lon="5.4056">
        <ele>877</ele>
        <time>2000-01-01T06:47:19.000Z</time>
      </trkpt>
      <trkpt lat="44.97867" lon="5.40552">
        <ele>877</ele>
        <time>2000-01-01T06:47:29.000Z</time>
      </trkpt>
      <trkpt lat="44.97883" lon="5.40551">
        <ele>876</ele>
        <time>2000-01-01T06:47:39.000Z</time>
      </trkpt>
      <trkpt lat="44.97905" lon="5.40555">
        <ele>876</ele>
        <time>2000-01-01T06:47:49.000Z</time>
      </trkpt>
      <trkpt lat="44.97929" lon="5.40563">
        <ele>876</ele>
        <time>2000-01-01T06:47:59.000Z</time>
      </trkpt>
      <trkpt lat="44.97957" lon="5.40573">
        <ele>876</ele>
        <time>2000-01-01T06:48:09.000Z</time>
      </trkpt>
      <trkpt lat="44.97974" lon="5.40581">
        <ele>876</ele>
        <time>2000-01-01T06:48:19.000Z</time>
      </trkpt>
      <trkpt lat="44.97998" lon="5.40596">
        <ele>876</ele>
        <time>2000-01-01T06:48:29.000Z</time>
      </trkpt>
      <trkpt lat="44.98027" lon="5.40615">
        <ele>877</ele>
        <time>2000-01-01T06:48:39.000Z</time>
      </trkpt>
      <trkpt lat="44.98042" lon="5.40622">
        <ele>877</ele>
        <time>2000-01-01T06:48:49.000Z</time>
      </trkpt>
      <trkpt lat="44.98058" lon="5.40632">
        <ele>877</ele>
        <time>2000-01-01T06:48:59.000Z</time>
      </trkpt>
      <trkpt lat="44.98082" lon="5.40653">
        <ele>877</ele>
        <time>2000-01-01T06:49:09.000Z</time>
      </trkpt>
      <trkpt lat="44.98102" lon="5.40669">
        <ele>876</ele>
        <time>2000-01-01T06:49:19.000Z</time>
      </trkpt>
      <trkpt lat="44.98118" lon="5.40688">
        <ele>876</ele>
        <time>2000-01-01T06:49:29.000Z</time>
      </trkpt>
      <trkpt lat="44.98129" lon="5.4071">
        <ele>875</ele>
        <time>2000-01-01T06:49:39.000Z</time>
      </trkpt>
      <trkpt lat="44.98142" lon="5.40729">
        <ele>873</ele>
        <time>2000-01-01T06:49:49.000Z</time>
      </trkpt>
      <trkpt lat="44.9817" lon="5.40745">
        <ele>870</ele>
        <time>2000-01-01T06:49:59.000Z</time>
      </trkpt>
      <trkpt lat="44.98183" lon="5.40759">
        <ele>869</ele>
        <time>2000-01-01T06:50:09.000Z</time>
      </trkpt>
      <trkpt lat="44.98192" lon="5.40781">
        <ele>866</ele>
        <time>2000-01-01T06:50:19.000Z</time>
      </trkpt>
      <trkpt lat="44.98202" lon="5.40817">
        <ele>864</ele>
        <time>2000-01-01T06:50:29.000Z</time>
      </trkpt>
      <trkpt lat="44.98214" lon="5.40843">
        <ele>862</ele>
        <time>2000-01-01T06:50:39.000Z</time>
      </trkpt>
      <trkpt lat="44.98231" lon="5.40858">
        <ele>860</ele>
        <time>2000-01-01T06:50:49.000Z</time>
      </trkpt>
      <trkpt lat="44.98248" lon="5.40864">
        <ele>860</ele>
        <time>2000-01-01T06:50:59.000Z</time>
      </trkpt>
      <trkpt lat="44.98281" lon="5.40879">
        <ele>859</ele>
        <time>2000-01-01T06:51:09.000Z</time>
      </trkpt>
      <trkpt lat="44.98294" lon="5.40887">
        <ele>859</ele>
        <time>2000-01-01T06:51:19.000Z</time>
      </trkpt>
      <trkpt lat="44.98324" lon="5.40895">
        <ele>860</ele>
        <time>2000-01-01T06:51:29.000Z</time>
      </trkpt>
      <trkpt lat="44.98359" lon="5.40898">
        <ele>860</ele>
        <time>2000-01-01T06:51:39.000Z</time>
      </trkpt>
      <trkpt lat="44.98379" lon="5.40911">
        <ele>862</ele>
        <time>2000-01-01T06:51:49.000Z</time>
      </trkpt>
      <trkpt lat="44.98395" lon="5.40924">
        <ele>862</ele>
        <time>2000-01-01T06:51:59.000Z</time>
      </trkpt>
      <trkpt lat="44.98418" lon="5.40937">
        <ele>863</ele>
        <time>2000-01-01T06:52:09.000Z</time>
      </trkpt>
      <trkpt lat="44.98442" lon="5.40952">
        <ele>864</ele>
        <time>2000-01-01T06:52:19.000Z</time>
      </trkpt>
      <trkpt lat="44.98476" lon="5.40978">
        <ele>864</ele>
        <time>2000-01-01T06:52:29.000Z</time>
      </trkpt>
      <trkpt lat="44.98498" lon="5.40989">
        <ele>862</ele>
        <time>2000-01-01T06:52:39.000Z</time>
      </trkpt>
      <trkpt lat="44.98521" lon="5.41006">
        <ele>862</ele>
        <time>2000-01-01T06:52:49.000Z</time>
      </trkpt>
      <trkpt lat="44.98532" lon="5.41024">
        <ele>863</ele>
        <time>2000-01-01T06:52:59.000Z</time>
      </trkpt>
      <trkpt lat="44.98538" lon="5.41037">
        <ele>864</ele>
        <time>2000-01-01T06:53:09.000Z</time>
      </trkpt>
      <trkpt lat="44.9855" lon="5.41054">
        <ele>864</ele>
        <time>2000-01-01T06:53:19.000Z</time>
      </trkpt>
      <trkpt lat="44.98558" lon="5.41061">
        <ele>864</ele>
        <time>2000-01-01T06:53:29.000Z</time>
      </trkpt>
      <trkpt lat="44.98577" lon="5.41083">
        <ele>862</ele>
        <time>2000-01-01T06:53:39.000Z</time>
      </trkpt>
      <trkpt lat="44.98598" lon="5.41108">
        <ele>859</ele>
        <time>2000-01-01T06:53:49.000Z</time>
      </trkpt>
      <trkpt lat="44.98605" lon="5.41118">
        <ele>858</ele>
        <time>2000-01-01T06:53:59.000Z</time>
      </trkpt>
      <trkpt lat="44.98628" lon="5.41142">
        <ele>856</ele>
        <time>2000-01-01T06:54:09.000Z</time>
      </trkpt>
      <trkpt lat="44.9866" lon="5.41162">
        <ele>853</ele>
        <time>2000-01-01T06:54:19.000Z</time>
      </trkpt>
      <trkpt lat="44.98671" lon="5.41175">
        <ele>852</ele>
        <time>2000-01-01T06:54:29.000Z</time>
      </trkpt>
      <trkpt lat="44.98677" lon="5.41185">
        <ele>851</ele>
        <time>2000-01-01T06:54:39.000Z</time>
      </trkpt>
      <trkpt lat="44.98684" lon="5.41211">
        <ele>851</ele>
        <time>2000-01-01T06:54:49.000Z</time>
      </trkpt>
      <trkpt lat="44.98703" lon="5.41239">
        <ele>848</ele>
        <time>2000-01-01T06:54:59.000Z</time>
      </trkpt>
      <trkpt lat="44.98741" lon="5.41265">
        <ele>842</ele>
        <time>2000-01-01T06:55:09.000Z</time>
      </trkpt>
      <trkpt lat="44.98756" lon="5.41273">
        <ele>841</ele>
        <time>2000-01-01T06:55:19.000Z</time>
      </trkpt>
      <trkpt lat="44.98773" lon="5.41278">
        <ele>838</ele>
        <time>2000-01-01T06:55:29.000Z</time>
      </trkpt>
      <trkpt lat="44.98805" lon="5.41276">
        <ele>834</ele>
        <time>2000-01-01T06:55:39.000Z</time>
      </trkpt>
      <trkpt lat="44.98818" lon="5.41283">
        <ele>833</ele>
        <time>2000-01-01T06:55:49.000Z</time>
      </trkpt>
      <trkpt lat="44.98835" lon="5.41296">
        <ele>829</ele>
        <time>2000-01-01T06:55:59.000Z</time>
      </trkpt>
      <trkpt lat="44.98846" lon="5.41308">
        <ele>828</ele>
        <time>2000-01-01T06:56:09.000Z</time>
      </trkpt>
      <trkpt lat="44.98859" lon="5.41333">
        <ele>826</ele>
        <time>2000-01-01T06:56:19.000Z</time>
      </trkpt>
      <trkpt lat="44.98874" lon="5.41356">
        <ele>823</ele>
        <time>2000-01-01T06:56:29.000Z</time>
      </trkpt>
      <trkpt lat="44.98894" lon="5.4137">
        <ele>820</ele>
        <time>2000-01-01T06:56:39.000Z</time>
      </trkpt>
      <trkpt lat="44.989" lon="5.41378">
        <ele>820</ele>
        <time>2000-01-01T06:56:49.000Z</time>
      </trkpt>
      <trkpt lat="44.98921" lon="5.41423">
        <ele>812</ele>
        <time>2000-01-01T06:56:59.000Z</time>
      </trkpt>
      <trkpt lat="44.98922" lon="5.41438">
        <ele>812</ele>
        <time>2000-01-01T06:57:09.000Z</time>
      </trkpt>
      <trkpt lat="44.98917" lon="5.41447">
        <ele>812</ele>
        <time>2000-01-01T06:57:19.000Z</time>
      </trkpt>
      <trkpt lat="44.98902" lon="5.4147">
        <ele>812</ele>
        <time>2000-01-01T06:57:29.000Z</time>
      </trkpt>
      <trkpt lat="44.98895" lon="5.41504">
        <ele>809</ele>
        <time>2000-01-01T06:57:39.000Z</time>
      </trkpt>
      <trkpt lat="44.98887" lon="5.41542">
        <ele>805</ele>
        <time>2000-01-01T06:57:49.000Z</time>
      </trkpt>
      <trkpt lat="44.98882" lon="5.41557">
        <ele>804</ele>
        <time>2000-01-01T06:57:59.000Z</time>
      </trkpt>
      <trkpt lat="44.98882" lon="5.41575">
        <ele>802</ele>
        <time>2000-01-01T06:58:09.000Z</time>
      </trkpt>
      <trkpt lat="44.98894" lon="5.41603">
        <ele>797</ele>
        <time>2000-01-01T06:58:19.000Z</time>
      </trkpt>
      <trkpt lat="44.98894" lon="5.41616">
        <ele>796</ele>
        <time>2000-01-01T06:58:29.000Z</time>
      </trkpt>
      <trkpt lat="44.98891" lon="5.41647">
        <ele>792</ele>
        <time>2000-01-01T06:58:39.000Z</time>
      </trkpt>
      <trkpt lat="44.98888" lon="5.41665">
        <ele>792</ele>
        <time>2000-01-01T06:58:49.000Z</time>
      </trkpt>
      <trkpt lat="44.98888" lon="5.41682">
        <ele>790</ele>
        <time>2000-01-01T06:58:59.000Z</time>
      </trkpt>
      <trkpt lat="44.98892" lon="5.41695">
        <ele>788</ele>
        <time>2000-01-01T06:59:09.000Z</time>
      </trkpt>
      <trkpt lat="44.98903" lon="5.41716">
        <ele>786</ele>
        <time>2000-01-01T06:59:19.000Z</time>
      </trkpt>
      <trkpt lat="44.98908" lon="5.41721">
        <ele>785</ele>
        <time>2000-01-01T06:59:29.000Z</time>
      </trkpt>
      <trkpt lat="44.98982" lon="5.41725">
        <ele>777</ele>
        <time>2000-01-01T06:59:39.000Z</time>
      </trkpt>
      <trkpt lat="44.99022" lon="5.41737">
        <ele>770</ele>
        <time>2000-01-01T06:59:49.000Z</time>
      </trkpt>
      <trkpt lat="44.99046" lon="5.41747">
        <ele>768</ele>
        <time>2000-01-01T06:59:59.000Z</time>
      </trkpt>
      <trkpt lat="44.99072" lon="5.41757">
        <ele>766</ele>
        <time>2000-01-01T07:00:09.000Z</time>
      </trkpt>
      <trkpt lat="44.99078" lon="5.41756">
        <ele>764.6</ele>
        <time>2000-01-01T07:00:19.000Z</time>
      </trkpt>
      <trkpt lat="44.99088" lon="5.41759">
        <ele>764</ele>
        <time>2000-01-01T07:00:29.000Z</time>
      </trkpt>
      <trkpt lat="44.99111" lon="5.41779">
        <ele>759</ele>
        <time>2000-01-01T07:00:39.000Z</time>
      </trkpt>
      <trkpt lat="44.99146" lon="5.41816">
        <ele>755</ele>
        <time>2000-01-01T07:00:49.000Z</time>
      </trkpt>
      <trkpt lat="44.99168" lon="5.41836">
        <ele>752</ele>
        <time>2000-01-01T07:00:59.000Z</time>
      </trkpt>
      <trkpt lat="44.99194" lon="5.41859">
        <ele>748</ele>
        <time>2000-01-01T07:01:09.000Z</time>
      </trkpt>
      <trkpt lat="44.99217" lon="5.41902">
        <ele>746</ele>
        <time>2000-01-01T07:01:19.000Z</time>
      </trkpt>
      <trkpt lat="44.99242" lon="5.41908">
        <ele>743</ele>
        <time>2000-01-01T07:01:29.000Z</time>
      </trkpt>
      <trkpt lat="44.99282" lon="5.41897">
        <ele>739</ele>
        <time>2000-01-01T07:01:39.000Z</time>
      </trkpt>
      <trkpt lat="44.99318" lon="5.4192">
        <ele>736</ele>
        <time>2000-01-01T07:01:49.000Z</time>
      </trkpt>
      <trkpt lat="44.99335" lon="5.4195">
        <ele>735</ele>
        <time>2000-01-01T07:01:59.000Z</time>
      </trkpt>
      <trkpt lat="44.99357" lon="5.41991">
        <ele>732</ele>
        <time>2000-01-01T07:02:09.000Z</time>
      </trkpt>
      <trkpt lat="44.99392" lon="5.42024">
        <ele>729</ele>
        <time>2000-01-01T07:02:19.000Z</time>
      </trkpt>
      <trkpt lat="44.99403" lon="5.42031">
        <ele>727</ele>
        <time>2000-01-01T07:02:29.000Z</time>
      </trkpt>
      <trkpt lat="44.99426" lon="5.42059">
        <ele>725</ele>
        <time>2000-01-01T07:02:39.000Z</time>
      </trkpt>
      <trkpt lat="44.99452" lon="5.42071">
        <ele>722</ele>
        <time>2000-01-01T07:02:49.000Z</time>
      </trkpt>
      <trkpt lat="44.99488" lon="5.42087">
        <ele>719</ele>
        <time>2000-01-01T07:02:59.000Z</time>
      </trkpt>
      <trkpt lat="44.99528" lon="5.42119">
        <ele>712</ele>
        <time>2000-01-01T07:03:09.000Z</time>
      </trkpt>
      <trkpt lat="44.99514" lon="5.42152">
        <ele>709</ele>
        <time>2000-01-01T07:03:19.000Z</time>
      </trkpt>
      <trkpt lat="44.99521" lon="5.42154">
        <ele>708</ele>
        <time>2000-01-01T07:03:29.000Z</time>
      </trkpt>
      <trkpt lat="44.99532" lon="5.42146">
        <ele>708</ele>
        <time>2000-01-01T07:03:39.000Z</time>
      </trkpt>
      <trkpt lat="44.99541" lon="5.4215">
        <ele>707</ele>
        <time>2000-01-01T07:03:49.000Z</time>
      </trkpt>
      <trkpt lat="44.99572" lon="5.42152">
        <ele>705</ele>
        <time>2000-01-01T07:03:59.000Z</time>
      </trkpt>
      <trkpt lat="44.99632" lon="5.42155">
        <ele>702</ele>
        <time>2000-01-01T07:04:09.000Z</time>
      </trkpt>
      <trkpt lat="44.9966" lon="5.42184">
        <ele>700</ele>
        <time>2000-01-01T07:04:19.000Z</time>
      </trkpt>
      <trkpt lat="44.99688" lon="5.42213">
        <ele>698</ele>
        <time>2000-01-01T07:04:29.000Z</time>
      </trkpt>
      <trkpt lat="44.99709" lon="5.42235">
        <ele>696</ele>
        <time>2000-01-01T07:04:39.000Z</time>
      </trkpt>
      <trkpt lat="44.99736" lon="5.42262">
        <ele>692</ele>
        <time>2000-01-01T07:04:49.000Z</time>
      </trkpt>
      <trkpt lat="44.9975" lon="5.42294">
        <ele>689</ele>
        <time>2000-01-01T07:04:59.000Z</time>
      </trkpt>
      <trkpt lat="44.99768" lon="5.42333">
        <ele>687</ele>
        <time>2000-01-01T07:05:09.000Z</time>
      </trkpt>
      <trkpt lat="44.99769" lon="5.42322">
        <ele>685</ele>
        <time>2000-01-01T07:05:19.000Z</time>
      </trkpt>
      <trkpt lat="44.99768" lon="5.42333">
        <ele>684</ele>
        <time>2000-01-01T07:05:29.000Z</time>
      </trkpt>
      <trkpt lat="44.99783" lon="5.42371">
        <ele>683</ele>
        <time>2000-01-01T07:05:39.000Z</time>
      </trkpt>
      <trkpt lat="44.99789" lon="5.42414">
        <ele>683</ele>
        <time>2000-01-01T07:05:49.000Z</time>
      </trkpt>
      <trkpt lat="44.99794" lon="5.4245">
        <ele>683</ele>
        <time>2000-01-01T07:05:59.000Z</time>
      </trkpt>
      <trkpt lat="44.998" lon="5.42493">
        <ele>689</ele>
        <time>2000-01-01T07:06:09.000Z</time>
      </trkpt>
      <trkpt lat="44.99803" lon="5.42537">
        <ele>691</ele>
        <time>2000-01-01T07:06:19.000Z</time>
      </trkpt>
      <trkpt lat="44.99805" lon="5.42575">
        <ele>697</ele>
        <time>2000-01-01T07:06:29.000Z</time>
      </trkpt>
      <trkpt lat="44.99808" lon="5.42625">
        <ele>700</ele>
        <time>2000-01-01T07:06:39.000Z</time>
      </trkpt>
      <trkpt lat="44.99836" lon="5.42652">
        <ele>704</ele>
        <time>2000-01-01T07:06:49.000Z</time>
      </trkpt>
      <trkpt lat="44.99863" lon="5.42679">
        <ele>703</ele>
        <time>2000-01-01T07:06:59.000Z</time>
      </trkpt>
      <trkpt lat="44.99902" lon="5.42716">
        <ele>703</ele>
        <time>2000-01-01T07:07:09.000Z</time>
      </trkpt>
      <trkpt lat="44.99905" lon="5.42751">
        <ele>709</ele>
        <time>2000-01-01T07:07:19.000Z</time>
      </trkpt>
      <trkpt lat="44.99909" lon="5.42791">
        <ele>709</ele>
        <time>2000-01-01T07:07:29.000Z</time>
      </trkpt>
      <trkpt lat="44.99904" lon="5.42809">
        <ele>716</ele>
        <time>2000-01-01T07:07:39.000Z</time>
      </trkpt>
      <trkpt lat="44.9986" lon="5.42792">
        <ele>723</ele>
        <time>2000-01-01T07:07:49.000Z</time>
      </trkpt>
      <trkpt lat="44.99849" lon="5.4275">
        <ele>722</ele>
        <time>2000-01-01T07:07:59.000Z</time>
      </trkpt>
      <trkpt lat="44.99836" lon="5.42706">
        <ele>722</ele>
        <time>2000-01-01T07:08:09.000Z</time>
      </trkpt>
      <trkpt lat="44.9981" lon="5.42706">
        <ele>723</ele>
        <time>2000-01-01T07:08:19.000Z</time>
      </trkpt>
      <trkpt lat="44.99781" lon="5.42706">
        <ele>727</ele>
        <time>2000-01-01T07:08:29.000Z</time>
      </trkpt>
      <trkpt lat="44.99759" lon="5.42728">
        <ele>735</ele>
        <time>2000-01-01T07:08:39.000Z</time>
      </trkpt>
      <trkpt lat="44.99734" lon="5.42716">
        <ele>739</ele>
        <time>2000-01-01T07:08:49.000Z</time>
      </trkpt>
      <trkpt lat="44.99704" lon="5.42702">
        <ele>751</ele>
        <time>2000-01-01T07:08:59.000Z</time>
      </trkpt>
      <trkpt lat="44.99659" lon="5.42694">
        <ele>775</ele>
        <time>2000-01-01T07:09:09.000Z</time>
      </trkpt>
      <trkpt lat="44.9963" lon="5.42724">
        <ele>790</ele>
        <time>2000-01-01T07:09:19.000Z</time>
      </trkpt>
      <trkpt lat="44.99628" lon="5.42758">
        <ele>791</ele>
        <time>2000-01-01T07:09:29.000Z</time>
      </trkpt>
      <trkpt lat="44.99625" lon="5.42792">
        <ele>795</ele>
        <time>2000-01-01T07:09:39.000Z</time>
      </trkpt>
      <trkpt lat="44.99629" lon="5.42828">
        <ele>796</ele>
        <time>2000-01-01T07:09:49.000Z</time>
      </trkpt>
      <trkpt lat="44.99633" lon="5.4287">
        <ele>795</ele>
        <time>2000-01-01T07:09:59.000Z</time>
      </trkpt>
      <trkpt lat="44.99644" lon="5.42906">
        <ele>795</ele>
        <time>2000-01-01T07:10:09.000Z</time>
      </trkpt>
      <trkpt lat="44.99659" lon="5.42956">
        <ele>795</ele>
        <time>2000-01-01T07:10:19.000Z</time>
      </trkpt>
      <trkpt lat="44.99656" lon="5.43012">
        <ele>805</ele>
        <time>2000-01-01T07:10:29.000Z</time>
      </trkpt>
      <trkpt lat="44.99664" lon="5.43075">
        <ele>814</ele>
        <time>2000-01-01T07:10:39.000Z</time>
      </trkpt>
      <trkpt lat="44.99675" lon="5.43112">
        <ele>813</ele>
        <time>2000-01-01T07:10:49.000Z</time>
      </trkpt>
      <trkpt lat="44.99691" lon="5.43169">
        <ele>815</ele>
        <time>2000-01-01T07:10:59.000Z</time>
      </trkpt>
      <trkpt lat="44.9968" lon="5.43188">
        <ele>817</ele>
        <time>2000-01-01T07:11:09.000Z</time>
      </trkpt>
      <trkpt lat="44.99654" lon="5.43167">
        <ele>826</ele>
        <time>2000-01-01T07:11:19.000Z</time>
      </trkpt>
      <trkpt lat="44.99612" lon="5.43132">
        <ele>835</ele>
        <time>2000-01-01T07:11:29.000Z</time>
      </trkpt>
      <trkpt lat="44.99596" lon="5.43083">
        <ele>842</ele>
        <time>2000-01-01T07:11:39.000Z</time>
      </trkpt>
      <trkpt lat="44.9958" lon="5.43053">
        <ele>846</ele>
        <time>2000-01-01T07:11:49.000Z</time>
      </trkpt>
      <trkpt lat="44.99556" lon="5.43053">
        <ele>847</ele>
        <time>2000-01-01T07:11:59.000Z</time>
      </trkpt>
      <trkpt lat="44.99532" lon="5.43053">
        <ele>849</ele>
        <time>2000-01-01T07:12:09.000Z</time>
      </trkpt>
      <trkpt lat="44.99495" lon="5.43032">
        <ele>856</ele>
        <time>2000-01-01T07:12:19.000Z</time>
      </trkpt>
      <trkpt lat="44.99458" lon="5.43012">
        <ele>865</ele>
        <time>2000-01-01T07:12:29.000Z</time>
      </trkpt>
      <trkpt lat="44.99421" lon="5.42991">
        <ele>871</ele>
        <time>2000-01-01T07:12:39.000Z</time>
      </trkpt>
      <trkpt lat="44.99385" lon="5.4297">
        <ele>876</ele>
        <time>2000-01-01T07:12:49.000Z</time>
      </trkpt>
      <trkpt lat="44.99357" lon="5.42955">
        <ele>882</ele>
        <time>2000-01-01T07:12:59.000Z</time>
      </trkpt>
      <trkpt lat="44.99313" lon="5.4293">
        <ele>892</ele>
        <time>2000-01-01T07:13:09.000Z</time>
      </trkpt>
      <trkpt lat="44.99286" lon="5.42936">
        <ele>892</ele>
        <time>2000-01-01T07:13:19.000Z</time>
      </trkpt>
      <trkpt lat="44.9925" lon="5.42945">
        <ele>892</ele>
        <time>2000-01-01T07:13:29.000Z</time>
      </trkpt>
      <trkpt lat="44.99225" lon="5.42943">
        <ele>893</ele>
        <time>2000-01-01T07:13:39.000Z</time>
      </trkpt>
      <trkpt lat="44.99199" lon="5.42941">
        <ele>893</ele>
        <time>2000-01-01T07:13:49.000Z</time>
      </trkpt>
      <trkpt lat="44.99164" lon="5.4293">
        <ele>895</ele>
        <time>2000-01-01T07:13:59.000Z</time>
      </trkpt>
      <trkpt lat="44.9913" lon="5.4292">
        <ele>896</ele>
        <time>2000-01-01T07:14:09.000Z</time>
      </trkpt>
      <trkpt lat="44.99103" lon="5.42911">
        <ele>896</ele>
        <time>2000-01-01T07:14:19.000Z</time>
      </trkpt>
      <trkpt lat="44.99065" lon="5.429">
        <ele>896</ele>
        <time>2000-01-01T07:14:29.000Z</time>
      </trkpt>
      <trkpt lat="44.99038" lon="5.42911">
        <ele>896</ele>
        <time>2000-01-01T07:14:39.000Z</time>
      </trkpt>
      <trkpt lat="44.99001" lon="5.42926">
        <ele>896</ele>
        <time>2000-01-01T07:14:49.000Z</time>
      </trkpt>
      <trkpt lat="44.98962" lon="5.42932">
        <ele>896</ele>
        <time>2000-01-01T07:14:59.000Z</time>
      </trkpt>
      <trkpt lat="44.98924" lon="5.42939">
        <ele>896</ele>
        <time>2000-01-01T07:15:09.000Z</time>
      </trkpt>
      <trkpt lat="44.98885" lon="5.42945">
        <ele>897</ele>
        <time>2000-01-01T07:15:19.000Z</time>
      </trkpt>
      <trkpt lat="44.98847" lon="5.42951">
        <ele>898</ele>
        <time>2000-01-01T07:15:29.000Z</time>
      </trkpt>
      <trkpt lat="44.98822" lon="5.42955">
        <ele>900</ele>
        <time>2000-01-01T07:15:39.000Z</time>
      </trkpt>
      <trkpt lat="44.98795" lon="5.4296">
        <ele>901</ele>
        <time>2000-01-01T07:15:49.000Z</time>
      </trkpt>
      <trkpt lat="44.98772" lon="5.42967">
        <ele>903</ele>
        <time>2000-01-01T07:15:59.000Z</time>
      </trkpt>
      <trkpt lat="44.98748" lon="5.42975">
        <ele>906</ele>
        <time>2000-01-01T07:16:09.000Z</time>
      </trkpt>
      <trkpt lat="44.98718" lon="5.42996">
        <ele>910</ele>
        <time>2000-01-01T07:16:19.000Z</time>
      </trkpt>
      <trkpt lat="44.98687" lon="5.43017">
        <ele>914</ele>
        <time>2000-01-01T07:16:29.000Z</time>
      </trkpt>
      <trkpt lat="44.98645" lon="5.43046">
        <ele>915</ele>
        <time>2000-01-01T07:16:39.000Z</time>
      </trkpt>
      <trkpt lat="44.9861" lon="5.43067">
        <ele>913</ele>
        <time>2000-01-01T07:16:49.000Z</time>
      </trkpt>
      <trkpt lat="44.98576" lon="5.43088">
        <ele>911</ele>
        <time>2000-01-01T07:16:59.000Z</time>
      </trkpt>
      <trkpt lat="44.98541" lon="5.43109">
        <ele>906</ele>
        <time>2000-01-01T07:17:09.000Z</time>
      </trkpt>
      <trkpt lat="44.98516" lon="5.43125">
        <ele>901</ele>
        <time>2000-01-01T07:17:19.000Z</time>
      </trkpt>
      <trkpt lat="44.98481" lon="5.43146">
        <ele>901</ele>
        <time>2000-01-01T07:17:29.000Z</time>
      </trkpt>
      <trkpt lat="44.98435" lon="5.43139">
        <ele>901</ele>
        <time>2000-01-01T07:17:39.000Z</time>
      </trkpt>
      <trkpt lat="44.98399" lon="5.43128">
        <ele>908</ele>
        <time>2000-01-01T07:17:49.000Z</time>
      </trkpt>
      <trkpt lat="44.98358" lon="5.43106">
        <ele>917</ele>
        <time>2000-01-01T07:17:59.000Z</time>
      </trkpt>
      <trkpt lat="44.98332" lon="5.43101">
        <ele>919</ele>
        <time>2000-01-01T07:18:09.000Z</time>
      </trkpt>
      <trkpt lat="44.98298" lon="5.43094">
        <ele>924</ele>
        <time>2000-01-01T07:18:19.000Z</time>
      </trkpt>
      <trkpt lat="44.98268" lon="5.43092">
        <ele>925</ele>
        <time>2000-01-01T07:18:29.000Z</time>
      </trkpt>
      <trkpt lat="44.98243" lon="5.43091">
        <ele>925</ele>
        <time>2000-01-01T07:18:39.000Z</time>
      </trkpt>
      <trkpt lat="44.98215" lon="5.43089">
        <ele>930</ele>
        <time>2000-01-01T07:18:49.000Z</time>
      </trkpt>
      <trkpt lat="44.98189" lon="5.43085">
        <ele>931</ele>
        <time>2000-01-01T07:18:59.000Z</time>
      </trkpt>
      <trkpt lat="44.98158" lon="5.4308">
        <ele>934</ele>
        <time>2000-01-01T07:19:09.000Z</time>
      </trkpt>
      <trkpt lat="44.98123" lon="5.43061">
        <ele>937</ele>
        <time>2000-01-01T07:19:19.000Z</time>
      </trkpt>
      <trkpt lat="44.98088" lon="5.43058">
        <ele>939</ele>
        <time>2000-01-01T07:19:29.000Z</time>
      </trkpt>
      <trkpt lat="44.98065" lon="5.43047">
        <ele>939</ele>
        <time>2000-01-01T07:19:39.000Z</time>
      </trkpt>
      <trkpt lat="44.98037" lon="5.43042">
        <ele>939</ele>
        <time>2000-01-01T07:19:49.000Z</time>
      </trkpt>
      <trkpt lat="44.97999" lon="5.43035">
        <ele>939</ele>
        <time>2000-01-01T07:19:59.000Z</time>
      </trkpt>
      <trkpt lat="44.97975" lon="5.43028">
        <ele>939</ele>
        <time>2000-01-01T07:20:09.000Z</time>
      </trkpt>
      <trkpt lat="44.97949" lon="5.43021">
        <ele>939</ele>
        <time>2000-01-01T07:20:19.000Z</time>
      </trkpt>
      <trkpt lat="44.97906" lon="5.42995">
        <ele>941</ele>
        <time>2000-01-01T07:20:29.000Z</time>
      </trkpt>
      <trkpt lat="44.97882" lon="5.42989">
        <ele>941</ele>
        <time>2000-01-01T07:20:39.000Z</time>
      </trkpt>
      <trkpt lat="44.97859" lon="5.42983">
        <ele>940</ele>
        <time>2000-01-01T07:20:49.000Z</time>
      </trkpt>
      <trkpt lat="44.97848" lon="5.4297">
        <ele>940</ele>
        <time>2000-01-01T07:20:59.000Z</time>
      </trkpt>
      <trkpt lat="44.97819" lon="5.4295">
        <ele>937</ele>
        <time>2000-01-01T07:21:09.000Z</time>
      </trkpt>
      <trkpt lat="44.97778" lon="5.42967">
        <ele>932</ele>
        <time>2000-01-01T07:21:19.000Z</time>
      </trkpt>
      <trkpt lat="44.97744" lon="5.42972">
        <ele>928</ele>
        <time>2000-01-01T07:21:29.000Z</time>
      </trkpt>
      <trkpt lat="44.97717" lon="5.42957">
        <ele>926</ele>
        <time>2000-01-01T07:21:39.000Z</time>
      </trkpt>
      <trkpt lat="44.97693" lon="5.42965">
        <ele>924</ele>
        <time>2000-01-01T07:21:49.000Z</time>
      </trkpt>
      <trkpt lat="44.97666" lon="5.42973">
        <ele>920</ele>
        <time>2000-01-01T07:21:59.000Z</time>
      </trkpt>
      <trkpt lat="44.97631" lon="5.42969">
        <ele>919</ele>
        <time>2000-01-01T07:22:09.000Z</time>
      </trkpt>
      <trkpt lat="44.97606" lon="5.4297">
        <ele>916</ele>
        <time>2000-01-01T07:22:19.000Z</time>
      </trkpt>
      <trkpt lat="44.9758" lon="5.42971">
        <ele>910</ele>
        <time>2000-01-01T07:22:29.000Z</time>
      </trkpt>
      <trkpt lat="44.9755" lon="5.42986">
        <ele>907</ele>
        <time>2000-01-01T07:22:39.000Z</time>
      </trkpt>
      <trkpt lat="44.97525" lon="5.42999">
        <ele>904</ele>
        <time>2000-01-01T07:22:49.000Z</time>
      </trkpt>
      <trkpt lat="44.97493" lon="5.43015">
        <ele>899</ele>
        <time>2000-01-01T07:22:59.000Z</time>
      </trkpt>
      <trkpt lat="44.97461" lon="5.43001">
        <ele>897</ele>
        <time>2000-01-01T07:23:09.000Z</time>
      </trkpt>
      <trkpt lat="44.9743" lon="5.42988">
        <ele>896</ele>
        <time>2000-01-01T07:23:19.000Z</time>
      </trkpt>
      <trkpt lat="44.97389" lon="5.4297">
        <ele>892</ele>
        <time>2000-01-01T07:23:29.000Z</time>
      </trkpt>
      <trkpt lat="44.97369" lon="5.42955">
        <ele>891</ele>
        <time>2000-01-01T07:23:39.000Z</time>
      </trkpt>
      <trkpt lat="44.97353" lon="5.42961">
        <ele>890</ele>
        <time>2000-01-01T07:23:49.000Z</time>
      </trkpt>
      <trkpt lat="44.97339" lon="5.42976">
        <ele>890</ele>
        <time>2000-01-01T07:23:59.000Z</time>
      </trkpt>
      <trkpt lat="44.9732" lon="5.42987">
        <ele>888</ele>
        <time>2000-01-01T07:24:09.000Z</time>
      </trkpt>
      <trkpt lat="44.97275" lon="5.42976">
        <ele>887</ele>
        <time>2000-01-01T07:24:19.000Z</time>
      </trkpt>
      <trkpt lat="44.97284" lon="5.42978">
        <ele>887</ele>
        <time>2000-01-01T07:24:29.000Z</time>
      </trkpt>
      <trkpt lat="44.97275" lon="5.42976">
        <ele>887</ele>
        <time>2000-01-01T07:24:39.000Z</time>
      </trkpt>
      <trkpt lat="44.97261" lon="5.42981">
        <ele>886</ele>
        <time>2000-01-01T07:24:49.000Z</time>
      </trkpt>
      <trkpt lat="44.973" lon="5.43009">
        <ele>884</ele>
        <time>2000-01-01T07:24:59.000Z</time>
      </trkpt>
      <trkpt lat="44.97324" lon="5.43014">
        <ele>884</ele>
        <time>2000-01-01T07:25:09.000Z</time>
      </trkpt>
      <trkpt lat="44.97349" lon="5.4302">
        <ele>884</ele>
        <time>2000-01-01T07:25:19.000Z</time>
      </trkpt>
      <trkpt lat="44.97382" lon="5.4302">
        <ele>883</ele>
        <time>2000-01-01T07:25:29.000Z</time>
      </trkpt>
      <trkpt lat="44.97422" lon="5.43044">
        <ele>883</ele>
        <time>2000-01-01T07:25:39.000Z</time>
      </trkpt>
      <trkpt lat="44.97398" lon="5.4303">
        <ele>882</ele>
        <time>2000-01-01T07:25:49.000Z</time>
      </trkpt>
      <trkpt lat="44.97431" lon="5.43053">
        <ele>882</ele>
        <time>2000-01-01T07:25:59.000Z</time>
      </trkpt>
      <trkpt lat="44.97465" lon="5.43077">
        <ele>881</ele>
        <time>2000-01-01T07:26:09.000Z</time>
      </trkpt>
      <trkpt lat="44.97498" lon="5.431">
        <ele>881</ele>
        <time>2000-01-01T07:26:19.000Z</time>
      </trkpt>
      <trkpt lat="44.97522" lon="5.43117">
        <ele>881</ele>
        <time>2000-01-01T07:26:29.000Z</time>
      </trkpt>
      <trkpt lat="44.97553" lon="5.43138">
        <ele>881</ele>
        <time>2000-01-01T07:26:39.000Z</time>
      </trkpt>
      <trkpt lat="44.97578" lon="5.43139">
        <ele>881</ele>
        <time>2000-01-01T07:26:49.000Z</time>
      </trkpt>
      <trkpt lat="44.97612" lon="5.43152">
        <ele>881</ele>
        <time>2000-01-01T07:26:59.000Z</time>
      </trkpt>
      <trkpt lat="44.97646" lon="5.43166">
        <ele>880</ele>
        <time>2000-01-01T07:27:09.000Z</time>
      </trkpt>
      <trkpt lat="44.97673" lon="5.43176">
        <ele>879</ele>
        <time>2000-01-01T07:27:19.000Z</time>
      </trkpt>
      <trkpt lat="44.9771" lon="5.43191">
        <ele>874</ele>
        <time>2000-01-01T07:27:29.000Z</time>
      </trkpt>
      <trkpt lat="44.97739" lon="5.43208">
        <ele>874</ele>
        <time>2000-01-01T07:27:39.000Z</time>
      </trkpt>
      <trkpt lat="44.97763" lon="5.43221">
        <ele>872</ele>
        <time>2000-01-01T07:27:49.000Z</time>
      </trkpt>
      <trkpt lat="44.97793" lon="5.43229">
        <ele>871</ele>
        <time>2000-01-01T07:27:59.000Z</time>
      </trkpt>
      <trkpt lat="44.97819" lon="5.43236">
        <ele>869</ele>
        <time>2000-01-01T07:28:09.000Z</time>
      </trkpt>
      <trkpt lat="44.9785" lon="5.43244">
        <ele>867</ele>
        <time>2000-01-01T07:28:19.000Z</time>
      </trkpt>
      <trkpt lat="44.97891" lon="5.43254">
        <ele>867</ele>
        <time>2000-01-01T07:28:29.000Z</time>
      </trkpt>
      <trkpt lat="44.97918" lon="5.43263">
        <ele>865</ele>
        <time>2000-01-01T07:28:39.000Z</time>
      </trkpt>
      <trkpt lat="44.97958" lon="5.43277">
        <ele>863</ele>
        <time>2000-01-01T07:28:49.000Z</time>
      </trkpt>
      <trkpt lat="44.9799" lon="5.43284">
        <ele>862</ele>
        <time>2000-01-01T07:28:59.000Z</time>
      </trkpt>
      <trkpt lat="44.98022" lon="5.43292">
        <ele>860</ele>
        <time>2000-01-01T07:29:09.000Z</time>
      </trkpt>
      <trkpt lat="44.98059" lon="5.433">
        <ele>859</ele>
        <time>2000-01-01T07:29:19.000Z</time>
      </trkpt>
      <trkpt lat="44.98077" lon="5.43314">
        <ele>854</ele>
        <time>2000-01-01T07:29:29.000Z</time>
      </trkpt>
      <trkpt lat="44.98107" lon="5.43326">
        <ele>853</ele>
        <time>2000-01-01T07:29:39.000Z</time>
      </trkpt>
      <trkpt lat="44.98133" lon="5.43336">
        <ele>850</ele>
        <time>2000-01-01T07:29:49.000Z</time>
      </trkpt>
      <trkpt lat="44.98167" lon="5.4335">
        <ele>848</ele>
        <time>2000-01-01T07:29:59.000Z</time>
      </trkpt>
      <trkpt lat="44.98203" lon="5.43355">
        <ele>849</ele>
        <time>2000-01-01T07:30:09.000Z</time>
      </trkpt>
      <trkpt lat="44.98239" lon="5.4336">
        <ele>850</ele>
        <time>2000-01-01T07:30:19.000Z</time>
      </trkpt>
      <trkpt lat="44.98275" lon="5.43365">
        <ele>850</ele>
        <time>2000-01-01T07:30:29.000Z</time>
      </trkpt>
      <trkpt lat="44.98315" lon="5.4337">
        <ele>851</ele>
        <time>2000-01-01T07:30:39.000Z</time>
      </trkpt>
      <trkpt lat="44.9834" lon="5.43365">
        <ele>852</ele>
        <time>2000-01-01T07:30:49.000Z</time>
      </trkpt>
      <trkpt lat="44.98367" lon="5.4336">
        <ele>852</ele>
        <time>2000-01-01T07:30:59.000Z</time>
      </trkpt>
      <trkpt lat="44.98391" lon="5.43362">
        <ele>853</ele>
        <time>2000-01-01T07:31:09.000Z</time>
      </trkpt>
      <trkpt lat="44.98416" lon="5.43365">
        <ele>853</ele>
        <time>2000-01-01T07:31:19.000Z</time>
      </trkpt>
      <trkpt lat="44.98453" lon="5.43358">
        <ele>854</ele>
        <time>2000-01-01T07:31:29.000Z</time>
      </trkpt>
      <trkpt lat="44.98478" lon="5.43368">
        <ele>854</ele>
        <time>2000-01-01T07:31:39.000Z</time>
      </trkpt>
      <trkpt lat="44.98507" lon="5.43379">
        <ele>854</ele>
        <time>2000-01-01T07:31:49.000Z</time>
      </trkpt>
      <trkpt lat="44.98534" lon="5.43384">
        <ele>852</ele>
        <time>2000-01-01T07:31:59.000Z</time>
      </trkpt>
      <trkpt lat="44.98572" lon="5.43392">
        <ele>846</ele>
        <time>2000-01-01T07:32:09.000Z</time>
      </trkpt>
      <trkpt lat="44.98605" lon="5.43396">
        <ele>841</ele>
        <time>2000-01-01T07:32:19.000Z</time>
      </trkpt>
      <trkpt lat="44.98637" lon="5.43399">
        <ele>837</ele>
        <time>2000-01-01T07:32:29.000Z</time>
      </trkpt>
      <trkpt lat="44.98676" lon="5.43404">
        <ele>834</ele>
        <time>2000-01-01T07:32:39.000Z</time>
      </trkpt>
      <trkpt lat="44.98718" lon="5.43397">
        <ele>833</ele>
        <time>2000-01-01T07:32:49.000Z</time>
      </trkpt>
      <trkpt lat="44.98751" lon="5.43409">
        <ele>830</ele>
        <time>2000-01-01T07:32:59.000Z</time>
      </trkpt>
      <trkpt lat="44.98779" lon="5.43424">
        <ele>827</ele>
        <time>2000-01-01T07:33:09.000Z</time>
      </trkpt>
      <trkpt lat="44.98817" lon="5.43431">
        <ele>824</ele>
        <time>2000-01-01T07:33:19.000Z</time>
      </trkpt>
      <trkpt lat="44.98843" lon="5.43433">
        <ele>823</ele>
        <time>2000-01-01T07:33:29.000Z</time>
      </trkpt>
      <trkpt lat="44.98867" lon="5.43443">
        <ele>821</ele>
        <time>2000-01-01T07:33:39.000Z</time>
      </trkpt>
      <trkpt lat="44.98894" lon="5.43454">
        <ele>819</ele>
        <time>2000-01-01T07:33:49.000Z</time>
      </trkpt>
      <trkpt lat="44.98937" lon="5.43447">
        <ele>816</ele>
        <time>2000-01-01T07:33:59.000Z</time>
      </trkpt>
      <trkpt lat="44.9896" lon="5.43458">
        <ele>813</ele>
        <time>2000-01-01T07:34:09.000Z</time>
      </trkpt>
      <trkpt lat="44.98985" lon="5.4347">
        <ele>813</ele>
        <time>2000-01-01T07:34:19.000Z</time>
      </trkpt>
      <trkpt lat="44.99011" lon="5.43467">
        <ele>811</ele>
        <time>2000-01-01T07:34:29.000Z</time>
      </trkpt>
      <trkpt lat="44.99041" lon="5.43463">
        <ele>809</ele>
        <time>2000-01-01T07:34:39.000Z</time>
      </trkpt>
      <trkpt lat="44.99061" lon="5.43454">
        <ele>806</ele>
        <time>2000-01-01T07:34:49.000Z</time>
      </trkpt>
      <trkpt lat="44.99084" lon="5.43448">
        <ele>804</ele>
        <time>2000-01-01T07:34:59.000Z</time>
      </trkpt>
      <trkpt lat="44.99108" lon="5.43443">
        <ele>802</ele>
        <time>2000-01-01T07:35:09.000Z</time>
      </trkpt>
      <trkpt lat="44.99128" lon="5.43448">
        <ele>800</ele>
        <time>2000-01-01T07:35:19.000Z</time>
      </trkpt>
      <trkpt lat="44.9914" lon="5.43444">
        <ele>798</ele>
        <time>2000-01-01T07:35:29.000Z</time>
      </trkpt>
      <trkpt lat="44.99164" lon="5.43449">
        <ele>795</ele>
        <time>2000-01-01T07:35:39.000Z</time>
      </trkpt>
      <trkpt lat="44.99188" lon="5.43454">
        <ele>792</ele>
        <time>2000-01-01T07:35:49.000Z</time>
      </trkpt>
      <trkpt lat="44.9922" lon="5.43467">
        <ele>787</ele>
        <time>2000-01-01T07:35:59.000Z</time>
      </trkpt>
      <trkpt lat="44.99251" lon="5.43484">
        <ele>780</ele>
        <time>2000-01-01T07:36:09.000Z</time>
      </trkpt>
      <trkpt lat="44.99274" lon="5.43487">
        <ele>778</ele>
        <time>2000-01-01T07:36:19.000Z</time>
      </trkpt>
      <trkpt lat="44.99296" lon="5.43497">
        <ele>773</ele>
        <time>2000-01-01T07:36:29.000Z</time>
      </trkpt>
      <trkpt lat="44.99317" lon="5.43488">
        <ele>772</ele>
        <time>2000-01-01T07:36:39.000Z</time>
      </trkpt>
      <trkpt lat="44.99337" lon="5.43494">
        <ele>767</ele>
        <time>2000-01-01T07:36:49.000Z</time>
      </trkpt>
      <trkpt lat="44.99355" lon="5.43495">
        <ele>765</ele>
        <time>2000-01-01T07:36:59.000Z</time>
      </trkpt>
      <trkpt lat="44.99377" lon="5.43508">
        <ele>761</ele>
        <time>2000-01-01T07:37:09.000Z</time>
      </trkpt>
      <trkpt lat="44.99401" lon="5.43521">
        <ele>755</ele>
        <time>2000-01-01T07:37:19.000Z</time>
      </trkpt>
      <trkpt lat="44.99423" lon="5.43539">
        <ele>753</ele>
        <time>2000-01-01T07:37:29.000Z</time>
      </trkpt>
      <trkpt lat="44.99449" lon="5.4356">
        <ele>748</ele>
        <time>2000-01-01T07:37:39.000Z</time>
      </trkpt>
      <trkpt lat="44.99469" lon="5.43579">
        <ele>744</ele>
        <time>2000-01-01T07:37:49.000Z</time>
      </trkpt>
      <trkpt lat="44.9949" lon="5.43586">
        <ele>741</ele>
        <time>2000-01-01T07:37:59.000Z</time>
      </trkpt>
      <trkpt lat="44.99514" lon="5.43585">
        <ele>739</ele>
        <time>2000-01-01T07:38:09.000Z</time>
      </trkpt>
      <trkpt lat="44.99538" lon="5.43584">
        <ele>738</ele>
        <time>2000-01-01T07:38:19.000Z</time>
      </trkpt>
      <trkpt lat="44.99548" lon="5.43586">
        <ele>737</ele>
        <time>2000-01-01T07:38:29.000Z</time>
      </trkpt>
      <trkpt lat="44.99579" lon="5.43603">
        <ele>736</ele>
        <time>2000-01-01T07:38:39.000Z</time>
      </trkpt>
      <trkpt lat="44.99594" lon="5.43604">
        <ele>735</ele>
        <time>2000-01-01T07:38:49.000Z</time>
      </trkpt>
      <trkpt lat="44.99624" lon="5.43596">
        <ele>733</ele>
        <time>2000-01-01T07:38:59.000Z</time>
      </trkpt>
      <trkpt lat="44.99638" lon="5.43606">
        <ele>733</ele>
        <time>2000-01-01T07:39:09.000Z</time>
      </trkpt>
      <trkpt lat="44.99654" lon="5.43604">
        <ele>732</ele>
        <time>2000-01-01T07:39:19.000Z</time>
      </trkpt>
      <trkpt lat="44.99663" lon="5.43595">
        <ele>731</ele>
        <time>2000-01-01T07:39:29.000Z</time>
      </trkpt>
      <trkpt lat="44.99706" lon="5.43592">
        <ele>729</ele>
        <time>2000-01-01T07:39:39.000Z</time>
      </trkpt>
      <trkpt lat="44.99747" lon="5.43575">
        <ele>725</ele>
        <time>2000-01-01T07:39:49.000Z</time>
      </trkpt>
      <trkpt lat="44.99757" lon="5.43579">
        <ele>724</ele>
        <time>2000-01-01T07:39:59.000Z</time>
      </trkpt>
      <trkpt lat="44.99794" lon="5.43553">
        <ele>719</ele>
        <time>2000-01-01T07:40:09.000Z</time>
      </trkpt>
      <trkpt lat="44.99805" lon="5.43552">
        <ele>719</ele>
        <time>2000-01-01T07:40:19.000Z</time>
      </trkpt>
      <trkpt lat="44.99824" lon="5.43565">
        <ele>719</ele>
        <time>2000-01-01T07:40:29.000Z</time>
      </trkpt>
      <trkpt lat="44.99848" lon="5.43563">
        <ele>719</ele>
        <time>2000-01-01T07:40:39.000Z</time>
      </trkpt>
      <trkpt lat="44.9987" lon="5.43578">
        <ele>719</ele>
        <time>2000-01-01T07:40:49.000Z</time>
      </trkpt>
      <trkpt lat="44.99906" lon="5.43573">
        <ele>719</ele>
        <time>2000-01-01T07:40:59.000Z</time>
      </trkpt>
      <trkpt lat="44.99916" lon="5.43578">
        <ele>718</ele>
        <time>2000-01-01T07:41:09.000Z</time>
      </trkpt>
      <trkpt lat="44.99933" lon="5.43597">
        <ele>718</ele>
        <time>2000-01-01T07:41:19.000Z</time>
      </trkpt>
      <trkpt lat="44.99973" lon="5.43616">
        <ele>711</ele>
        <time>2000-01-01T07:41:29.000Z</time>
      </trkpt>
      <trkpt lat="44.99993" lon="5.43633">
        <ele>706</ele>
        <time>2000-01-01T07:41:39.000Z</time>
      </trkpt>
      <trkpt lat="44.99998" lon="5.43674">
        <ele>701</ele>
        <time>2000-01-01T07:41:49.000Z</time>
      </trkpt>
      <trkpt lat="44.99993" lon="5.43695">
        <ele>697</ele>
        <time>2000-01-01T07:41:59.000Z</time>
      </trkpt>
      <trkpt lat="44.99984" lon="5.43703">
        <ele>697</ele>
        <time>2000-01-01T07:42:09.000Z</time>
      </trkpt>
      <trkpt lat="44.99971" lon="5.43707">
        <ele>697</ele>
        <time>2000-01-01T07:42:19.000Z</time>
      </trkpt>
      <trkpt lat="44.99953" lon="5.4373">
        <ele>697</ele>
        <time>2000-01-01T07:42:29.000Z</time>
      </trkpt>
      <trkpt lat="44.99934" lon="5.43755">
        <ele>700</ele>
        <time>2000-01-01T07:42:39.000Z</time>
      </trkpt>
      <trkpt lat="44.99914" lon="5.43775">
        <ele>703</ele>
        <time>2000-01-01T07:42:49.000Z</time>
      </trkpt>
      <trkpt lat="44.99907" lon="5.43814">
        <ele>705</ele>
        <time>2000-01-01T07:42:59.000Z</time>
      </trkpt>
      <trkpt lat="44.99898" lon="5.43869">
        <ele>705</ele>
        <time>2000-01-01T07:43:09.000Z</time>
      </trkpt>
      <trkpt lat="44.99894" lon="5.43915">
        <ele>704</ele>
        <time>2000-01-01T07:43:19.000Z</time>
      </trkpt>
      <trkpt lat="44.99894" lon="5.43952">
        <ele>704</ele>
        <time>2000-01-01T07:43:29.000Z</time>
      </trkpt>
      <trkpt lat="44.99893" lon="5.43999">
        <ele>701</ele>
        <time>2000-01-01T07:43:39.000Z</time>
      </trkpt>
      <trkpt lat="44.99887" lon="5.44033">
        <ele>694</ele>
        <time>2000-01-01T07:43:49.000Z</time>
      </trkpt>
      <trkpt lat="44.99882" lon="5.44046">
        <ele>692</ele>
        <time>2000-01-01T07:43:59.000Z</time>
      </trkpt>
      <trkpt lat="44.99879" lon="5.44047">
        <ele>691.8</ele>
        <time>2000-01-01T07:44:09.000Z</time>
      </trkpt>
      <trkpt lat="44.99905" lon="5.44041">
        <ele>688</ele>
        <time>2000-01-01T07:44:19.000Z</time>
      </trkpt>
      <trkpt lat="44.9991" lon="5.44038">
        <ele>690.2</ele>
        <time>2000-01-01T07:44:29.000Z</time>
      </trkpt>
      <trkpt lat="44.99909" lon="5.44047">
        <ele>688</ele>
        <time>2000-01-01T07:44:39.000Z</time>
      </trkpt>
      <trkpt lat="44.9991" lon="5.44057">
        <ele>688</ele>
        <time>2000-01-01T07:44:49.000Z</time>
      </trkpt>
      <trkpt lat="44.99916" lon="5.4408">
        <ele>690</ele>
        <time>2000-01-01T07:44:59.000Z</time>
      </trkpt>
      <trkpt lat="44.99916" lon="5.4409">
        <ele>691</ele>
        <time>2000-01-01T07:45:09.000Z</time>
      </trkpt>
      <trkpt lat="44.99902" lon="5.4412">
        <ele>691</ele>
        <time>2000-01-01T07:45:19.000Z</time>
      </trkpt>
      <trkpt lat="44.99887" lon="5.44154">
        <ele>693</ele>
        <time>2000-01-01T07:45:29.000Z</time>
      </trkpt>
      <trkpt lat="44.9988" lon="5.44196">
        <ele>698</ele>
        <time>2000-01-01T07:45:39.000Z</time>
      </trkpt>
      <trkpt lat="44.99878" lon="5.44216">
        <ele>700</ele>
        <time>2000-01-01T07:45:49.000Z</time>
      </trkpt>
      <trkpt lat="44.99881" lon="5.4422">
        <ele>702.2</ele>
        <time>2000-01-01T07:45:59.000Z</time>
      </trkpt>
      <trkpt lat="44.99885" lon="5.4422">
        <ele>701</ele>
        <time>2000-01-01T07:46:09.000Z</time>
      </trkpt>
      <trkpt lat="44.99895" lon="5.44203">
        <ele>701</ele>
        <time>2000-01-01T07:46:19.000Z</time>
      </trkpt>
      <trkpt lat="44.99908" lon="5.44191">
        <ele>701</ele>
        <time>2000-01-01T07:46:29.000Z</time>
      </trkpt>
      <trkpt lat="44.99929" lon="5.44189">
        <ele>703</ele>
        <time>2000-01-01T07:46:39.000Z</time>
      </trkpt>
      <trkpt lat="44.99973" lon="5.44196">
        <ele>711</ele>
        <time>2000-01-01T07:46:49.000Z</time>
      </trkpt>
      <trkpt lat="44.99998" lon="5.4418">
        <ele>715</ele>
        <time>2000-01-01T07:46:59.000Z</time>
      </trkpt>
      <trkpt lat="45.00043" lon="5.44167">
        <ele>725</ele>
        <time>2000-01-01T07:47:09.000Z</time>
      </trkpt>
      <trkpt lat="45.00071" lon="5.44166">
        <ele>729</ele>
        <time>2000-01-01T07:47:19.000Z</time>
      </trkpt>
      <trkpt lat="45.00109" lon="5.44165">
        <ele>730</ele>
        <time>2000-01-01T07:47:29.000Z</time>
      </trkpt>
      <trkpt lat="45.00115" lon="5.44164">
        <ele>731.3</ele>
        <time>2000-01-01T07:47:39.000Z</time>
      </trkpt>
      <trkpt lat="45.00112" lon="5.4418">
        <ele>730</ele>
        <time>2000-01-01T07:47:49.000Z</time>
      </trkpt>
      <trkpt lat="45.00113" lon="5.44215">
        <ele>729</ele>
        <time>2000-01-01T07:47:59.000Z</time>
      </trkpt>
      <trkpt lat="45.00115" lon="5.44252">
        <ele>728</ele>
        <time>2000-01-01T07:48:09.000Z</time>
      </trkpt>
      <trkpt lat="45.00115" lon="5.44268">
        <ele>728</ele>
        <time>2000-01-01T07:48:19.000Z</time>
      </trkpt>
      <trkpt lat="45.0011" lon="5.44292">
        <ele>730</ele>
        <time>2000-01-01T07:48:29.000Z</time>
      </trkpt>
      <trkpt lat="45.00096" lon="5.44319">
        <ele>733</ele>
        <time>2000-01-01T07:48:39.000Z</time>
      </trkpt>
      <trkpt lat="45.00081" lon="5.44346">
        <ele>737</ele>
        <time>2000-01-01T07:48:49.000Z</time>
      </trkpt>
      <trkpt lat="45.00074" lon="5.44354">
        <ele>739</ele>
        <time>2000-01-01T07:48:59.000Z</time>
      </trkpt>
      <trkpt lat="45.00057" lon="5.44367">
        <ele>740</ele>
        <time>2000-01-01T07:49:09.000Z</time>
      </trkpt>
      <trkpt lat="45.00019" lon="5.44389">
        <ele>741</ele>
        <time>2000-01-01T07:49:19.000Z</time>
      </trkpt>
      <trkpt lat="45.00002" lon="5.44405">
        <ele>742</ele>
        <time>2000-01-01T07:49:29.000Z</time>
      </trkpt>
      <trkpt lat="44.99999" lon="5.44409">
        <ele>744.9</ele>
        <time>2000-01-01T07:49:39.000Z</time>
      </trkpt>
      <trkpt lat="44.99998" lon="5.44414">
        <ele>742</ele>
        <time>2000-01-01T07:49:49.000Z</time>
      </trkpt>
      <trkpt lat="44.99998" lon="5.44419">
        <ele>745.7</ele>
        <time>2000-01-01T07:49:59.000Z</time>
      </trkpt>
      <trkpt lat="44.99987" lon="5.44427">
        <ele>742</ele>
        <time>2000-01-01T07:50:09.000Z</time>
      </trkpt>
      <trkpt lat="44.99982" lon="5.44437">
        <ele>741</ele>
        <time>2000-01-01T07:50:19.000Z</time>
      </trkpt>
      <trkpt lat="44.99979" lon="5.44452">
        <ele>741</ele>
        <time>2000-01-01T07:50:29.000Z</time>
      </trkpt>
      <trkpt lat="44.99976" lon="5.44474">
        <ele>741</ele>
        <time>2000-01-01T07:50:39.000Z</time>
      </trkpt>
      <trkpt lat="44.99979" lon="5.44479">
        <ele>743.7</ele>
        <time>2000-01-01T07:50:49.000Z</time>
      </trkpt>
      <trkpt lat="44.99994" lon="5.44511">
        <ele>745</ele>
        <time>2000-01-01T07:50:59.000Z</time>
      </trkpt>
      <trkpt lat="45.00014" lon="5.44555">
        <ele>746</ele>
        <time>2000-01-01T07:51:09.000Z</time>
      </trkpt>
      <trkpt lat="45.00026" lon="5.44588">
        <ele>746</ele>
        <time>2000-01-01T07:51:19.000Z</time>
      </trkpt>
      <trkpt lat="45.00031" lon="5.44607">
        <ele>745</ele>
        <time>2000-01-01T07:51:29.000Z</time>
      </trkpt>
      <trkpt lat="45.00034" lon="5.44626">
        <ele>745</ele>
        <time>2000-01-01T07:51:39.000Z</time>
      </trkpt>
      <trkpt lat="45.00039" lon="5.44686">
        <ele>743</ele>
        <time>2000-01-01T07:51:49.000Z</time>
      </trkpt>
      <trkpt lat="45.00041" lon="5.44694">
        <ele>741.1</ele>
        <time>2000-01-01T07:51:59.000Z</time>
      </trkpt>
      <trkpt lat="45.00045" lon="5.44704">
        <ele>740</ele>
        <time>2000-01-01T07:52:09.000Z</time>
      </trkpt>
      <trkpt lat="45.00052" lon="5.44707">
        <ele>739</ele>
        <time>2000-01-01T07:52:19.000Z</time>
      </trkpt>
      <trkpt lat="45.00057" lon="5.44707">
        <ele>739.8</ele>
        <time>2000-01-01T07:52:29.000Z</time>
      </trkpt>
      <trkpt lat="45.00116" lon="5.44695">
        <ele>733</ele>
        <time>2000-01-01T07:52:39.000Z</time>
      </trkpt>
      <trkpt lat="45.00144" lon="5.44693">
        <ele>731</ele>
        <time>2000-01-01T07:52:49.000Z</time>
      </trkpt>
      <trkpt lat="45.00163" lon="5.44699">
        <ele>730</ele>
        <time>2000-01-01T07:52:59.000Z</time>
      </trkpt>
      <trkpt lat="45.00182" lon="5.4471">
        <ele>729</ele>
        <time>2000-01-01T07:53:09.000Z</time>
      </trkpt>
      <trkpt lat="45.002" lon="5.44737">
        <ele>729</ele>
        <time>2000-01-01T07:53:19.000Z</time>
      </trkpt>
      <trkpt lat="45.0021" lon="5.44746">
        <ele>727</ele>
        <time>2000-01-01T07:53:29.000Z</time>
      </trkpt>
      <trkpt lat="45.0022" lon="5.44749">
        <ele>726</ele>
        <time>2000-01-01T07:53:39.000Z</time>
      </trkpt>
      <trkpt lat="45.00248" lon="5.44749">
        <ele>722</ele>
        <time>2000-01-01T07:53:49.000Z</time>
      </trkpt>
      <trkpt lat="45.00275" lon="5.44752">
        <ele>722</ele>
        <time>2000-01-01T07:53:59.000Z</time>
      </trkpt>
      <trkpt lat="45.00311" lon="5.44761">
        <ele>721</ele>
        <time>2000-01-01T07:54:09.000Z</time>
      </trkpt>
      <trkpt lat="45.00323" lon="5.44762">
        <ele>722</ele>
        <time>2000-01-01T07:54:19.000Z</time>
      </trkpt>
      <trkpt lat="45.00308" lon="5.44788">
        <ele>723</ele>
        <time>2000-01-01T07:54:29.000Z</time>
      </trkpt>
      <trkpt lat="45.00292" lon="5.44815">
        <ele>725</ele>
        <time>2000-01-01T07:54:39.000Z</time>
      </trkpt>
      <trkpt lat="45.0028" lon="5.44847">
        <ele>728</ele>
        <time>2000-01-01T07:54:49.000Z</time>
      </trkpt>
      <trkpt lat="45.00267" lon="5.44883">
        <ele>732</ele>
        <time>2000-01-01T07:54:59.000Z</time>
      </trkpt>
      <trkpt lat="45.00261" lon="5.44917">
        <ele>734</ele>
        <time>2000-01-01T07:55:09.000Z</time>
      </trkpt>
      <trkpt lat="45.00255" lon="5.44954">
        <ele>738</ele>
        <time>2000-01-01T07:55:19.000Z</time>
      </trkpt>
      <trkpt lat="45.00232" lon="5.44977">
        <ele>741</ele>
        <time>2000-01-01T07:55:29.000Z</time>
      </trkpt>
      <trkpt lat="45.00254" lon="5.45">
        <ele>741</ele>
        <time>2000-01-01T07:55:39.000Z</time>
      </trkpt>
      <trkpt lat="45.00285" lon="5.45032">
        <ele>741</ele>
        <time>2000-01-01T07:55:49.000Z</time>
      </trkpt>
      <trkpt lat="45.00301" lon="5.45065">
        <ele>741</ele>
        <time>2000-01-01T07:55:59.000Z</time>
      </trkpt>
      <trkpt lat="45.00324" lon="5.45114">
        <ele>742</ele>
        <time>2000-01-01T07:56:09.000Z</time>
      </trkpt>
      <trkpt lat="45.00316" lon="5.45122">
        <ele>743</ele>
        <time>2000-01-01T07:56:19.000Z</time>
      </trkpt>
      <trkpt lat="45.00327" lon="5.45152">
        <ele>745</ele>
        <time>2000-01-01T07:56:29.000Z</time>
      </trkpt>
      <trkpt lat="45.00339" lon="5.45184">
        <ele>746</ele>
        <time>2000-01-01T07:56:39.000Z</time>
      </trkpt>
      <trkpt lat="45.00338" lon="5.45189">
        <ele>745.4</ele>
        <time>2000-01-01T07:56:49.000Z</time>
      </trkpt>
      <trkpt lat="45.00336" lon="5.45208">
        <ele>748</ele>
        <time>2000-01-01T07:56:59.000Z</time>
      </trkpt>
      <trkpt lat="45.00333" lon="5.45242">
        <ele>753</ele>
        <time>2000-01-01T07:57:09.000Z</time>
      </trkpt>
      <trkpt lat="45.00329" lon="5.45279">
        <ele>757</ele>
        <time>2000-01-01T07:57:19.000Z</time>
      </trkpt>
      <trkpt lat="45.00322" lon="5.45323">
        <ele>758</ele>
        <time>2000-01-01T07:57:29.000Z</time>
      </trkpt>
      <trkpt lat="45.00314" lon="5.45367">
        <ele>760</ele>
        <time>2000-01-01T07:57:39.000Z</time>
      </trkpt>
      <trkpt lat="45.00307" lon="5.45412">
        <ele>764</ele>
        <time>2000-01-01T07:57:49.000Z</time>
      </trkpt>
      <trkpt lat="45.00295" lon="5.45459">
        <ele>766</ele>
        <time>2000-01-01T07:57:59.000Z</time>
      </trkpt>
      <trkpt lat="45.00283" lon="5.45506">
        <ele>768</ele>
        <time>2000-01-01T07:58:09.000Z</time>
      </trkpt>
      <trkpt lat="45.00274" lon="5.45543">
        <ele>770</ele>
        <time>2000-01-01T07:58:19.000Z</time>
      </trkpt>
      <trkpt lat="45.00261" lon="5.45595">
        <ele>771</ele>
        <time>2000-01-01T07:58:29.000Z</time>
      </trkpt>
      <trkpt lat="45.00237" lon="5.45625">
        <ele>778</ele>
        <time>2000-01-01T07:58:39.000Z</time>
      </trkpt>
      <trkpt lat="45.00214" lon="5.45656">
        <ele>782</ele>
        <time>2000-01-01T07:58:49.000Z</time>
      </trkpt>
      <trkpt lat="45.00189" lon="5.45688">
        <ele>788</ele>
        <time>2000-01-01T07:58:59.000Z</time>
      </trkpt>
      <trkpt lat="45.00169" lon="5.45705">
        <ele>791</ele>
        <time>2000-01-01T07:59:09.000Z</time>
      </trkpt>
      <trkpt lat="45.00148" lon="5.45723">
        <ele>796</ele>
        <time>2000-01-01T07:59:19.000Z</time>
      </trkpt>
      <trkpt lat="45.00133" lon="5.45784">
        <ele>798</ele>
        <time>2000-01-01T07:59:29.000Z</time>
      </trkpt>
      <trkpt lat="45.00134" lon="5.45825">
        <ele>799</ele>
        <time>2000-01-01T07:59:39.000Z</time>
      </trkpt>
      <trkpt lat="45.00138" lon="5.45853">
        <ele>801</ele>
        <time>2000-01-01T07:59:49.000Z</time>
      </trkpt>
      <trkpt lat="45.00137" lon="5.45888">
        <ele>803</ele>
        <time>2000-01-01T07:59:59.000Z</time>
      </trkpt>
      <trkpt lat="45.00136" lon="5.45925">
        <ele>808</ele>
        <time>2000-01-01T08:00:09.000Z</time>
      </trkpt>
      <trkpt lat="45.00141" lon="5.45958">
        <ele>810</ele>
        <time>2000-01-01T08:00:19.000Z</time>
      </trkpt>
      <trkpt lat="45.00147" lon="5.45991">
        <ele>818</ele>
        <time>2000-01-01T08:00:29.000Z</time>
      </trkpt>
      <trkpt lat="45.00162" lon="5.46024">
        <ele>819</ele>
        <time>2000-01-01T08:00:39.000Z</time>
      </trkpt>
      <trkpt lat="45.00184" lon="5.4607">
        <ele>828</ele>
        <time>2000-01-01T08:00:49.000Z</time>
      </trkpt>
      <trkpt lat="45.00201" lon="5.46086">
        <ele>831</ele>
        <time>2000-01-01T08:00:59.000Z</time>
      </trkpt>
      <trkpt lat="45.00237" lon="5.46082">
        <ele>831</ele>
        <time>2000-01-01T08:01:09.000Z</time>
      </trkpt>
      <trkpt lat="45.00265" lon="5.4609">
        <ele>832</ele>
        <time>2000-01-01T08:01:19.000Z</time>
      </trkpt>
      <trkpt lat="45.00288" lon="5.4611">
        <ele>842</ele>
        <time>2000-01-01T08:01:29.000Z</time>
      </trkpt>
      <trkpt lat="45.00318" lon="5.46137">
        <ele>848</ele>
        <time>2000-01-01T08:01:39.000Z</time>
      </trkpt>
      <trkpt lat="45.00341" lon="5.4616">
        <ele>854</ele>
        <time>2000-01-01T08:01:49.000Z</time>
      </trkpt>
      <trkpt lat="45.00375" lon="5.46164">
        <ele>855</ele>
        <time>2000-01-01T08:01:59.000Z</time>
      </trkpt>
      <trkpt lat="45.00397" lon="5.46181">
        <ele>860</ele>
        <time>2000-01-01T08:02:09.000Z</time>
      </trkpt>
      <trkpt lat="45.00421" lon="5.46199">
        <ele>861</ele>
        <time>2000-01-01T08:02:19.000Z</time>
      </trkpt>
      <trkpt lat="45.00448" lon="5.46225">
        <ele>869</ele>
        <time>2000-01-01T08:02:29.000Z</time>
      </trkpt>
      <trkpt lat="45.00475" lon="5.46251">
        <ele>877</ele>
        <time>2000-01-01T08:02:39.000Z</time>
      </trkpt>
      <trkpt lat="45.00506" lon="5.46282">
        <ele>887</ele>
        <time>2000-01-01T08:02:49.000Z</time>
      </trkpt>
      <trkpt lat="45.00534" lon="5.46301">
        <ele>894</ele>
        <time>2000-01-01T08:02:59.000Z</time>
      </trkpt>
      <trkpt lat="45.00558" lon="5.46316">
        <ele>896</ele>
        <time>2000-01-01T08:03:09.000Z</time>
      </trkpt>
      <trkpt lat="45.00588" lon="5.46336">
        <ele>903</ele>
        <time>2000-01-01T08:03:19.000Z</time>
      </trkpt>
      <trkpt lat="45.00612" lon="5.46343">
        <ele>904</ele>
        <time>2000-01-01T08:03:29.000Z</time>
      </trkpt>
      <trkpt lat="45.00639" lon="5.4635">
        <ele>905</ele>
        <time>2000-01-01T08:03:39.000Z</time>
      </trkpt>
      <trkpt lat="45.00665" lon="5.46361">
        <ele>913</ele>
        <time>2000-01-01T08:03:49.000Z</time>
      </trkpt>
      <trkpt lat="45.00698" lon="5.46375">
        <ele>916</ele>
        <time>2000-01-01T08:03:59.000Z</time>
      </trkpt>
      <trkpt lat="45.00728" lon="5.46377">
        <ele>917</ele>
        <time>2000-01-01T08:04:09.000Z</time>
      </trkpt>
      <trkpt lat="45.00754" lon="5.4638">
        <ele>920</ele>
        <time>2000-01-01T08:04:19.000Z</time>
      </trkpt>
      <trkpt lat="45.00783" lon="5.46382">
        <ele>925</ele>
        <time>2000-01-01T08:04:29.000Z</time>
      </trkpt>
      <trkpt lat="45.00808" lon="5.46391">
        <ele>932</ele>
        <time>2000-01-01T08:04:39.000Z</time>
      </trkpt>
      <trkpt lat="45.00837" lon="5.46401">
        <ele>937</ele>
        <time>2000-01-01T08:04:49.000Z</time>
      </trkpt>
      <trkpt lat="45.00871" lon="5.46412">
        <ele>942</ele>
        <time>2000-01-01T08:04:59.000Z</time>
      </trkpt>
      <trkpt lat="45.00904" lon="5.46422">
        <ele>948</ele>
        <time>2000-01-01T08:05:09.000Z</time>
      </trkpt>
      <trkpt lat="45.00929" lon="5.4643">
        <ele>952</ele>
        <time>2000-01-01T08:05:19.000Z</time>
      </trkpt>
      <trkpt lat="45.00959" lon="5.4644">
        <ele>952</ele>
        <time>2000-01-01T08:05:29.000Z</time>
      </trkpt>
      <trkpt lat="45.00985" lon="5.4645">
        <ele>962</ele>
        <time>2000-01-01T08:05:39.000Z</time>
      </trkpt>
      <trkpt lat="45.01018" lon="5.46464">
        <ele>965</ele>
        <time>2000-01-01T08:05:49.000Z</time>
      </trkpt>
      <trkpt lat="45.01057" lon="5.46475">
        <ele>969</ele>
        <time>2000-01-01T08:05:59.000Z</time>
      </trkpt>
      <trkpt lat="45.01094" lon="5.46457">
        <ele>970</ele>
        <time>2000-01-01T08:06:09.000Z</time>
      </trkpt>
      <trkpt lat="45.01057" lon="5.46494">
        <ele>978</ele>
        <time>2000-01-01T08:06:19.000Z</time>
      </trkpt>
      <trkpt lat="45.01017" lon="5.46504">
        <ele>981</ele>
        <time>2000-01-01T08:06:29.000Z</time>
      </trkpt>
      <trkpt lat="45.00978" lon="5.46513">
        <ele>986</ele>
        <time>2000-01-01T08:06:39.000Z</time>
      </trkpt>
      <trkpt lat="45.00938" lon="5.46523">
        <ele>988</ele>
        <time>2000-01-01T08:06:49.000Z</time>
      </trkpt>
      <trkpt lat="45.00898" lon="5.46532">
        <ele>990</ele>
        <time>2000-01-01T08:06:59.000Z</time>
      </trkpt>
      <trkpt lat="45.00859" lon="5.46542">
        <ele>992</ele>
        <time>2000-01-01T08:07:09.000Z</time>
      </trkpt>
      <trkpt lat="45.00833" lon="5.46548">
        <ele>994</ele>
        <time>2000-01-01T08:07:19.000Z</time>
      </trkpt>
      <trkpt lat="45.00801" lon="5.46556">
        <ele>998</ele>
        <time>2000-01-01T08:07:29.000Z</time>
      </trkpt>
      <trkpt lat="45.00837" lon="5.46567">
        <ele>1003</ele>
        <time>2000-01-01T08:07:39.000Z</time>
      </trkpt>
      <trkpt lat="45.00873" lon="5.46578">
        <ele>1009</ele>
        <time>2000-01-01T08:07:49.000Z</time>
      </trkpt>
      <trkpt lat="45.00909" lon="5.46589">
        <ele>1014</ele>
        <time>2000-01-01T08:07:59.000Z</time>
      </trkpt>
      <trkpt lat="45.00934" lon="5.46596">
        <ele>1019</ele>
        <time>2000-01-01T08:08:09.000Z</time>
      </trkpt>
      <trkpt lat="45.00962" lon="5.46605">
        <ele>1027</ele>
        <time>2000-01-01T08:08:19.000Z</time>
      </trkpt>
      <trkpt lat="45.00996" lon="5.46609">
        <ele>1028</ele>
        <time>2000-01-01T08:08:29.000Z</time>
      </trkpt>
      <trkpt lat="45.01031" lon="5.46613">
        <ele>1035</ele>
        <time>2000-01-01T08:08:39.000Z</time>
      </trkpt>
      <trkpt lat="45.01056" lon="5.46616">
        <ele>1036</ele>
        <time>2000-01-01T08:08:49.000Z</time>
      </trkpt>
      <trkpt lat="45.01086" lon="5.4662">
        <ele>1037</ele>
        <time>2000-01-01T08:08:59.000Z</time>
      </trkpt>
      <trkpt lat="45.01113" lon="5.46618">
        <ele>1039</ele>
        <time>2000-01-01T08:09:09.000Z</time>
      </trkpt>
      <trkpt lat="45.0115" lon="5.46615">
        <ele>1043</ele>
        <time>2000-01-01T08:09:19.000Z</time>
      </trkpt>
      <trkpt lat="45.01175" lon="5.4661">
        <ele>1044</ele>
        <time>2000-01-01T08:09:29.000Z</time>
      </trkpt>
      <trkpt lat="45.01203" lon="5.46604">
        <ele>1051</ele>
        <time>2000-01-01T08:09:39.000Z</time>
      </trkpt>
      <trkpt lat="45.0124" lon="5.46594">
        <ele>1056</ele>
        <time>2000-01-01T08:09:49.000Z</time>
      </trkpt>
      <trkpt lat="45.01278" lon="5.46584">
        <ele>1062</ele>
        <time>2000-01-01T08:09:59.000Z</time>
      </trkpt>
      <trkpt lat="45.01315" lon="5.46575">
        <ele>1071</ele>
        <time>2000-01-01T08:10:09.000Z</time>
      </trkpt>
      <trkpt lat="45.01343" lon="5.46567">
        <ele>1074</ele>
        <time>2000-01-01T08:10:19.000Z</time>
      </trkpt>
      <trkpt lat="45.01386" lon="5.46556">
        <ele>1078</ele>
        <time>2000-01-01T08:10:29.000Z</time>
      </trkpt>
      <trkpt lat="45.01379" lon="5.46569">
        <ele>1082</ele>
        <time>2000-01-01T08:10:39.000Z</time>
      </trkpt>
      <trkpt lat="45.01362" lon="5.4659">
        <ele>1085</ele>
        <time>2000-01-01T08:10:49.000Z</time>
      </trkpt>
      <trkpt lat="45.01333" lon="5.4662">
        <ele>1087</ele>
        <time>2000-01-01T08:10:59.000Z</time>
      </trkpt>
      <trkpt lat="45.01311" lon="5.46639">
        <ele>1090</ele>
        <time>2000-01-01T08:11:09.000Z</time>
      </trkpt>
      <trkpt lat="45.01287" lon="5.4666">
        <ele>1091</ele>
        <time>2000-01-01T08:11:19.000Z</time>
      </trkpt>
      <trkpt lat="45.01261" lon="5.46675">
        <ele>1093</ele>
        <time>2000-01-01T08:11:29.000Z</time>
      </trkpt>
      <trkpt lat="45.01232" lon="5.46686">
        <ele>1096</ele>
        <time>2000-01-01T08:11:39.000Z</time>
      </trkpt>
      <trkpt lat="45.01201" lon="5.46695">
        <ele>1098</ele>
        <time>2000-01-01T08:11:49.000Z</time>
      </trkpt>
      <trkpt lat="45.01175" lon="5.46702">
        <ele>1098</ele>
        <time>2000-01-01T08:11:59.000Z</time>
      </trkpt>
      <trkpt lat="45.01141" lon="5.46712">
        <ele>1097</ele>
        <time>2000-01-01T08:12:09.000Z</time>
      </trkpt>
      <trkpt lat="45.01117" lon="5.46717">
        <ele>1097</ele>
        <time>2000-01-01T08:12:19.000Z</time>
      </trkpt>
      <trkpt lat="45.01093" lon="5.46723">
        <ele>1102</ele>
        <time>2000-01-01T08:12:29.000Z</time>
      </trkpt>
      <trkpt lat="45.01068" lon="5.46734">
        <ele>1104</ele>
        <time>2000-01-01T08:12:39.000Z</time>
      </trkpt>
      <trkpt lat="45.0104" lon="5.46746">
        <ele>1106</ele>
        <time>2000-01-01T08:12:49.000Z</time>
      </trkpt>
      <trkpt lat="45.01015" lon="5.4676">
        <ele>1110</ele>
        <time>2000-01-01T08:12:59.000Z</time>
      </trkpt>
      <trkpt lat="45.00988" lon="5.46765">
        <ele>1119</ele>
        <time>2000-01-01T08:13:09.000Z</time>
      </trkpt>
      <trkpt lat="45.00957" lon="5.46768">
        <ele>1121</ele>
        <time>2000-01-01T08:13:19.000Z</time>
      </trkpt>
      <trkpt lat="45.00931" lon="5.46771">
        <ele>1126</ele>
        <time>2000-01-01T08:13:29.000Z</time>
      </trkpt>
      <trkpt lat="45.009" lon="5.46774">
        <ele>1126</ele>
        <time>2000-01-01T08:13:39.000Z</time>
      </trkpt>
      <trkpt lat="45.00874" lon="5.46774">
        <ele>1126</ele>
        <time>2000-01-01T08:13:49.000Z</time>
      </trkpt>
      <trkpt lat="45.00844" lon="5.46774">
        <ele>1126</ele>
        <time>2000-01-01T08:13:59.000Z</time>
      </trkpt>
      <trkpt lat="45.0082" lon="5.46778">
        <ele>1127</ele>
        <time>2000-01-01T08:14:09.000Z</time>
      </trkpt>
      <trkpt lat="45.00795" lon="5.46783">
        <ele>1132</ele>
        <time>2000-01-01T08:14:19.000Z</time>
      </trkpt>
      <trkpt lat="45.0077" lon="5.46789">
        <ele>1133</ele>
        <time>2000-01-01T08:14:29.000Z</time>
      </trkpt>
      <trkpt lat="45.00757" lon="5.4679">
        <ele>1133</ele>
        <time>2000-01-01T08:14:39.000Z</time>
      </trkpt>
      <trkpt lat="45.00724" lon="5.46787">
        <ele>1134</ele>
        <time>2000-01-01T08:14:49.000Z</time>
      </trkpt>
      <trkpt lat="45.00691" lon="5.46784">
        <ele>1136</ele>
        <time>2000-01-01T08:14:59.000Z</time>
      </trkpt>
      <trkpt lat="45.00651" lon="5.46781">
        <ele>1137</ele>
        <time>2000-01-01T08:15:09.000Z</time>
      </trkpt>
      <trkpt lat="45.00645" lon="5.46782">
        <ele>1139.3</ele>
        <time>2000-01-01T08:15:19.000Z</time>
      </trkpt>
      <trkpt lat="45.0062" lon="5.46793">
        <ele>1143</ele>
        <time>2000-01-01T08:15:29.000Z</time>
      </trkpt>
      <trkpt lat="45.00585" lon="5.46797">
        <ele>1142</ele>
        <time>2000-01-01T08:15:39.000Z</time>
      </trkpt>
      <trkpt lat="45.00566" lon="5.46789">
        <ele>1143</ele>
        <time>2000-01-01T08:15:49.000Z</time>
      </trkpt>
      <trkpt lat="45.00543" lon="5.46782">
        <ele>1145</ele>
        <time>2000-01-01T08:15:59.000Z</time>
      </trkpt>
      <trkpt lat="45.00524" lon="5.46781">
        <ele>1147</ele>
        <time>2000-01-01T08:16:09.000Z</time>
      </trkpt>
      <trkpt lat="45.00478" lon="5.46789">
        <ele>1157</ele>
        <time>2000-01-01T08:16:19.000Z</time>
      </trkpt>
      <trkpt lat="45.00454" lon="5.4678">
        <ele>1162</ele>
        <time>2000-01-01T08:16:29.000Z</time>
      </trkpt>
      <trkpt lat="45.00427" lon="5.46771">
        <ele>1162</ele>
        <time>2000-01-01T08:16:39.000Z</time>
      </trkpt>
      <trkpt lat="45.00393" lon="5.46767">
        <ele>1162</ele>
        <time>2000-01-01T08:16:49.000Z</time>
      </trkpt>
      <trkpt lat="45.00359" lon="5.46744">
        <ele>1161</ele>
        <time>2000-01-01T08:16:59.000Z</time>
      </trkpt>
      <trkpt lat="45.00353" lon="5.46743">
        <ele>1157.9</ele>
        <time>2000-01-01T08:17:09.000Z</time>
      </trkpt>
      <trkpt lat="45.00303" lon="5.46746">
        <ele>1161</ele>
        <time>2000-01-01T08:17:19.000Z</time>
      </trkpt>
      <trkpt lat="45.00277" lon="5.46763">
        <ele>1170</ele>
        <time>2000-01-01T08:17:29.000Z</time>
      </trkpt>
      <trkpt lat="45.00253" lon="5.46811">
        <ele>1183</ele>
        <time>2000-01-01T08:17:39.000Z</time>
      </trkpt>
      <trkpt lat="45.00227" lon="5.46817">
        <ele>1188</ele>
        <time>2000-01-01T08:17:49.000Z</time>
      </trkpt>
      <trkpt lat="45.00189" lon="5.46789">
        <ele>1188</ele>
        <time>2000-01-01T08:17:59.000Z</time>
      </trkpt>
      <trkpt lat="45.00161" lon="5.46775">
        <ele>1189</ele>
        <time>2000-01-01T08:18:09.000Z</time>
      </trkpt>
      <trkpt lat="45.00117" lon="5.46763">
        <ele>1190</ele>
        <time>2000-01-01T08:18:19.000Z</time>
      </trkpt>
      <trkpt lat="45.00075" lon="5.46749">
        <ele>1192</ele>
        <time>2000-01-01T08:18:29.000Z</time>
      </trkpt>
      <trkpt lat="45.0005" lon="5.46763">
        <ele>1199</ele>
        <time>2000-01-01T08:18:39.000Z</time>
      </trkpt>
      <trkpt lat="45.00019" lon="5.4678">
        <ele>1202</ele>
        <time>2000-01-01T08:18:49.000Z</time>
      </trkpt>
      <trkpt lat="44.99987" lon="5.46789">
        <ele>1209</ele>
        <time>2000-01-01T08:18:59.000Z</time>
      </trkpt>
      <trkpt lat="44.99957" lon="5.46777">
        <ele>1209</ele>
        <time>2000-01-01T08:19:09.000Z</time>
      </trkpt>
      <trkpt lat="44.99945" lon="5.46752">
        <ele>1209</ele>
        <time>2000-01-01T08:19:19.000Z</time>
      </trkpt>
      <trkpt lat="44.99933" lon="5.46732">
        <ele>1209</ele>
        <time>2000-01-01T08:19:29.000Z</time>
      </trkpt>
      <trkpt lat="44.999" lon="5.46743">
        <ele>1218</ele>
        <time>2000-01-01T08:19:39.000Z</time>
      </trkpt>
      <trkpt lat="44.99868" lon="5.46754">
        <ele>1226</ele>
        <time>2000-01-01T08:19:49.000Z</time>
      </trkpt>
      <trkpt lat="44.99824" lon="5.46769">
        <ele>1235</ele>
        <time>2000-01-01T08:19:59.000Z</time>
      </trkpt>
      <trkpt lat="44.99832" lon="5.46827">
        <ele>1245</ele>
        <time>2000-01-01T08:20:09.000Z</time>
      </trkpt>
      <trkpt lat="44.99844" lon="5.46856">
        <ele>1250</ele>
        <time>2000-01-01T08:20:19.000Z</time>
      </trkpt>
      <trkpt lat="44.99851" lon="5.4692">
        <ele>1256</ele>
        <time>2000-01-01T08:20:29.000Z</time>
      </trkpt>
      <trkpt lat="44.99879" lon="5.46941">
        <ele>1258</ele>
        <time>2000-01-01T08:20:39.000Z</time>
      </trkpt>
      <trkpt lat="44.99908" lon="5.46963">
        <ele>1259</ele>
        <time>2000-01-01T08:20:49.000Z</time>
      </trkpt>
      <trkpt lat="44.99938" lon="5.46986">
        <ele>1264</ele>
        <time>2000-01-01T08:20:59.000Z</time>
      </trkpt>
      <trkpt lat="44.99942" lon="5.47006">
        <ele>1269</ele>
        <time>2000-01-01T08:21:09.000Z</time>
      </trkpt>
      <trkpt lat="44.99941" lon="5.47043">
        <ele>1276</ele>
        <time>2000-01-01T08:21:19.000Z</time>
      </trkpt>
      <trkpt lat="44.9994" lon="5.47091">
        <ele>1279</ele>
        <time>2000-01-01T08:21:29.000Z</time>
      </trkpt>
      <trkpt lat="44.99961" lon="5.47112">
        <ele>1279</ele>
        <time>2000-01-01T08:21:39.000Z</time>
      </trkpt>
      <trkpt lat="44.99987" lon="5.47137">
        <ele>1277</ele>
        <time>2000-01-01T08:21:49.000Z</time>
      </trkpt>
      <trkpt lat="45.00017" lon="5.47141">
        <ele>1276</ele>
        <time>2000-01-01T08:21:59.000Z</time>
      </trkpt>
      <trkpt lat="45.00041" lon="5.47144">
        <ele>1273</ele>
        <time>2000-01-01T08:22:09.000Z</time>
      </trkpt>
      <trkpt lat="45.00066" lon="5.47148">
        <ele>1273</ele>
        <time>2000-01-01T08:22:19.000Z</time>
      </trkpt>
      <trkpt lat="45.00078" lon="5.47176">
        <ele>1277</ele>
        <time>2000-01-01T08:22:29.000Z</time>
      </trkpt>
      <trkpt lat="45.00087" lon="5.47215">
        <ele>1283</ele>
        <time>2000-01-01T08:22:39.000Z</time>
      </trkpt>
      <trkpt lat="45.00101" lon="5.47278">
        <ele>1294</ele>
        <time>2000-01-01T08:22:49.000Z</time>
      </trkpt>
      <trkpt lat="45.00082" lon="5.47325">
        <ele>1305</ele>
        <time>2000-01-01T08:22:59.000Z</time>
      </trkpt>
      <trkpt lat="45.00099" lon="5.47364">
        <ele>1314</ele>
        <time>2000-01-01T08:23:09.000Z</time>
      </trkpt>
      <trkpt lat="45.00125" lon="5.47385">
        <ele>1316</ele>
        <time>2000-01-01T08:23:19.000Z</time>
      </trkpt>
      <trkpt lat="45.00147" lon="5.47402">
        <ele>1319</ele>
        <time>2000-01-01T08:23:29.000Z</time>
      </trkpt>
      <trkpt lat="45.0017" lon="5.4742">
        <ele>1320</ele>
        <time>2000-01-01T08:23:39.000Z</time>
      </trkpt>
      <trkpt lat="45.00172" lon="5.47455">
        <ele>1320</ele>
        <time>2000-01-01T08:23:49.000Z</time>
      </trkpt>
      <trkpt lat="45.00174" lon="5.47492">
        <ele>1321</ele>
        <time>2000-01-01T08:23:59.000Z</time>
      </trkpt>
      <trkpt lat="45.00174" lon="5.47507">
        <ele>1321</ele>
        <time>2000-01-01T08:24:09.000Z</time>
      </trkpt>
      <trkpt lat="45.00165" lon="5.47541">
        <ele>1318</ele>
        <time>2000-01-01T08:24:19.000Z</time>
      </trkpt>
      <trkpt lat="45.00144" lon="5.47569">
        <ele>1315</ele>
        <time>2000-01-01T08:24:29.000Z</time>
      </trkpt>
      <trkpt lat="45.00143" lon="5.47605">
        <ele>1311</ele>
        <time>2000-01-01T08:24:39.000Z</time>
      </trkpt>
      <trkpt lat="45.00153" lon="5.47647">
        <ele>1309</ele>
        <time>2000-01-01T08:24:49.000Z</time>
      </trkpt>
      <trkpt lat="45.00152" lon="5.47692">
        <ele>1307</ele>
        <time>2000-01-01T08:24:59.000Z</time>
      </trkpt>
      <trkpt lat="45.00145" lon="5.47735">
        <ele>1306</ele>
        <time>2000-01-01T08:25:09.000Z</time>
      </trkpt>
      <trkpt lat="45.00131" lon="5.47757">
        <ele>1305</ele>
        <time>2000-01-01T08:25:19.000Z</time>
      </trkpt>
      <trkpt lat="45.00119" lon="5.47784">
        <ele>1304</ele>
        <time>2000-01-01T08:25:29.000Z</time>
      </trkpt>
      <trkpt lat="45.00114" lon="5.47812">
        <ele>1303</ele>
        <time>2000-01-01T08:25:39.000Z</time>
      </trkpt>
      <trkpt lat="45.00093" lon="5.47843">
        <ele>1302</ele>
        <time>2000-01-01T08:25:49.000Z</time>
      </trkpt>
      <trkpt lat="45.00087" lon="5.47865">
        <ele>1301</ele>
        <time>2000-01-01T08:25:59.000Z</time>
      </trkpt>
      <trkpt lat="45.00085" lon="5.47904">
        <ele>1301</ele>
        <time>2000-01-01T08:26:09.000Z</time>
      </trkpt>
      <trkpt lat="45.00087" lon="5.47943">
        <ele>1301</ele>
        <time>2000-01-01T08:26:19.000Z</time>
      </trkpt>
      <trkpt lat="45.00091" lon="5.47982">
        <ele>1303</ele>
        <time>2000-01-01T08:26:29.000Z</time>
      </trkpt>
      <trkpt lat="45.00092" lon="5.48003">
        <ele>1303</ele>
        <time>2000-01-01T08:26:39.000Z</time>
      </trkpt>
      <trkpt lat="45.00092" lon="5.48025">
        <ele>1303</ele>
        <time>2000-01-01T08:26:49.000Z</time>
      </trkpt>
      <trkpt lat="45.00109" lon="5.48043">
        <ele>1304</ele>
        <time>2000-01-01T08:26:59.000Z</time>
      </trkpt>
      <trkpt lat="45.0013" lon="5.48074">
        <ele>1304</ele>
        <time>2000-01-01T08:27:09.000Z</time>
      </trkpt>
      <trkpt lat="45.00162" lon="5.48105">
        <ele>1306</ele>
        <time>2000-01-01T08:27:19.000Z</time>
      </trkpt>
      <trkpt lat="45.00191" lon="5.48115">
        <ele>1309</ele>
        <time>2000-01-01T08:27:29.000Z</time>
      </trkpt>
      <trkpt lat="45.00214" lon="5.48123">
        <ele>1312</ele>
        <time>2000-01-01T08:27:39.000Z</time>
      </trkpt>
      <trkpt lat="45.00238" lon="5.48132">
        <ele>1313</ele>
        <time>2000-01-01T08:27:49.000Z</time>
      </trkpt>
      <trkpt lat="45.0026" lon="5.48112">
        <ele>1313</ele>
        <time>2000-01-01T08:27:59.000Z</time>
      </trkpt>
      <trkpt lat="45.00287" lon="5.48089">
        <ele>1313</ele>
        <time>2000-01-01T08:28:09.000Z</time>
      </trkpt>
      <trkpt lat="45.00316" lon="5.48089">
        <ele>1315</ele>
        <time>2000-01-01T08:28:19.000Z</time>
      </trkpt>
      <trkpt lat="45.00359" lon="5.48089">
        <ele>1318</ele>
        <time>2000-01-01T08:28:29.000Z</time>
      </trkpt>
      <trkpt lat="45.00397" lon="5.48098">
        <ele>1322</ele>
        <time>2000-01-01T08:28:39.000Z</time>
      </trkpt>
      <trkpt lat="45.00441" lon="5.48094">
        <ele>1325</ele>
        <time>2000-01-01T08:28:49.000Z</time>
      </trkpt>
      <trkpt lat="45.00469" lon="5.48104">
        <ele>1328</ele>
        <time>2000-01-01T08:28:59.000Z</time>
      </trkpt>
      <trkpt lat="45.00513" lon="5.48121">
        <ele>1330</ele>
        <time>2000-01-01T08:29:09.000Z</time>
      </trkpt>
      <trkpt lat="45.00535" lon="5.48115">
        <ele>1331</ele>
        <time>2000-01-01T08:29:19.000Z</time>
      </trkpt>
      <trkpt lat="45.00537" lon="5.48104">
        <ele>1330</ele>
        <time>2000-01-01T08:29:29.000Z</time>
      </trkpt>
      <trkpt lat="45.00556" lon="5.4809">
        <ele>1330</ele>
        <time>2000-01-01T08:29:39.000Z</time>
      </trkpt>
      <trkpt lat="45.0058" lon="5.4807">
        <ele>1328</ele>
        <time>2000-01-01T08:29:49.000Z</time>
      </trkpt>
      <trkpt lat="45.00613" lon="5.48041">
        <ele>1326</ele>
        <time>2000-01-01T08:29:59.000Z</time>
      </trkpt>
      <trkpt lat="45.00629" lon="5.48018">
        <ele>1322</ele>
        <time>2000-01-01T08:30:09.000Z</time>
      </trkpt>
      <trkpt lat="45.00647" lon="5.47978">
        <ele>1318</ele>
        <time>2000-01-01T08:30:19.000Z</time>
      </trkpt>
      <trkpt lat="45.00675" lon="5.47961">
        <ele>1316</ele>
        <time>2000-01-01T08:30:29.000Z</time>
      </trkpt>
      <trkpt lat="45.00698" lon="5.47946">
        <ele>1315</ele>
        <time>2000-01-01T08:30:39.000Z</time>
      </trkpt>
      <trkpt lat="45.00725" lon="5.4793">
        <ele>1315</ele>
        <time>2000-01-01T08:30:49.000Z</time>
      </trkpt>
      <trkpt lat="45.00742" lon="5.47913">
        <ele>1314</ele>
        <time>2000-01-01T08:30:59.000Z</time>
      </trkpt>
      <trkpt lat="45.0077" lon="5.47873">
        <ele>1313</ele>
        <time>2000-01-01T08:31:09.000Z</time>
      </trkpt>
      <trkpt lat="45.00781" lon="5.47842">
        <ele>1311</ele>
        <time>2000-01-01T08:31:19.000Z</time>
      </trkpt>
      <trkpt lat="45.00793" lon="5.47809">
        <ele>1309</ele>
        <time>2000-01-01T08:31:29.000Z</time>
      </trkpt>
      <trkpt lat="45.00831" lon="5.47771">
        <ele>1309</ele>
        <time>2000-01-01T08:31:39.000Z</time>
      </trkpt>
      <trkpt lat="45.00852" lon="5.47747">
        <ele>1308</ele>
        <time>2000-01-01T08:31:49.000Z</time>
      </trkpt>
      <trkpt lat="45.0088" lon="5.4773">
        <ele>1308</ele>
        <time>2000-01-01T08:31:59.000Z</time>
      </trkpt>
      <trkpt lat="45.00893" lon="5.47725">
        <ele>1309</ele>
        <time>2000-01-01T08:32:09.000Z</time>
      </trkpt>
      <trkpt lat="45.00915" lon="5.47712">
        <ele>1309</ele>
        <time>2000-01-01T08:32:19.000Z</time>
      </trkpt>
      <trkpt lat="45.00938" lon="5.477">
        <ele>1308</ele>
        <time>2000-01-01T08:32:29.000Z</time>
      </trkpt>
      <trkpt lat="45.00953" lon="5.47687">
        <ele>1308</ele>
        <time>2000-01-01T08:32:39.000Z</time>
      </trkpt>
      <trkpt lat="45.00975" lon="5.47657">
        <ele>1307</ele>
        <time>2000-01-01T08:32:49.000Z</time>
      </trkpt>
      <trkpt lat="45.00993" lon="5.4763">
        <ele>1307</ele>
        <time>2000-01-01T08:32:59.000Z</time>
      </trkpt>
      <trkpt lat="45.01004" lon="5.47616">
        <ele>1307</ele>
        <time>2000-01-01T08:33:09.000Z</time>
      </trkpt>
      <trkpt lat="45.0102" lon="5.476">
        <ele>1307</ele>
        <time>2000-01-01T08:33:19.000Z</time>
      </trkpt>
      <trkpt lat="45.01039" lon="5.47585">
        <ele>1307</ele>
        <time>2000-01-01T08:33:29.000Z</time>
      </trkpt>
      <trkpt lat="45.0102" lon="5.476">
        <ele>1307</ele>
        <time>2000-01-01T08:33:39.000Z</time>
      </trkpt>
      <trkpt lat="45.01035" lon="5.47613">
        <ele>1307</ele>
        <time>2000-01-01T08:33:49.000Z</time>
      </trkpt>
      <trkpt lat="45.01054" lon="5.47627">
        <ele>1307</ele>
        <time>2000-01-01T08:33:59.000Z</time>
      </trkpt>
      <trkpt lat="45.01074" lon="5.47634">
        <ele>1309</ele>
        <time>2000-01-01T08:34:09.000Z</time>
      </trkpt>
      <trkpt lat="45.01092" lon="5.47631">
        <ele>1309</ele>
        <time>2000-01-01T08:34:19.000Z</time>
      </trkpt>
      <trkpt lat="45.01111" lon="5.47621">
        <ele>1308</ele>
        <time>2000-01-01T08:34:29.000Z</time>
      </trkpt>
      <trkpt lat="45.01137" lon="5.47611">
        <ele>1308</ele>
        <time>2000-01-01T08:34:39.000Z</time>
      </trkpt>
      <trkpt lat="45.01173" lon="5.47598">
        <ele>1308</ele>
        <time>2000-01-01T08:34:49.000Z</time>
      </trkpt>
      <trkpt lat="45.01209" lon="5.4759">
        <ele>1309</ele>
        <time>2000-01-01T08:34:59.000Z</time>
      </trkpt>
      <trkpt lat="45.01221" lon="5.47585">
        <ele>1310</ele>
        <time>2000-01-01T08:35:09.000Z</time>
      </trkpt>
      <trkpt lat="45.01248" lon="5.47571">
        <ele>1310</ele>
        <time>2000-01-01T08:35:19.000Z</time>
      </trkpt>
      <trkpt lat="45.01292" lon="5.47548">
        <ele>1310</ele>
        <time>2000-01-01T08:35:29.000Z</time>
      </trkpt>
      <trkpt lat="45.01301" lon="5.47535">
        <ele>1309</ele>
        <time>2000-01-01T08:35:39.000Z</time>
      </trkpt>
      <trkpt lat="45.01312" lon="5.47524">
        <ele>1309</ele>
        <time>2000-01-01T08:35:49.000Z</time>
      </trkpt>
      <trkpt lat="45.01325" lon="5.47516">
        <ele>1309</ele>
        <time>2000-01-01T08:35:59.000Z</time>
      </trkpt>
      <trkpt lat="45.01357" lon="5.4751">
        <ele>1309</ele>
        <time>2000-01-01T08:36:09.000Z</time>
      </trkpt>
      <trkpt lat="45.01383" lon="5.47526">
        <ele>1312</ele>
        <time>2000-01-01T08:36:19.000Z</time>
      </trkpt>
      <trkpt lat="45.01423" lon="5.47551">
        <ele>1318</ele>
        <time>2000-01-01T08:36:29.000Z</time>
      </trkpt>
      <trkpt lat="45.01466" lon="5.47554">
        <ele>1319</ele>
        <time>2000-01-01T08:36:39.000Z</time>
      </trkpt>
      <trkpt lat="45.01479" lon="5.4758">
        <ele>1324</ele>
        <time>2000-01-01T08:36:49.000Z</time>
      </trkpt>
      <trkpt lat="45.01513" lon="5.47594">
        <ele>1328</ele>
        <time>2000-01-01T08:36:59.000Z</time>
      </trkpt>
      <trkpt lat="45.01547" lon="5.47608">
        <ele>1330</ele>
        <time>2000-01-01T08:37:09.000Z</time>
      </trkpt>
      <trkpt lat="45.01573" lon="5.47619">
        <ele>1330</ele>
        <time>2000-01-01T08:37:19.000Z</time>
      </trkpt>
      <trkpt lat="45.0161" lon="5.47634">
        <ele>1331</ele>
        <time>2000-01-01T08:37:29.000Z</time>
      </trkpt>
      <trkpt lat="45.01645" lon="5.47633">
        <ele>1330</ele>
        <time>2000-01-01T08:37:39.000Z</time>
      </trkpt>
      <trkpt lat="45.01679" lon="5.47632">
        <ele>1330</ele>
        <time>2000-01-01T08:37:49.000Z</time>
      </trkpt>
      <trkpt lat="45.01705" lon="5.47632">
        <ele>1329</ele>
        <time>2000-01-01T08:37:59.000Z</time>
      </trkpt>
      <trkpt lat="45.01737" lon="5.47631">
        <ele>1327</ele>
        <time>2000-01-01T08:38:09.000Z</time>
      </trkpt>
      <trkpt lat="45.0175" lon="5.4763">
        <ele>1324</ele>
        <time>2000-01-01T08:38:19.000Z</time>
      </trkpt>
      <trkpt lat="45.0178" lon="5.47635">
        <ele>1324</ele>
        <time>2000-01-01T08:38:29.000Z</time>
      </trkpt>
      <trkpt lat="45.01834" lon="5.47644">
        <ele>1322</ele>
        <time>2000-01-01T08:38:39.000Z</time>
      </trkpt>
      <trkpt lat="45.01874" lon="5.47659">
        <ele>1321</ele>
        <time>2000-01-01T08:38:49.000Z</time>
      </trkpt>
      <trkpt lat="45.01902" lon="5.47664">
        <ele>1321</ele>
        <time>2000-01-01T08:38:59.000Z</time>
      </trkpt>
      <trkpt lat="45.01945" lon="5.47672">
        <ele>1320</ele>
        <time>2000-01-01T08:39:09.000Z</time>
      </trkpt>
      <trkpt lat="45.01977" lon="5.4769">
        <ele>1320</ele>
        <time>2000-01-01T08:39:19.000Z</time>
      </trkpt>
      <trkpt lat="45.02002" lon="5.47711">
        <ele>1320</ele>
        <time>2000-01-01T08:39:29.000Z</time>
      </trkpt>
      <trkpt lat="45.02042" lon="5.47743">
        <ele>1320</ele>
        <time>2000-01-01T08:39:39.000Z</time>
      </trkpt>
      <trkpt lat="45.02074" lon="5.47753">
        <ele>1320</ele>
        <time>2000-01-01T08:39:49.000Z</time>
      </trkpt>
      <trkpt lat="45.02103" lon="5.47749">
        <ele>1311</ele>
        <time>2000-01-01T08:39:59.000Z</time>
      </trkpt>
      <trkpt lat="45.02133" lon="5.4775">
        <ele>1307</ele>
        <time>2000-01-01T08:40:09.000Z</time>
      </trkpt>
      <trkpt lat="45.02158" lon="5.4775">
        <ele>1307</ele>
        <time>2000-01-01T08:40:19.000Z</time>
      </trkpt>
      <trkpt lat="45.02186" lon="5.47751">
        <ele>1304</ele>
        <time>2000-01-01T08:40:29.000Z</time>
      </trkpt>
      <trkpt lat="45.02211" lon="5.47748">
        <ele>1298</ele>
        <time>2000-01-01T08:40:39.000Z</time>
      </trkpt>
      <trkpt lat="45.02234" lon="5.47732">
        <ele>1295</ele>
        <time>2000-01-01T08:40:49.000Z</time>
      </trkpt>
      <trkpt lat="45.02236" lon="5.47727">
        <ele>1294.7</ele>
        <time>2000-01-01T08:40:59.000Z</time>
      </trkpt>
      <trkpt lat="45.0227" lon="5.47712">
        <ele>1291</ele>
        <time>2000-01-01T08:41:09.000Z</time>
      </trkpt>
      <trkpt lat="45.02294" lon="5.47683">
        <ele>1286</ele>
        <time>2000-01-01T08:41:19.000Z</time>
      </trkpt>
      <trkpt lat="45.02314" lon="5.47658">
        <ele>1281</ele>
        <time>2000-01-01T08:41:29.000Z</time>
      </trkpt>
      <trkpt lat="45.0234" lon="5.47627">
        <ele>1280</ele>
        <time>2000-01-01T08:41:39.000Z</time>
      </trkpt>
      <trkpt lat="45.02309" lon="5.47622">
        <ele>1280</ele>
        <time>2000-01-01T08:41:49.000Z</time>
      </trkpt>
      <trkpt lat="45.02284" lon="5.47617">
        <ele>1280</ele>
        <time>2000-01-01T08:41:59.000Z</time>
      </trkpt>
      <trkpt lat="45.02254" lon="5.47612">
        <ele>1280</ele>
        <time>2000-01-01T08:42:09.000Z</time>
      </trkpt>
      <trkpt lat="45.02298" lon="5.47631">
        <ele>1279</ele>
        <time>2000-01-01T08:42:19.000Z</time>
      </trkpt>
      <trkpt lat="45.02322" lon="5.47636">
        <ele>1279</ele>
        <time>2000-01-01T08:42:29.000Z</time>
      </trkpt>
      <trkpt lat="45.02347" lon="5.47642">
        <ele>1278</ele>
        <time>2000-01-01T08:42:39.000Z</time>
      </trkpt>
      <trkpt lat="45.02353" lon="5.47645">
        <ele>1278.1</ele>
        <time>2000-01-01T08:42:49.000Z</time>
      </trkpt>
      <trkpt lat="45.02386" lon="5.47653">
        <ele>1276</ele>
        <time>2000-01-01T08:42:59.000Z</time>
      </trkpt>
      <trkpt lat="45.02427" lon="5.47666">
        <ele>1274</ele>
        <time>2000-01-01T08:43:09.000Z</time>
      </trkpt>
      <trkpt lat="45.02455" lon="5.47669">
        <ele>1274</ele>
        <time>2000-01-01T08:43:19.000Z</time>
      </trkpt>
      <trkpt lat="45.02497" lon="5.47673">
        <ele>1274</ele>
        <time>2000-01-01T08:43:29.000Z</time>
      </trkpt>
      <trkpt lat="45.02519" lon="5.47677">
        <ele>1273</ele>
        <time>2000-01-01T08:43:39.000Z</time>
      </trkpt>
      <trkpt lat="45.0255" lon="5.47685">
        <ele>1272</ele>
        <time>2000-01-01T08:43:49.000Z</time>
      </trkpt>
      <trkpt lat="45.02581" lon="5.47694">
        <ele>1272</ele>
        <time>2000-01-01T08:43:59.000Z</time>
      </trkpt>
      <trkpt lat="45.02613" lon="5.47702">
        <ele>1273</ele>
        <time>2000-01-01T08:44:09.000Z</time>
      </trkpt>
      <trkpt lat="45.02642" lon="5.47709">
        <ele>1274</ele>
        <time>2000-01-01T08:44:19.000Z</time>
      </trkpt>
      <trkpt lat="45.02687" lon="5.47719">
        <ele>1275</ele>
        <time>2000-01-01T08:44:29.000Z</time>
      </trkpt>
      <trkpt lat="45.02695" lon="5.4772">
        <ele>1276</ele>
        <time>2000-01-01T08:44:39.000Z</time>
      </trkpt>
      <trkpt lat="45.02703" lon="5.4772">
        <ele>1276</ele>
        <time>2000-01-01T08:44:49.000Z</time>
      </trkpt>
      <trkpt lat="45.02736" lon="5.47718">
        <ele>1277</ele>
        <time>2000-01-01T08:44:59.000Z</time>
      </trkpt>
      <trkpt lat="45.02766" lon="5.47711">
        <ele>1278</ele>
        <time>2000-01-01T08:45:09.000Z</time>
      </trkpt>
      <trkpt lat="45.02792" lon="5.47705">
        <ele>1280</ele>
        <time>2000-01-01T08:45:19.000Z</time>
      </trkpt>
      <trkpt lat="45.02823" lon="5.47698">
        <ele>1282</ele>
        <time>2000-01-01T08:45:29.000Z</time>
      </trkpt>
      <trkpt lat="45.02844" lon="5.47699">
        <ele>1283</ele>
        <time>2000-01-01T08:45:39.000Z</time>
      </trkpt>
      <trkpt lat="45.02875" lon="5.47706">
        <ele>1285</ele>
        <time>2000-01-01T08:45:49.000Z</time>
      </trkpt>
      <trkpt lat="45.02902" lon="5.47711">
        <ele>1286</ele>
        <time>2000-01-01T08:45:59.000Z</time>
      </trkpt>
      <trkpt lat="45.02936" lon="5.47719">
        <ele>1286</ele>
        <time>2000-01-01T08:46:09.000Z</time>
      </trkpt>
      <trkpt lat="45.02973" lon="5.47722">
        <ele>1287</ele>
        <time>2000-01-01T08:46:19.000Z</time>
      </trkpt>
      <trkpt lat="45.02998" lon="5.47725">
        <ele>1287</ele>
        <time>2000-01-01T08:46:29.000Z</time>
      </trkpt>
      <trkpt lat="45.03027" lon="5.47734">
        <ele>1288</ele>
        <time>2000-01-01T08:46:39.000Z</time>
      </trkpt>
      <trkpt lat="45.03073" lon="5.47748">
        <ele>1288</ele>
        <time>2000-01-01T08:46:49.000Z</time>
      </trkpt>
      <trkpt lat="45.03096" lon="5.47761">
        <ele>1288</ele>
        <time>2000-01-01T08:46:59.000Z</time>
      </trkpt>
      <trkpt lat="45.0312" lon="5.47774">
        <ele>1288</ele>
        <time>2000-01-01T08:47:09.000Z</time>
      </trkpt>
      <trkpt lat="45.03148" lon="5.4778">
        <ele>1288</ele>
        <time>2000-01-01T08:47:19.000Z</time>
      </trkpt>
      <trkpt lat="45.03174" lon="5.47781">
        <ele>1287</ele>
        <time>2000-01-01T08:47:29.000Z</time>
      </trkpt>
      <trkpt lat="45.03203" lon="5.47783">
        <ele>1287</ele>
        <time>2000-01-01T08:47:39.000Z</time>
      </trkpt>
      <trkpt lat="45.03219" lon="5.47782">
        <ele>1287</ele>
        <time>2000-01-01T08:47:49.000Z</time>
      </trkpt>
      <trkpt lat="45.03249" lon="5.47787">
        <ele>1287</ele>
        <time>2000-01-01T08:47:59.000Z</time>
      </trkpt>
      <trkpt lat="45.03264" lon="5.47795">
        <ele>1288</ele>
        <time>2000-01-01T08:48:09.000Z</time>
      </trkpt>
      <trkpt lat="45.03275" lon="5.47805">
        <ele>1288</ele>
        <time>2000-01-01T08:48:19.000Z</time>
      </trkpt>
      <trkpt lat="45.03288" lon="5.47824">
        <ele>1289</ele>
        <time>2000-01-01T08:48:29.000Z</time>
      </trkpt>
      <trkpt lat="45.03311" lon="5.47855">
        <ele>1291</ele>
        <time>2000-01-01T08:48:39.000Z</time>
      </trkpt>
      <trkpt lat="45.03355" lon="5.47917">
        <ele>1295</ele>
        <time>2000-01-01T08:48:49.000Z</time>
      </trkpt>
      <trkpt lat="45.03384" lon="5.47962">
        <ele>1304</ele>
        <time>2000-01-01T08:48:59.000Z</time>
      </trkpt>
      <trkpt lat="45.03419" lon="5.47982">
        <ele>1305</ele>
        <time>2000-01-01T08:49:09.000Z</time>
      </trkpt>
      <trkpt lat="45.03448" lon="5.47983">
        <ele>1306</ele>
        <time>2000-01-01T08:49:19.000Z</time>
      </trkpt>
      <trkpt lat="45.03475" lon="5.47978">
        <ele>1306</ele>
        <time>2000-01-01T08:49:29.000Z</time>
      </trkpt>
      <trkpt lat="45.03512" lon="5.47972">
        <ele>1308</ele>
        <time>2000-01-01T08:49:39.000Z</time>
      </trkpt>
      <trkpt lat="45.03545" lon="5.47969">
        <ele>1312</ele>
        <time>2000-01-01T08:49:49.000Z</time>
      </trkpt>
      <trkpt lat="45.03577" lon="5.47966">
        <ele>1314</ele>
        <time>2000-01-01T08:49:59.000Z</time>
      </trkpt>
      <trkpt lat="45.03616" lon="5.47963">
        <ele>1315</ele>
        <time>2000-01-01T08:50:09.000Z</time>
      </trkpt>
      <trkpt lat="45.03633" lon="5.47959">
        <ele>1316</ele>
        <time>2000-01-01T08:50:19.000Z</time>
      </trkpt>
      <trkpt lat="45.03652" lon="5.4795">
        <ele>1317</ele>
        <time>2000-01-01T08:50:29.000Z</time>
      </trkpt>
      <trkpt lat="45.03669" lon="5.47933">
        <ele>1319</ele>
        <time>2000-01-01T08:50:39.000Z</time>
      </trkpt>
      <trkpt lat="45.03693" lon="5.47905">
        <ele>1321</ele>
        <time>2000-01-01T08:50:49.000Z</time>
      </trkpt>
      <trkpt lat="45.03714" lon="5.47882">
        <ele>1321</ele>
        <time>2000-01-01T08:50:59.000Z</time>
      </trkpt>
      <trkpt lat="45.0374" lon="5.47853">
        <ele>1322</ele>
        <time>2000-01-01T08:51:09.000Z</time>
      </trkpt>
      <trkpt lat="45.03763" lon="5.47828">
        <ele>1324</ele>
        <time>2000-01-01T08:51:19.000Z</time>
      </trkpt>
      <trkpt lat="45.03782" lon="5.47812">
        <ele>1326</ele>
        <time>2000-01-01T08:51:29.000Z</time>
      </trkpt>
      <trkpt lat="45.03799" lon="5.47804">
        <ele>1327</ele>
        <time>2000-01-01T08:51:39.000Z</time>
      </trkpt>
      <trkpt lat="45.03831" lon="5.47793">
        <ele>1328</ele>
        <time>2000-01-01T08:51:49.000Z</time>
      </trkpt>
      <trkpt lat="45.03863" lon="5.47781">
        <ele>1330</ele>
        <time>2000-01-01T08:51:59.000Z</time>
      </trkpt>
      <trkpt lat="45.03904" lon="5.47767">
        <ele>1333</ele>
        <time>2000-01-01T08:52:09.000Z</time>
      </trkpt>
      <trkpt lat="45.03931" lon="5.47756">
        <ele>1336</ele>
        <time>2000-01-01T08:52:19.000Z</time>
      </trkpt>
      <trkpt lat="45.03971" lon="5.47739">
        <ele>1340</ele>
        <time>2000-01-01T08:52:29.000Z</time>
      </trkpt>
      <trkpt lat="45.04005" lon="5.47722">
        <ele>1343</ele>
        <time>2000-01-01T08:52:39.000Z</time>
      </trkpt>
      <trkpt lat="45.04039" lon="5.47709">
        <ele>1347</ele>
        <time>2000-01-01T08:52:49.000Z</time>
      </trkpt>
      <trkpt lat="45.04063" lon="5.47696">
        <ele>1349</ele>
        <time>2000-01-01T08:52:59.000Z</time>
      </trkpt>
      <trkpt lat="45.04096" lon="5.47673">
        <ele>1352</ele>
        <time>2000-01-01T08:53:09.000Z</time>
      </trkpt>
      <trkpt lat="45.04128" lon="5.4767">
        <ele>1354</ele>
        <time>2000-01-01T08:53:19.000Z</time>
      </trkpt>
      <trkpt lat="45.04153" lon="5.47665">
        <ele>1354</ele>
        <time>2000-01-01T08:53:29.000Z</time>
      </trkpt>
      <trkpt lat="45.04177" lon="5.4766">
        <ele>1355</ele>
        <time>2000-01-01T08:53:39.000Z</time>
      </trkpt>
      <trkpt lat="45.04201" lon="5.47654">
        <ele>1356</ele>
        <time>2000-01-01T08:53:49.000Z</time>
      </trkpt>
      <trkpt lat="45.04224" lon="5.47643">
        <ele>1357</ele>
        <time>2000-01-01T08:53:59.000Z</time>
      </trkpt>
      <trkpt lat="45.04265" lon="5.47646">
        <ele>1358</ele>
        <time>2000-01-01T08:54:09.000Z</time>
      </trkpt>
      <trkpt lat="45.04306" lon="5.47649">
        <ele>1361</ele>
        <time>2000-01-01T08:54:19.000Z</time>
      </trkpt>
      <trkpt lat="45.04347" lon="5.47652">
        <ele>1364</ele>
        <time>2000-01-01T08:54:29.000Z</time>
      </trkpt>
      <trkpt lat="45.04388" lon="5.47654">
        <ele>1364</ele>
        <time>2000-01-01T08:54:39.000Z</time>
      </trkpt>
      <trkpt lat="45.04429" lon="5.47657">
        <ele>1364</ele>
        <time>2000-01-01T08:54:49.000Z</time>
      </trkpt>
      <trkpt lat="45.0447" lon="5.4766">
        <ele>1364</ele>
        <time>2000-01-01T08:54:59.000Z</time>
      </trkpt>
      <trkpt lat="45.04495" lon="5.47662">
        <ele>1364</ele>
        <time>2000-01-01T08:55:09.000Z</time>
      </trkpt>
      <trkpt lat="45.04524" lon="5.47664">
        <ele>1363</ele>
        <time>2000-01-01T08:55:19.000Z</time>
      </trkpt>
      <trkpt lat="45.04529" lon="5.47658">
        <ele>1363</ele>
        <time>2000-01-01T08:55:29.000Z</time>
      </trkpt>
      <trkpt lat="45.04528" lon="5.47688">
        <ele>1364</ele>
        <time>2000-01-01T08:55:39.000Z</time>
      </trkpt>
      <trkpt lat="45.04534" lon="5.47731">
        <ele>1369</ele>
        <time>2000-01-01T08:55:49.000Z</time>
      </trkpt>
      <trkpt lat="45.04556" lon="5.47761">
        <ele>1372</ele>
        <time>2000-01-01T08:55:59.000Z</time>
      </trkpt>
      <trkpt lat="45.04574" lon="5.47785">
        <ele>1375</ele>
        <time>2000-01-01T08:56:09.000Z</time>
      </trkpt>
      <trkpt lat="45.04594" lon="5.47813">
        <ele>1379</ele>
        <time>2000-01-01T08:56:19.000Z</time>
      </trkpt>
      <trkpt lat="45.04616" lon="5.47828">
        <ele>1381</ele>
        <time>2000-01-01T08:56:29.000Z</time>
      </trkpt>
      <trkpt lat="45.04638" lon="5.47844">
        <ele>1384</ele>
        <time>2000-01-01T08:56:39.000Z</time>
      </trkpt>
      <trkpt lat="45.04674" lon="5.47857">
        <ele>1385</ele>
        <time>2000-01-01T08:56:49.000Z</time>
      </trkpt>
      <trkpt lat="45.0471" lon="5.47869">
        <ele>1385</ele>
        <time>2000-01-01T08:56:59.000Z</time>
      </trkpt>
      <trkpt lat="45.04747" lon="5.47882">
        <ele>1389</ele>
        <time>2000-01-01T08:57:09.000Z</time>
      </trkpt>
      <trkpt lat="45.04773" lon="5.47891">
        <ele>1389</ele>
        <time>2000-01-01T08:57:19.000Z</time>
      </trkpt>
      <trkpt lat="45.04806" lon="5.47903">
        <ele>1389</ele>
        <time>2000-01-01T08:57:29.000Z</time>
      </trkpt>
      <trkpt lat="45.04836" lon="5.47916">
        <ele>1390</ele>
        <time>2000-01-01T08:57:39.000Z</time>
      </trkpt>
      <trkpt lat="45.04862" lon="5.47928">
        <ele>1391</ele>
        <time>2000-01-01T08:57:49.000Z</time>
      </trkpt>
      <trkpt lat="45.04895" lon="5.47943">
        <ele>1397</ele>
        <time>2000-01-01T08:57:59.000Z</time>
      </trkpt>
      <trkpt lat="45.04919" lon="5.47955">
        <ele>1400</ele>
        <time>2000-01-01T08:58:09.000Z</time>
      </trkpt>
      <trkpt lat="45.04949" lon="5.4797">
        <ele>1402</ele>
        <time>2000-01-01T08:58:19.000Z</time>
      </trkpt>
      <trkpt lat="45.04977" lon="5.4798">
        <ele>1406</ele>
        <time>2000-01-01T08:58:29.000Z</time>
      </trkpt>
      <trkpt lat="45.05023" lon="5.47995">
        <ele>1407</ele>
        <time>2000-01-01T08:58:39.000Z</time>
      </trkpt>
      <trkpt lat="45.05047" lon="5.47994">
        <ele>1407</ele>
        <time>2000-01-01T08:58:49.000Z</time>
      </trkpt>
      <trkpt lat="45.05072" lon="5.47993">
        <ele>1407</ele>
        <time>2000-01-01T08:58:59.000Z</time>
      </trkpt>
      <trkpt lat="45.05087" lon="5.47997">
        <ele>1407</ele>
        <time>2000-01-01T08:59:09.000Z</time>
      </trkpt>
      <trkpt lat="45.05094" lon="5.48">
        <ele>1407</ele>
        <time>2000-01-01T08:59:19.000Z</time>
      </trkpt>
      <trkpt lat="45.05095" lon="5.48002">
        <ele>1413.6</ele>
        <time>2000-01-01T08:59:29.000Z</time>
      </trkpt>
      <trkpt lat="45.05097" lon="5.48007">
        <ele>1416</ele>
        <time>2000-01-01T08:59:39.000Z</time>
      </trkpt>
      <trkpt lat="45.05094" lon="5.48012">
        <ele>1417</ele>
        <time>2000-01-01T08:59:49.000Z</time>
      </trkpt>
      <trkpt lat="45.05088" lon="5.48014">
        <ele>1419.9</ele>
        <time>2000-01-01T08:59:59.000Z</time>
      </trkpt>
      <trkpt lat="45.05076" lon="5.48011">
        <ele>1418</ele>
        <time>2000-01-01T09:00:09.000Z</time>
      </trkpt>
      <trkpt lat="45.05055" lon="5.48011">
        <ele>1418</ele>
        <time>2000-01-01T09:00:19.000Z</time>
      </trkpt>
      <trkpt lat="45.05026" lon="5.48014">
        <ele>1419</ele>
        <time>2000-01-01T09:00:29.000Z</time>
      </trkpt>
      <trkpt lat="45.04983" lon="5.48011">
        <ele>1422</ele>
        <time>2000-01-01T09:00:39.000Z</time>
      </trkpt>
      <trkpt lat="45.04946" lon="5.48013">
        <ele>1424</ele>
        <time>2000-01-01T09:00:49.000Z</time>
      </trkpt>
      <trkpt lat="45.0491" lon="5.48016">
        <ele>1425</ele>
        <time>2000-01-01T09:00:59.000Z</time>
      </trkpt>
      <trkpt lat="45.04873" lon="5.48018">
        <ele>1426</ele>
        <time>2000-01-01T09:01:09.000Z</time>
      </trkpt>
      <trkpt lat="45.04849" lon="5.4802">
        <ele>1430</ele>
        <time>2000-01-01T09:01:19.000Z</time>
      </trkpt>
      <trkpt lat="45.04823" lon="5.48022">
        <ele>1430</ele>
        <time>2000-01-01T09:01:29.000Z</time>
      </trkpt>
      <trkpt lat="45.04787" lon="5.48027">
        <ele>1432</ele>
        <time>2000-01-01T09:01:39.000Z</time>
      </trkpt>
      <trkpt lat="45.04752" lon="5.48032">
        <ele>1440</ele>
        <time>2000-01-01T09:01:49.000Z</time>
      </trkpt>
      <trkpt lat="45.04716" lon="5.48037">
        <ele>1442</ele>
        <time>2000-01-01T09:01:59.000Z</time>
      </trkpt>
      <trkpt lat="45.0468" lon="5.48042">
        <ele>1446</ele>
        <time>2000-01-01T09:02:09.000Z</time>
      </trkpt>
      <trkpt lat="45.04636" lon="5.48056">
        <ele>1447</ele>
        <time>2000-01-01T09:02:19.000Z</time>
      </trkpt>
      <trkpt lat="45.04595" lon="5.48061">
        <ele>1451</ele>
        <time>2000-01-01T09:02:29.000Z</time>
      </trkpt>
      <trkpt lat="45.04564" lon="5.4807">
        <ele>1451</ele>
        <time>2000-01-01T09:02:39.000Z</time>
      </trkpt>
      <trkpt lat="45.04532" lon="5.48079">
        <ele>1454</ele>
        <time>2000-01-01T09:02:49.000Z</time>
      </trkpt>
      <trkpt lat="45.045" lon="5.48088">
        <ele>1457</ele>
        <time>2000-01-01T09:02:59.000Z</time>
      </trkpt>
      <trkpt lat="45.0447" lon="5.48102">
        <ele>1466</ele>
        <time>2000-01-01T09:03:09.000Z</time>
      </trkpt>
      <trkpt lat="45.04439" lon="5.48115">
        <ele>1468</ele>
        <time>2000-01-01T09:03:19.000Z</time>
      </trkpt>
      <trkpt lat="45.04408" lon="5.48129">
        <ele>1471</ele>
        <time>2000-01-01T09:03:29.000Z</time>
      </trkpt>
      <trkpt lat="45.04392" lon="5.48145">
        <ele>1474</ele>
        <time>2000-01-01T09:03:39.000Z</time>
      </trkpt>
      <trkpt lat="45.04385" lon="5.48168">
        <ele>1476</ele>
        <time>2000-01-01T09:03:49.000Z</time>
      </trkpt>
      <trkpt lat="45.04384" lon="5.48186">
        <ele>1479</ele>
        <time>2000-01-01T09:03:59.000Z</time>
      </trkpt>
      <trkpt lat="45.0439" lon="5.48224">
        <ele>1479</ele>
        <time>2000-01-01T09:04:09.000Z</time>
      </trkpt>
      <trkpt lat="45.04395" lon="5.48241">
        <ele>1481</ele>
        <time>2000-01-01T09:04:19.000Z</time>
      </trkpt>
      <trkpt lat="45.04414" lon="5.48268">
        <ele>1489</ele>
        <time>2000-01-01T09:04:29.000Z</time>
      </trkpt>
      <trkpt lat="45.04438" lon="5.48302">
        <ele>1491</ele>
        <time>2000-01-01T09:04:39.000Z</time>
      </trkpt>
      <trkpt lat="45.04459" lon="5.48324">
        <ele>1496</ele>
        <time>2000-01-01T09:04:49.000Z</time>
      </trkpt>
      <trkpt lat="45.04486" lon="5.48351">
        <ele>1503</ele>
        <time>2000-01-01T09:04:59.000Z</time>
      </trkpt>
      <trkpt lat="45.04493" lon="5.48364">
        <ele>1507</ele>
        <time>2000-01-01T09:05:09.000Z</time>
      </trkpt>
      <trkpt lat="45.04493" lon="5.48365">
        <ele>1507.9</ele>
        <time>2000-01-01T09:05:19.000Z</time>
      </trkpt>
      <trkpt lat="45.04496" lon="5.48368">
        <ele>1508.8</ele>
        <time>2000-01-01T09:05:29.000Z</time>
      </trkpt>
      <trkpt lat="45.04501" lon="5.48367">
        <ele>1510</ele>
        <time>2000-01-01T09:05:39.000Z</time>
      </trkpt>
      <trkpt lat="45.04502" lon="5.48359">
        <ele>1511.7</ele>
        <time>2000-01-01T09:05:49.000Z</time>
      </trkpt>
      <trkpt lat="45.04481" lon="5.48302">
        <ele>1511</ele>
        <time>2000-01-01T09:05:59.000Z</time>
      </trkpt>
      <trkpt lat="45.04511" lon="5.48314">
        <ele>1519</ele>
        <time>2000-01-01T09:06:09.000Z</time>
      </trkpt>
      <trkpt lat="45.04519" lon="5.48271">
        <ele>1524</ele>
        <time>2000-01-01T09:06:19.000Z</time>
      </trkpt>
      <trkpt lat="45.04545" lon="5.48252">
        <ele>1530</ele>
        <time>2000-01-01T09:06:29.000Z</time>
      </trkpt>
      <trkpt lat="45.04589" lon="5.48246">
        <ele>1536</ele>
        <time>2000-01-01T09:06:39.000Z</time>
      </trkpt>
      <trkpt lat="45.04619" lon="5.48231">
        <ele>1539</ele>
        <time>2000-01-01T09:06:49.000Z</time>
      </trkpt>
      <trkpt lat="45.04663" lon="5.48226">
        <ele>1544</ele>
        <time>2000-01-01T09:06:59.000Z</time>
      </trkpt>
      <trkpt lat="45.04707" lon="5.4822">
        <ele>1547</ele>
        <time>2000-01-01T09:07:09.000Z</time>
      </trkpt>
      <trkpt lat="45.04745" lon="5.48233">
        <ele>1551</ele>
        <time>2000-01-01T09:07:19.000Z</time>
      </trkpt>
      <trkpt lat="45.04771" lon="5.48235">
        <ele>1551</ele>
        <time>2000-01-01T09:07:29.000Z</time>
      </trkpt>
      <trkpt lat="45.04778" lon="5.48202">
        <ele>1548</ele>
        <time>2000-01-01T09:07:39.000Z</time>
      </trkpt>
      <trkpt lat="45.04786" lon="5.48168">
        <ele>1543</ele>
        <time>2000-01-01T09:07:49.000Z</time>
      </trkpt>
      <trkpt lat="45.04809" lon="5.48186">
        <ele>1543</ele>
        <time>2000-01-01T09:07:59.000Z</time>
      </trkpt>
      <trkpt lat="45.04836" lon="5.48208">
        <ele>1543</ele>
        <time>2000-01-01T09:08:09.000Z</time>
      </trkpt>
      <trkpt lat="45.04861" lon="5.48222">
        <ele>1545</ele>
        <time>2000-01-01T09:08:19.000Z</time>
      </trkpt>
      <trkpt lat="45.04894" lon="5.48241">
        <ele>1545</ele>
        <time>2000-01-01T09:08:29.000Z</time>
      </trkpt>
      <trkpt lat="45.04917" lon="5.48257">
        <ele>1545</ele>
        <time>2000-01-01T09:08:39.000Z</time>
      </trkpt>
      <trkpt lat="45.04945" lon="5.48275">
        <ele>1541</ele>
        <time>2000-01-01T09:08:49.000Z</time>
      </trkpt>
      <trkpt lat="45.04953" lon="5.48292">
        <ele>1539</ele>
        <time>2000-01-01T09:08:59.000Z</time>
      </trkpt>
      <trkpt lat="45.04965" lon="5.48302">
        <ele>1537</ele>
        <time>2000-01-01T09:09:09.000Z</time>
      </trkpt>
      <trkpt lat="45.04979" lon="5.48306">
        <ele>1537</ele>
        <time>2000-01-01T09:09:19.000Z</time>
      </trkpt>
      <trkpt lat="45.0499" lon="5.48327">
        <ele>1535</ele>
        <time>2000-01-01T09:09:29.000Z</time>
      </trkpt>
      <trkpt lat="45.05003" lon="5.48336">
        <ele>1532</ele>
        <time>2000-01-01T09:09:39.000Z</time>
      </trkpt>
      <trkpt lat="45.05023" lon="5.48343">
        <ele>1530</ele>
        <time>2000-01-01T09:09:49.000Z</time>
      </trkpt>
      <trkpt lat="45.05035" lon="5.4835">
        <ele>1530</ele>
        <time>2000-01-01T09:09:59.000Z</time>
      </trkpt>
      <trkpt lat="45.05028" lon="5.48342">
        <ele>1530</ele>
        <time>2000-01-01T09:10:09.000Z</time>
      </trkpt>
      <trkpt lat="45.05038" lon="5.48348">
        <ele>1530</ele>
        <time>2000-01-01T09:10:19.000Z</time>
      </trkpt>
      <trkpt lat="45.05042" lon="5.48355">
        <ele>1529.2</ele>
        <time>2000-01-01T09:10:29.000Z</time>
      </trkpt>
      <trkpt lat="45.05051" lon="5.48368">
        <ele>1528</ele>
        <time>2000-01-01T09:10:39.000Z</time>
      </trkpt>
      <trkpt lat="45.05076" lon="5.4837">
        <ele>1528</ele>
        <time>2000-01-01T09:10:49.000Z</time>
      </trkpt>
      <trkpt lat="45.05107" lon="5.4838">
        <ele>1530</ele>
        <time>2000-01-01T09:10:59.000Z</time>
      </trkpt>
      <trkpt lat="45.05129" lon="5.48388">
        <ele>1530</ele>
        <time>2000-01-01T09:11:09.000Z</time>
      </trkpt>
      <trkpt lat="45.05135" lon="5.48389">
        <ele>1530.9</ele>
        <time>2000-01-01T09:11:19.000Z</time>
      </trkpt>
      <trkpt lat="45.05129" lon="5.48388">
        <ele>1530</ele>
        <time>2000-01-01T09:11:29.000Z</time>
      </trkpt>
      <trkpt lat="45.05123" lon="5.4842">
        <ele>1529</ele>
        <time>2000-01-01T09:11:39.000Z</time>
      </trkpt>
      <trkpt lat="45.05097" lon="5.48469">
        <ele>1524</ele>
        <time>2000-01-01T09:11:49.000Z</time>
      </trkpt>
      <trkpt lat="45.05076" lon="5.485">
        <ele>1521</ele>
        <time>2000-01-01T09:11:59.000Z</time>
      </trkpt>
      <trkpt lat="45.05057" lon="5.48514">
        <ele>1518</ele>
        <time>2000-01-01T09:12:09.000Z</time>
      </trkpt>
      <trkpt lat="45.0502" lon="5.48524">
        <ele>1516</ele>
        <time>2000-01-01T09:12:19.000Z</time>
      </trkpt>
      <trkpt lat="45.04999" lon="5.48534">
        <ele>1514</ele>
        <time>2000-01-01T09:12:29.000Z</time>
      </trkpt>
      <trkpt lat="45.04973" lon="5.48553">
        <ele>1513</ele>
        <time>2000-01-01T09:12:39.000Z</time>
      </trkpt>
      <trkpt lat="45.04936" lon="5.48575">
        <ele>1510</ele>
        <time>2000-01-01T09:12:49.000Z</time>
      </trkpt>
      <trkpt lat="45.04934" lon="5.48579">
        <ele>1511.3</ele>
        <time>2000-01-01T09:12:59.000Z</time>
      </trkpt>
      <trkpt lat="45.04933" lon="5.48579">
        <ele>1511.2</ele>
        <time>2000-01-01T09:13:09.000Z</time>
      </trkpt>
      <trkpt lat="45.04907" lon="5.48624">
        <ele>1508</ele>
        <time>2000-01-01T09:13:19.000Z</time>
      </trkpt>
      <trkpt lat="45.04894" lon="5.48653">
        <ele>1507</ele>
        <time>2000-01-01T09:13:29.000Z</time>
      </trkpt>
      <trkpt lat="45.04881" lon="5.48683">
        <ele>1505</ele>
        <time>2000-01-01T09:13:39.000Z</time>
      </trkpt>
      <trkpt lat="45.04877" lon="5.48694">
        <ele>1505</ele>
        <time>2000-01-01T09:13:49.000Z</time>
      </trkpt>
      <trkpt lat="45.04871" lon="5.48734">
        <ele>1503</ele>
        <time>2000-01-01T09:13:59.000Z</time>
      </trkpt>
      <trkpt lat="45.04856" lon="5.48788">
        <ele>1499</ele>
        <time>2000-01-01T09:14:09.000Z</time>
      </trkpt>
      <trkpt lat="45.04837" lon="5.48816">
        <ele>1499</ele>
        <time>2000-01-01T09:14:19.000Z</time>
      </trkpt>
      <trkpt lat="45.04812" lon="5.48855">
        <ele>1498</ele>
        <time>2000-01-01T09:14:29.000Z</time>
      </trkpt>
      <trkpt lat="45.04785" lon="5.48883">
        <ele>1496</ele>
        <time>2000-01-01T09:14:39.000Z</time>
      </trkpt>
      <trkpt lat="45.04757" lon="5.48912">
        <ele>1492</ele>
        <time>2000-01-01T09:14:49.000Z</time>
      </trkpt>
      <trkpt lat="45.04737" lon="5.48932">
        <ele>1489</ele>
        <time>2000-01-01T09:14:59.000Z</time>
      </trkpt>
      <trkpt lat="45.04716" lon="5.48954">
        <ele>1484</ele>
        <time>2000-01-01T09:15:09.000Z</time>
      </trkpt>
      <trkpt lat="45.04697" lon="5.48983">
        <ele>1479</ele>
        <time>2000-01-01T09:15:19.000Z</time>
      </trkpt>
      <trkpt lat="45.04672" lon="5.49007">
        <ele>1475</ele>
        <time>2000-01-01T09:15:29.000Z</time>
      </trkpt>
      <trkpt lat="45.04643" lon="5.49007">
        <ele>1473</ele>
        <time>2000-01-01T09:15:39.000Z</time>
      </trkpt>
      <trkpt lat="45.04596" lon="5.49007">
        <ele>1471</ele>
        <time>2000-01-01T09:15:49.000Z</time>
      </trkpt>
      <trkpt lat="45.04572" lon="5.49033">
        <ele>1465</ele>
        <time>2000-01-01T09:15:59.000Z</time>
      </trkpt>
      <trkpt lat="45.04549" lon="5.49056">
        <ele>1460</ele>
        <time>2000-01-01T09:16:09.000Z</time>
      </trkpt>
      <trkpt lat="45.04537" lon="5.49088">
        <ele>1456</ele>
        <time>2000-01-01T09:16:19.000Z</time>
      </trkpt>
      <trkpt lat="45.04523" lon="5.49124">
        <ele>1452</ele>
        <time>2000-01-01T09:16:29.000Z</time>
      </trkpt>
      <trkpt lat="45.04518" lon="5.49183">
        <ele>1448</ele>
        <time>2000-01-01T09:16:39.000Z</time>
      </trkpt>
      <trkpt lat="45.0451" lon="5.49217">
        <ele>1446</ele>
        <time>2000-01-01T09:16:49.000Z</time>
      </trkpt>
      <trkpt lat="45.04502" lon="5.49254">
        <ele>1444</ele>
        <time>2000-01-01T09:16:59.000Z</time>
      </trkpt>
      <trkpt lat="45.04513" lon="5.49265">
        <ele>1444</ele>
        <time>2000-01-01T09:17:09.000Z</time>
      </trkpt>
      <trkpt lat="45.04502" lon="5.49254">
        <ele>1444</ele>
        <time>2000-01-01T09:17:19.000Z</time>
      </trkpt>
      <trkpt lat="45.0447" lon="5.49277">
        <ele>1440</ele>
        <time>2000-01-01T09:17:29.000Z</time>
      </trkpt>
      <trkpt lat="45.04442" lon="5.49287">
        <ele>1438</ele>
        <time>2000-01-01T09:17:39.000Z</time>
      </trkpt>
      <trkpt lat="45.04398" lon="5.49302">
        <ele>1431</ele>
        <time>2000-01-01T09:17:49.000Z</time>
      </trkpt>
      <trkpt lat="45.04369" lon="5.4932">
        <ele>1427</ele>
        <time>2000-01-01T09:17:59.000Z</time>
      </trkpt>
      <trkpt lat="45.0434" lon="5.49314">
        <ele>1422</ele>
        <time>2000-01-01T09:18:09.000Z</time>
      </trkpt>
      <trkpt lat="45.04317" lon="5.49324">
        <ele>1419</ele>
        <time>2000-01-01T09:18:19.000Z</time>
      </trkpt>
      <trkpt lat="45.04292" lon="5.49334">
        <ele>1416</ele>
        <time>2000-01-01T09:18:29.000Z</time>
      </trkpt>
      <trkpt lat="45.04263" lon="5.49337">
        <ele>1414</ele>
        <time>2000-01-01T09:18:39.000Z</time>
      </trkpt>
      <trkpt lat="45.04231" lon="5.49335">
        <ele>1412</ele>
        <time>2000-01-01T09:18:49.000Z</time>
      </trkpt>
      <trkpt lat="45.04189" lon="5.49347">
        <ele>1409</ele>
        <time>2000-01-01T09:18:59.000Z</time>
      </trkpt>
      <trkpt lat="45.04153" lon="5.49354">
        <ele>1405</ele>
        <time>2000-01-01T09:19:09.000Z</time>
      </trkpt>
      <trkpt lat="45.04117" lon="5.49361">
        <ele>1399</ele>
        <time>2000-01-01T09:19:19.000Z</time>
      </trkpt>
      <trkpt lat="45.04081" lon="5.49368">
        <ele>1396</ele>
        <time>2000-01-01T09:19:29.000Z</time>
      </trkpt>
      <trkpt lat="45.04034" lon="5.49377">
        <ele>1391</ele>
        <time>2000-01-01T09:19:39.000Z</time>
      </trkpt>
      <trkpt lat="45.04002" lon="5.49384">
        <ele>1388</ele>
        <time>2000-01-01T09:19:49.000Z</time>
      </trkpt>
      <trkpt lat="45.0397" lon="5.49391">
        <ele>1382</ele>
        <time>2000-01-01T09:19:59.000Z</time>
      </trkpt>
      <trkpt lat="45.03932" lon="5.49399">
        <ele>1380</ele>
        <time>2000-01-01T09:20:09.000Z</time>
      </trkpt>
      <trkpt lat="45.03901" lon="5.49396">
        <ele>1377</ele>
        <time>2000-01-01T09:20:19.000Z</time>
      </trkpt>
      <trkpt lat="45.03874" lon="5.49394">
        <ele>1375</ele>
        <time>2000-01-01T09:20:29.000Z</time>
      </trkpt>
      <trkpt lat="45.03841" lon="5.49391">
        <ele>1373</ele>
        <time>2000-01-01T09:20:39.000Z</time>
      </trkpt>
      <trkpt lat="45.03816" lon="5.49383">
        <ele>1373</ele>
        <time>2000-01-01T09:20:49.000Z</time>
      </trkpt>
      <trkpt lat="45.03787" lon="5.49373">
        <ele>1375</ele>
        <time>2000-01-01T09:20:59.000Z</time>
      </trkpt>
      <trkpt lat="45.03757" lon="5.49373">
        <ele>1375</ele>
        <time>2000-01-01T09:21:09.000Z</time>
      </trkpt>
      <trkpt lat="45.03733" lon="5.49373">
        <ele>1376</ele>
        <time>2000-01-01T09:21:19.000Z</time>
      </trkpt>
      <trkpt lat="45.03707" lon="5.49373">
        <ele>1377</ele>
        <time>2000-01-01T09:21:29.000Z</time>
      </trkpt>
      <trkpt lat="45.03662" lon="5.49363">
        <ele>1378</ele>
        <time>2000-01-01T09:21:39.000Z</time>
      </trkpt>
      <trkpt lat="45.03662" lon="5.49372">
        <ele>1376</ele>
        <time>2000-01-01T09:21:49.000Z</time>
      </trkpt>
      <trkpt lat="45.03664" lon="5.49379">
        <ele>1377.9</ele>
        <time>2000-01-01T09:21:59.000Z</time>
      </trkpt>
      <trkpt lat="45.03673" lon="5.49393">
        <ele>1375</ele>
        <time>2000-01-01T09:22:09.000Z</time>
      </trkpt>
      <trkpt lat="45.03684" lon="5.49402">
        <ele>1375</ele>
        <time>2000-01-01T09:22:19.000Z</time>
      </trkpt>
      <trkpt lat="45.03658" lon="5.49393">
        <ele>1376</ele>
        <time>2000-01-01T09:22:29.000Z</time>
      </trkpt>
      <trkpt lat="45.03625" lon="5.49381">
        <ele>1380</ele>
        <time>2000-01-01T09:22:39.000Z</time>
      </trkpt>
      <trkpt lat="45.03599" lon="5.49388">
        <ele>1379</ele>
        <time>2000-01-01T09:22:49.000Z</time>
      </trkpt>
      <trkpt lat="45.03564" lon="5.49398">
        <ele>1379</ele>
        <time>2000-01-01T09:22:59.000Z</time>
      </trkpt>
      <trkpt lat="45.03537" lon="5.49412">
        <ele>1375</ele>
        <time>2000-01-01T09:23:09.000Z</time>
      </trkpt>
      <trkpt lat="45.03496" lon="5.49434">
        <ele>1369</ele>
        <time>2000-01-01T09:23:19.000Z</time>
      </trkpt>
      <trkpt lat="45.03477" lon="5.49466">
        <ele>1360</ele>
        <time>2000-01-01T09:23:29.000Z</time>
      </trkpt>
      <trkpt lat="45.03447" lon="5.49518">
        <ele>1344</ele>
        <time>2000-01-01T09:23:39.000Z</time>
      </trkpt>
      <trkpt lat="45.03443" lon="5.49537">
        <ele>1339</ele>
        <time>2000-01-01T09:23:49.000Z</time>
      </trkpt>
      <trkpt lat="45.03433" lon="5.49579">
        <ele>1326</ele>
        <time>2000-01-01T09:23:59.000Z</time>
      </trkpt>
      <trkpt lat="45.03414" lon="5.49658">
        <ele>1318</ele>
        <time>2000-01-01T09:24:09.000Z</time>
      </trkpt>
      <trkpt lat="45.03411" lon="5.49657">
        <ele>1306.9</ele>
        <time>2000-01-01T09:24:19.000Z</time>
      </trkpt>
      <trkpt lat="45.03394" lon="5.49637">
        <ele>1315</ele>
        <time>2000-01-01T09:24:29.000Z</time>
      </trkpt>
      <trkpt lat="45.03379" lon="5.49632">
        <ele>1312</ele>
        <time>2000-01-01T09:24:39.000Z</time>
      </trkpt>
      <trkpt lat="45.03354" lon="5.49642">
        <ele>1312</ele>
        <time>2000-01-01T09:24:49.000Z</time>
      </trkpt>
      <trkpt lat="45.03322" lon="5.49655">
        <ele>1312</ele>
        <time>2000-01-01T09:24:59.000Z</time>
      </trkpt>
      <trkpt lat="45.03309" lon="5.49652">
        <ele>1312</ele>
        <time>2000-01-01T09:25:09.000Z</time>
      </trkpt>
      <trkpt lat="45.03267" lon="5.49626">
        <ele>1314</ele>
        <time>2000-01-01T09:25:19.000Z</time>
      </trkpt>
      <trkpt lat="45.03252" lon="5.49609">
        <ele>1314</ele>
        <time>2000-01-01T09:25:29.000Z</time>
      </trkpt>
      <trkpt lat="45.03224" lon="5.49608">
        <ele>1314</ele>
        <time>2000-01-01T09:25:39.000Z</time>
      </trkpt>
      <trkpt lat="45.03205" lon="5.49609">
        <ele>1313</ele>
        <time>2000-01-01T09:25:49.000Z</time>
      </trkpt>
      <trkpt lat="45.0319" lon="5.49601">
        <ele>1313</ele>
        <time>2000-01-01T09:25:59.000Z</time>
      </trkpt>
      <trkpt lat="45.03179" lon="5.49581">
        <ele>1314</ele>
        <time>2000-01-01T09:26:09.000Z</time>
      </trkpt>
      <trkpt lat="45.03147" lon="5.49539">
        <ele>1323</ele>
        <time>2000-01-01T09:26:19.000Z</time>
      </trkpt>
      <trkpt lat="45.03133" lon="5.49534">
        <ele>1323</ele>
        <time>2000-01-01T09:26:29.000Z</time>
      </trkpt>
      <trkpt lat="45.03118" lon="5.49535">
        <ele>1323</ele>
        <time>2000-01-01T09:26:39.000Z</time>
      </trkpt>
      <trkpt lat="45.03094" lon="5.49541">
        <ele>1320</ele>
        <time>2000-01-01T09:26:49.000Z</time>
      </trkpt>
      <trkpt lat="45.03059" lon="5.49555">
        <ele>1319</ele>
        <time>2000-01-01T09:26:59.000Z</time>
      </trkpt>
      <trkpt lat="45.03021" lon="5.49574">
        <ele>1316</ele>
        <time>2000-01-01T09:27:09.000Z</time>
      </trkpt>
      <trkpt lat="45.03009" lon="5.49576">
        <ele>1316</ele>
        <time>2000-01-01T09:27:19.000Z</time>
      </trkpt>
      <trkpt lat="45.02986" lon="5.49559">
        <ele>1316</ele>
        <time>2000-01-01T09:27:29.000Z</time>
      </trkpt>
      <trkpt lat="45.02971" lon="5.49552">
        <ele>1317</ele>
        <time>2000-01-01T09:27:39.000Z</time>
      </trkpt>
      <trkpt lat="45.02947" lon="5.49551">
        <ele>1317</ele>
        <time>2000-01-01T09:27:49.000Z</time>
      </trkpt>
      <trkpt lat="45.02911" lon="5.49558">
        <ele>1317</ele>
        <time>2000-01-01T09:27:59.000Z</time>
      </trkpt>
      <trkpt lat="45.02885" lon="5.4957">
        <ele>1316</ele>
        <time>2000-01-01T09:28:09.000Z</time>
      </trkpt>
      <trkpt lat="45.02863" lon="5.49591">
        <ele>1314</ele>
        <time>2000-01-01T09:28:19.000Z</time>
      </trkpt>
      <trkpt lat="45.02841" lon="5.49622">
        <ele>1313</ele>
        <time>2000-01-01T09:28:29.000Z</time>
      </trkpt>
      <trkpt lat="45.02812" lon="5.49655">
        <ele>1313</ele>
        <time>2000-01-01T09:28:39.000Z</time>
      </trkpt>
      <trkpt lat="45.02787" lon="5.49663">
        <ele>1313</ele>
        <time>2000-01-01T09:28:49.000Z</time>
      </trkpt>
      <trkpt lat="45.02761" lon="5.49661">
        <ele>1313</ele>
        <time>2000-01-01T09:28:59.000Z</time>
      </trkpt>
      <trkpt lat="45.02731" lon="5.49659">
        <ele>1312</ele>
        <time>2000-01-01T09:29:09.000Z</time>
      </trkpt>
      <trkpt lat="45.027" lon="5.49663">
        <ele>1312</ele>
        <time>2000-01-01T09:29:19.000Z</time>
      </trkpt>
      <trkpt lat="45.02671" lon="5.49682">
        <ele>1313</ele>
        <time>2000-01-01T09:29:29.000Z</time>
      </trkpt>
      <trkpt lat="45.02642" lon="5.49701">
        <ele>1315</ele>
        <time>2000-01-01T09:29:39.000Z</time>
      </trkpt>
      <trkpt lat="45.02612" lon="5.4972">
        <ele>1315</ele>
        <time>2000-01-01T09:29:49.000Z</time>
      </trkpt>
      <trkpt lat="45.02598" lon="5.4972">
        <ele>1315</ele>
        <time>2000-01-01T09:29:59.000Z</time>
      </trkpt>
      <trkpt lat="45.02586" lon="5.49708">
        <ele>1315</ele>
        <time>2000-01-01T09:30:09.000Z</time>
      </trkpt>
      <trkpt lat="45.02568" lon="5.4973">
        <ele>1316</ele>
        <time>2000-01-01T09:30:19.000Z</time>
      </trkpt>
      <trkpt lat="45.02536" lon="5.49763">
        <ele>1317</ele>
        <time>2000-01-01T09:30:29.000Z</time>
      </trkpt>
      <trkpt lat="45.02512" lon="5.49769">
        <ele>1317</ele>
        <time>2000-01-01T09:30:39.000Z</time>
      </trkpt>
      <trkpt lat="45.02503" lon="5.49778">
        <ele>1317</ele>
        <time>2000-01-01T09:30:49.000Z</time>
      </trkpt>
      <trkpt lat="45.02496" lon="5.49798">
        <ele>1317</ele>
        <time>2000-01-01T09:30:59.000Z</time>
      </trkpt>
      <trkpt lat="45.02502" lon="5.49816">
        <ele>1316</ele>
        <time>2000-01-01T09:31:09.000Z</time>
      </trkpt>
      <trkpt lat="45.02494" lon="5.49845">
        <ele>1313</ele>
        <time>2000-01-01T09:31:19.000Z</time>
      </trkpt>
      <trkpt lat="45.0247" lon="5.49886">
        <ele>1307</ele>
        <time>2000-01-01T09:31:29.000Z</time>
      </trkpt>
      <trkpt lat="45.02448" lon="5.49934">
        <ele>1299</ele>
        <time>2000-01-01T09:31:39.000Z</time>
      </trkpt>
      <trkpt lat="45.02422" lon="5.49986">
        <ele>1290</ele>
        <time>2000-01-01T09:31:49.000Z</time>
      </trkpt>
      <trkpt lat="45.02414" lon="5.50019">
        <ele>1285</ele>
        <time>2000-01-01T09:31:59.000Z</time>
      </trkpt>
      <trkpt lat="45.02412" lon="5.50051">
        <ele>1279</ele>
        <time>2000-01-01T09:32:09.000Z</time>
      </trkpt>
      <trkpt lat="45.02403" lon="5.50082">
        <ele>1275</ele>
        <time>2000-01-01T09:32:19.000Z</time>
      </trkpt>
      <trkpt lat="45.02396" lon="5.50094">
        <ele>1275</ele>
        <time>2000-01-01T09:32:29.000Z</time>
      </trkpt>
      <trkpt lat="45.02411" lon="5.50082">
        <ele>1275</ele>
        <time>2000-01-01T09:32:39.000Z</time>
      </trkpt>
      <trkpt lat="45.02428" lon="5.50055">
        <ele>1279</ele>
        <time>2000-01-01T09:32:49.000Z</time>
      </trkpt>
      <trkpt lat="45.02439" lon="5.50045">
        <ele>1279</ele>
        <time>2000-01-01T09:32:59.000Z</time>
      </trkpt>
      <trkpt lat="45.02428" lon="5.50055">
        <ele>1279</ele>
        <time>2000-01-01T09:33:09.000Z</time>
      </trkpt>
      <trkpt lat="45.02411" lon="5.50082">
        <ele>1275</ele>
        <time>2000-01-01T09:33:19.000Z</time>
      </trkpt>
      <trkpt lat="45.02396" lon="5.50094">
        <ele>1273</ele>
        <time>2000-01-01T09:33:29.000Z</time>
      </trkpt>
      <trkpt lat="45.02392" lon="5.50101">
        <ele>1272</ele>
        <time>2000-01-01T09:33:39.000Z</time>
      </trkpt>
      <trkpt lat="45.02367" lon="5.50111">
        <ele>1269</ele>
        <time>2000-01-01T09:33:49.000Z</time>
      </trkpt>
      <trkpt lat="45.02346" lon="5.50123">
        <ele>1266</ele>
        <time>2000-01-01T09:33:59.000Z</time>
      </trkpt>
      <trkpt lat="45.02319" lon="5.50148">
        <ele>1260</ele>
        <time>2000-01-01T09:34:09.000Z</time>
      </trkpt>
      <trkpt lat="45.02306" lon="5.50171">
        <ele>1252</ele>
        <time>2000-01-01T09:34:19.000Z</time>
      </trkpt>
      <trkpt lat="45.02282" lon="5.50201">
        <ele>1244</ele>
        <time>2000-01-01T09:34:29.000Z</time>
      </trkpt>
      <trkpt lat="45.02258" lon="5.5022">
        <ele>1239</ele>
        <time>2000-01-01T09:34:39.000Z</time>
      </trkpt>
      <trkpt lat="45.02236" lon="5.50233">
        <ele>1236</ele>
        <time>2000-01-01T09:34:49.000Z</time>
      </trkpt>
      <trkpt lat="45.02223" lon="5.50251">
        <ele>1235</ele>
        <time>2000-01-01T09:34:59.000Z</time>
      </trkpt>
      <trkpt lat="45.02208" lon="5.50287">
        <ele>1234</ele>
        <time>2000-01-01T09:35:09.000Z</time>
      </trkpt>
      <trkpt lat="45.02195" lon="5.5032">
        <ele>1233</ele>
        <time>2000-01-01T09:35:19.000Z</time>
      </trkpt>
      <trkpt lat="45.02182" lon="5.50343">
        <ele>1231</ele>
        <time>2000-01-01T09:35:29.000Z</time>
      </trkpt>
      <trkpt lat="45.02178" lon="5.5038">
        <ele>1230</ele>
        <time>2000-01-01T09:35:39.000Z</time>
      </trkpt>
      <trkpt lat="45.02174" lon="5.50426">
        <ele>1228</ele>
        <time>2000-01-01T09:35:49.000Z</time>
      </trkpt>
      <trkpt lat="45.0216" lon="5.50455">
        <ele>1226</ele>
        <time>2000-01-01T09:35:59.000Z</time>
      </trkpt>
      <trkpt lat="45.02142" lon="5.50488">
        <ele>1223</ele>
        <time>2000-01-01T09:36:09.000Z</time>
      </trkpt>
      <trkpt lat="45.02138" lon="5.50516">
        <ele>1220</ele>
        <time>2000-01-01T09:36:19.000Z</time>
      </trkpt>
      <trkpt lat="45.02138" lon="5.50534">
        <ele>1219</ele>
        <time>2000-01-01T09:36:29.000Z</time>
      </trkpt>
      <trkpt lat="45.02124" lon="5.50576">
        <ele>1214</ele>
        <time>2000-01-01T09:36:39.000Z</time>
      </trkpt>
      <trkpt lat="45.02111" lon="5.50607">
        <ele>1210</ele>
        <time>2000-01-01T09:36:49.000Z</time>
      </trkpt>
      <trkpt lat="45.02108" lon="5.5063">
        <ele>1207</ele>
        <time>2000-01-01T09:36:59.000Z</time>
      </trkpt>
      <trkpt lat="45.02111" lon="5.5067">
        <ele>1204</ele>
        <time>2000-01-01T09:37:09.000Z</time>
      </trkpt>
      <trkpt lat="45.0211" lon="5.507">
        <ele>1201</ele>
        <time>2000-01-01T09:37:19.000Z</time>
      </trkpt>
      <trkpt lat="45.02108" lon="5.50704">
        <ele>1201.9</ele>
        <time>2000-01-01T09:37:29.000Z</time>
      </trkpt>
      <trkpt lat="45.02111" lon="5.50734">
        <ele>1200</ele>
        <time>2000-01-01T09:37:39.000Z</time>
      </trkpt>
      <trkpt lat="45.02113" lon="5.50739">
        <ele>1200.7</ele>
        <time>2000-01-01T09:37:49.000Z</time>
      </trkpt>
      <trkpt lat="45.02109" lon="5.50735">
        <ele>1199</ele>
        <time>2000-01-01T09:37:59.000Z</time>
      </trkpt>
      <trkpt lat="45.02104" lon="5.50733">
        <ele>1199.8</ele>
        <time>2000-01-01T09:38:09.000Z</time>
      </trkpt>
      <trkpt lat="45.02097" lon="5.50729">
        <ele>1198</ele>
        <time>2000-01-01T09:38:19.000Z</time>
      </trkpt>
      <trkpt lat="45.02076" lon="5.50737">
        <ele>1196</ele>
        <time>2000-01-01T09:38:29.000Z</time>
      </trkpt>
      <trkpt lat="45.02062" lon="5.50758">
        <ele>1196</ele>
        <time>2000-01-01T09:38:39.000Z</time>
      </trkpt>
      <trkpt lat="45.0205" lon="5.50789">
        <ele>1196</ele>
        <time>2000-01-01T09:38:49.000Z</time>
      </trkpt>
      <trkpt lat="45.0204" lon="5.50826">
        <ele>1194</ele>
        <time>2000-01-01T09:38:59.000Z</time>
      </trkpt>
      <trkpt lat="45.02026" lon="5.50881">
        <ele>1192</ele>
        <time>2000-01-01T09:39:09.000Z</time>
      </trkpt>
      <trkpt lat="45.0201" lon="5.50939">
        <ele>1191</ele>
        <time>2000-01-01T09:39:19.000Z</time>
      </trkpt>
      <trkpt lat="45.02009" lon="5.50956">
        <ele>1191</ele>
        <time>2000-01-01T09:39:29.000Z</time>
      </trkpt>
      <trkpt lat="45.0201" lon="5.50939">
        <ele>1191</ele>
        <time>2000-01-01T09:39:39.000Z</time>
      </trkpt>
      <trkpt lat="45.02003" lon="5.50941">
        <ele>1191</ele>
        <time>2000-01-01T09:39:49.000Z</time>
      </trkpt>
      <trkpt lat="45.01996" lon="5.50941">
        <ele>1192</ele>
        <time>2000-01-01T09:39:59.000Z</time>
      </trkpt>
      <trkpt lat="45.01989" lon="5.50938">
        <ele>1193</ele>
        <time>2000-01-01T09:40:09.000Z</time>
      </trkpt>
      <trkpt lat="45.0198" lon="5.50928">
        <ele>1194</ele>
        <time>2000-01-01T09:40:19.000Z</time>
      </trkpt>
      <trkpt lat="45.01961" lon="5.50897">
        <ele>1197</ele>
        <time>2000-01-01T09:40:29.000Z</time>
      </trkpt>
      <trkpt lat="45.01951" lon="5.50885">
        <ele>1199</ele>
        <time>2000-01-01T09:40:39.000Z</time>
      </trkpt>
      <trkpt lat="45.01935" lon="5.50872">
        <ele>1203</ele>
        <time>2000-01-01T09:40:49.000Z</time>
      </trkpt>
      <trkpt lat="45.01924" lon="5.50869">
        <ele>1203</ele>
        <time>2000-01-01T09:40:59.000Z</time>
      </trkpt>
      <trkpt lat="45.01913" lon="5.50872">
        <ele>1204</ele>
        <time>2000-01-01T09:41:09.000Z</time>
      </trkpt>
      <trkpt lat="45.01898" lon="5.50879">
        <ele>1204</ele>
        <time>2000-01-01T09:41:19.000Z</time>
      </trkpt>
      <trkpt lat="45.01889" lon="5.50884">
        <ele>1205</ele>
        <time>2000-01-01T09:41:29.000Z</time>
      </trkpt>
      <trkpt lat="45.01881" lon="5.50885">
        <ele>1205</ele>
        <time>2000-01-01T09:41:39.000Z</time>
      </trkpt>
      <trkpt lat="45.01866" lon="5.50876">
        <ele>1206</ele>
        <time>2000-01-01T09:41:49.000Z</time>
      </trkpt>
      <trkpt lat="45.0183" lon="5.50866">
        <ele>1207</ele>
        <time>2000-01-01T09:41:59.000Z</time>
      </trkpt>
      <trkpt lat="45.01823" lon="5.50862">
        <ele>1207</ele>
        <time>2000-01-01T09:42:09.000Z</time>
      </trkpt>
      <trkpt lat="45.01811" lon="5.50848">
        <ele>1208</ele>
        <time>2000-01-01T09:42:19.000Z</time>
      </trkpt>
      <trkpt lat="45.01793" lon="5.50833">
        <ele>1209</ele>
        <time>2000-01-01T09:42:29.000Z</time>
      </trkpt>
      <trkpt lat="45.01783" lon="5.50827">
        <ele>1209</ele>
        <time>2000-01-01T09:42:39.000Z</time>
      </trkpt>
      <trkpt lat="45.01772" lon="5.50826">
        <ele>1209</ele>
        <time>2000-01-01T09:42:49.000Z</time>
      </trkpt>
      <trkpt lat="45.01758" lon="5.5083">
        <ele>1209</ele>
        <time>2000-01-01T09:42:59.000Z</time>
      </trkpt>
      <trkpt lat="45.01726" lon="5.50819">
        <ele>1209</ele>
        <time>2000-01-01T09:43:09.000Z</time>
      </trkpt>
      <trkpt lat="45.0171" lon="5.50821">
        <ele>1208</ele>
        <time>2000-01-01T09:43:19.000Z</time>
      </trkpt>
      <trkpt lat="45.01674" lon="5.50812">
        <ele>1208</ele>
        <time>2000-01-01T09:43:29.000Z</time>
      </trkpt>
      <trkpt lat="45.0165" lon="5.50816">
        <ele>1208</ele>
        <time>2000-01-01T09:43:39.000Z</time>
      </trkpt>
      <trkpt lat="45.01634" lon="5.50822">
        <ele>1207</ele>
        <time>2000-01-01T09:43:49.000Z</time>
      </trkpt>
      <trkpt lat="45.01616" lon="5.5083">
        <ele>1207</ele>
        <time>2000-01-01T09:43:59.000Z</time>
      </trkpt>
      <trkpt lat="45.01601" lon="5.50821">
        <ele>1207</ele>
        <time>2000-01-01T09:44:09.000Z</time>
      </trkpt>
      <trkpt lat="45.01581" lon="5.50811">
        <ele>1208</ele>
        <time>2000-01-01T09:44:19.000Z</time>
      </trkpt>
      <trkpt lat="45.01558" lon="5.50798">
        <ele>1209</ele>
        <time>2000-01-01T09:44:29.000Z</time>
      </trkpt>
      <trkpt lat="45.01546" lon="5.50789">
        <ele>1209</ele>
        <time>2000-01-01T09:44:39.000Z</time>
      </trkpt>
      <trkpt lat="45.0152" lon="5.50762">
        <ele>1210</ele>
        <time>2000-01-01T09:44:49.000Z</time>
      </trkpt>
      <trkpt lat="45.01508" lon="5.50739">
        <ele>1212</ele>
        <time>2000-01-01T09:44:59.000Z</time>
      </trkpt>
      <trkpt lat="45.01482" lon="5.507">
        <ele>1215</ele>
        <time>2000-01-01T09:45:09.000Z</time>
      </trkpt>
      <trkpt lat="45.01462" lon="5.50676">
        <ele>1218</ele>
        <time>2000-01-01T09:45:19.000Z</time>
      </trkpt>
      <trkpt lat="45.01432" lon="5.50646">
        <ele>1222</ele>
        <time>2000-01-01T09:45:29.000Z</time>
      </trkpt>
      <trkpt lat="45.01409" lon="5.50619">
        <ele>1228</ele>
        <time>2000-01-01T09:45:39.000Z</time>
      </trkpt>
      <trkpt lat="45.01377" lon="5.50588">
        <ele>1233</ele>
        <time>2000-01-01T09:45:49.000Z</time>
      </trkpt>
      <trkpt lat="45.01348" lon="5.50563">
        <ele>1236</ele>
        <time>2000-01-01T09:45:59.000Z</time>
      </trkpt>
      <trkpt lat="45.01318" lon="5.50547">
        <ele>1240</ele>
        <time>2000-01-01T09:46:09.000Z</time>
      </trkpt>
      <trkpt lat="45.01275" lon="5.50527">
        <ele>1245</ele>
        <time>2000-01-01T09:46:19.000Z</time>
      </trkpt>
      <trkpt lat="45.01246" lon="5.5051">
        <ele>1249</ele>
        <time>2000-01-01T09:46:29.000Z</time>
      </trkpt>
      <trkpt lat="45.01222" lon="5.50495">
        <ele>1251</ele>
        <time>2000-01-01T09:46:39.000Z</time>
      </trkpt>
      <trkpt lat="45.01193" lon="5.50477">
        <ele>1255</ele>
        <time>2000-01-01T09:46:49.000Z</time>
      </trkpt>
      <trkpt lat="45.0117" lon="5.50463">
        <ele>1258</ele>
        <time>2000-01-01T09:46:59.000Z</time>
      </trkpt>
      <trkpt lat="45.01146" lon="5.50447">
        <ele>1262</ele>
        <time>2000-01-01T09:47:09.000Z</time>
      </trkpt>
      <trkpt lat="45.01117" lon="5.50432">
        <ele>1264</ele>
        <time>2000-01-01T09:47:19.000Z</time>
      </trkpt>
      <trkpt lat="45.01093" lon="5.50424">
        <ele>1266</ele>
        <time>2000-01-01T09:47:29.000Z</time>
      </trkpt>
      <trkpt lat="45.01068" lon="5.50415">
        <ele>1265</ele>
        <time>2000-01-01T09:47:39.000Z</time>
      </trkpt>
      <trkpt lat="45.01034" lon="5.50458">
        <ele>1264</ele>
        <time>2000-01-01T09:47:49.000Z</time>
      </trkpt>
      <trkpt lat="45.01032" lon="5.50503">
        <ele>1259</ele>
        <time>2000-01-01T09:47:59.000Z</time>
      </trkpt>
      <trkpt lat="45.01052" lon="5.50529">
        <ele>1256</ele>
        <time>2000-01-01T09:48:09.000Z</time>
      </trkpt>
      <trkpt lat="45.01036" lon="5.5058">
        <ele>1250</ele>
        <time>2000-01-01T09:48:19.000Z</time>
      </trkpt>
      <trkpt lat="45.01062" lon="5.50614">
        <ele>1244</ele>
        <time>2000-01-01T09:48:29.000Z</time>
      </trkpt>
      <trkpt lat="45.01076" lon="5.50645">
        <ele>1240</ele>
        <time>2000-01-01T09:48:39.000Z</time>
      </trkpt>
      <trkpt lat="45.01092" lon="5.50682">
        <ele>1235</ele>
        <time>2000-01-01T09:48:49.000Z</time>
      </trkpt>
      <trkpt lat="45.01078" lon="5.50724">
        <ele>1231</ele>
        <time>2000-01-01T09:48:59.000Z</time>
      </trkpt>
      <trkpt lat="45.01085" lon="5.50757">
        <ele>1229</ele>
        <time>2000-01-01T09:49:09.000Z</time>
      </trkpt>
      <trkpt lat="45.01092" lon="5.50792">
        <ele>1225</ele>
        <time>2000-01-01T09:49:19.000Z</time>
      </trkpt>
      <trkpt lat="45.01101" lon="5.50797">
        <ele>1225</ele>
        <time>2000-01-01T09:49:29.000Z</time>
      </trkpt>
      <trkpt lat="45.01113" lon="5.50786">
        <ele>1225</ele>
        <time>2000-01-01T09:49:39.000Z</time>
      </trkpt>
      <trkpt lat="45.01141" lon="5.5078">
        <ele>1224</ele>
        <time>2000-01-01T09:49:49.000Z</time>
      </trkpt>
      <trkpt lat="45.01172" lon="5.5079">
        <ele>1224</ele>
        <time>2000-01-01T09:49:59.000Z</time>
      </trkpt>
      <trkpt lat="45.01185" lon="5.50799">
        <ele>1223</ele>
        <time>2000-01-01T09:50:09.000Z</time>
      </trkpt>
      <trkpt lat="45.01196" lon="5.50812">
        <ele>1221</ele>
        <time>2000-01-01T09:50:19.000Z</time>
      </trkpt>
      <trkpt lat="45.01211" lon="5.50817">
        <ele>1220</ele>
        <time>2000-01-01T09:50:29.000Z</time>
      </trkpt>
      <trkpt lat="45.01231" lon="5.50837">
        <ele>1219</ele>
        <time>2000-01-01T09:50:39.000Z</time>
      </trkpt>
      <trkpt lat="45.01251" lon="5.50857">
        <ele>1216</ele>
        <time>2000-01-01T09:50:49.000Z</time>
      </trkpt>
      <trkpt lat="45.01266" lon="5.50883">
        <ele>1213</ele>
        <time>2000-01-01T09:50:59.000Z</time>
      </trkpt>
      <trkpt lat="45.01268" lon="5.50923">
        <ele>1210</ele>
        <time>2000-01-01T09:51:09.000Z</time>
      </trkpt>
      <trkpt lat="45.01272" lon="5.50951">
        <ele>1207</ele>
        <time>2000-01-01T09:51:19.000Z</time>
      </trkpt>
      <trkpt lat="45.01285" lon="5.50982">
        <ele>1205</ele>
        <time>2000-01-01T09:51:29.000Z</time>
      </trkpt>
      <trkpt lat="45.01294" lon="5.50997">
        <ele>1204</ele>
        <time>2000-01-01T09:51:39.000Z</time>
      </trkpt>
      <trkpt lat="45.01303" lon="5.51003">
        <ele>1203</ele>
        <time>2000-01-01T09:51:49.000Z</time>
      </trkpt>
      <trkpt lat="45.01297" lon="5.5101">
        <ele>1203</ele>
        <time>2000-01-01T09:51:59.000Z</time>
      </trkpt>
      <trkpt lat="45.0129" lon="5.51023">
        <ele>1202</ele>
        <time>2000-01-01T09:52:09.000Z</time>
      </trkpt>
      <trkpt lat="45.01298" lon="5.51032">
        <ele>1201</ele>
        <time>2000-01-01T09:52:19.000Z</time>
      </trkpt>
      <trkpt lat="45.01312" lon="5.51056">
        <ele>1200</ele>
        <time>2000-01-01T09:52:29.000Z</time>
      </trkpt>
      <trkpt lat="45.0132" lon="5.51063">
        <ele>1199</ele>
        <time>2000-01-01T09:52:39.000Z</time>
      </trkpt>
      <trkpt lat="45.01333" lon="5.5107">
        <ele>1198</ele>
        <time>2000-01-01T09:52:49.000Z</time>
      </trkpt>
      <trkpt lat="45.01344" lon="5.51081">
        <ele>1197</ele>
        <time>2000-01-01T09:52:59.000Z</time>
      </trkpt>
      <trkpt lat="45.01366" lon="5.51115">
        <ele>1196</ele>
        <time>2000-01-01T09:53:09.000Z</time>
      </trkpt>
      <trkpt lat="45.01374" lon="5.51124">
        <ele>1195</ele>
        <time>2000-01-01T09:53:19.000Z</time>
      </trkpt>
      <trkpt lat="45.01415" lon="5.51157">
        <ele>1193</ele>
        <time>2000-01-01T09:53:29.000Z</time>
      </trkpt>
      <trkpt lat="45.01427" lon="5.51169">
        <ele>1192</ele>
        <time>2000-01-01T09:53:39.000Z</time>
      </trkpt>
      <trkpt lat="45.01443" lon="5.51181">
        <ele>1191</ele>
        <time>2000-01-01T09:53:49.000Z</time>
      </trkpt>
      <trkpt lat="45.01457" lon="5.51199">
        <ele>1190</ele>
        <time>2000-01-01T09:53:59.000Z</time>
      </trkpt>
      <trkpt lat="45.01462" lon="5.51214">
        <ele>1190</ele>
        <time>2000-01-01T09:54:09.000Z</time>
      </trkpt>
      <trkpt lat="45.01485" lon="5.51238">
        <ele>1190</ele>
        <time>2000-01-01T09:54:19.000Z</time>
      </trkpt>
      <trkpt lat="45.01504" lon="5.51246">
        <ele>1188</ele>
        <time>2000-01-01T09:54:29.000Z</time>
      </trkpt>
      <trkpt lat="45.01514" lon="5.51249">
        <ele>1188</ele>
        <time>2000-01-01T09:54:39.000Z</time>
      </trkpt>
      <trkpt lat="45.01514" lon="5.51253">
        <ele>1187.9</ele>
        <time>2000-01-01T09:54:49.000Z</time>
      </trkpt>
      <trkpt lat="45.01516" lon="5.51263">
        <ele>1187</ele>
        <time>2000-01-01T09:54:59.000Z</time>
      </trkpt>
      <trkpt lat="45.01519" lon="5.51266">
        <ele>1188.7</ele>
        <time>2000-01-01T09:55:09.000Z</time>
      </trkpt>
      <trkpt lat="45.01526" lon="5.5127">
        <ele>1187</ele>
        <time>2000-01-01T09:55:19.000Z</time>
      </trkpt>
      <trkpt lat="45.0155" lon="5.51273">
        <ele>1185</ele>
        <time>2000-01-01T09:55:29.000Z</time>
      </trkpt>
      <trkpt lat="45.01558" lon="5.51276">
        <ele>1182</ele>
        <time>2000-01-01T09:55:39.000Z</time>
      </trkpt>
      <trkpt lat="45.01571" lon="5.51284">
        <ele>1180</ele>
        <time>2000-01-01T09:55:49.000Z</time>
      </trkpt>
      <trkpt lat="45.01607" lon="5.51314">
        <ele>1179</ele>
        <time>2000-01-01T09:55:59.000Z</time>
      </trkpt>
      <trkpt lat="45.01633" lon="5.51322">
        <ele>1176</ele>
        <time>2000-01-01T09:56:09.000Z</time>
      </trkpt>
      <trkpt lat="45.01651" lon="5.51334">
        <ele>1174</ele>
        <time>2000-01-01T09:56:19.000Z</time>
      </trkpt>
      <trkpt lat="45.01666" lon="5.51346">
        <ele>1174</ele>
        <time>2000-01-01T09:56:29.000Z</time>
      </trkpt>
      <trkpt lat="45.01676" lon="5.51355">
        <ele>1173</ele>
        <time>2000-01-01T09:56:39.000Z</time>
      </trkpt>
      <trkpt lat="45.01695" lon="5.51383">
        <ele>1173</ele>
        <time>2000-01-01T09:56:49.000Z</time>
      </trkpt>
      <trkpt lat="45.01722" lon="5.51421">
        <ele>1171</ele>
        <time>2000-01-01T09:56:59.000Z</time>
      </trkpt>
      <trkpt lat="45.01727" lon="5.51426">
        <ele>1171.2</ele>
        <time>2000-01-01T09:57:09.000Z</time>
      </trkpt>
      <trkpt lat="45.01772" lon="5.51446">
        <ele>1170</ele>
        <time>2000-01-01T09:57:19.000Z</time>
      </trkpt>
      <trkpt lat="45.01799" lon="5.51456">
        <ele>1170</ele>
        <time>2000-01-01T09:57:29.000Z</time>
      </trkpt>
      <trkpt lat="45.01836" lon="5.5147">
        <ele>1170</ele>
        <time>2000-01-01T09:57:39.000Z</time>
      </trkpt>
      <trkpt lat="45.01853" lon="5.51483">
        <ele>1170</ele>
        <time>2000-01-01T09:57:49.000Z</time>
      </trkpt>
      <trkpt lat="45.01873" lon="5.51505">
        <ele>1170</ele>
        <time>2000-01-01T09:57:59.000Z</time>
      </trkpt>
      <trkpt lat="45.01896" lon="5.51531">
        <ele>1170</ele>
        <time>2000-01-01T09:58:09.000Z</time>
      </trkpt>
      <trkpt lat="45.01904" lon="5.51536">
        <ele>1170</ele>
        <time>2000-01-01T09:58:19.000Z</time>
      </trkpt>
      <trkpt lat="45.01922" lon="5.51541">
        <ele>1169</ele>
        <time>2000-01-01T09:58:29.000Z</time>
      </trkpt>
      <trkpt lat="45.01943" lon="5.51541">
        <ele>1169</ele>
        <time>2000-01-01T09:58:39.000Z</time>
      </trkpt>
      <trkpt lat="45.01949" lon="5.51543">
        <ele>1168.8</ele>
        <time>2000-01-01T09:58:49.000Z</time>
      </trkpt>
      <trkpt lat="45.01962" lon="5.51539">
        <ele>1167</ele>
        <time>2000-01-01T09:58:59.000Z</time>
      </trkpt>
      <trkpt lat="45.01992" lon="5.5154">
        <ele>1166</ele>
        <time>2000-01-01T09:59:09.000Z</time>
      </trkpt>
      <trkpt lat="45.02033" lon="5.51548">
        <ele>1164</ele>
        <time>2000-01-01T09:59:19.000Z</time>
      </trkpt>
      <trkpt lat="45.0205" lon="5.51562">
        <ele>1163</ele>
        <time>2000-01-01T09:59:29.000Z</time>
      </trkpt>
      <trkpt lat="45.02069" lon="5.51573">
        <ele>1161</ele>
        <time>2000-01-01T09:59:39.000Z</time>
      </trkpt>
      <trkpt lat="45.02078" lon="5.51584">
        <ele>1160</ele>
        <time>2000-01-01T09:59:49.000Z</time>
      </trkpt>
      <trkpt lat="45.02084" lon="5.51597">
        <ele>1159</ele>
        <time>2000-01-01T09:59:59.000Z</time>
      </trkpt>
      <trkpt lat="45.02088" lon="5.5162">
        <ele>1159</ele>
        <time>2000-01-01T10:00:09.000Z</time>
      </trkpt>
      <trkpt lat="45.02095" lon="5.51635">
        <ele>1158</ele>
        <time>2000-01-01T10:00:19.000Z</time>
      </trkpt>
      <trkpt lat="45.02111" lon="5.51653">
        <ele>1157</ele>
        <time>2000-01-01T10:00:29.000Z</time>
      </trkpt>
      <trkpt lat="45.02122" lon="5.51662">
        <ele>1157</ele>
        <time>2000-01-01T10:00:39.000Z</time>
      </trkpt>
      <trkpt lat="45.02167" lon="5.51679">
        <ele>1155</ele>
        <time>2000-01-01T10:00:49.000Z</time>
      </trkpt>
      <trkpt lat="45.02203" lon="5.51699">
        <ele>1153</ele>
        <time>2000-01-01T10:00:59.000Z</time>
      </trkpt>
      <trkpt lat="45.0222" lon="5.51711">
        <ele>1153</ele>
        <time>2000-01-01T10:01:09.000Z</time>
      </trkpt>
      <trkpt lat="45.02239" lon="5.51719">
        <ele>1152</ele>
        <time>2000-01-01T10:01:19.000Z</time>
      </trkpt>
      <trkpt lat="45.02263" lon="5.5172">
        <ele>1150</ele>
        <time>2000-01-01T10:01:29.000Z</time>
      </trkpt>
      <trkpt lat="45.02301" lon="5.51737">
        <ele>1148</ele>
        <time>2000-01-01T10:01:39.000Z</time>
      </trkpt>
      <trkpt lat="45.02322" lon="5.51744">
        <ele>1147</ele>
        <time>2000-01-01T10:01:49.000Z</time>
      </trkpt>
      <trkpt lat="45.02335" lon="5.51746">
        <ele>1146</ele>
        <time>2000-01-01T10:01:59.000Z</time>
      </trkpt>
      <trkpt lat="45.02338" lon="5.51737">
        <ele>1146</ele>
        <time>2000-01-01T10:02:09.000Z</time>
      </trkpt>
      <trkpt lat="45.02331" lon="5.51728">
        <ele>1147</ele>
        <time>2000-01-01T10:02:19.000Z</time>
      </trkpt>
      <trkpt lat="45.02328" lon="5.51722">
        <ele>1147.2</ele>
        <time>2000-01-01T10:02:29.000Z</time>
      </trkpt>
      <trkpt lat="45.02353" lon="5.51673">
        <ele>1152</ele>
        <time>2000-01-01T10:02:39.000Z</time>
      </trkpt>
      <trkpt lat="45.02363" lon="5.5165">
        <ele>1156</ele>
        <time>2000-01-01T10:02:49.000Z</time>
      </trkpt>
      <trkpt lat="45.02385" lon="5.51596">
        <ele>1163</ele>
        <time>2000-01-01T10:02:59.000Z</time>
      </trkpt>
      <trkpt lat="45.02418" lon="5.51584">
        <ele>1165</ele>
        <time>2000-01-01T10:03:09.000Z</time>
      </trkpt>
      <trkpt lat="45.02452" lon="5.51572">
        <ele>1168</ele>
        <time>2000-01-01T10:03:19.000Z</time>
      </trkpt>
      <trkpt lat="45.02476" lon="5.51562">
        <ele>1170</ele>
        <time>2000-01-01T10:03:29.000Z</time>
      </trkpt>
      <trkpt lat="45.02505" lon="5.51552">
        <ele>1172</ele>
        <time>2000-01-01T10:03:39.000Z</time>
      </trkpt>
      <trkpt lat="45.02538" lon="5.51541">
        <ele>1174</ele>
        <time>2000-01-01T10:03:49.000Z</time>
      </trkpt>
      <trkpt lat="45.02572" lon="5.51529">
        <ele>1177</ele>
        <time>2000-01-01T10:03:59.000Z</time>
      </trkpt>
      <trkpt lat="45.02597" lon="5.51521">
        <ele>1179</ele>
        <time>2000-01-01T10:04:09.000Z</time>
      </trkpt>
      <trkpt lat="45.02626" lon="5.51511">
        <ele>1181</ele>
        <time>2000-01-01T10:04:19.000Z</time>
      </trkpt>
      <trkpt lat="45.02646" lon="5.51512">
        <ele>1182</ele>
        <time>2000-01-01T10:04:29.000Z</time>
      </trkpt>
      <trkpt lat="45.02653" lon="5.51511">
        <ele>1182</ele>
        <time>2000-01-01T10:04:39.000Z</time>
      </trkpt>
      <trkpt lat="45.0266" lon="5.51504">
        <ele>1182</ele>
        <time>2000-01-01T10:04:49.000Z</time>
      </trkpt>
      <trkpt lat="45.02669" lon="5.51489">
        <ele>1182</ele>
        <time>2000-01-01T10:04:59.000Z</time>
      </trkpt>
      <trkpt lat="45.02678" lon="5.5147">
        <ele>1183</ele>
        <time>2000-01-01T10:05:09.000Z</time>
      </trkpt>
      <trkpt lat="45.02684" lon="5.51452">
        <ele>1183</ele>
        <time>2000-01-01T10:05:19.000Z</time>
      </trkpt>
      <trkpt lat="45.02678" lon="5.5147">
        <ele>1183</ele>
        <time>2000-01-01T10:05:29.000Z</time>
      </trkpt>
      <trkpt lat="45.02669" lon="5.51489">
        <ele>1183</ele>
        <time>2000-01-01T10:05:39.000Z</time>
      </trkpt>
      <trkpt lat="45.02686" lon="5.51488">
        <ele>1184</ele>
        <time>2000-01-01T10:05:49.000Z</time>
      </trkpt>
      <trkpt lat="45.02706" lon="5.51478">
        <ele>1185</ele>
        <time>2000-01-01T10:05:59.000Z</time>
      </trkpt>
      <trkpt lat="45.0273" lon="5.51457">
        <ele>1186</ele>
        <time>2000-01-01T10:06:09.000Z</time>
      </trkpt>
      <trkpt lat="45.02753" lon="5.51433">
        <ele>1189</ele>
        <time>2000-01-01T10:06:19.000Z</time>
      </trkpt>
      <trkpt lat="45.02779" lon="5.51397">
        <ele>1192</ele>
        <time>2000-01-01T10:06:29.000Z</time>
      </trkpt>
      <trkpt lat="45.02801" lon="5.51374">
        <ele>1196</ele>
        <time>2000-01-01T10:06:39.000Z</time>
      </trkpt>
      <trkpt lat="45.02827" lon="5.51355">
        <ele>1199</ele>
        <time>2000-01-01T10:06:49.000Z</time>
      </trkpt>
      <trkpt lat="45.0286" lon="5.51348">
        <ele>1202</ele>
        <time>2000-01-01T10:06:59.000Z</time>
      </trkpt>
      <trkpt lat="45.02894" lon="5.51336">
        <ele>1206</ele>
        <time>2000-01-01T10:07:09.000Z</time>
      </trkpt>
      <trkpt lat="45.02933" lon="5.51314">
        <ele>1210</ele>
        <time>2000-01-01T10:07:19.000Z</time>
      </trkpt>
      <trkpt lat="45.02978" lon="5.513">
        <ele>1216</ele>
        <time>2000-01-01T10:07:29.000Z</time>
      </trkpt>
      <trkpt lat="45.02993" lon="5.51299">
        <ele>1218</ele>
        <time>2000-01-01T10:07:39.000Z</time>
      </trkpt>
      <trkpt lat="45.03004" lon="5.51292">
        <ele>1220</ele>
        <time>2000-01-01T10:07:49.000Z</time>
      </trkpt>
      <trkpt lat="45.03017" lon="5.51269">
        <ele>1220</ele>
        <time>2000-01-01T10:07:59.000Z</time>
      </trkpt>
      <trkpt lat="45.03026" lon="5.51263">
        <ele>1222</ele>
        <time>2000-01-01T10:08:09.000Z</time>
      </trkpt>
      <trkpt lat="45.03041" lon="5.51259">
        <ele>1224</ele>
        <time>2000-01-01T10:08:19.000Z</time>
      </trkpt>
      <trkpt lat="45.03054" lon="5.5126">
        <ele>1226</ele>
        <time>2000-01-01T10:08:29.000Z</time>
      </trkpt>
      <trkpt lat="45.03065" lon="5.51276">
        <ele>1228</ele>
        <time>2000-01-01T10:08:39.000Z</time>
      </trkpt>
      <trkpt lat="45.03076" lon="5.51284">
        <ele>1229</ele>
        <time>2000-01-01T10:08:49.000Z</time>
      </trkpt>
      <trkpt lat="45.03106" lon="5.51278">
        <ele>1233</ele>
        <time>2000-01-01T10:08:59.000Z</time>
      </trkpt>
      <trkpt lat="45.03161" lon="5.51267">
        <ele>1239</ele>
        <time>2000-01-01T10:09:09.000Z</time>
      </trkpt>
      <trkpt lat="45.03194" lon="5.51263">
        <ele>1241</ele>
        <time>2000-01-01T10:09:19.000Z</time>
      </trkpt>
      <trkpt lat="45.03227" lon="5.51259">
        <ele>1242</ele>
        <time>2000-01-01T10:09:29.000Z</time>
      </trkpt>
      <trkpt lat="45.03267" lon="5.51254">
        <ele>1243</ele>
        <time>2000-01-01T10:09:39.000Z</time>
      </trkpt>
      <trkpt lat="45.03283" lon="5.5124">
        <ele>1244</ele>
        <time>2000-01-01T10:09:49.000Z</time>
      </trkpt>
      <trkpt lat="45.03311" lon="5.5123">
        <ele>1246</ele>
        <time>2000-01-01T10:09:59.000Z</time>
      </trkpt>
      <trkpt lat="45.03331" lon="5.51232">
        <ele>1247</ele>
        <time>2000-01-01T10:10:09.000Z</time>
      </trkpt>
      <trkpt lat="45.03371" lon="5.51247">
        <ele>1248</ele>
        <time>2000-01-01T10:10:19.000Z</time>
      </trkpt>
      <trkpt lat="45.03382" lon="5.51266">
        <ele>1248</ele>
        <time>2000-01-01T10:10:29.000Z</time>
      </trkpt>
      <trkpt lat="45.03408" lon="5.51295">
        <ele>1248</ele>
        <time>2000-01-01T10:10:39.000Z</time>
      </trkpt>
      <trkpt lat="45.0343" lon="5.51298">
        <ele>1247</ele>
        <time>2000-01-01T10:10:49.000Z</time>
      </trkpt>
      <trkpt lat="45.03455" lon="5.51291">
        <ele>1245</ele>
        <time>2000-01-01T10:10:59.000Z</time>
      </trkpt>
      <trkpt lat="45.03467" lon="5.5128">
        <ele>1245</ele>
        <time>2000-01-01T10:11:09.000Z</time>
      </trkpt>
      <trkpt lat="45.03455" lon="5.51291">
        <ele>1245</ele>
        <time>2000-01-01T10:11:19.000Z</time>
      </trkpt>
      <trkpt lat="45.0346" lon="5.513">
        <ele>1245</ele>
        <time>2000-01-01T10:11:29.000Z</time>
      </trkpt>
      <trkpt lat="45.03469" lon="5.51333">
        <ele>1246</ele>
        <time>2000-01-01T10:11:39.000Z</time>
      </trkpt>
      <trkpt lat="45.03468" lon="5.51348">
        <ele>1247</ele>
        <time>2000-01-01T10:11:49.000Z</time>
      </trkpt>
      <trkpt lat="45.03478" lon="5.51381">
        <ele>1247</ele>
        <time>2000-01-01T10:11:59.000Z</time>
      </trkpt>
      <trkpt lat="45.03486" lon="5.51366">
        <ele>1247</ele>
        <time>2000-01-01T10:12:09.000Z</time>
      </trkpt>
      <trkpt lat="45.03512" lon="5.5138">
        <ele>1248</ele>
        <time>2000-01-01T10:12:19.000Z</time>
      </trkpt>
      <trkpt lat="45.03526" lon="5.51382">
        <ele>1248</ele>
        <time>2000-01-01T10:12:29.000Z</time>
      </trkpt>
      <trkpt lat="45.03545" lon="5.51404">
        <ele>1249</ele>
        <time>2000-01-01T10:12:39.000Z</time>
      </trkpt>
      <trkpt lat="45.03553" lon="5.51426">
        <ele>1249</ele>
        <time>2000-01-01T10:12:49.000Z</time>
      </trkpt>
      <trkpt lat="45.03575" lon="5.51427">
        <ele>1249</ele>
        <time>2000-01-01T10:12:59.000Z</time>
      </trkpt>
      <trkpt lat="45.03586" lon="5.51418">
        <ele>1249</ele>
        <time>2000-01-01T10:13:09.000Z</time>
      </trkpt>
      <trkpt lat="45.03599" lon="5.5138">
        <ele>1250</ele>
        <time>2000-01-01T10:13:19.000Z</time>
      </trkpt>
      <trkpt lat="45.03619" lon="5.51319">
        <ele>1251</ele>
        <time>2000-01-01T10:13:29.000Z</time>
      </trkpt>
      <trkpt lat="45.03645" lon="5.51298">
        <ele>1255</ele>
        <time>2000-01-01T10:13:39.000Z</time>
      </trkpt>
      <trkpt lat="45.03666" lon="5.5128">
        <ele>1257</ele>
        <time>2000-01-01T10:13:49.000Z</time>
      </trkpt>
      <trkpt lat="45.03688" lon="5.51262">
        <ele>1261</ele>
        <time>2000-01-01T10:13:59.000Z</time>
      </trkpt>
      <trkpt lat="45.03705" lon="5.5124">
        <ele>1263</ele>
        <time>2000-01-01T10:14:09.000Z</time>
      </trkpt>
      <trkpt lat="45.03715" lon="5.51198">
        <ele>1263</ele>
        <time>2000-01-01T10:14:19.000Z</time>
      </trkpt>
      <trkpt lat="45.03732" lon="5.51167">
        <ele>1263</ele>
        <time>2000-01-01T10:14:29.000Z</time>
      </trkpt>
      <trkpt lat="45.03757" lon="5.51124">
        <ele>1262</ele>
        <time>2000-01-01T10:14:39.000Z</time>
      </trkpt>
      <trkpt lat="45.03782" lon="5.51089">
        <ele>1261</ele>
        <time>2000-01-01T10:14:49.000Z</time>
      </trkpt>
      <trkpt lat="45.03806" lon="5.51054">
        <ele>1257</ele>
        <time>2000-01-01T10:14:59.000Z</time>
      </trkpt>
      <trkpt lat="45.03825" lon="5.51027">
        <ele>1253</ele>
        <time>2000-01-01T10:15:09.000Z</time>
      </trkpt>
      <trkpt lat="45.0385" lon="5.50992">
        <ele>1249</ele>
        <time>2000-01-01T10:15:19.000Z</time>
      </trkpt>
      <trkpt lat="45.03859" lon="5.50985">
        <ele>1250</ele>
        <time>2000-01-01T10:15:29.000Z</time>
      </trkpt>
      <trkpt lat="45.03887" lon="5.50982">
        <ele>1249</ele>
        <time>2000-01-01T10:15:39.000Z</time>
      </trkpt>
      <trkpt lat="45.0393" lon="5.50979">
        <ele>1249</ele>
        <time>2000-01-01T10:15:49.000Z</time>
      </trkpt>
      <trkpt lat="45.03962" lon="5.50989">
        <ele>1252</ele>
        <time>2000-01-01T10:15:59.000Z</time>
      </trkpt>
      <trkpt lat="45.03979" lon="5.50997">
        <ele>1255</ele>
        <time>2000-01-01T10:16:09.000Z</time>
      </trkpt>
      <trkpt lat="45.0397" lon="5.51039">
        <ele>1265</ele>
        <time>2000-01-01T10:16:19.000Z</time>
      </trkpt>
      <trkpt lat="45.03984" lon="5.51067">
        <ele>1275</ele>
        <time>2000-01-01T10:16:29.000Z</time>
      </trkpt>
      <trkpt lat="45.04008" lon="5.51076">
        <ele>1278</ele>
        <time>2000-01-01T10:16:39.000Z</time>
      </trkpt>
      <trkpt lat="45.04035" lon="5.51085">
        <ele>1280</ele>
        <time>2000-01-01T10:16:49.000Z</time>
      </trkpt>
      <trkpt lat="45.04051" lon="5.51098">
        <ele>1283</ele>
        <time>2000-01-01T10:16:59.000Z</time>
      </trkpt>
      <trkpt lat="45.04057" lon="5.51114">
        <ele>1288</ele>
        <time>2000-01-01T10:17:09.000Z</time>
      </trkpt>
      <trkpt lat="45.04056" lon="5.51133">
        <ele>1293</ele>
        <time>2000-01-01T10:17:19.000Z</time>
      </trkpt>
      <trkpt lat="45.04024" lon="5.51171">
        <ele>1294</ele>
        <time>2000-01-01T10:17:29.000Z</time>
      </trkpt>
      <trkpt lat="45.04056" lon="5.5116">
        <ele>1296</ele>
        <time>2000-01-01T10:17:39.000Z</time>
      </trkpt>
      <trkpt lat="45.04068" lon="5.51191">
        <ele>1296</ele>
        <time>2000-01-01T10:17:49.000Z</time>
      </trkpt>
      <trkpt lat="45.04082" lon="5.51225">
        <ele>1296</ele>
        <time>2000-01-01T10:17:59.000Z</time>
      </trkpt>
      <trkpt lat="45.04109" lon="5.51256">
        <ele>1293</ele>
        <time>2000-01-01T10:18:09.000Z</time>
      </trkpt>
      <trkpt lat="45.04136" lon="5.51286">
        <ele>1289</ele>
        <time>2000-01-01T10:18:19.000Z</time>
      </trkpt>
      <trkpt lat="45.04156" lon="5.51309">
        <ele>1286</ele>
        <time>2000-01-01T10:18:29.000Z</time>
      </trkpt>
      <trkpt lat="45.04181" lon="5.51337">
        <ele>1281</ele>
        <time>2000-01-01T10:18:39.000Z</time>
      </trkpt>
      <trkpt lat="45.04201" lon="5.5137">
        <ele>1277</ele>
        <time>2000-01-01T10:18:49.000Z</time>
      </trkpt>
      <trkpt lat="45.04217" lon="5.51398">
        <ele>1275</ele>
        <time>2000-01-01T10:18:59.000Z</time>
      </trkpt>
      <trkpt lat="45.04237" lon="5.51432">
        <ele>1274</ele>
        <time>2000-01-01T10:19:09.000Z</time>
      </trkpt>
      <trkpt lat="45.04271" lon="5.51443">
        <ele>1273</ele>
        <time>2000-01-01T10:19:19.000Z</time>
      </trkpt>
      <trkpt lat="45.04295" lon="5.51442">
        <ele>1272</ele>
        <time>2000-01-01T10:19:29.000Z</time>
      </trkpt>
      <trkpt lat="45.04321" lon="5.51441">
        <ele>1270</ele>
        <time>2000-01-01T10:19:39.000Z</time>
      </trkpt>
      <trkpt lat="45.04345" lon="5.51431">
        <ele>1268</ele>
        <time>2000-01-01T10:19:49.000Z</time>
      </trkpt>
      <trkpt lat="45.04372" lon="5.51421">
        <ele>1267</ele>
        <time>2000-01-01T10:19:59.000Z</time>
      </trkpt>
      <trkpt lat="45.0439" lon="5.51404">
        <ele>1267</ele>
        <time>2000-01-01T10:20:09.000Z</time>
      </trkpt>
      <trkpt lat="45.04421" lon="5.51439">
        <ele>1258</ele>
        <time>2000-01-01T10:20:19.000Z</time>
      </trkpt>
      <trkpt lat="45.0446" lon="5.51441">
        <ele>1253</ele>
        <time>2000-01-01T10:20:29.000Z</time>
      </trkpt>
      <trkpt lat="45.04497" lon="5.51439">
        <ele>1249</ele>
        <time>2000-01-01T10:20:39.000Z</time>
      </trkpt>
      <trkpt lat="45.04521" lon="5.51442">
        <ele>1244</ele>
        <time>2000-01-01T10:20:49.000Z</time>
      </trkpt>
      <trkpt lat="45.04547" lon="5.51445">
        <ele>1241</ele>
        <time>2000-01-01T10:20:59.000Z</time>
      </trkpt>
      <trkpt lat="45.04579" lon="5.51439">
        <ele>1238</ele>
        <time>2000-01-01T10:21:09.000Z</time>
      </trkpt>
      <trkpt lat="45.04611" lon="5.51434">
        <ele>1233</ele>
        <time>2000-01-01T10:21:19.000Z</time>
      </trkpt>
      <trkpt lat="45.04645" lon="5.51428">
        <ele>1230</ele>
        <time>2000-01-01T10:21:29.000Z</time>
      </trkpt>
      <trkpt lat="45.04652" lon="5.51445">
        <ele>1229</ele>
        <time>2000-01-01T10:21:39.000Z</time>
      </trkpt>
      <trkpt lat="45.04658" lon="5.51426">
        <ele>1229</ele>
        <time>2000-01-01T10:21:49.000Z</time>
      </trkpt>
      <trkpt lat="45.04676" lon="5.51379">
        <ele>1226</ele>
        <time>2000-01-01T10:21:59.000Z</time>
      </trkpt>
      <trkpt lat="45.04676" lon="5.51345">
        <ele>1225</ele>
        <time>2000-01-01T10:22:09.000Z</time>
      </trkpt>
      <trkpt lat="45.04676" lon="5.51311">
        <ele>1224</ele>
        <time>2000-01-01T10:22:19.000Z</time>
      </trkpt>
      <trkpt lat="45.04688" lon="5.51276">
        <ele>1221</ele>
        <time>2000-01-01T10:22:29.000Z</time>
      </trkpt>
      <trkpt lat="45.04704" lon="5.51242">
        <ele>1218</ele>
        <time>2000-01-01T10:22:39.000Z</time>
      </trkpt>
      <trkpt lat="45.04708" lon="5.51215">
        <ele>1216</ele>
        <time>2000-01-01T10:22:49.000Z</time>
      </trkpt>
      <trkpt lat="45.04708" lon="5.51193">
        <ele>1215</ele>
        <time>2000-01-01T10:22:59.000Z</time>
      </trkpt>
      <trkpt lat="45.04704" lon="5.51161">
        <ele>1213</ele>
        <time>2000-01-01T10:23:09.000Z</time>
      </trkpt>
      <trkpt lat="45.04698" lon="5.51159">
        <ele>1213.6</ele>
        <time>2000-01-01T10:23:19.000Z</time>
      </trkpt>
      <trkpt lat="45.04704" lon="5.51161">
        <ele>1213</ele>
        <time>2000-01-01T10:23:29.000Z</time>
      </trkpt>
      <trkpt lat="45.0472" lon="5.5117">
        <ele>1213</ele>
        <time>2000-01-01T10:23:39.000Z</time>
      </trkpt>
      <trkpt lat="45.04735" lon="5.51185">
        <ele>1213</ele>
        <time>2000-01-01T10:23:49.000Z</time>
      </trkpt>
      <trkpt lat="45.04741" lon="5.51189">
        <ele>1213</ele>
        <time>2000-01-01T10:23:59.000Z</time>
      </trkpt>
      <trkpt lat="45.04749" lon="5.51191">
        <ele>1213</ele>
        <time>2000-01-01T10:24:09.000Z</time>
      </trkpt>
      <trkpt lat="45.04774" lon="5.51186">
        <ele>1211</ele>
        <time>2000-01-01T10:24:19.000Z</time>
      </trkpt>
      <trkpt lat="45.04803" lon="5.51181">
        <ele>1210</ele>
        <time>2000-01-01T10:24:29.000Z</time>
      </trkpt>
      <trkpt lat="45.0482" lon="5.51171">
        <ele>1209</ele>
        <time>2000-01-01T10:24:39.000Z</time>
      </trkpt>
      <trkpt lat="45.04818" lon="5.51166">
        <ele>1209</ele>
        <time>2000-01-01T10:24:49.000Z</time>
      </trkpt>
      <trkpt lat="45.04816" lon="5.51157">
        <ele>1208</ele>
        <time>2000-01-01T10:24:59.000Z</time>
      </trkpt>
      <trkpt lat="45.04814" lon="5.51135">
        <ele>1207</ele>
        <time>2000-01-01T10:25:09.000Z</time>
      </trkpt>
      <trkpt lat="45.0482" lon="5.51095">
        <ele>1207</ele>
        <time>2000-01-01T10:25:19.000Z</time>
      </trkpt>
      <trkpt lat="45.04826" lon="5.51081">
        <ele>1207</ele>
        <time>2000-01-01T10:25:29.000Z</time>
      </trkpt>
      <trkpt lat="45.04828" lon="5.51065">
        <ele>1207</ele>
        <time>2000-01-01T10:25:39.000Z</time>
      </trkpt>
      <trkpt lat="45.04828" lon="5.51024">
        <ele>1207</ele>
        <time>2000-01-01T10:25:49.000Z</time>
      </trkpt>
      <trkpt lat="45.04824" lon="5.51006">
        <ele>1207</ele>
        <time>2000-01-01T10:25:59.000Z</time>
      </trkpt>
      <trkpt lat="45.04823" lon="5.50996">
        <ele>1207</ele>
        <time>2000-01-01T10:26:09.000Z</time>
      </trkpt>
      <trkpt lat="45.0483" lon="5.50968">
        <ele>1205</ele>
        <time>2000-01-01T10:26:19.000Z</time>
      </trkpt>
      <trkpt lat="45.04831" lon="5.50959">
        <ele>1202</ele>
        <time>2000-01-01T10:26:29.000Z</time>
      </trkpt>
      <trkpt lat="45.0483" lon="5.50941">
        <ele>1202</ele>
        <time>2000-01-01T10:26:39.000Z</time>
      </trkpt>
      <trkpt lat="45.04831" lon="5.50929">
        <ele>1197</ele>
        <time>2000-01-01T10:26:49.000Z</time>
      </trkpt>
      <trkpt lat="45.04837" lon="5.5092">
        <ele>1196</ele>
        <time>2000-01-01T10:26:59.000Z</time>
      </trkpt>
      <trkpt lat="45.04872" lon="5.509">
        <ele>1192</ele>
        <time>2000-01-01T10:27:09.000Z</time>
      </trkpt>
      <trkpt lat="45.04878" lon="5.5089">
        <ele>1191</ele>
        <time>2000-01-01T10:27:19.000Z</time>
      </trkpt>
      <trkpt lat="45.04883" lon="5.5086">
        <ele>1190</ele>
        <time>2000-01-01T10:27:29.000Z</time>
      </trkpt>
      <trkpt lat="45.04902" lon="5.50825">
        <ele>1190</ele>
        <time>2000-01-01T10:27:39.000Z</time>
      </trkpt>
      <trkpt lat="45.04922" lon="5.50769">
        <ele>1194</ele>
        <time>2000-01-01T10:27:49.000Z</time>
      </trkpt>
      <trkpt lat="45.04933" lon="5.50745">
        <ele>1196</ele>
        <time>2000-01-01T10:27:59.000Z</time>
      </trkpt>
      <trkpt lat="45.04956" lon="5.50731">
        <ele>1197</ele>
        <time>2000-01-01T10:28:09.000Z</time>
      </trkpt>
      <trkpt lat="45.04972" lon="5.50705">
        <ele>1202</ele>
        <time>2000-01-01T10:28:19.000Z</time>
      </trkpt>
      <trkpt lat="45.0499" lon="5.50678">
        <ele>1207</ele>
        <time>2000-01-01T10:28:29.000Z</time>
      </trkpt>
      <trkpt lat="45.05016" lon="5.50658">
        <ele>1211</ele>
        <time>2000-01-01T10:28:39.000Z</time>
      </trkpt>
      <trkpt lat="45.05024" lon="5.5064">
        <ele>1214</ele>
        <time>2000-01-01T10:28:49.000Z</time>
      </trkpt>
      <trkpt lat="45.05028" lon="5.50628">
        <ele>1216</ele>
        <time>2000-01-01T10:28:59.000Z</time>
      </trkpt>
      <trkpt lat="45.05041" lon="5.506">
        <ele>1220</ele>
        <time>2000-01-01T10:29:09.000Z</time>
      </trkpt>
      <trkpt lat="45.05053" lon="5.50585">
        <ele>1221</ele>
        <time>2000-01-01T10:29:19.000Z</time>
      </trkpt>
      <trkpt lat="45.05096" lon="5.50579">
        <ele>1221</ele>
        <time>2000-01-01T10:29:29.000Z</time>
      </trkpt>
      <trkpt lat="45.05123" lon="5.50577">
        <ele>1221</ele>
        <time>2000-01-01T10:29:39.000Z</time>
      </trkpt>
      <trkpt lat="45.05137" lon="5.50581">
        <ele>1220</ele>
        <time>2000-01-01T10:29:49.000Z</time>
      </trkpt>
      <trkpt lat="45.05145" lon="5.50586">
        <ele>1220</ele>
        <time>2000-01-01T10:29:59.000Z</time>
      </trkpt>
      <trkpt lat="45.05164" lon="5.50621">
        <ele>1216</ele>
        <time>2000-01-01T10:30:09.000Z</time>
      </trkpt>
      <trkpt lat="45.05193" lon="5.50659">
        <ele>1214</ele>
        <time>2000-01-01T10:30:19.000Z</time>
      </trkpt>
      <trkpt lat="45.05201" lon="5.5068">
        <ele>1212</ele>
        <time>2000-01-01T10:30:29.000Z</time>
      </trkpt>
      <trkpt lat="45.05208" lon="5.50684">
        <ele>1211</ele>
        <time>2000-01-01T10:30:39.000Z</time>
      </trkpt>
      <trkpt lat="45.05237" lon="5.50687">
        <ele>1211</ele>
        <time>2000-01-01T10:30:49.000Z</time>
      </trkpt>
      <trkpt lat="45.05256" lon="5.50695">
        <ele>1210</ele>
        <time>2000-01-01T10:30:59.000Z</time>
      </trkpt>
      <trkpt lat="45.0528" lon="5.50709">
        <ele>1209</ele>
        <time>2000-01-01T10:31:09.000Z</time>
      </trkpt>
      <trkpt lat="45.0531" lon="5.50725">
        <ele>1207</ele>
        <time>2000-01-01T10:31:19.000Z</time>
      </trkpt>
      <trkpt lat="45.05329" lon="5.50745">
        <ele>1205</ele>
        <time>2000-01-01T10:31:29.000Z</time>
      </trkpt>
      <trkpt lat="45.05352" lon="5.50758">
        <ele>1204</ele>
        <time>2000-01-01T10:31:39.000Z</time>
      </trkpt>
      <trkpt lat="45.05361" lon="5.50781">
        <ele>1202</ele>
        <time>2000-01-01T10:31:49.000Z</time>
      </trkpt>
      <trkpt lat="45.05371" lon="5.50798">
        <ele>1201</ele>
        <time>2000-01-01T10:31:59.000Z</time>
      </trkpt>
      <trkpt lat="45.05388" lon="5.50808">
        <ele>1201</ele>
        <time>2000-01-01T10:32:09.000Z</time>
      </trkpt>
      <trkpt lat="45.054" lon="5.50807">
        <ele>1201</ele>
        <time>2000-01-01T10:32:19.000Z</time>
      </trkpt>
      <trkpt lat="45.05444" lon="5.50789">
        <ele>1199</ele>
        <time>2000-01-01T10:32:29.000Z</time>
      </trkpt>
      <trkpt lat="45.05469" lon="5.50776">
        <ele>1198</ele>
        <time>2000-01-01T10:32:39.000Z</time>
      </trkpt>
      <trkpt lat="45.05478" lon="5.50766">
        <ele>1198</ele>
        <time>2000-01-01T10:32:49.000Z</time>
      </trkpt>
      <trkpt lat="45.05483" lon="5.50751">
        <ele>1198</ele>
        <time>2000-01-01T10:32:59.000Z</time>
      </trkpt>
      <trkpt lat="45.05485" lon="5.50743">
        <ele>1198</ele>
        <time>2000-01-01T10:33:09.000Z</time>
      </trkpt>
      <trkpt lat="45.0548" lon="5.50733">
        <ele>1199</ele>
        <time>2000-01-01T10:33:19.000Z</time>
      </trkpt>
      <trkpt lat="45.0548" lon="5.50721">
        <ele>1200</ele>
        <time>2000-01-01T10:33:29.000Z</time>
      </trkpt>
      <trkpt lat="45.05484" lon="5.50706">
        <ele>1201</ele>
        <time>2000-01-01T10:33:39.000Z</time>
      </trkpt>
      <trkpt lat="45.0549" lon="5.50671">
        <ele>1204</ele>
        <time>2000-01-01T10:33:49.000Z</time>
      </trkpt>
      <trkpt lat="45.05496" lon="5.50633">
        <ele>1207</ele>
        <time>2000-01-01T10:33:59.000Z</time>
      </trkpt>
      <trkpt lat="45.05495" lon="5.50622">
        <ele>1209</ele>
        <time>2000-01-01T10:34:09.000Z</time>
      </trkpt>
      <trkpt lat="45.05491" lon="5.50613">
        <ele>1209</ele>
        <time>2000-01-01T10:34:19.000Z</time>
      </trkpt>
      <trkpt lat="45.0546" lon="5.50598">
        <ele>1212</ele>
        <time>2000-01-01T10:34:29.000Z</time>
      </trkpt>
      <trkpt lat="45.05441" lon="5.50572">
        <ele>1213</ele>
        <time>2000-01-01T10:34:39.000Z</time>
      </trkpt>
      <trkpt lat="45.05419" lon="5.50542">
        <ele>1216</ele>
        <time>2000-01-01T10:34:49.000Z</time>
      </trkpt>
      <trkpt lat="45.05412" lon="5.50536">
        <ele>1217</ele>
        <time>2000-01-01T10:34:59.000Z</time>
      </trkpt>
      <trkpt lat="45.05388" lon="5.50522">
        <ele>1217</ele>
        <time>2000-01-01T10:35:09.000Z</time>
      </trkpt>
      <trkpt lat="45.05374" lon="5.50519">
        <ele>1218</ele>
        <time>2000-01-01T10:35:19.000Z</time>
      </trkpt>
      <trkpt lat="45.05349" lon="5.50519">
        <ele>1218</ele>
        <time>2000-01-01T10:35:29.000Z</time>
      </trkpt>
      <trkpt lat="45.05335" lon="5.50515">
        <ele>1218</ele>
        <time>2000-01-01T10:35:39.000Z</time>
      </trkpt>
      <trkpt lat="45.05313" lon="5.50494">
        <ele>1220</ele>
        <time>2000-01-01T10:35:49.000Z</time>
      </trkpt>
      <trkpt lat="45.05288" lon="5.50454">
        <ele>1224</ele>
        <time>2000-01-01T10:35:59.000Z</time>
      </trkpt>
      <trkpt lat="45.05288" lon="5.50434">
        <ele>1225</ele>
        <time>2000-01-01T10:36:09.000Z</time>
      </trkpt>
      <trkpt lat="45.05293" lon="5.50416">
        <ele>1226</ele>
        <time>2000-01-01T10:36:19.000Z</time>
      </trkpt>
      <trkpt lat="45.05294" lon="5.50404">
        <ele>1227</ele>
        <time>2000-01-01T10:36:29.000Z</time>
      </trkpt>
      <trkpt lat="45.05293" lon="5.50391">
        <ele>1228</ele>
        <time>2000-01-01T10:36:39.000Z</time>
      </trkpt>
      <trkpt lat="45.05287" lon="5.50373">
        <ele>1230</ele>
        <time>2000-01-01T10:36:49.000Z</time>
      </trkpt>
      <trkpt lat="45.05287" lon="5.50366">
        <ele>1230</ele>
        <time>2000-01-01T10:36:59.000Z</time>
      </trkpt>
      <trkpt lat="45.05296" lon="5.50332">
        <ele>1232</ele>
        <time>2000-01-01T10:37:09.000Z</time>
      </trkpt>
      <trkpt lat="45.05297" lon="5.50321">
        <ele>1232</ele>
        <time>2000-01-01T10:37:19.000Z</time>
      </trkpt>
      <trkpt lat="45.05296" lon="5.50314">
        <ele>1232.4</ele>
        <time>2000-01-01T10:37:29.000Z</time>
      </trkpt>
      <trkpt lat="45.05292" lon="5.50301">
        <ele>1233</ele>
        <time>2000-01-01T10:37:39.000Z</time>
      </trkpt>
      <trkpt lat="45.05286" lon="5.50291">
        <ele>1234</ele>
        <time>2000-01-01T10:37:49.000Z</time>
      </trkpt>
      <trkpt lat="45.05279" lon="5.50286">
        <ele>1235</ele>
        <time>2000-01-01T10:37:59.000Z</time>
      </trkpt>
      <trkpt lat="45.05254" lon="5.50281">
        <ele>1236</ele>
        <time>2000-01-01T10:38:09.000Z</time>
      </trkpt>
      <trkpt lat="45.05239" lon="5.50274">
        <ele>1237</ele>
        <time>2000-01-01T10:38:19.000Z</time>
      </trkpt>
      <trkpt lat="45.0523" lon="5.50269">
        <ele>1237</ele>
        <time>2000-01-01T10:38:29.000Z</time>
      </trkpt>
      <trkpt lat="45.05219" lon="5.50255">
        <ele>1237</ele>
        <time>2000-01-01T10:38:39.000Z</time>
      </trkpt>
      <trkpt lat="45.05213" lon="5.5024">
        <ele>1236</ele>
        <time>2000-01-01T10:38:49.000Z</time>
      </trkpt>
      <trkpt lat="45.05206" lon="5.50232">
        <ele>1236</ele>
        <time>2000-01-01T10:38:59.000Z</time>
      </trkpt>
      <trkpt lat="45.05196" lon="5.50224">
        <ele>1236</ele>
        <time>2000-01-01T10:39:09.000Z</time>
      </trkpt>
      <trkpt lat="45.05173" lon="5.50213">
        <ele>1236</ele>
        <time>2000-01-01T10:39:19.000Z</time>
      </trkpt>
      <trkpt lat="45.05141" lon="5.5021">
        <ele>1236</ele>
        <time>2000-01-01T10:39:29.000Z</time>
      </trkpt>
      <trkpt lat="45.05124" lon="5.50198">
        <ele>1237</ele>
        <time>2000-01-01T10:39:39.000Z</time>
      </trkpt>
      <trkpt lat="45.05112" lon="5.50187">
        <ele>1237</ele>
        <time>2000-01-01T10:39:49.000Z</time>
      </trkpt>
      <trkpt lat="45.05095" lon="5.50178">
        <ele>1237</ele>
        <time>2000-01-01T10:39:59.000Z</time>
      </trkpt>
      <trkpt lat="45.05067" lon="5.50169">
        <ele>1238</ele>
        <time>2000-01-01T10:40:09.000Z</time>
      </trkpt>
      <trkpt lat="45.05022" lon="5.50155">
        <ele>1242</ele>
        <time>2000-01-01T10:40:19.000Z</time>
      </trkpt>
      <trkpt lat="45.04997" lon="5.50149">
        <ele>1245</ele>
        <time>2000-01-01T10:40:29.000Z</time>
      </trkpt>
      <trkpt lat="45.04977" lon="5.50143">
        <ele>1244</ele>
        <time>2000-01-01T10:40:39.000Z</time>
      </trkpt>
      <trkpt lat="45.05013" lon="5.50153">
        <ele>1244</ele>
        <time>2000-01-01T10:40:49.000Z</time>
      </trkpt>
      <trkpt lat="45.04981" lon="5.50134">
        <ele>1245</ele>
        <time>2000-01-01T10:40:59.000Z</time>
      </trkpt>
      <trkpt lat="45.04969" lon="5.50121">
        <ele>1245</ele>
        <time>2000-01-01T10:41:09.000Z</time>
      </trkpt>
      <trkpt lat="45.04964" lon="5.50107">
        <ele>1245</ele>
        <time>2000-01-01T10:41:19.000Z</time>
      </trkpt>
      <trkpt lat="45.04964" lon="5.50099">
        <ele>1245.3</ele>
        <time>2000-01-01T10:41:29.000Z</time>
      </trkpt>
      <trkpt lat="45.04965" lon="5.5009">
        <ele>1244</ele>
        <time>2000-01-01T10:41:39.000Z</time>
      </trkpt>
      <trkpt lat="45.04969" lon="5.50078">
        <ele>1244</ele>
        <time>2000-01-01T10:41:49.000Z</time>
      </trkpt>
      <trkpt lat="45.04975" lon="5.50068">
        <ele>1243</ele>
        <time>2000-01-01T10:41:59.000Z</time>
      </trkpt>
      <trkpt lat="45.04994" lon="5.50049">
        <ele>1243</ele>
        <time>2000-01-01T10:42:09.000Z</time>
      </trkpt>
      <trkpt lat="45.05003" lon="5.50037">
        <ele>1243</ele>
        <time>2000-01-01T10:42:19.000Z</time>
      </trkpt>
      <trkpt lat="45.05011" lon="5.50025">
        <ele>1244</ele>
        <time>2000-01-01T10:42:29.000Z</time>
      </trkpt>
      <trkpt lat="45.05026" lon="5.49994">
        <ele>1248</ele>
        <time>2000-01-01T10:42:39.000Z</time>
      </trkpt>
      <trkpt lat="45.05033" lon="5.49985">
        <ele>1249</ele>
        <time>2000-01-01T10:42:49.000Z</time>
      </trkpt>
      <trkpt lat="45.05041" lon="5.49978">
        <ele>1250</ele>
        <time>2000-01-01T10:42:59.000Z</time>
      </trkpt>
      <trkpt lat="45.05048" lon="5.49976">
        <ele>1250</ele>
        <time>2000-01-01T10:43:09.000Z</time>
      </trkpt>
      <trkpt lat="45.05062" lon="5.49977">
        <ele>1250</ele>
        <time>2000-01-01T10:43:19.000Z</time>
      </trkpt>
      <trkpt lat="45.0509" lon="5.49988">
        <ele>1249</ele>
        <time>2000-01-01T10:43:29.000Z</time>
      </trkpt>
      <trkpt lat="45.05101" lon="5.49998">
        <ele>1247</ele>
        <time>2000-01-01T10:43:39.000Z</time>
      </trkpt>
      <trkpt lat="45.05123" lon="5.5003">
        <ele>1243</ele>
        <time>2000-01-01T10:43:49.000Z</time>
      </trkpt>
      <trkpt lat="45.05136" lon="5.50036">
        <ele>1241</ele>
        <time>2000-01-01T10:43:59.000Z</time>
      </trkpt>
      <trkpt lat="45.05156" lon="5.50034">
        <ele>1241</ele>
        <time>2000-01-01T10:44:09.000Z</time>
      </trkpt>
      <trkpt lat="45.05169" lon="5.5003">
        <ele>1242</ele>
        <time>2000-01-01T10:44:19.000Z</time>
      </trkpt>
      <trkpt lat="45.0519" lon="5.50018">
        <ele>1242</ele>
        <time>2000-01-01T10:44:29.000Z</time>
      </trkpt>
      <trkpt lat="45.05225" lon="5.49988">
        <ele>1245</ele>
        <time>2000-01-01T10:44:39.000Z</time>
      </trkpt>
      <trkpt lat="45.05265" lon="5.49961">
        <ele>1248</ele>
        <time>2000-01-01T10:44:49.000Z</time>
      </trkpt>
      <trkpt lat="45.05289" lon="5.49947">
        <ele>1249</ele>
        <time>2000-01-01T10:44:59.000Z</time>
      </trkpt>
      <trkpt lat="45.05313" lon="5.49944">
        <ele>1250</ele>
        <time>2000-01-01T10:45:09.000Z</time>
      </trkpt>
      <trkpt lat="45.05335" lon="5.49933">
        <ele>1253</ele>
        <time>2000-01-01T10:45:19.000Z</time>
      </trkpt>
      <trkpt lat="45.05343" lon="5.49933">
        <ele>1254</ele>
        <time>2000-01-01T10:45:29.000Z</time>
      </trkpt>
      <trkpt lat="45.0535" lon="5.49936">
        <ele>1254</ele>
        <time>2000-01-01T10:45:39.000Z</time>
      </trkpt>
      <trkpt lat="45.05372" lon="5.49956">
        <ele>1251</ele>
        <time>2000-01-01T10:45:49.000Z</time>
      </trkpt>
      <trkpt lat="45.05387" lon="5.49966">
        <ele>1250</ele>
        <time>2000-01-01T10:45:59.000Z</time>
      </trkpt>
      <trkpt lat="45.05428" lon="5.49984">
        <ele>1250</ele>
        <time>2000-01-01T10:46:09.000Z</time>
      </trkpt>
      <trkpt lat="45.05443" lon="5.49986">
        <ele>1250</ele>
        <time>2000-01-01T10:46:19.000Z</time>
      </trkpt>
      <trkpt lat="45.0546" lon="5.49977">
        <ele>1251</ele>
        <time>2000-01-01T10:46:29.000Z</time>
      </trkpt>
      <trkpt lat="45.05496" lon="5.49945">
        <ele>1257</ele>
        <time>2000-01-01T10:46:39.000Z</time>
      </trkpt>
      <trkpt lat="45.05509" lon="5.49937">
        <ele>1259</ele>
        <time>2000-01-01T10:46:49.000Z</time>
      </trkpt>
      <trkpt lat="45.05533" lon="5.49931">
        <ele>1260</ele>
        <time>2000-01-01T10:46:59.000Z</time>
      </trkpt>
      <trkpt lat="45.05558" lon="5.49924">
        <ele>1262</ele>
        <time>2000-01-01T10:47:09.000Z</time>
      </trkpt>
      <trkpt lat="45.0557" lon="5.49923">
        <ele>1262</ele>
        <time>2000-01-01T10:47:19.000Z</time>
      </trkpt>
      <trkpt lat="45.05601" lon="5.49928">
        <ele>1262</ele>
        <time>2000-01-01T10:47:29.000Z</time>
      </trkpt>
      <trkpt lat="45.05618" lon="5.49933">
        <ele>1263</ele>
        <time>2000-01-01T10:47:39.000Z</time>
      </trkpt>
      <trkpt lat="45.05663" lon="5.4994">
        <ele>1263</ele>
        <time>2000-01-01T10:47:49.000Z</time>
      </trkpt>
      <trkpt lat="45.05696" lon="5.49956">
        <ele>1263</ele>
        <time>2000-01-01T10:47:59.000Z</time>
      </trkpt>
      <trkpt lat="45.05711" lon="5.4996">
        <ele>1264</ele>
        <time>2000-01-01T10:48:09.000Z</time>
      </trkpt>
      <trkpt lat="45.05751" lon="5.49963">
        <ele>1265</ele>
        <time>2000-01-01T10:48:19.000Z</time>
      </trkpt>
      <trkpt lat="45.05761" lon="5.49967">
        <ele>1265</ele>
        <time>2000-01-01T10:48:29.000Z</time>
      </trkpt>
      <trkpt lat="45.05772" lon="5.49977">
        <ele>1263</ele>
        <time>2000-01-01T10:48:39.000Z</time>
      </trkpt>
      <trkpt lat="45.05778" lon="5.49987">
        <ele>1262</ele>
        <time>2000-01-01T10:48:49.000Z</time>
      </trkpt>
      <trkpt lat="45.0578" lon="5.49998">
        <ele>1261</ele>
        <time>2000-01-01T10:48:59.000Z</time>
      </trkpt>
      <trkpt lat="45.05785" lon="5.50005">
        <ele>1259</ele>
        <time>2000-01-01T10:49:09.000Z</time>
      </trkpt>
      <trkpt lat="45.05792" lon="5.5001">
        <ele>1259</ele>
        <time>2000-01-01T10:49:19.000Z</time>
      </trkpt>
      <trkpt lat="45.05804" lon="5.50005">
        <ele>1259</ele>
        <time>2000-01-01T10:49:29.000Z</time>
      </trkpt>
      <trkpt lat="45.05815" lon="5.49993">
        <ele>1260</ele>
        <time>2000-01-01T10:49:39.000Z</time>
      </trkpt>
      <trkpt lat="45.05827" lon="5.49991">
        <ele>1260</ele>
        <time>2000-01-01T10:49:49.000Z</time>
      </trkpt>
      <trkpt lat="45.05835" lon="5.49996">
        <ele>1260</ele>
        <time>2000-01-01T10:49:59.000Z</time>
      </trkpt>
      <trkpt lat="45.05839" lon="5.50004">
        <ele>1258</ele>
        <time>2000-01-01T10:50:09.000Z</time>
      </trkpt>
      <trkpt lat="45.05844" lon="5.50017">
        <ele>1256</ele>
        <time>2000-01-01T10:50:19.000Z</time>
      </trkpt>
      <trkpt lat="45.05846" lon="5.5003">
        <ele>1256</ele>
        <time>2000-01-01T10:50:29.000Z</time>
      </trkpt>
      <trkpt lat="45.05851" lon="5.5002">
        <ele>1256</ele>
        <time>2000-01-01T10:50:39.000Z</time>
      </trkpt>
      <trkpt lat="45.05846" lon="5.5003">
        <ele>1255</ele>
        <time>2000-01-01T10:50:49.000Z</time>
      </trkpt>
      <trkpt lat="45.05842" lon="5.50048">
        <ele>1252</ele>
        <time>2000-01-01T10:50:59.000Z</time>
      </trkpt>
      <trkpt lat="45.05819" lon="5.50076">
        <ele>1250</ele>
        <time>2000-01-01T10:51:09.000Z</time>
      </trkpt>
      <trkpt lat="45.0579" lon="5.50101">
        <ele>1248</ele>
        <time>2000-01-01T10:51:19.000Z</time>
      </trkpt>
      <trkpt lat="45.05761" lon="5.50127">
        <ele>1247</ele>
        <time>2000-01-01T10:51:29.000Z</time>
      </trkpt>
      <trkpt lat="45.05739" lon="5.50146">
        <ele>1246</ele>
        <time>2000-01-01T10:51:39.000Z</time>
      </trkpt>
      <trkpt lat="45.05715" lon="5.50167">
        <ele>1243</ele>
        <time>2000-01-01T10:51:49.000Z</time>
      </trkpt>
      <trkpt lat="45.05709" lon="5.50181">
        <ele>1241</ele>
        <time>2000-01-01T10:51:59.000Z</time>
      </trkpt>
      <trkpt lat="45.05707" lon="5.50192">
        <ele>1240</ele>
        <time>2000-01-01T10:52:09.000Z</time>
      </trkpt>
      <trkpt lat="45.05708" lon="5.50203">
        <ele>1240</ele>
        <time>2000-01-01T10:52:19.000Z</time>
      </trkpt>
      <trkpt lat="45.05732" lon="5.50258">
        <ele>1235</ele>
        <time>2000-01-01T10:52:29.000Z</time>
      </trkpt>
      <trkpt lat="45.05732" lon="5.50269">
        <ele>1235</ele>
        <time>2000-01-01T10:52:39.000Z</time>
      </trkpt>
      <trkpt lat="45.05757" lon="5.50266">
        <ele>1236</ele>
        <time>2000-01-01T10:52:49.000Z</time>
      </trkpt>
      <trkpt lat="45.05802" lon="5.5025">
        <ele>1239</ele>
        <time>2000-01-01T10:52:59.000Z</time>
      </trkpt>
      <trkpt lat="45.05829" lon="5.50236">
        <ele>1240</ele>
        <time>2000-01-01T10:53:09.000Z</time>
      </trkpt>
      <trkpt lat="45.0585" lon="5.50236">
        <ele>1238</ele>
        <time>2000-01-01T10:53:19.000Z</time>
      </trkpt>
      <trkpt lat="45.05878" lon="5.5024">
        <ele>1236</ele>
        <time>2000-01-01T10:53:29.000Z</time>
      </trkpt>
      <trkpt lat="45.05901" lon="5.50251">
        <ele>1234</ele>
        <time>2000-01-01T10:53:39.000Z</time>
      </trkpt>
      <trkpt lat="45.05936" lon="5.50286">
        <ele>1234</ele>
        <time>2000-01-01T10:53:49.000Z</time>
      </trkpt>
      <trkpt lat="45.05961" lon="5.50309">
        <ele>1234</ele>
        <time>2000-01-01T10:53:59.000Z</time>
      </trkpt>
      <trkpt lat="45.05981" lon="5.50328">
        <ele>1235</ele>
        <time>2000-01-01T10:54:09.000Z</time>
      </trkpt>
      <trkpt lat="45.06001" lon="5.50347">
        <ele>1235</ele>
        <time>2000-01-01T10:54:19.000Z</time>
      </trkpt>
      <trkpt lat="45.06035" lon="5.50369">
        <ele>1236</ele>
        <time>2000-01-01T10:54:29.000Z</time>
      </trkpt>
      <trkpt lat="45.06038" lon="5.50378">
        <ele>1236</ele>
        <time>2000-01-01T10:54:39.000Z</time>
      </trkpt>
      <trkpt lat="45.06032" lon="5.50393">
        <ele>1236</ele>
        <time>2000-01-01T10:54:49.000Z</time>
      </trkpt>
      <trkpt lat="45.06012" lon="5.50413">
        <ele>1236</ele>
        <time>2000-01-01T10:54:59.000Z</time>
      </trkpt>
      <trkpt lat="45.05971" lon="5.50424">
        <ele>1236</ele>
        <time>2000-01-01T10:55:09.000Z</time>
      </trkpt>
      <trkpt lat="45.05938" lon="5.50462">
        <ele>1235</ele>
        <time>2000-01-01T10:55:19.000Z</time>
      </trkpt>
      <trkpt lat="45.05932" lon="5.50516">
        <ele>1232</ele>
        <time>2000-01-01T10:55:29.000Z</time>
      </trkpt>
      <trkpt lat="45.05911" lon="5.50565">
        <ele>1230</ele>
        <time>2000-01-01T10:55:39.000Z</time>
      </trkpt>
      <trkpt lat="45.05892" lon="5.5059">
        <ele>1228</ele>
        <time>2000-01-01T10:55:49.000Z</time>
      </trkpt>
      <trkpt lat="45.05871" lon="5.50619">
        <ele>1224</ele>
        <time>2000-01-01T10:55:59.000Z</time>
      </trkpt>
      <trkpt lat="45.05852" lon="5.50658">
        <ele>1218</ele>
        <time>2000-01-01T10:56:09.000Z</time>
      </trkpt>
      <trkpt lat="45.05846" lon="5.50724">
        <ele>1208</ele>
        <time>2000-01-01T10:56:19.000Z</time>
      </trkpt>
      <trkpt lat="45.05831" lon="5.50786">
        <ele>1200</ele>
        <time>2000-01-01T10:56:29.000Z</time>
      </trkpt>
      <trkpt lat="45.05824" lon="5.50819">
        <ele>1196</ele>
        <time>2000-01-01T10:56:39.000Z</time>
      </trkpt>
      <trkpt lat="45.05817" lon="5.50853">
        <ele>1193</ele>
        <time>2000-01-01T10:56:49.000Z</time>
      </trkpt>
      <trkpt lat="45.05799" lon="5.50876">
        <ele>1192</ele>
        <time>2000-01-01T10:56:59.000Z</time>
      </trkpt>
      <trkpt lat="45.05779" lon="5.509">
        <ele>1191</ele>
        <time>2000-01-01T10:57:09.000Z</time>
      </trkpt>
      <trkpt lat="45.05767" lon="5.50958">
        <ele>1185</ele>
        <time>2000-01-01T10:57:19.000Z</time>
      </trkpt>
      <trkpt lat="45.05757" lon="5.50993">
        <ele>1180</ele>
        <time>2000-01-01T10:57:29.000Z</time>
      </trkpt>
      <trkpt lat="45.05744" lon="5.5104">
        <ele>1175</ele>
        <time>2000-01-01T10:57:39.000Z</time>
      </trkpt>
      <trkpt lat="45.05738" lon="5.51063">
        <ele>1172</ele>
        <time>2000-01-01T10:57:49.000Z</time>
      </trkpt>
      <trkpt lat="45.05731" lon="5.5107">
        <ele>1172</ele>
        <time>2000-01-01T10:57:59.000Z</time>
      </trkpt>
      <trkpt lat="45.05727" lon="5.51079">
        <ele>1170</ele>
        <time>2000-01-01T10:58:09.000Z</time>
      </trkpt>
      <trkpt lat="45.05719" lon="5.5111">
        <ele>1169</ele>
        <time>2000-01-01T10:58:19.000Z</time>
      </trkpt>
      <trkpt lat="45.05715" lon="5.5112">
        <ele>1167</ele>
        <time>2000-01-01T10:58:29.000Z</time>
      </trkpt>
      <trkpt lat="45.0571" lon="5.51127">
        <ele>1165</ele>
        <time>2000-01-01T10:58:39.000Z</time>
      </trkpt>
      <trkpt lat="45.05696" lon="5.51134">
        <ele>1164</ele>
        <time>2000-01-01T10:58:49.000Z</time>
      </trkpt>
      <trkpt lat="45.05676" lon="5.51136">
        <ele>1164</ele>
        <time>2000-01-01T10:58:59.000Z</time>
      </trkpt>
      <trkpt lat="45.05648" lon="5.51134">
        <ele>1164</ele>
        <time>2000-01-01T10:59:09.000Z</time>
      </trkpt>
      <trkpt lat="45.05607" lon="5.51131">
        <ele>1164</ele>
        <time>2000-01-01T10:59:19.000Z</time>
      </trkpt>
      <trkpt lat="45.05587" lon="5.51136">
        <ele>1164</ele>
        <time>2000-01-01T10:59:29.000Z</time>
      </trkpt>
      <trkpt lat="45.05582" lon="5.51141">
        <ele>1163.8</ele>
        <time>2000-01-01T10:59:39.000Z</time>
      </trkpt>
      <trkpt lat="45.05579" lon="5.51148">
        <ele>1164</ele>
        <time>2000-01-01T10:59:49.000Z</time>
      </trkpt>
      <trkpt lat="45.05569" lon="5.51161">
        <ele>1163</ele>
        <time>2000-01-01T10:59:59.000Z</time>
      </trkpt>
      <trkpt lat="45.05564" lon="5.51194">
        <ele>1164</ele>
        <time>2000-01-01T11:00:09.000Z</time>
      </trkpt>
      <trkpt lat="45.05558" lon="5.51196">
        <ele>1161.6</ele>
        <time>2000-01-01T11:00:19.000Z</time>
      </trkpt>
      <trkpt lat="45.05529" lon="5.51235">
        <ele>1165</ele>
        <time>2000-01-01T11:00:29.000Z</time>
      </trkpt>
      <trkpt lat="45.05524" lon="5.51237">
        <ele>1165.3</ele>
        <time>2000-01-01T11:00:39.000Z</time>
      </trkpt>
      <trkpt lat="45.0551" lon="5.51232">
        <ele>1167</ele>
        <time>2000-01-01T11:00:49.000Z</time>
      </trkpt>
      <trkpt lat="45.05498" lon="5.51232">
        <ele>1168</ele>
        <time>2000-01-01T11:00:59.000Z</time>
      </trkpt>
      <trkpt lat="45.05492" lon="5.51237">
        <ele>1168</ele>
        <time>2000-01-01T11:01:09.000Z</time>
      </trkpt>
      <trkpt lat="45.05481" lon="5.51269">
        <ele>1168</ele>
        <time>2000-01-01T11:01:19.000Z</time>
      </trkpt>
      <trkpt lat="45.05468" lon="5.51307">
        <ele>1168</ele>
        <time>2000-01-01T11:01:29.000Z</time>
      </trkpt>
      <trkpt lat="45.05466" lon="5.51332">
        <ele>1168</ele>
        <time>2000-01-01T11:01:39.000Z</time>
      </trkpt>
      <trkpt lat="45.05462" lon="5.51347">
        <ele>1168</ele>
        <time>2000-01-01T11:01:49.000Z</time>
      </trkpt>
      <trkpt lat="45.05455" lon="5.51357">
        <ele>1168</ele>
        <time>2000-01-01T11:01:59.000Z</time>
      </trkpt>
      <trkpt lat="45.05418" lon="5.5138">
        <ele>1169</ele>
        <time>2000-01-01T11:02:09.000Z</time>
      </trkpt>
      <trkpt lat="45.05405" lon="5.5138">
        <ele>1170</ele>
        <time>2000-01-01T11:02:19.000Z</time>
      </trkpt>
      <trkpt lat="45.05396" lon="5.51376">
        <ele>1171</ele>
        <time>2000-01-01T11:02:29.000Z</time>
      </trkpt>
      <trkpt lat="45.05382" lon="5.51361">
        <ele>1172</ele>
        <time>2000-01-01T11:02:39.000Z</time>
      </trkpt>
      <trkpt lat="45.0537" lon="5.51341">
        <ele>1175</ele>
        <time>2000-01-01T11:02:49.000Z</time>
      </trkpt>
      <trkpt lat="45.05365" lon="5.51321">
        <ele>1176</ele>
        <time>2000-01-01T11:02:59.000Z</time>
      </trkpt>
      <trkpt lat="45.05365" lon="5.513">
        <ele>1176</ele>
        <time>2000-01-01T11:03:09.000Z</time>
      </trkpt>
      <trkpt lat="45.05386" lon="5.51249">
        <ele>1174</ele>
        <time>2000-01-01T11:03:19.000Z</time>
      </trkpt>
      <trkpt lat="45.05385" lon="5.5124">
        <ele>1174</ele>
        <time>2000-01-01T11:03:29.000Z</time>
      </trkpt>
      <trkpt lat="45.05383" lon="5.51233">
        <ele>1173.9</ele>
        <time>2000-01-01T11:03:39.000Z</time>
      </trkpt>
      <trkpt lat="45.05374" lon="5.51227">
        <ele>1174</ele>
        <time>2000-01-01T11:03:49.000Z</time>
      </trkpt>
      <trkpt lat="45.05349" lon="5.51219">
        <ele>1175</ele>
        <time>2000-01-01T11:03:59.000Z</time>
      </trkpt>
      <trkpt lat="45.05323" lon="5.51218">
        <ele>1176</ele>
        <time>2000-01-01T11:04:09.000Z</time>
      </trkpt>
      <trkpt lat="45.05298" lon="5.51224">
        <ele>1179</ele>
        <time>2000-01-01T11:04:19.000Z</time>
      </trkpt>
      <trkpt lat="45.05269" lon="5.51232">
        <ele>1181</ele>
        <time>2000-01-01T11:04:29.000Z</time>
      </trkpt>
      <trkpt lat="45.05248" lon="5.51245">
        <ele>1184</ele>
        <time>2000-01-01T11:04:39.000Z</time>
      </trkpt>
      <trkpt lat="45.05218" lon="5.51247">
        <ele>1186</ele>
        <time>2000-01-01T11:04:49.000Z</time>
      </trkpt>
      <trkpt lat="45.05206" lon="5.51254">
        <ele>1188</ele>
        <time>2000-01-01T11:04:59.000Z</time>
      </trkpt>
      <trkpt lat="45.05198" lon="5.51268">
        <ele>1189</ele>
        <time>2000-01-01T11:05:09.000Z</time>
      </trkpt>
      <trkpt lat="45.05182" lon="5.51316">
        <ele>1190</ele>
        <time>2000-01-01T11:05:19.000Z</time>
      </trkpt>
      <trkpt lat="45.05164" lon="5.51351">
        <ele>1191</ele>
        <time>2000-01-01T11:05:29.000Z</time>
      </trkpt>
      <trkpt lat="45.05161" lon="5.51349">
        <ele>1191</ele>
        <time>2000-01-01T11:05:39.000Z</time>
      </trkpt>
      <trkpt lat="45.05164" lon="5.51351">
        <ele>1191</ele>
        <time>2000-01-01T11:05:49.000Z</time>
      </trkpt>
      <trkpt lat="45.05168" lon="5.51362">
        <ele>1190</ele>
        <time>2000-01-01T11:05:59.000Z</time>
      </trkpt>
      <trkpt lat="45.05166" lon="5.51376">
        <ele>1190</ele>
        <time>2000-01-01T11:06:09.000Z</time>
      </trkpt>
      <trkpt lat="45.05162" lon="5.51396">
        <ele>1189</ele>
        <time>2000-01-01T11:06:19.000Z</time>
      </trkpt>
      <trkpt lat="45.05161" lon="5.51399">
        <ele>1189.2</ele>
        <time>2000-01-01T11:06:29.000Z</time>
      </trkpt>
      <trkpt lat="45.0516" lon="5.51414">
        <ele>1189</ele>
        <time>2000-01-01T11:06:39.000Z</time>
      </trkpt>
      <trkpt lat="45.05165" lon="5.51427">
        <ele>1188</ele>
        <time>2000-01-01T11:06:49.000Z</time>
      </trkpt>
      <trkpt lat="45.05176" lon="5.51436">
        <ele>1186</ele>
        <time>2000-01-01T11:06:59.000Z</time>
      </trkpt>
      <trkpt lat="45.05202" lon="5.51443">
        <ele>1181</ele>
        <time>2000-01-01T11:07:09.000Z</time>
      </trkpt>
      <trkpt lat="45.05235" lon="5.51451">
        <ele>1177</ele>
        <time>2000-01-01T11:07:19.000Z</time>
      </trkpt>
      <trkpt lat="45.05261" lon="5.51451">
        <ele>1174</ele>
        <time>2000-01-01T11:07:29.000Z</time>
      </trkpt>
      <trkpt lat="45.05288" lon="5.51444">
        <ele>1173</ele>
        <time>2000-01-01T11:07:39.000Z</time>
      </trkpt>
      <trkpt lat="45.05298" lon="5.51448">
        <ele>1173</ele>
        <time>2000-01-01T11:07:49.000Z</time>
      </trkpt>
      <trkpt lat="45.05303" lon="5.51458">
        <ele>1171</ele>
        <time>2000-01-01T11:07:59.000Z</time>
      </trkpt>
      <trkpt lat="45.05309" lon="5.51486">
        <ele>1168</ele>
        <time>2000-01-01T11:08:09.000Z</time>
      </trkpt>
      <trkpt lat="45.05316" lon="5.51507">
        <ele>1165</ele>
        <time>2000-01-01T11:08:19.000Z</time>
      </trkpt>
      <trkpt lat="45.05333" lon="5.51532">
        <ele>1161</ele>
        <time>2000-01-01T11:08:29.000Z</time>
      </trkpt>
      <trkpt lat="45.05344" lon="5.51534">
        <ele>1160</ele>
        <time>2000-01-01T11:08:39.000Z</time>
      </trkpt>
      <trkpt lat="45.05357" lon="5.5153">
        <ele>1160</ele>
        <time>2000-01-01T11:08:49.000Z</time>
      </trkpt>
      <trkpt lat="45.05378" lon="5.51516">
        <ele>1158</ele>
        <time>2000-01-01T11:08:59.000Z</time>
      </trkpt>
      <trkpt lat="45.05387" lon="5.51507">
        <ele>1158</ele>
        <time>2000-01-01T11:09:09.000Z</time>
      </trkpt>
      <trkpt lat="45.05394" lon="5.51508">
        <ele>1158</ele>
        <time>2000-01-01T11:09:19.000Z</time>
      </trkpt>
      <trkpt lat="45.05385" lon="5.51534">
        <ele>1156</ele>
        <time>2000-01-01T11:09:29.000Z</time>
      </trkpt>
      <trkpt lat="45.0538" lon="5.51555">
        <ele>1156</ele>
        <time>2000-01-01T11:09:39.000Z</time>
      </trkpt>
      <trkpt lat="45.05373" lon="5.51577">
        <ele>1154</ele>
        <time>2000-01-01T11:09:49.000Z</time>
      </trkpt>
      <trkpt lat="45.05375" lon="5.51596">
        <ele>1154</ele>
        <time>2000-01-01T11:09:59.000Z</time>
      </trkpt>
      <trkpt lat="45.05381" lon="5.51595">
        <ele>1153</ele>
        <time>2000-01-01T11:10:09.000Z</time>
      </trkpt>
      <trkpt lat="45.05385" lon="5.51594">
        <ele>1152.9</ele>
        <time>2000-01-01T11:10:19.000Z</time>
      </trkpt>
      <trkpt lat="45.05395" lon="5.5159">
        <ele>1152</ele>
        <time>2000-01-01T11:10:29.000Z</time>
      </trkpt>
      <trkpt lat="45.05435" lon="5.51575">
        <ele>1149</ele>
        <time>2000-01-01T11:10:39.000Z</time>
      </trkpt>
      <trkpt lat="45.05457" lon="5.51561">
        <ele>1149</ele>
        <time>2000-01-01T11:10:49.000Z</time>
      </trkpt>
      <trkpt lat="45.05479" lon="5.51547">
        <ele>1149</ele>
        <time>2000-01-01T11:10:59.000Z</time>
      </trkpt>
      <trkpt lat="45.05513" lon="5.51579">
        <ele>1143</ele>
        <time>2000-01-01T11:11:09.000Z</time>
      </trkpt>
      <trkpt lat="45.05535" lon="5.51576">
        <ele>1140</ele>
        <time>2000-01-01T11:11:19.000Z</time>
      </trkpt>
      <trkpt lat="45.05542" lon="5.51622">
        <ele>1139</ele>
        <time>2000-01-01T11:11:29.000Z</time>
      </trkpt>
      <trkpt lat="45.05564" lon="5.51626">
        <ele>1136</ele>
        <time>2000-01-01T11:11:39.000Z</time>
      </trkpt>
      <trkpt lat="45.05589" lon="5.51632">
        <ele>1132</ele>
        <time>2000-01-01T11:11:49.000Z</time>
      </trkpt>
      <trkpt lat="45.05618" lon="5.51639">
        <ele>1126</ele>
        <time>2000-01-01T11:11:59.000Z</time>
      </trkpt>
      <trkpt lat="45.05643" lon="5.51642">
        <ele>1120</ele>
        <time>2000-01-01T11:12:09.000Z</time>
      </trkpt>
      <trkpt lat="45.05663" lon="5.51632">
        <ele>1116</ele>
        <time>2000-01-01T11:12:19.000Z</time>
      </trkpt>
      <trkpt lat="45.05703" lon="5.51636">
        <ele>1110</ele>
        <time>2000-01-01T11:12:29.000Z</time>
      </trkpt>
      <trkpt lat="45.05748" lon="5.51638">
        <ele>1106</ele>
        <time>2000-01-01T11:12:39.000Z</time>
      </trkpt>
      <trkpt lat="45.05791" lon="5.51627">
        <ele>1101</ele>
        <time>2000-01-01T11:12:49.000Z</time>
      </trkpt>
      <trkpt lat="45.05823" lon="5.51637">
        <ele>1098</ele>
        <time>2000-01-01T11:12:59.000Z</time>
      </trkpt>
      <trkpt lat="45.05849" lon="5.51655">
        <ele>1097</ele>
        <time>2000-01-01T11:13:09.000Z</time>
      </trkpt>
      <trkpt lat="45.05875" lon="5.51675">
        <ele>1096</ele>
        <time>2000-01-01T11:13:19.000Z</time>
      </trkpt>
      <trkpt lat="45.05901" lon="5.517">
        <ele>1095</ele>
        <time>2000-01-01T11:13:29.000Z</time>
      </trkpt>
      <trkpt lat="45.05917" lon="5.5173">
        <ele>1095</ele>
        <time>2000-01-01T11:13:39.000Z</time>
      </trkpt>
      <trkpt lat="45.05936" lon="5.51769">
        <ele>1096</ele>
        <time>2000-01-01T11:13:49.000Z</time>
      </trkpt>
      <trkpt lat="45.05933" lon="5.51806">
        <ele>1100</ele>
        <time>2000-01-01T11:13:59.000Z</time>
      </trkpt>
      <trkpt lat="45.05932" lon="5.51827">
        <ele>1101</ele>
        <time>2000-01-01T11:14:09.000Z</time>
      </trkpt>
      <trkpt lat="45.05919" lon="5.51866">
        <ele>1105</ele>
        <time>2000-01-01T11:14:19.000Z</time>
      </trkpt>
      <trkpt lat="45.059" lon="5.51901">
        <ele>1109</ele>
        <time>2000-01-01T11:14:29.000Z</time>
      </trkpt>
      <trkpt lat="45.05879" lon="5.5195">
        <ele>1114</ele>
        <time>2000-01-01T11:14:39.000Z</time>
      </trkpt>
      <trkpt lat="45.05869" lon="5.51981">
        <ele>1117</ele>
        <time>2000-01-01T11:14:49.000Z</time>
      </trkpt>
      <trkpt lat="45.0586" lon="5.52012">
        <ele>1119</ele>
        <time>2000-01-01T11:14:59.000Z</time>
      </trkpt>
      <trkpt lat="45.0585" lon="5.52045">
        <ele>1120</ele>
        <time>2000-01-01T11:15:09.000Z</time>
      </trkpt>
      <trkpt lat="45.05839" lon="5.52083">
        <ele>1122</ele>
        <time>2000-01-01T11:15:19.000Z</time>
      </trkpt>
      <trkpt lat="45.05834" lon="5.52118">
        <ele>1123</ele>
        <time>2000-01-01T11:15:29.000Z</time>
      </trkpt>
      <trkpt lat="45.05843" lon="5.52139">
        <ele>1124</ele>
        <time>2000-01-01T11:15:39.000Z</time>
      </trkpt>
      <trkpt lat="45.05871" lon="5.52159">
        <ele>1124</ele>
        <time>2000-01-01T11:15:49.000Z</time>
      </trkpt>
      <trkpt lat="45.05907" lon="5.52177">
        <ele>1125</ele>
        <time>2000-01-01T11:15:59.000Z</time>
      </trkpt>
      <trkpt lat="45.05942" lon="5.52198">
        <ele>1127</ele>
        <time>2000-01-01T11:16:09.000Z</time>
      </trkpt>
      <trkpt lat="45.05962" lon="5.52217">
        <ele>1128</ele>
        <time>2000-01-01T11:16:19.000Z</time>
      </trkpt>
      <trkpt lat="45.05968" lon="5.52239">
        <ele>1130</ele>
        <time>2000-01-01T11:16:29.000Z</time>
      </trkpt>
      <trkpt lat="45.05988" lon="5.52245">
        <ele>1130</ele>
        <time>2000-01-01T11:16:39.000Z</time>
      </trkpt>
      <trkpt lat="45.05997" lon="5.52252">
        <ele>1131</ele>
        <time>2000-01-01T11:16:49.000Z</time>
      </trkpt>
      <trkpt lat="45.06011" lon="5.52267">
        <ele>1131</ele>
        <time>2000-01-01T11:16:59.000Z</time>
      </trkpt>
      <trkpt lat="45.06022" lon="5.52275">
        <ele>1132</ele>
        <time>2000-01-01T11:17:09.000Z</time>
      </trkpt>
      <trkpt lat="45.06027" lon="5.52281">
        <ele>1132</ele>
        <time>2000-01-01T11:17:19.000Z</time>
      </trkpt>
      <trkpt lat="45.06031" lon="5.52287">
        <ele>1133</ele>
        <time>2000-01-01T11:17:29.000Z</time>
      </trkpt>
      <trkpt lat="45.06033" lon="5.5229">
        <ele>1132</ele>
        <time>2000-01-01T11:17:39.000Z</time>
      </trkpt>
      <trkpt lat="45.06037" lon="5.52295">
        <ele>1133.5</ele>
        <time>2000-01-01T11:17:49.000Z</time>
      </trkpt>
      <trkpt lat="45.0604" lon="5.52299">
        <ele>1133</ele>
        <time>2000-01-01T11:17:59.000Z</time>
      </trkpt>
      <trkpt lat="45.06042" lon="5.52303">
        <ele>1134.1</ele>
        <time>2000-01-01T11:18:09.000Z</time>
      </trkpt>
      <trkpt lat="45.06045" lon="5.52307">
        <ele>1133</ele>
        <time>2000-01-01T11:18:19.000Z</time>
      </trkpt>
      <trkpt lat="45.06048" lon="5.52313">
        <ele>1134.4</ele>
        <time>2000-01-01T11:18:29.000Z</time>
      </trkpt>
      <trkpt lat="45.06051" lon="5.5232">
        <ele>1133</ele>
        <time>2000-01-01T11:18:39.000Z</time>
      </trkpt>
      <trkpt lat="45.06054" lon="5.52326">
        <ele>1134.6</ele>
        <time>2000-01-01T11:18:49.000Z</time>
      </trkpt>
      <trkpt lat="45.06076" lon="5.524">
        <ele>1137</ele>
        <time>2000-01-01T11:18:59.000Z</time>
      </trkpt>
    </trkseg>
  </trk>
</gpx>